# Wetter Temperatur Luftdruck Luftfeuchtigkeit Sichtweite Windgeschwindigkeit Windrichtung Zeit
1 Clouds 33 1012 40 0 1.36 100 09:59 29.01.2020
2 Clouds 33 1012 40 0 1.36 100 09:40 29.01.2020
3 Clouds 33 1012 40 0 1.36 100 09:21 29.01.2020
4 Clouds 33 1012 40 0 1.36 100 08:56 29.01.2020
5 Clouds 33 1012 40 0 1.36 100 08:56 29.01.2020
6 Clouds 33 1012 40 0 1.36 100 08:38 29.01.2020
7 Mist 22 1013 94 3500 1.11 78 08:18 29.01.2020
8 Mist 22 1013 94 3500 1.11 78 07:43 29.01.2020
9 Clouds 24 1012 74 0 1.11 78 07:24 29.01.2020
10 Clouds 24 1012 74 0 1.11 78 06:39 29.01.2020
11 Mist 20 1012 94 2000 1.5 0 06:21 29.01.2020
12 Mist 20 1012 94 2000 1.5 0 05:59 29.01.2020
13 Mist 20 1012 94 2000 1.5 0 05:39 29.01.2020
14 Clouds 21 1010 84 0 1.02 123 05:21 29.01.2020
15 Clouds 21 1010 84 0 1.02 123 04:37 29.01.2020
16 Clouds 21 1010 84 0 1.02 123 02:43 29.01.2020
17 Clouds 22 1010 64 0 1.4 177 01:49 29.01.2020
18 Clouds 23 1010 66 0 1.62 172 00:42 29.01.2020
19 Clouds 23 1010 66 0 1.62 172 00:23 29.01.2020
20 Clouds 23 1010 66 0 1.62 172 23:45 28.01.2020
21 Clouds 24 1013 78 6000 2.1 120 23:21 28.01.2020
22 Clouds 24 1013 78 6000 2.1 120 22:58 28.01.2020
23 Clouds 24 1013 78 6000 2.1 120 22:40 28.01.2020
24 Clouds 24 1011 47 0 1.56 183 22:21 28.01.2020
25 Clouds 24 1011 47 0 1.56 183 21:42 28.01.2020
26 Clouds 24 1011 47 0 1.56 183 21:22 28.01.2020
27 Clouds 24 1011 47 0 1.56 183 20:57 28.01.2020
28 Clouds 24 1011 47 0 1.56 183 20:39 28.01.2020
29 Clouds 24 1011 47 0 1.56 183 20:39 28.01.2020
30 Clouds 27 1008 38 0 1.02 357 20:21 28.01.2020
31 Clouds 27 1008 46 0 0.65 122 19:39 28.01.2020
32 Clouds 30 1011 55 6000 4.1 210 19:20 28.01.2020
33 Clouds 30 1011 55 6000 4.1 210 18:58 28.01.2020
34 Clouds 30 1011 55 6000 4.1 210 18:39 28.01.2020
35 Clouds 32 1010 49 6000 3.1 210 18:21 28.01.2020
36 Clouds 32 1010 49 6000 3.1 210 17:57 28.01.2020
37 Clouds 32 1010 49 6000 3.1 210 17:37 28.01.2020
38 Clouds 32 1010 49 6000 4.1 120 17:19 28.01.2020
39 Clouds 32 1010 49 6000 4.1 120 17:19 28.01.2020
40 Clouds 32 1010 49 6000 4.1 120 17:19 28.01.2020
41 Clouds 32 1010 49 6000 4.1 120 16:46 28.01.2020
42 Clouds 33 1010 24 7000 3.1 120 16:27 28.01.2020
43 Clouds 33 1010 24 7000 3.1 120 15:59 28.01.2020
44 Clouds 33 1010 24 7000 3.1 120 15:41 28.01.2020
45 Clouds 33 1011 38 6000 2.1 180 15:18 28.01.2020
46 Clouds 33 1011 38 6000 2.1 180 14:45 28.01.2020
47 Clouds 31 1011 55 6000 4.1 270 14:20 28.01.2020
48 Clouds 31 1011 55 6000 4.1 270 13:57 28.01.2020
49 Clouds 31 1011 55 6000 4.1 270 13:38 28.01.2020
50 Clouds 39 1007 20 0 1.02 351 13:19 28.01.2020
51 Clouds 39 1007 20 0 1.02 351 12:42 28.01.2020
52 Clouds 39 1007 20 0 1.02 351 12:42 28.01.2020
53 Clouds 31 1013 58 6000 3.1 130 12:22 28.01.2020
54 Clouds 31 1013 58 6000 3.1 130 11:48 28.01.2020
55 Clouds 39 1007 20 0 1.02 351 11:23 28.01.2020
56 Clouds 36 1012 29 0 0.78 198 10:58 28.01.2020
57 Clouds 36 1012 29 0 0.78 198 10:39 28.01.2020
58 Clouds 36 1012 29 0 0.78 198 10:20 28.01.2020
59 Clouds 36 1012 29 0 0.78 198 09:43 28.01.2020
60 Clouds 36 1012 29 0 0.78 198 09:21 28.01.2020
61 Clouds 36 1012 29 0 0.78 198 08:57 28.01.2020
62 Clouds 36 1012 29 0 0.78 198 08:39 28.01.2020
63 Clouds 24 1012 60 0 0.79 141 08:18 28.01.2020
64 Clouds 24 1012 60 0 0.79 141 07:37 28.01.2020
65 Mist 21 1013 88 4000 0.79 141 06:49 28.01.2020
66 Clouds 24 1012 60 0 0.79 141 06:26 28.01.2020
67 Clouds 24 1012 60 0 0.79 141 05:54 28.01.2020
68 Clouds 24 1012 60 0 0.79 141 05:26 28.01.2020
69 Clouds 21 1010 64 0 0.91 191 03:59 28.01.2020
70 Clouds 21 1010 64 0 0.91 191 02:58 28.01.2020
71 Clouds 21 1010 64 0 0.91 191 02:25 28.01.2020
72 Clouds 22 1009 57 0 0.87 121 01:57 28.01.2020
73 Clouds 22 1009 55 0 0.87 91 01:24 28.01.2020
74 Clouds 22 1009 55 0 0.87 91 00:48 28.01.2020
75 Clouds 22 1009 55 0 0.87 91 00:28 28.01.2020
76 Clouds 22 1009 55 0 0.87 91 23:49 27.01.2020
77 Clouds 22 1009 55 0 0.87 91 23:29 27.01.2020
78 Clouds 28 1010 36 0 1.76 189 22:55 27.01.2020
79 Clouds 28 1010 36 0 1.76 189 22:36 27.01.2020
80 Clouds 28 1010 36 0 1.76 189 22:18 27.01.2020
81 Clouds 28 1010 36 0 1.76 189 21:54 27.01.2020
82 Clouds 28 1010 36 0 1.76 189 21:36 27.01.2020
83 Clouds 28 1010 36 0 1.76 189 21:18 27.01.2020
84 Clouds 28 1010 36 0 1.76 189 20:42 27.01.2020
85 Clear 27 1008 35 0 0.87 211 20:21 27.01.2020
86 Clear 27 1008 35 0 0.87 211 19:59 27.01.2020
87 Clear 27 1008 35 0 0.87 211 19:40 27.01.2020
88 Clear 27 1008 35 0 0.87 211 19:21 27.01.2020
89 Clear 27 1008 35 0 0.87 211 18:56 27.01.2020
90 Clear 27 1008 35 0 0.87 211 18:37 27.01.2020
91 Clear 27 1008 35 0 0.87 211 18:37 27.01.2020
92 Clear 31 1010 35 6000 1.5 0 18:19 27.01.2020
93 Clear 31 1010 35 6000 1.5 0 17:39 27.01.2020
94 Clear 35 1005 20 0 1.22 20 17:20 27.01.2020
95 Clear 35 1005 20 0 1.22 20 16:58 27.01.2020
96 Clear 35 1005 20 0 1.22 20 16:40 27.01.2020
97 Clear 34 1012 26 7000 2.1 30 16:22 27.01.2020
98 Clear 34 1012 26 7000 2.1 30 16:22 27.01.2020
99 Clear 34 1012 26 7000 2.1 30 15:55 27.01.2020
100 Clear 34 1012 26 7000 2.1 30 15:36 27.01.2020
101 Clear 35 1005 20 0 1.22 20 15:18 27.01.2020
102 Clear 35 1005 20 0 1.22 20 14:41 27.01.2020
103 Clear 34 1011 26 7000 3.1 360 14:22 27.01.2020
104 Clouds 34 1011 26 7000 3.1 360 13:55 27.01.2020
105 Clouds 34 1011 26 7000 3.1 360 13:37 27.01.2020
106 Clouds 34 1013 26 6000 3.1 360 13:18 27.01.2020
107 Clouds 34 1013 26 6000 3.1 360 12:43 27.01.2020
108 Clouds 32 1014 38 6000 2.1 20 12:23 27.01.2020
109 Clouds 32 1014 38 6000 2.1 20 11:55 27.01.2020
110 Clouds 32 1014 38 6000 2.1 20 11:36 27.01.2020
111 Clouds 32 1014 40 6000 3.1 150 11:18 27.01.2020
112 Clouds 33 1012 23 0 1.62 49 10:42 27.01.2020
113 Clouds 33 1012 23 0 1.62 49 10:23 27.01.2020
114 Clouds 33 1012 23 0 1.62 49 09:40 27.01.2020
115 Clouds 22 1014 83 6000 1.62 49 09:19 27.01.2020
116 Clouds 22 1014 83 6000 1.62 49 08:58 27.01.2020
117 Clouds 22 1014 83 6000 1.62 49 08:40 27.01.2020
118 Clouds 24 1012 44 0 1.02 83 08:19 27.01.2020
119 Clouds 24 1012 44 0 1.02 83 07:50 27.01.2020
120 Clouds 24 1012 44 0 1.02 83 07:32 27.01.2020
121 Clouds 24 1012 44 0 1.02 83 06:49 27.01.2020
122 Clouds 24 1012 44 0 1.02 83 05:53 27.01.2020
123 Clouds 23 1010 38 0 0.17 329 05:18 27.01.2020
124 Clouds 23 1010 38 0 0.17 329 03:36 27.01.2020
125 Clouds 23 1011 38 0 0.81 310 01:57 27.01.2020
126 Clouds 24 1010 37 0 0.85 293 01:28 27.01.2020
127 Clouds 24 1010 37 0 0.85 293 01:28 27.01.2020
128 Clouds 24 1010 37 0 0.85 293 00:42 27.01.2020
129 Clouds 24 1010 37 0 0.85 293 00:22 27.01.2020
130 Clouds 24 1010 37 0 0.85 293 00:22 27.01.2020
131 Clouds 24 1010 37 0 0.85 293 23:58 26.01.2020
132 Clouds 24 1010 37 0 0.85 293 23:39 26.01.2020
133 Clouds 23 1011 41 0 0.78 148 23:18 26.01.2020
134 Clouds 23 1011 41 0 0.78 148 22:39 26.01.2020
135 Clouds 23 1011 41 0 0.78 148 22:20 26.01.2020
136 Clouds 23 1011 41 0 0.78 148 21:58 26.01.2020
137 Clouds 23 1011 41 0 0.78 148 21:40 26.01.2020
138 Haze 27 1013 51 5000 0.78 148 21:21 26.01.2020
139 Haze 27 1013 51 5000 0.78 148 20:58 26.01.2020
140 Haze 27 1013 51 5000 0.78 148 20:39 26.01.2020
141 Clouds 25 1008 38 0 0.55 226 20:20 26.01.2020
142 Clouds 25 1008 38 0 0.55 226 19:59 26.01.2020
143 Clouds 25 1008 38 0 0.55 226 19:39 26.01.2020
144 Clouds 27 1011 51 6000 2.1 50 19:21 26.01.2020
145 Clouds 27 1011 51 6000 2.1 50 18:58 26.01.2020
146 Clouds 27 1011 51 6000 2.1 50 18:39 26.01.2020
147 Clouds 27 1011 51 6000 2.1 50 18:39 26.01.2020
148 Clouds 28 1011 45 6000 2.1 50 18:21 26.01.2020
149 Clouds 28 1011 45 6000 2.1 50 17:55 26.01.2020
150 Clouds 28 1011 45 6000 2.1 50 17:37 26.01.2020
151 Clouds 30 1011 40 6000 2.1 30 17:18 26.01.2020
152 Clouds 30 1011 40 6000 2.1 30 16:56 26.01.2020
153 Clouds 30 1011 40 6000 2.1 30 16:38 26.01.2020
154 Clouds 31 1011 33 6000 3.1 50 16:19 26.01.2020
155 Clouds 31 1011 33 6000 3.1 50 16:19 26.01.2020
156 Clouds 31 1011 33 6000 3.1 50 15:43 26.01.2020
157 Clouds 35 1006 21 0 0.75 353 15:22 26.01.2020
158 Clouds 35 1006 21 0 0.75 353 14:58 26.01.2020
159 Clouds 35 1006 21 0 0.75 353 14:38 26.01.2020
160 Clouds 31 1012 48 6000 3.1 360 14:19 26.01.2020
161 Clouds 31 1012 48 6000 3.1 360 13:40 26.01.2020
162 Clouds 36 1008 17 0 1.63 45 13:20 26.01.2020
163 Clouds 36 1008 17 0 1.63 45 12:56 26.01.2020
164 Clouds 36 1008 17 0 1.63 45 12:37 26.01.2020
165 Clouds 36 1008 17 0 1.63 45 12:19 26.01.2020
166 Clouds 36 1008 17 0 1.63 45 11:57 26.01.2020
167 Clouds 36 1008 17 0 1.63 45 11:37 26.01.2020
168 Clouds 31 1012 26 0 1.97 51 11:18 26.01.2020
169 Clouds 31 1012 26 0 1.97 51 10:55 26.01.2020
170 Clouds 31 1012 26 0 1.97 51 10:37 26.01.2020
171 Clouds 31 1012 26 0 1.97 51 10:19 26.01.2020
172 Clouds 31 1012 26 0 1.97 51 10:19 26.01.2020
173 Clouds 31 1012 26 0 1.97 51 09:42 26.01.2020
174 Clouds 31 1012 26 0 1.97 51 09:23 26.01.2020
175 Clouds 31 1012 26 0 1.97 51 08:59 26.01.2020
176 Clouds 31 1012 26 0 1.97 51 08:41 26.01.2020
177 Clouds 23 1014 47 0 0.86 35 08:21 26.01.2020
178 Clouds 23 1013 48 0 1.16 37 07:50 26.01.2020
179 Mist 16 1014 93 1500 1.16 37 07:26 26.01.2020
180 Clouds 23 1013 48 0 1.16 37 06:51 26.01.2020
181 Clouds 23 1013 48 0 1.16 37 06:23 26.01.2020
182 Clouds 23 1013 48 0 1.16 37 05:28 26.01.2020
183 Clouds 20 1011 50 0 0.4 352 03:31 26.01.2020
184 Clouds 20 1011 50 0 0.4 352 02:38 26.01.2020
185 Clouds 22 1010 44 0 0.39 309 01:45 26.01.2020
186 Clouds 22 1010 44 0 0.13 201 01:22 26.01.2020
187 Clouds 22 1010 44 0 0.13 201 00:42 26.01.2020
188 Clouds 22 1010 44 0 0.13 201 00:23 26.01.2020
189 Clouds 22 1010 44 0 0.13 201 23:39 25.01.2020
190 Clouds 23 1011 42 0 0.56 183 23:20 25.01.2020
191 Clouds 23 1011 42 0 0.56 183 22:56 25.01.2020
192 Clouds 23 1011 42 0 0.56 183 22:36 25.01.2020
193 Clouds 23 1011 42 0 0.56 183 22:18 25.01.2020
194 Clouds 23 1011 42 0 0.56 183 22:18 25.01.2020
195 Clouds 23 1011 42 0 0.56 183 21:41 25.01.2020
196 Clouds 23 1011 42 0 0.56 183 21:23 25.01.2020
197 Clouds 23 1011 42 0 0.56 183 20:56 25.01.2020
198 Clouds 23 1011 42 0 0.56 183 20:38 25.01.2020
199 Clouds 25 1009 39 0 0.43 96 20:20 25.01.2020
200 Clouds 25 1009 39 0 0.43 96 19:44 25.01.2020
201 Clouds 25 1009 39 0 0.43 96 19:20 25.01.2020
202 Clouds 25 1009 39 0 0.43 96 18:57 25.01.2020
203 Clouds 25 1009 39 0 0.43 96 18:39 25.01.2020
204 Clouds 25 1009 39 0 0.43 96 18:20 25.01.2020
205 Clouds 25 1009 39 0 0.43 96 17:42 25.01.2020
206 Clouds 34 1007 20 0 0.77 330 17:23 25.01.2020
207 Clouds 34 1007 20 0 0.77 330 16:58 25.01.2020
208 Clouds 34 1007 20 0 0.77 330 16:39 25.01.2020
209 Clouds 34 1007 20 0 0.77 330 16:19 25.01.2020
210 Clouds 34 1007 20 0 0.77 330 15:47 25.01.2020
211 Clouds 34 1007 20 0 0.77 330 15:25 25.01.2020
212 Clouds 34 1007 20 0 0.77 330 14:59 25.01.2020
213 Clouds 34 1007 20 0 0.77 330 14:40 25.01.2020
214 Clouds 36 1008 18 0 1.23 39 14:18 25.01.2020
215 Clouds 36 1008 18 0 1.23 39 13:42 25.01.2020
216 Clouds 36 1008 18 0 1.23 39 13:42 25.01.2020
217 Clouds 36 1008 17 0 1.46 22 13:23 25.01.2020
218 Clouds 36 1008 17 0 1.46 22 12:45 25.01.2020
219 Clouds 30 1014 27 6000 4.1 20 12:26 25.01.2020
220 Clouds 30 1014 27 6000 4.1 20 11:45 25.01.2020
221 Clouds 28 1015 32 6000 5.1 40 11:22 25.01.2020
222 Clouds 28 1015 32 6000 5.1 40 10:59 25.01.2020
223 Clouds 28 1015 32 6000 5.1 40 10:40 25.01.2020
224 Clouds 31 1013 24 0 1.89 52 10:20 25.01.2020
225 Clouds 31 1013 24 0 1.89 52 09:54 25.01.2020
226 Clouds 31 1013 24 0 1.89 52 09:36 25.01.2020
227 Clouds 31 1013 24 0 1.89 52 09:18 25.01.2020
228 Clouds 31 1013 24 0 1.89 52 08:42 25.01.2020
229 Mist 17 1015 93 3000 1.05 38 07:50 25.01.2020
230 Clouds 22 1014 49 0 1.05 38 06:54 25.01.2020
231 Mist 20 1013 88 2000 1.05 38 06:29 25.01.2020
232 Mist 20 1013 88 2000 1.05 38 05:48 25.01.2020
233 Clouds 22 1014 49 0 1.05 38 05:23 25.01.2020
234 Clouds 21 1011 47 0 0.38 88 03:53 25.01.2020
235 Clouds 21 1011 47 0 0.38 88 03:22 25.01.2020
236 Clouds 22 1010 41 0 0.23 303 02:22 25.01.2020
237 Clouds 22 1010 41 0 0.23 303 01:53 25.01.2020
238 Clouds 22 1010 41 0 0.27 263 00:44 25.01.2020
239 Clouds 22 1010 41 0 0.27 263 00:26 25.01.2020
240 Clouds 22 1010 41 0 0.27 263 23:59 24.01.2020
241 Clouds 22 1010 41 0 0.27 263 23:59 24.01.2020
242 Clouds 22 1010 41 0 0.27 263 23:40 24.01.2020
243 Clouds 22 1010 41 0 0.27 263 23:22 24.01.2020
244 Clouds 23 1011 39 0 0.33 256 22:45 24.01.2020
245 Clouds 23 1011 39 0 0.33 256 22:25 24.01.2020
246 Clouds 23 1011 39 0 0.33 256 21:56 24.01.2020
247 Clouds 23 1011 39 0 0.33 256 21:37 24.01.2020
248 Clouds 23 1011 39 0 0.33 256 21:18 24.01.2020
249 Clouds 23 1011 39 0 0.33 256 20:42 24.01.2020
250 Clouds 24 1009 38 0 0.56 322 20:21 24.01.2020
251 Clouds 24 1009 38 0 0.56 322 19:57 24.01.2020
252 Clouds 24 1009 38 0 0.56 322 19:39 24.01.2020
253 Clouds 24 1009 38 0 0.56 322 19:21 24.01.2020
254 Clouds 24 1009 38 0 0.56 322 18:43 24.01.2020
255 Clouds 29 1010 39 6000 2.1 30 18:24 24.01.2020
256 Clouds 29 1010 39 6000 2.1 30 17:56 24.01.2020
257 Clouds 29 1010 39 6000 2.1 30 17:38 24.01.2020
258 Clouds 30 1010 37 7000 2.1 50 17:18 24.01.2020
259 Clouds 30 1010 37 7000 2.1 50 16:39 24.01.2020
260 Clouds 31 1010 45 7000 2.1 360 16:21 24.01.2020
261 Clouds 31 1010 45 7000 2.1 360 15:43 24.01.2020
262 Clouds 34 1007 25 0 1.07 349 15:23 24.01.2020
263 Clouds 34 1007 25 0 1.07 349 14:59 24.01.2020
264 Clouds 34 1007 25 0 1.07 349 14:40 24.01.2020
265 Clouds 31 1012 45 7000 3.1 90 14:22 24.01.2020
266 Clouds 36 1008 17 0 1.55 25 13:43 24.01.2020
267 Clouds 36 1008 17 0 1.55 25 13:23 24.01.2020
268 Clouds 35 1008 17 0 1.7 25 12:45 24.01.2020
269 Clouds 35 1008 17 0 1.7 25 12:45 24.01.2020
270 Clouds 35 1008 17 0 1.7 25 12:23 24.01.2020
271 Clouds 35 1008 17 0 1.7 25 11:57 24.01.2020
272 Clouds 35 1008 17 0 1.7 25 11:39 24.01.2020
273 Clouds 30 1013 26 0 2.22 41 11:18 24.01.2020
274 Clouds 30 1013 26 0 2.22 41 10:42 24.01.2020
275 Clouds 30 1013 26 0 2.22 41 10:42 24.01.2020
276 Clouds 30 1013 26 0 2.22 41 10:21 24.01.2020
277 Clouds 30 1013 26 0 2.22 41 09:55 24.01.2020
278 Clouds 30 1013 26 0 2.22 41 09:37 24.01.2020
279 Clouds 30 1013 26 0 2.22 41 09:18 24.01.2020
280 Clouds 30 1013 26 0 2.22 41 09:18 24.01.2020
281 Clouds 30 1013 26 0 2.22 41 08:39 24.01.2020
282 Clouds 21 1013 50 0 1.77 47 08:19 24.01.2020
283 Clouds 21 1013 50 0 1.77 47 07:49 24.01.2020
284 Mist 15 1013 93 2000 1.77 47 07:24 24.01.2020
285 Mist 15 1013 93 2000 1.77 47 06:45 24.01.2020
286 Clouds 21 1013 50 0 1.77 47 06:24 24.01.2020
287 Clouds 21 1013 50 0 1.77 47 05:43 24.01.2020
288 Clouds 19 1010 52 0 0.8 69 03:55 24.01.2020
289 Clouds 19 1010 52 0 0.8 69 02:43 24.01.2020
290 Clouds 21 1010 43 0 0.3 29 02:23 24.01.2020
291 Clouds 21 1010 43 0 0.3 29 01:39 24.01.2020
292 Clouds 21 1010 44 0 0.41 57 00:54 24.01.2020
293 Clouds 21 1010 44 0 0.41 57 00:19 24.01.2020
294 Clouds 21 1010 44 0 0.41 57 23:45 23.01.2020
295 Clouds 21 1010 44 0 0.41 57 23:27 23.01.2020
296 Clouds 24 1011 37 0 0.94 175 22:59 23.01.2020
297 Clouds 24 1011 37 0 0.94 175 22:37 23.01.2020
298 Clouds 24 1011 37 0 0.94 175 22:19 23.01.2020
299 Clouds 24 1011 37 0 0.94 175 21:56 23.01.2020
300 Clouds 24 1011 37 0 0.94 175 21:38 23.01.2020
301 Clouds 24 1011 37 0 0.94 175 21:19 23.01.2020
302 Clouds 24 1011 37 0 0.94 175 20:57 23.01.2020
303 Clouds 24 1011 37 0 0.94 175 20:38 23.01.2020
304 Clouds 25 1009 37 0 0.51 332 20:19 23.01.2020
305 Clouds 25 1009 37 0 0.51 332 19:44 23.01.2020
306 Clouds 25 1009 37 0 0.51 332 19:44 23.01.2020
307 Thunderstorm 25 1012 83 8000 3.1 350 19:24 23.01.2020
308 Thunderstorm 25 1012 83 8000 3.1 350 18:59 23.01.2020
309 Thunderstorm 25 1012 83 8000 3.1 350 18:40 23.01.2020
310 Clouds 25 1009 37 0 0.51 332 18:20 23.01.2020
311 Clouds 25 1009 37 0 0.51 332 17:58 23.01.2020
312 Clouds 25 1009 37 0 0.51 332 17:39 23.01.2020
313 Clouds 34 1006 27 0 0.97 4 17:19 23.01.2020
314 Clouds 34 1006 27 0 0.97 4 16:55 23.01.2020
315 Clouds 31 1010 40 7000 3.1 40 16:36 23.01.2020
316 Clouds 31 1010 40 7000 3.1 40 16:18 23.01.2020
317 Clouds 31 1010 40 7000 3.1 40 15:54 23.01.2020
318 Clouds 31 1010 40 7000 3.1 40 15:36 23.01.2020
319 Clouds 32 1010 43 7000 4.1 80 15:18 23.01.2020
320 Clouds 32 1010 43 7000 4.1 80 14:54 23.01.2020
321 Clouds 32 1010 43 7000 4.1 80 14:36 23.01.2020
322 Clouds 32 1011 40 7000 4.1 90 14:18 23.01.2020
323 Clouds 32 1011 40 7000 4.1 90 13:38 23.01.2020
324 Clouds 31 1012 43 7000 2.1 360 13:19 23.01.2020
325 Clouds 31 1012 43 7000 2.1 360 12:47 23.01.2020
326 Clouds 36 1008 19 0 1.37 15 12:25 23.01.2020
327 Clouds 35 1008 19 0 1.44 15 12:25 23.01.2020
328 Clouds 35 1008 19 0 1.44 15 11:58 23.01.2020
329 Clouds 35 1008 19 0 1.44 15 11:38 23.01.2020
330 Clouds 29 1014 51 7000 3.1 360 11:19 23.01.2020
331 Clouds 29 1014 51 7000 3.1 360 10:44 23.01.2020
332 Clouds 32 1012 28 0 1.54 46 10:22 23.01.2020
333 Clouds 31 1012 26 0 1.56 39 09:59 23.01.2020
334 Clouds 31 1012 26 0 1.56 39 09:37 23.01.2020
335 Clouds 22 1014 88 5000 1.56 39 09:19 23.01.2020
336 Clouds 22 1014 88 5000 1.56 39 08:41 23.01.2020
337 Clouds 23 1013 58 0 0.91 57 08:22 23.01.2020
338 Clouds 23 1013 58 0 0.91 57 07:45 23.01.2020
339 Clouds 23 1013 58 0 0.91 57 07:26 23.01.2020
340 Clouds 23 1013 58 0 0.91 57 06:53 23.01.2020
341 Clouds 23 1013 58 0 0.91 57 06:23 23.01.2020
342 Clouds 23 1013 58 0 0.91 57 05:57 23.01.2020
343 Clouds 20 1009 63 0 0.5 354 04:24 23.01.2020
344 Clouds 20 1009 63 0 0.5 354 02:34 23.01.2020
345 Clouds 22 1009 55 0 0.86 16 01:41 23.01.2020
346 Clouds 22 1009 53 0 0.67 39 00:28 23.01.2020
347 Clouds 22 1009 53 0 0.67 39 23:48 22.01.2020
348 Clouds 22 1009 53 0 0.67 39 23:30 22.01.2020
349 Clouds 24 1010 47 0 0.93 147 22:59 22.01.2020
350 Clouds 24 1010 47 0 0.93 147 22:41 22.01.2020
351 Clouds 24 1010 47 0 0.93 147 22:41 22.01.2020
352 Haze 24 1012 64 5000 0.93 147 22:22 22.01.2020
353 Haze 24 1012 64 5000 0.93 147 21:40 22.01.2020
354 Haze 25 1012 61 5000 2.1 0 21:22 22.01.2020
355 Haze 25 1012 61 5000 2.1 0 20:58 22.01.2020
356 Haze 25 1012 61 5000 2.1 0 20:39 22.01.2020
357 Clouds 26 1009 42 0 0.71 151 20:21 22.01.2020
358 Clouds 25 1008 44 0 0.48 133 19:57 22.01.2020
359 Clouds 25 1008 44 0 0.48 133 19:38 22.01.2020
360 Clouds 25 1008 44 0 0.48 133 19:18 22.01.2020
361 Clouds 25 1008 44 0 0.48 133 18:56 22.01.2020
362 Clouds 25 1008 44 0 0.48 133 18:38 22.01.2020
363 Clear 29 1010 45 6000 3.1 30 18:19 22.01.2020
364 Clouds 25 1008 44 0 0.48 133 17:54 22.01.2020
365 Clouds 25 1008 44 0 0.48 133 17:36 22.01.2020
366 Clouds 31 1009 40 6000 3.1 300 17:18 22.01.2020
367 Clouds 31 1009 40 6000 3.1 300 17:18 22.01.2020
368 Clouds 33 1005 31 0 0.48 352 16:43 22.01.2020
369 Clouds 33 1005 31 0 0.48 352 16:22 22.01.2020
370 Clouds 33 1005 31 0 0.48 352 15:58 22.01.2020
371 Clouds 33 1005 31 0 0.48 352 15:39 22.01.2020
372 Clouds 32 1010 35 7000 3.1 20 15:21 22.01.2020
373 Clouds 32 1010 35 7000 3.1 20 15:21 22.01.2020
374 Clouds 32 1010 35 7000 3.1 20 14:54 22.01.2020
375 Clouds 32 1010 35 7000 3.1 20 14:36 22.01.2020
376 Clouds 32 1010 35 7000 3.1 20 14:36 22.01.2020
377 Clouds 35 1007 23 0 1.25 17 14:18 22.01.2020
378 Clouds 35 1007 23 0 1.25 17 13:54 22.01.2020
379 Clouds 35 1007 23 0 1.25 17 13:36 22.01.2020
380 Clouds 35 1007 23 0 1.25 5 13:18 22.01.2020
381 Clouds 35 1007 23 0 1.25 5 12:54 22.01.2020
382 Clouds 35 1007 23 0 1.25 5 12:36 22.01.2020
383 Clouds 31 1013 45 6000 3.1 360 12:18 22.01.2020
384 Clouds 31 1013 45 6000 3.1 360 11:54 22.01.2020
385 Clouds 31 1013 45 6000 3.1 360 11:36 22.01.2020
386 Clouds 29 1014 51 6000 3.1 330 11:18 22.01.2020
387 Clouds 29 1014 51 6000 3.1 330 10:41 22.01.2020
388 Clouds 31 1011 33 0 2.13 34 10:19 22.01.2020
389 Clouds 31 1011 33 0 2.13 34 09:42 22.01.2020
390 Clouds 31 1011 33 0 2.13 34 09:24 22.01.2020
391 Clouds 31 1011 33 0 2.13 34 08:57 22.01.2020
392 Clouds 31 1011 33 0 2.13 34 08:39 22.01.2020
393 Clouds 23 1012 61 0 0.37 329 08:20 22.01.2020
394 Clouds 23 1012 61 0 0.37 329 07:47 22.01.2020
395 Clouds 23 1012 61 0 0.37 329 07:29 22.01.2020
396 Clouds 23 1012 61 0 0.37 329 06:46 22.01.2020
397 Clouds 23 1012 61 0 0.37 329 06:26 22.01.2020
398 Clouds 23 1012 61 0 0.37 329 05:26 22.01.2020
399 Clouds 20 1009 62 0 0.93 63 03:30 22.01.2020
400 Clouds 20 1009 62 0 0.93 63 02:57 22.01.2020
401 Clouds 21 1009 57 0 0.7 293 01:42 22.01.2020
402 Clouds 21 1009 55 0 0.57 315 00:44 22.01.2020
403 Clouds 21 1009 55 0 0.57 315 00:26 22.01.2020
404 Clouds 21 1009 55 0 0.57 315 23:38 21.01.2020
405 Clouds 23 1010 51 0 0.68 163 23:20 21.01.2020
406 Clouds 23 1010 51 0 0.68 163 22:55 21.01.2020
407 Clouds 23 1010 51 0 0.68 163 22:55 21.01.2020
408 Clouds 23 1010 51 0 0.68 163 22:36 21.01.2020
409 Clouds 23 1010 51 0 0.68 163 22:18 21.01.2020
410 Clouds 23 1010 51 0 0.68 163 21:55 21.01.2020
411 Clouds 23 1010 51 0 0.68 163 21:37 21.01.2020
412 Clouds 23 1010 51 0 0.68 163 21:18 21.01.2020
413 Clouds 23 1010 51 0 0.68 163 20:55 21.01.2020
414 Clouds 23 1010 51 0 0.68 163 20:36 21.01.2020
415 Clouds 26 1007 43 0 1.12 220 20:18 21.01.2020
416 Clouds 26 1007 43 0 1.12 220 19:55 21.01.2020
417 Clouds 26 1007 43 0 1.12 220 19:36 21.01.2020
418 Clouds 26 1007 43 0 1.12 220 19:18 21.01.2020
419 Clouds 26 1007 43 0 1.12 220 18:54 21.01.2020
420 Clouds 26 1007 43 0 1.12 220 18:36 21.01.2020
421 Clouds 26 1007 43 0 1.12 220 18:18 21.01.2020
422 Clouds 26 1007 43 0 1.12 220 17:42 21.01.2020
423 Clouds 31 1009 62 6000 3.1 360 17:18 21.01.2020
424 Clouds 31 1009 62 6000 3.1 360 17:18 21.01.2020
425 Clouds 31 1009 62 6000 3.1 360 16:55 21.01.2020
426 Clouds 31 1009 62 6000 3.1 360 16:36 21.01.2020
427 Clouds 32 1009 55 6000 2.1 240 16:18 21.01.2020
428 Clouds 32 1009 55 6000 2.1 240 15:39 21.01.2020
429 Clouds 34 1004 28 0 1.35 347 15:19 21.01.2020
430 Clouds 34 1004 28 0 1.35 347 14:40 21.01.2020
431 Clouds 32 1010 52 6000 3.1 90 14:22 21.01.2020
432 Clouds 32 1010 52 6000 3.1 90 13:58 21.01.2020
433 Clouds 32 1010 52 6000 3.1 90 13:38 21.01.2020
434 Clouds 35 1007 23 0 1.86 39 13:18 21.01.2020
435 Clouds 35 1007 23 0 1.86 39 12:42 21.01.2020
436 Clouds 31 1012 38 7000 2.1 360 12:24 21.01.2020
437 Clouds 35 1007 23 0 1.86 39 11:56 21.01.2020
438 Clouds 35 1007 23 0 1.86 39 11:38 21.01.2020
439 Clouds 31 1011 31 0 2.17 42 11:19 21.01.2020
440 Clouds 31 1011 31 0 2.17 42 10:43 21.01.2020
441 Clouds 31 1011 31 0 2.17 42 10:23 21.01.2020
442 Clouds 31 1011 31 0 2.17 42 09:56 21.01.2020
443 Clouds 31 1011 31 0 2.17 42 09:56 21.01.2020
444 Clouds 31 1011 31 0 2.17 42 09:38 21.01.2020
445 Clouds 31 1011 31 0 2.17 42 09:20 21.01.2020
446 Clouds 31 1011 31 0 2.17 42 08:44 21.01.2020
447 Clouds 30 1011 31 0 2.01 38 08:26 21.01.2020
448 Clouds 23 1013 61 0 1.12 63 07:43 21.01.2020
449 Clouds 23 1013 61 0 1.12 63 07:24 21.01.2020
450 Clouds 23 1013 61 0 1.12 63 06:57 21.01.2020
451 Clouds 23 1013 61 0 1.12 63 06:38 21.01.2020
452 Clouds 23 1013 61 0 1.12 63 05:55 21.01.2020
453 Clouds 23 1013 61 0 1.12 63 05:55 21.01.2020
454 Clouds 23 1013 61 0 1.12 63 05:32 21.01.2020
455 Clouds 20 1010 80 0 0.17 85 04:38 21.01.2020
456 Clouds 20 1010 80 0 0.17 85 02:27 21.01.2020
457 Clouds 22 1009 76 0 0.45 359 01:36 21.01.2020
458 Clouds 22 1009 74 0 0.51 29 00:51 21.01.2020
459 Clouds 22 1009 74 0 0.51 29 00:28 21.01.2020
460 Clouds 22 1009 74 0 0.51 29 23:56 20.01.2020
461 Clouds 22 1009 74 0 0.51 29 23:36 20.01.2020
462 Clouds 24 1010 65 0 0.37 114 23:18 20.01.2020
463 Clouds 24 1010 65 0 0.37 114 22:40 20.01.2020
464 Clouds 24 1010 65 0 0.37 114 22:21 20.01.2020
465 Clouds 24 1010 65 0 0.37 114 21:58 20.01.2020
466 Clouds 24 1010 65 0 0.37 114 21:38 20.01.2020
467 Clouds 24 1010 65 0 0.37 114 21:20 20.01.2020
468 Clouds 24 1010 65 0 0.37 114 20:59 20.01.2020
469 Clouds 24 1010 65 0 0.37 114 20:41 20.01.2020
470 Clouds 26 1008 59 0 0.47 236 20:20 20.01.2020
471 Clouds 26 1008 59 0 0.47 236 19:58 20.01.2020
472 Clouds 26 1008 59 0 0.47 236 19:40 20.01.2020
473 Clouds 26 1008 59 0 0.47 236 19:19 20.01.2020
474 Clouds 26 1008 59 0 0.47 236 18:55 20.01.2020
475 Clouds 26 1008 59 0 0.47 236 18:37 20.01.2020
476 Clouds 28 1010 74 6000 3.1 330 18:19 20.01.2020
477 Clouds 28 1010 74 6000 3.1 330 17:38 20.01.2020
478 Clouds 33 1005 40 0 0.83 5 17:19 20.01.2020
479 Clouds 33 1005 40 0 0.83 5 16:46 20.01.2020
480 Clouds 33 1005 40 0 0.83 5 16:26 20.01.2020
481 Clouds 33 1005 40 0 0.83 5 15:59 20.01.2020
482 Clouds 33 1005 40 0 0.83 5 15:40 20.01.2020
483 Clouds 33 1005 40 0 0.83 5 15:22 20.01.2020
484 Clouds 33 1005 40 0 0.83 5 14:56 20.01.2020
485 Clouds 33 1005 40 0 0.83 5 14:37 20.01.2020
486 Clouds 33 1005 40 0 0.83 5 14:37 20.01.2020
487 Clouds 35 1008 34 0 2.07 27 14:19 20.01.2020
488 Clouds 35 1008 34 0 2.07 27 13:42 20.01.2020
489 Clear 35 1008 34 0 2.08 30 13:24 20.01.2020
490 Clear 35 1008 34 0 2.08 30 12:58 20.01.2020
491 Clear 35 1008 34 0 2.08 30 12:40 20.01.2020
492 Clear 35 1008 34 0 2.08 30 12:21 20.01.2020
493 Clear 35 1008 34 0 2.08 30 11:43 20.01.2020
494 Clear 35 1008 34 0 2.08 30 11:24 20.01.2020
495 Clear 33 1012 45 0 0.97 51 10:58 20.01.2020
496 Clear 33 1012 45 0 0.97 51 10:40 20.01.2020
497 Clear 33 1012 45 0 0.97 51 10:20 20.01.2020
498 Clear 33 1012 45 0 0.97 51 09:41 20.01.2020
499 Clear 33 1012 45 0 0.97 51 09:22 20.01.2020
500 Clear 33 1012 45 0 0.97 51 08:54 20.01.2020
501 Clear 33 1012 45 0 0.97 51 08:31 20.01.2020
502 Clouds 25 1013 76 0 0.99 114 07:55 20.01.2020
503 Clouds 25 1013 76 0 0.99 114 07:36 20.01.2020
504 Clouds 25 1013 76 0 0.99 114 07:18 20.01.2020
505 Clouds 25 1013 76 0 0.99 114 06:35 20.01.2020
506 Clouds 25 1013 76 0 0.99 114 05:56 20.01.2020
507 Clouds 25 1013 76 0 0.99 114 05:37 20.01.2020
508 Clouds 22 1010 89 0 0.8 157 05:18 20.01.2020
509 Clouds 22 1010 89 0 0.8 157 03:47 20.01.2020
510 Clouds 23 1010 85 0 1.51 167 01:58 20.01.2020
511 Clouds 23 1010 85 0 1.51 167 01:39 20.01.2020
512 Clouds 22 1010 87 0 1.57 166 00:46 20.01.2020
513 Clouds 22 1010 87 0 1.57 166 00:27 20.01.2020
514 Clouds 22 1010 87 0 1.57 166 23:55 19.01.2020
515 Clouds 22 1010 87 0 1.57 166 23:36 19.01.2020
516 Clouds 23 1010 85 0 1.13 176 23:18 19.01.2020
517 Clouds 23 1010 85 0 1.13 176 22:54 19.01.2020
518 Clouds 23 1010 85 0 1.13 176 22:36 19.01.2020
519 Clouds 23 1010 85 0 1.13 176 22:18 19.01.2020
520 Clouds 23 1010 85 0 1.13 176 21:55 19.01.2020
521 Clouds 23 1010 85 0 1.13 176 21:55 19.01.2020
522 Clouds 23 1010 85 0 1.13 176 21:37 19.01.2020
523 Clouds 23 1010 85 0 1.13 176 21:18 19.01.2020
524 Clouds 23 1010 85 0 1.13 176 20:55 19.01.2020
525 Clouds 23 1010 85 0 1.13 176 20:37 19.01.2020
526 Clouds 26 1010 67 0 0.62 143 20:18 19.01.2020
527 Clouds 26 1010 67 0 0.62 143 19:54 19.01.2020
528 Clouds 26 1010 67 0 0.62 143 19:36 19.01.2020
529 Clouds 26 1010 67 0 0.62 143 19:18 19.01.2020
530 Clouds 26 1010 67 0 0.62 143 18:55 19.01.2020
531 Clouds 26 1010 67 0 0.62 143 18:36 19.01.2020
532 Clouds 26 1010 67 0 0.62 143 18:18 19.01.2020
533 Clouds 26 1010 67 0 0.62 143 17:56 19.01.2020
534 Clouds 26 1010 67 0 0.62 143 17:38 19.01.2020
535 Clouds 30 1007 50 0 0.44 329 17:18 19.01.2020
536 Clouds 30 1007 50 0 0.44 329 16:55 19.01.2020
537 Clouds 30 1007 50 0 0.44 329 16:36 19.01.2020
538 Clouds 30 1007 50 0 0.44 329 16:18 19.01.2020
539 Clouds 30 1007 50 0 0.44 329 15:54 19.01.2020
540 Clouds 30 1007 50 0 0.44 329 15:36 19.01.2020
541 Haze 30 1011 62 5000 2.1 180 15:18 19.01.2020
542 Haze 30 1011 62 5000 2.1 180 14:40 19.01.2020
543 Clouds 32 1009 47 0 0.82 202 14:20 19.01.2020
544 Clouds 32 1009 47 0 0.82 202 13:59 19.01.2020
545 Clouds 32 1009 47 0 0.82 202 13:40 19.01.2020
546 Clouds 29 1013 70 7000 4.1 180 13:21 19.01.2020
547 Clouds 29 1013 70 7000 4.1 180 12:59 19.01.2020
548 Clouds 29 1013 70 7000 4.1 180 12:41 19.01.2020
549 Clouds 28 1014 74 7000 4.1 200 12:21 19.01.2020
550 Clouds 28 1014 74 7000 4.1 200 11:57 19.01.2020
551 Clouds 28 1014 74 7000 4.1 200 11:38 19.01.2020
552 Clouds 26 1015 78 7000 3.1 180 11:18 19.01.2020
553 Clouds 30 1013 55 0 1.8 158 10:40 19.01.2020
554 Clouds 30 1013 55 0 1.8 158 10:21 19.01.2020
555 Clouds 30 1013 55 0 1.8 158 09:57 19.01.2020
556 Clouds 30 1013 55 0 1.8 158 09:38 19.01.2020
557 Haze 23 1015 94 5000 3.1 120 09:20 19.01.2020
558 Haze 23 1015 94 5000 3.1 120 08:55 19.01.2020
559 Mist 22 1015 100 4000 1.8 158 08:33 19.01.2020
560 Mist 22 1015 100 4000 1.19 143 07:58 19.01.2020
561 Mist 21 1014 94 4000 1.19 143 07:29 19.01.2020
562 Mist 21 1014 94 4000 1.19 143 06:55 19.01.2020
563 Mist 21 1014 94 4000 1.19 143 06:23 19.01.2020
564 Clouds 20 1011 96 0 0.92 209 04:18 19.01.2020
565 Clouds 20 1011 96 0 0.92 209 02:34 19.01.2020
566 Clouds 21 1011 93 0 1.12 180 01:43 19.01.2020
567 Clouds 21 1011 95 0 1.25 178 01:21 19.01.2020
568 Clouds 21 1011 95 0 1.25 178 00:45 19.01.2020
569 Clouds 21 1011 95 0 1.25 178 00:24 19.01.2020
570 Clouds 21 1011 95 0 1.25 178 23:54 18.01.2020
571 Clouds 21 1011 95 0 1.25 178 23:36 18.01.2020
572 Clouds 22 1013 91 0 1.32 190 23:18 18.01.2020
573 Clouds 22 1013 91 0 1.32 190 22:41 18.01.2020
574 Clouds 23 1014 88 6000 1.32 190 22:23 18.01.2020
575 Clouds 23 1014 88 6000 1.32 190 21:58 18.01.2020
576 Clouds 23 1014 88 6000 1.32 190 21:39 18.01.2020
577 Clouds 23 1014 94 6000 1.5 0 21:20 18.01.2020
578 Clouds 23 1014 94 6000 1.5 0 20:57 18.01.2020
579 Clouds 23 1014 94 6000 1.5 0 20:57 18.01.2020
580 Clouds 23 1014 94 6000 1.5 0 20:39 18.01.2020
581 Clouds 23 1014 94 6000 1.5 0 20:39 18.01.2020
582 Clouds 23 1013 94 6000 1.5 0 20:19 18.01.2020
583 Clouds 23 1013 94 6000 1.5 0 19:43 18.01.2020
584 Clouds 23 1012 94 7000 2.1 30 19:24 18.01.2020
585 Clouds 23 1012 94 7000 2.1 30 18:43 18.01.2020
586 Clouds 22 1011 92 0 1.37 198 18:25 18.01.2020
587 Clouds 22 1011 92 0 1.37 198 17:59 18.01.2020
588 Clouds 22 1011 92 0 1.37 198 17:40 18.01.2020
589 Rain 24 1010 88 0 0.73 252 17:21 18.01.2020
590 Rain 24 1010 88 0 0.73 252 16:57 18.01.2020
591 Rain 24 1010 88 0 0.73 252 16:38 18.01.2020
592 Rain 24 1010 88 0 0.73 252 16:38 18.01.2020
593 Rain 24 1010 88 0 0.73 252 16:19 18.01.2020
594 Rain 24 1010 88 0 0.73 252 15:47 18.01.2020
595 Rain 24 1010 88 0 0.73 252 15:47 18.01.2020
596 Rain 24 1010 88 0 0.73 252 15:26 18.01.2020
597 Rain 24 1010 88 0 0.73 252 14:59 18.01.2020
598 Rain 24 1010 88 0 0.73 252 14:40 18.01.2020
599 Rain 27 1010 81 0 0.87 250 14:19 18.01.2020
600 Rain 27 1010 81 0 0.87 250 13:57 18.01.2020
601 Rain 27 1010 81 0 0.87 250 13:36 18.01.2020
602 Rain 29 1010 66 0 1.28 262 13:18 18.01.2020
603 Rain 29 1010 66 0 1.28 262 12:41 18.01.2020
604 Rain 29 1010 66 0 1.28 262 12:21 18.01.2020
605 Rain 29 1010 66 0 1.28 262 11:56 18.01.2020
606 Rain 29 1010 66 0 1.28 262 11:38 18.01.2020
607 Rain 24 1013 90 0 0.94 201 11:19 18.01.2020
608 Rain 24 1013 90 0 0.94 201 10:42 18.01.2020
609 Rain 24 1013 90 0 0.94 201 10:20 18.01.2020
610 Rain 24 1013 90 0 0.94 201 09:54 18.01.2020
611 Rain 24 1013 90 0 0.94 201 09:36 18.01.2020
612 Rain 24 1013 90 0 0.94 201 08:59 18.01.2020
613 Rain 24 1013 90 0 0.94 201 08:41 18.01.2020
614 Rain 24 1013 90 0 0.94 201 08:41 18.01.2020
615 Clouds 24 1012 86 0 1.39 38 08:20 18.01.2020
616 Clouds 24 1012 86 0 1.39 38 07:52 18.01.2020
617 Clouds 24 1012 86 0 1.39 38 07:34 18.01.2020
618 Clouds 24 1012 86 0 1.39 38 06:48 18.01.2020
619 Clouds 24 1012 86 0 1.39 38 06:19 18.01.2020
620 Clouds 24 1012 86 0 1.39 38 05:31 18.01.2020
621 Clouds 24 1009 84 0 0.69 112 03:46 18.01.2020
622 Clouds 25 1009 78 0 1.57 195 02:21 18.01.2020
623 Clouds 25 1009 78 0 1.57 195 01:36 18.01.2020
624 Clouds 25 1009 75 0 1.49 184 00:38 18.01.2020
625 Clouds 25 1009 75 0 1.49 184 00:19 18.01.2020
626 Clouds 25 1009 75 0 1.49 184 23:44 17.01.2020
627 Clouds 24 1010 73 0 1.44 182 23:21 17.01.2020
628 Clouds 24 1010 73 0 1.44 182 22:59 17.01.2020
629 Clouds 24 1010 73 0 1.44 182 22:40 17.01.2020
630 Clouds 24 1010 73 0 1.44 182 22:19 17.01.2020
631 Clouds 24 1010 73 0 1.44 182 21:43 17.01.2020
632 Clouds 24 1010 73 0 1.44 182 21:24 17.01.2020
633 Clouds 24 1010 73 0 1.44 182 20:59 17.01.2020
634 Clouds 24 1010 73 0 1.44 182 20:41 17.01.2020
635 Clouds 27 1008 54 0 0.83 116 20:20 17.01.2020
636 Clouds 27 1008 54 0 0.83 116 19:57 17.01.2020
637 Clouds 27 1008 54 0 0.83 116 19:38 17.01.2020
638 Clouds 27 1008 54 0 0.83 116 19:19 17.01.2020
639 Clouds 27 1008 54 0 0.83 116 18:57 17.01.2020
640 Clouds 27 1008 54 0 0.83 116 18:37 17.01.2020
641 Clouds 27 1008 54 0 0.83 116 18:19 17.01.2020
642 Clouds 27 1008 54 0 0.83 116 17:40 17.01.2020
643 Clouds 27 1008 54 0 0.83 116 17:40 17.01.2020
644 Clouds 32 1006 40 0 1.18 13 17:21 17.01.2020
645 Clouds 32 1006 40 0 1.18 13 16:55 17.01.2020
646 Clouds 32 1006 40 0 1.18 13 16:36 17.01.2020
647 Clouds 32 1006 40 0 1.18 13 16:18 17.01.2020
648 Clouds 32 1006 40 0 1.18 13 15:43 17.01.2020
649 Clouds 32 1006 40 0 1.18 13 15:25 17.01.2020
650 Clouds 32 1006 40 0 1.18 13 14:44 17.01.2020
651 Clouds 32 1006 40 0 1.18 13 14:25 17.01.2020
652 Clouds 36 1007 32 0 1.38 330 13:56 17.01.2020
653 Clouds 36 1007 32 0 1.38 330 13:37 17.01.2020
654 Clouds 36 1007 29 0 1.67 327 13:18 17.01.2020
655 Clouds 36 1007 29 0 1.67 327 13:18 17.01.2020
656 Clouds 36 1007 29 0 1.67 327 12:42 17.01.2020
657 Clouds 36 1007 29 0 1.67 327 12:21 17.01.2020
658 Clouds 36 1007 29 0 1.67 327 11:38 17.01.2020
659 Clouds 36 1011 32 0 1.02 31 11:18 17.01.2020
660 Clouds 36 1011 32 0 1.02 31 10:42 17.01.2020
661 Clouds 36 1011 32 0 1.02 31 10:23 17.01.2020
662 Clouds 36 1011 32 0 1.02 31 09:58 17.01.2020
663 Clouds 36 1011 32 0 1.02 31 09:38 17.01.2020
664 Clouds 36 1011 32 0 1.02 31 09:19 17.01.2020
665 Clouds 36 1011 32 0 1.02 31 08:43 17.01.2020
666 Clouds 36 1010 30 0 0.92 200 08:24 17.01.2020
667 Clouds 25 1010 58 0 0.97 228 07:53 17.01.2020
668 Clouds 25 1010 58 0 0.97 228 07:31 17.01.2020
669 Clouds 25 1010 58 0 0.97 228 06:57 17.01.2020
670 Clouds 25 1010 58 0 0.97 228 06:38 17.01.2020
671 Clouds 25 1010 58 0 0.97 228 05:38 17.01.2020
672 Clouds 22 1009 61 0 0.62 275 03:39 17.01.2020
673 Clouds 22 1009 61 0 0.62 275 02:47 17.01.2020
674 Clouds 24 1008 53 0 0.57 171 01:47 17.01.2020
675 Clouds 24 1008 53 0 0.57 171 01:28 17.01.2020
676 Clouds 24 1008 51 0 0.96 78 00:48 17.01.2020
677 Clouds 24 1008 51 0 0.96 78 00:23 17.01.2020
678 Clouds 24 1008 51 0 0.96 78 23:44 16.01.2020
679 Clouds 24 1008 51 0 0.96 78 23:25 16.01.2020
680 Clouds 25 1009 51 0 1.23 106 22:56 16.01.2020
681 Clouds 25 1009 51 0 1.23 106 22:38 16.01.2020
682 Clouds 25 1009 51 0 1.23 106 22:19 16.01.2020
683 Clouds 25 1009 51 0 1.23 106 21:54 16.01.2020
684 Clouds 25 1009 51 0 1.23 106 21:36 16.01.2020
685 Clouds 25 1009 51 0 1.23 106 21:36 16.01.2020
686 Clouds 25 1009 51 0 1.23 106 21:18 16.01.2020
687 Clouds 25 1009 51 0 1.23 106 20:40 16.01.2020
688 Clouds 27 1006 45 0 0.72 167 20:21 16.01.2020
689 Clouds 27 1006 45 0 0.72 167 19:58 16.01.2020
690 Clouds 27 1006 45 0 0.72 167 19:40 16.01.2020
691 Clouds 27 1006 45 0 0.72 167 19:22 16.01.2020
692 Clouds 27 1006 45 0 0.72 167 18:57 16.01.2020
693 Clouds 27 1006 45 0 0.72 167 18:37 16.01.2020
694 Clouds 27 1006 45 0 0.72 167 18:18 16.01.2020
695 Clouds 27 1006 45 0 0.72 167 17:58 16.01.2020
696 Clouds 27 1006 45 0 0.72 167 17:39 16.01.2020
697 Clouds 36 1003 28 0 1.07 96 17:20 16.01.2020
698 Clouds 36 1003 28 0 1.07 96 16:41 16.01.2020
699 Clouds 36 1003 28 0 1.07 96 16:22 16.01.2020
700 Clouds 36 1003 28 0 1.07 96 15:57 16.01.2020
701 Clouds 36 1003 28 0 1.07 96 15:38 16.01.2020
702 Clouds 36 1003 28 0 1.07 96 15:20 16.01.2020
703 Clouds 36 1003 28 0 1.07 96 14:42 16.01.2020
704 Clouds 36 1003 28 0 1.07 96 14:24 16.01.2020
705 Clouds 39 1005 23 0 1.05 13 13:55 16.01.2020
706 Clouds 39 1005 23 0 1.05 13 13:37 16.01.2020
707 Clouds 39 1005 23 0 1.14 359 13:19 16.01.2020
708 Clouds 39 1005 23 0 1.14 359 12:41 16.01.2020
709 Clouds 39 1005 23 0 1.14 359 12:21 16.01.2020
710 Clouds 39 1005 23 0 1.14 359 11:43 16.01.2020
711 Clouds 39 1005 23 0 1.14 359 11:24 16.01.2020
712 Clouds 36 1010 32 0 0.45 86 10:57 16.01.2020
713 Clouds 36 1010 32 0 0.45 86 10:38 16.01.2020
714 Clouds 36 1010 32 0 0.45 86 10:20 16.01.2020
715 Clouds 36 1010 32 0 0.45 86 09:44 16.01.2020
716 Clouds 36 1010 32 0 0.45 86 09:24 16.01.2020
717 Clouds 36 1010 32 0 0.45 86 08:59 16.01.2020
718 Clouds 36 1010 32 0 0.45 86 08:41 16.01.2020
719 Clouds 24 1010 60 0 0.87 97 08:20 16.01.2020
720 Clouds 24 1010 60 0 0.87 97 07:43 16.01.2020
721 Clouds 24 1010 60 0 0.87 97 07:25 16.01.2020
722 Clouds 24 1010 60 0 0.87 97 06:55 16.01.2020
723 Clouds 24 1010 60 0 0.87 97 06:35 16.01.2020
724 Clouds 24 1010 60 0 0.87 97 05:56 16.01.2020
725 Clouds 24 1010 60 0 0.87 97 05:25 16.01.2020
726 Clouds 21 1009 65 0 0.79 25 04:23 16.01.2020
727 Clouds 21 1009 65 0 0.79 25 03:27 16.01.2020
728 Clouds 24 1008 56 0 0.84 187 02:23 16.01.2020
729 Clouds 24 1008 56 0 1.01 167 00:44 16.01.2020
730 Clouds 24 1008 56 0 1.01 167 00:23 16.01.2020
731 Clouds 24 1008 56 0 1.01 167 23:45 15.01.2020
732 Clouds 24 1008 56 0 1.01 167 23:22 15.01.2020
733 Clouds 25 1009 53 0 1.06 196 22:57 15.01.2020
734 Clouds 25 1009 53 0 1.06 196 22:39 15.01.2020
735 Clouds 25 1009 53 0 1.06 196 22:18 15.01.2020
736 Clouds 25 1009 53 0 1.06 196 21:56 15.01.2020
737 Clouds 25 1009 53 0 1.06 196 21:37 15.01.2020
738 Clouds 25 1009 53 0 1.06 196 21:19 15.01.2020
739 Clouds 25 1009 53 0 1.06 196 20:56 15.01.2020
740 Clouds 25 1009 53 0 1.06 196 20:38 15.01.2020
741 Clear 26 1006 48 0 0.91 136 20:19 15.01.2020
742 Clear 26 1006 48 0 0.91 136 19:54 15.01.2020
743 Clear 26 1006 48 0 0.91 136 19:36 15.01.2020
744 Clear 26 1006 48 0 0.91 136 19:18 15.01.2020
745 Clear 26 1006 48 0 0.91 136 18:56 15.01.2020
746 Clear 26 1006 48 0 0.91 136 18:37 15.01.2020
747 Clear 26 1006 48 0 0.91 136 18:37 15.01.2020
748 Clear 26 1006 48 0 0.91 136 18:19 15.01.2020
749 Clear 26 1006 48 0 0.91 136 17:55 15.01.2020
750 Clear 26 1006 48 0 0.91 136 17:36 15.01.2020
751 Clear 35 1003 29 0 0.64 360 17:18 15.01.2020
752 Clear 35 1003 29 0 0.64 360 16:40 15.01.2020
753 Clear 35 1003 29 0 0.64 360 16:21 15.01.2020
754 Clear 35 1003 29 0 0.64 360 15:56 15.01.2020
755 Clear 35 1003 29 0 0.64 360 15:38 15.01.2020
756 Clear 35 1003 29 0 0.64 360 15:18 15.01.2020
757 Clear 35 1003 29 0 0.64 360 14:42 15.01.2020
758 Clear 37 1005 25 0 1.54 35 14:19 15.01.2020
759 Clear 37 1005 25 0 1.54 35 13:46 15.01.2020
760 Clear 37 1005 25 0 1.54 35 13:26 15.01.2020
761 Clear 37 1005 25 0 1.59 40 12:59 15.01.2020
762 Clear 37 1005 25 0 1.59 40 12:39 15.01.2020
763 Clear 37 1005 25 0 1.59 40 12:19 15.01.2020
764 Clear 37 1005 25 0 1.59 40 11:56 15.01.2020
765 Clear 37 1005 25 0 1.59 40 11:37 15.01.2020
766 Clear 33 1010 41 0 1.29 64 11:19 15.01.2020
767 Clear 33 1010 41 0 1.29 64 11:19 15.01.2020
768 Clear 33 1010 41 0 1.29 64 10:43 15.01.2020
769 Clear 33 1010 41 0 1.29 64 10:25 15.01.2020
770 Clear 33 1010 41 0 1.29 64 09:44 15.01.2020
771 Clear 33 1010 41 0 1.29 64 09:23 15.01.2020
772 Clear 33 1010 41 0 1.29 64 08:56 15.01.2020
773 Clear 33 1010 41 0 1.29 64 08:38 15.01.2020
774 Clouds 24 1011 67 0 1.07 81 08:19 15.01.2020
775 Clear 25 1010 69 0 1.1 81 07:51 15.01.2020
776 Clear 25 1010 69 0 1.1 81 07:31 15.01.2020
777 Clear 25 1010 69 0 1.1 81 06:45 15.01.2020
778 Clear 25 1010 69 0 1.1 81 06:19 15.01.2020
779 Clear 22 1009 78 0 0.91 66 04:36 15.01.2020
780 Clear 22 1009 78 0 0.91 66 02:32 15.01.2020
781 Clear 23 1008 69 0 0.94 195 01:27 15.01.2020
782 Clear 23 1008 69 0 0.94 195 00:45 15.01.2020
783 Clear 23 1008 69 0 0.94 195 00:26 15.01.2020
784 Clear 23 1008 69 0 0.94 195 23:55 14.01.2020
785 Clear 23 1008 69 0 0.94 195 23:36 14.01.2020
786 Clear 25 1009 65 0 1.15 202 23:18 14.01.2020
787 Clear 25 1009 65 0 1.15 202 22:41 14.01.2020
788 Clear 25 1009 65 0 1.15 202 22:19 14.01.2020
789 Clear 25 1009 65 0 1.15 202 22:19 14.01.2020
790 Clear 25 1009 65 0 1.15 202 21:58 14.01.2020
791 Clear 25 1009 65 0 1.15 202 21:39 14.01.2020
792 Clear 25 1009 65 0 1.15 202 21:21 14.01.2020
793 Clear 25 1009 65 0 1.15 202 20:58 14.01.2020
794 Clear 25 1009 65 0 1.15 202 20:39 14.01.2020
795 Clouds 26 1006 57 0 0.94 156 20:19 14.01.2020
796 Clouds 26 1006 57 0 0.94 156 19:55 14.01.2020
797 Clouds 26 1006 57 0 0.94 156 19:37 14.01.2020
798 Clouds 26 1006 57 0 0.94 156 19:18 14.01.2020
799 Clouds 26 1006 57 0 0.94 156 18:41 14.01.2020
800 Clouds 26 1006 57 0 0.94 156 18:20 14.01.2020
801 Clouds 26 1006 57 0 0.94 156 17:59 14.01.2020
802 Clouds 26 1006 57 0 0.94 156 17:37 14.01.2020
803 Clouds 34 1004 37 0 1.05 29 17:19 14.01.2020
804 Clouds 34 1004 37 0 1.05 29 16:55 14.01.2020
805 Clouds 34 1004 37 0 1.05 29 16:37 14.01.2020
806 Clouds 34 1004 37 0 1.05 29 16:18 14.01.2020
807 Clouds 34 1004 37 0 1.05 29 15:42 14.01.2020
808 Clouds 34 1004 37 0 1.05 29 15:19 14.01.2020
809 Clouds 34 1004 37 0 1.05 29 14:47 14.01.2020
810 Clouds 36 1006 32 0 1.52 63 14:23 14.01.2020
811 Clouds 36 1006 32 0 1.52 63 13:59 14.01.2020
812 Clouds 36 1006 32 0 1.52 63 13:59 14.01.2020
813 Clouds 36 1006 32 0 1.52 63 13:40 14.01.2020
814 Clouds 36 1006 32 0 1.49 67 13:19 14.01.2020
815 Clouds 36 1006 32 0 1.49 67 12:42 14.01.2020
816 Clouds 36 1006 32 0 1.49 67 12:23 14.01.2020
817 Clouds 36 1006 32 0 1.49 67 11:57 14.01.2020
818 Clouds 36 1006 32 0 1.49 67 11:38 14.01.2020
819 Clouds 32 1011 44 0 1.65 91 11:20 14.01.2020
820 Clouds 32 1011 44 0 1.65 91 10:56 14.01.2020
821 Clouds 32 1011 44 0 1.65 91 10:37 14.01.2020
822 Clouds 32 1011 44 0 1.65 91 10:19 14.01.2020
823 Clouds 32 1011 44 0 1.65 91 09:42 14.01.2020
824 Clouds 32 1011 44 0 1.65 91 09:23 14.01.2020
825 Clouds 32 1011 44 0 1.65 91 08:58 14.01.2020
826 Clouds 32 1011 44 0 1.65 91 08:39 14.01.2020
827 Clouds 24 1011 75 0 1.16 90 08:20 14.01.2020
828 Clouds 24 1011 75 0 1.16 90 07:40 14.01.2020
829 Clouds 24 1011 75 0 1.16 90 06:59 14.01.2020
830 Clouds 24 1011 75 0 1.16 90 06:59 14.01.2020
831 Clouds 24 1011 75 0 1.16 90 06:40 14.01.2020
832 Clouds 24 1011 75 0 1.16 90 05:56 14.01.2020
833 Clouds 22 1010 81 0 1.31 52 04:24 14.01.2020
834 Clouds 22 1010 81 0 1.31 52 03:45 14.01.2020
835 Clouds 22 1010 81 0 1.31 52 02:30 14.01.2020
836 Clouds 23 1009 74 0 0.88 147 01:18 14.01.2020
837 Clouds 23 1009 74 0 0.88 147 00:42 14.01.2020
838 Clouds 23 1009 74 0 0.88 147 00:21 14.01.2020
839 Clouds 23 1009 74 0 0.88 147 23:42 13.01.2020
840 Clouds 24 1010 68 0 1.52 170 23:18 13.01.2020
841 Clouds 24 1010 68 0 1.52 170 22:55 13.01.2020
842 Clouds 24 1010 68 0 1.52 170 22:37 13.01.2020
843 Clouds 24 1010 68 0 1.52 170 22:19 13.01.2020
844 Clouds 24 1010 68 0 1.52 170 21:54 13.01.2020
845 Clouds 24 1010 68 0 1.52 170 21:36 13.01.2020
846 Clouds 24 1010 68 0 1.52 170 21:18 13.01.2020
847 Clouds 24 1010 68 0 1.52 170 20:42 13.01.2020
848 Clouds 26 1008 59 0 0.93 156 20:23 13.01.2020
849 Clouds 25 1008 61 0 0.97 165 19:59 13.01.2020
850 Clouds 25 1008 61 0 0.97 165 19:41 13.01.2020
851 Clouds 25 1008 61 0 0.97 165 19:20 13.01.2020
852 Clouds 25 1008 61 0 0.97 165 19:20 13.01.2020
853 Clouds 25 1008 61 0 0.97 165 18:58 13.01.2020
854 Clouds 25 1008 61 0 0.97 165 18:58 13.01.2020
855 Clouds 25 1008 61 0 0.97 165 18:38 13.01.2020
856 Clouds 25 1008 61 0 0.97 165 18:38 13.01.2020
857 Clouds 25 1008 61 0 0.97 165 18:19 13.01.2020
858 Clouds 25 1008 61 0 0.97 165 17:57 13.01.2020
859 Clouds 25 1008 61 0 0.97 165 17:38 13.01.2020
860 Clouds 31 1007 48 0 0.14 99 17:20 13.01.2020
861 Clouds 31 1007 48 0 0.14 99 16:41 13.01.2020
862 Clouds 31 1007 48 0 0.14 99 16:22 13.01.2020
863 Clouds 31 1007 48 0 0.14 99 15:56 13.01.2020
864 Clouds 31 1007 48 0 0.14 99 15:38 13.01.2020
865 Clouds 31 1007 48 0 0.14 99 15:19 13.01.2020
866 Clouds 31 1007 48 0 0.14 99 14:42 13.01.2020
867 Clouds 32 1008 39 0 0.64 343 14:24 13.01.2020
868 Clouds 32 1008 39 0 0.64 343 13:58 13.01.2020
869 Clouds 32 1008 39 0 0.64 343 13:39 13.01.2020
870 Clouds 32 1008 39 0 0.64 343 13:39 13.01.2020
871 Clouds 32 1008 40 0 0.78 43 13:21 13.01.2020
872 Clouds 32 1008 40 0 0.78 43 12:55 13.01.2020
873 Clouds 32 1008 40 0 0.78 43 12:36 13.01.2020
874 Clouds 32 1008 40 0 0.78 43 12:18 13.01.2020
875 Clouds 32 1008 40 0 0.78 43 11:39 13.01.2020
876 Clear 32 1012 45 0 1.06 83 11:20 13.01.2020
877 Clear 32 1012 45 0 1.06 83 10:57 13.01.2020
878 Clear 32 1012 45 0 1.06 83 10:39 13.01.2020
879 Clear 32 1012 45 0 1.06 83 10:20 13.01.2020
880 Clear 32 1012 45 0 1.06 83 09:56 13.01.2020
881 Clear 32 1012 45 0 1.06 83 09:38 13.01.2020
882 Clear 32 1012 45 0 1.06 83 09:19 13.01.2020
883 Clear 32 1012 45 0 1.06 83 09:19 13.01.2020
884 Clear 32 1012 45 0 1.06 83 08:39 13.01.2020
885 Clouds 24 1014 75 0 0.99 88 08:20 13.01.2020
886 Clouds 24 1014 75 0 0.99 88 07:47 13.01.2020
887 Mist 22 1014 94 2500 0.99 88 07:27 13.01.2020
888 Mist 22 1014 94 2500 0.99 88 06:43 13.01.2020
889 Clouds 24 1014 75 0 0.99 88 06:20 13.01.2020
890 Clouds 24 1014 75 0 0.99 88 05:23 13.01.2020
891 Clouds 21 1012 87 0 0.94 133 03:54 13.01.2020
892 Clouds 21 1012 87 0 0.94 133 03:22 13.01.2020
893 Clouds 21 1012 87 0 0.94 133 02:44 13.01.2020
894 Clouds 21 1012 87 0 0.94 133 02:24 13.01.2020
895 Clouds 21 1012 82 0 1.03 159 01:20 13.01.2020
896 Clouds 21 1012 82 0 1.03 159 00:41 13.01.2020
897 Clouds 21 1012 82 0 1.03 159 00:22 13.01.2020
898 Clouds 21 1012 82 0 1.03 159 23:42 12.01.2020
899 Clouds 21 1012 82 0 1.03 159 23:23 12.01.2020
900 Clouds 23 1012 71 0 1.16 163 22:58 12.01.2020
901 Clouds 23 1012 71 0 1.16 163 22:39 12.01.2020
902 Clouds 23 1012 71 0 1.16 163 22:21 12.01.2020
903 Clouds 23 1012 71 0 1.16 163 21:55 12.01.2020
904 Clouds 23 1012 71 0 1.16 163 21:55 12.01.2020
905 Clouds 23 1012 71 0 1.16 163 21:37 12.01.2020
906 Clouds 23 1012 71 0 1.16 163 21:19 12.01.2020
907 Clouds 23 1012 71 0 1.16 163 20:56 12.01.2020
908 Clouds 23 1012 71 0 1.16 163 20:37 12.01.2020
909 Clouds 24 1011 68 0 0.54 167 20:19 12.01.2020
910 Clouds 24 1011 74 0 0.94 163 19:55 12.01.2020
911 Clouds 24 1011 74 0 0.94 163 19:37 12.01.2020
912 Clouds 24 1011 74 0 0.94 163 19:18 12.01.2020
913 Clouds 24 1011 74 0 0.94 163 19:18 12.01.2020
914 Clouds 24 1011 74 0 0.94 163 18:56 12.01.2020
915 Clouds 24 1011 74 0 0.94 163 18:38 12.01.2020
916 Clouds 24 1011 74 0 0.94 163 18:19 12.01.2020
917 Clouds 24 1011 74 0 0.94 163 17:42 12.01.2020
918 Clouds 24 1011 74 0 0.94 163 17:42 12.01.2020
919 Clouds 29 1008 55 0 0.52 199 17:21 12.01.2020
920 Clouds 29 1008 55 0 0.52 199 16:58 12.01.2020
921 Clouds 29 1008 55 0 0.52 199 16:39 12.01.2020
922 Clouds 32 1011 49 8000 3.1 300 16:20 12.01.2020
923 Clouds 32 1011 49 8000 3.1 300 15:55 12.01.2020
924 Clouds 29 1008 55 0 0.52 199 15:37 12.01.2020
925 Clouds 29 1008 55 0 0.52 199 15:19 12.01.2020
926 Clouds 29 1008 55 0 0.52 199 14:42 12.01.2020
927 Clouds 31 1013 58 8000 1.5 0 14:23 12.01.2020
928 Clouds 31 1013 58 8000 1.5 0 13:56 12.01.2020
929 Clouds 31 1013 58 8000 1.5 0 13:38 12.01.2020
930 Clouds 30 1011 51 0 1.05 275 13:20 12.01.2020
931 Clouds 31 1010 49 0 0.98 278 12:44 12.01.2020
932 Clouds 30 1015 62 8000 4.1 60 12:21 12.01.2020
933 Clouds 30 1015 62 8000 4.1 60 11:59 12.01.2020
934 Clouds 30 1015 62 8000 4.1 60 11:40 12.01.2020
935 Clear 32 1013 47 0 0.86 200 11:22 12.01.2020
936 Clear 32 1013 47 0 0.86 200 10:56 12.01.2020
937 Clear 32 1013 47 0 0.86 200 10:37 12.01.2020
938 Clear 32 1013 47 0 0.86 200 10:18 12.01.2020
939 Clear 32 1013 47 0 0.86 200 09:41 12.01.2020
940 Clear 32 1013 47 0 0.86 200 09:21 12.01.2020
941 Clear 32 1013 47 0 0.86 200 08:47 12.01.2020
942 Mist 23 1016 94 4000 0.91 181 08:22 12.01.2020
943 Mist 23 1016 94 4000 1.39 157 07:46 12.01.2020
944 Mist 22 1015 94 3000 1.39 157 07:25 12.01.2020
945 Mist 22 1015 94 3000 1.39 157 06:54 12.01.2020
946 Mist 22 1015 94 3000 1.39 157 06:35 12.01.2020
947 Clouds 23 1015 78 0 1.39 157 05:50 12.01.2020
948 Clouds 20 1012 93 0 0.93 149 04:54 12.01.2020
949 Clouds 20 1012 93 0 0.93 149 03:35 12.01.2020
950 Clouds 20 1012 93 0 0.93 149 02:43 12.01.2020
951 Clouds 20 1012 93 0 0.93 149 02:24 12.01.2020
952 Clouds 21 1012 87 0 1.34 159 01:31 12.01.2020
953 Clouds 21 1012 87 0 1.34 159 00:46 12.01.2020
954 Clouds 21 1012 87 0 1.34 159 00:22 12.01.2020
955 Clouds 21 1012 87 0 1.34 159 23:56 11.01.2020
956 Clouds 21 1012 87 0 1.34 159 23:38 11.01.2020
957 Clear 23 1013 79 0 1.95 169 23:18 11.01.2020
958 Clear 23 1013 79 0 1.95 169 22:56 11.01.2020
959 Clear 23 1013 79 0 1.95 169 22:37 11.01.2020
960 Clear 23 1014 94 6000 1.95 169 22:19 11.01.2020
961 Clear 23 1014 94 6000 1.95 169 21:44 11.01.2020
962 Clear 23 1013 79 0 1.95 169 21:19 11.01.2020
963 Clear 23 1013 79 0 1.95 169 20:56 11.01.2020
964 Clear 23 1013 79 0 1.95 169 20:37 11.01.2020
965 Clouds 24 1012 75 0 1.46 202 20:19 11.01.2020
966 Clouds 24 1012 80 0 2.08 183 19:55 11.01.2020
967 Clouds 24 1012 80 0 2.08 183 19:37 11.01.2020
968 Clouds 24 1012 80 0 2.08 183 19:19 11.01.2020
969 Clouds 24 1012 80 0 2.08 183 19:19 11.01.2020
970 Clouds 24 1012 80 0 2.08 183 18:55 11.01.2020
971 Clouds 24 1012 80 0 2.08 183 18:36 11.01.2020
972 Clouds 24 1012 80 0 2.08 183 18:18 11.01.2020
973 Clouds 24 1012 80 0 2.08 183 18:18 11.01.2020
974 Clouds 24 1012 80 0 2.08 183 17:55 11.01.2020
975 Clouds 24 1012 80 0 2.08 183 17:36 11.01.2020
976 Clouds 29 1009 55 0 1.85 242 17:18 11.01.2020
977 Clouds 29 1009 55 0 1.85 242 17:18 11.01.2020
978 Clouds 29 1009 55 0 1.85 242 16:43 11.01.2020
979 Clouds 29 1009 55 0 1.85 242 16:23 11.01.2020
980 Clouds 29 1009 55 0 1.85 242 15:43 11.01.2020
981 Clouds 29 1009 55 0 1.85 242 15:24 11.01.2020
982 Clouds 29 1009 55 0 1.85 242 14:59 11.01.2020
983 Clouds 29 1009 55 0 1.85 242 14:41 11.01.2020
984 Clouds 30 1013 62 8000 3.1 180 14:22 11.01.2020
985 Clouds 30 1013 62 8000 3.1 180 13:55 11.01.2020
986 Clouds 30 1013 62 8000 3.1 180 13:37 11.01.2020
987 Clouds 29 1014 70 8000 3.1 250 13:18 11.01.2020
988 Clouds 29 1014 70 8000 3.1 250 12:44 11.01.2020
989 Clouds 29 1016 70 8000 3.1 230 12:26 11.01.2020
990 Clouds 29 1016 70 8000 3.1 230 11:55 11.01.2020
991 Clouds 29 1016 70 8000 3.1 230 11:37 11.01.2020
992 Clouds 27 1016 74 8000 3.1 200 11:18 11.01.2020
993 Clouds 27 1016 74 8000 3.1 200 11:18 11.01.2020
994 Clouds 27 1016 74 8000 3.1 200 11:18 11.01.2020
995 Clouds 27 1016 74 8000 3.1 200 10:43 11.01.2020
996 Clear 32 1014 48 0 0.47 280 10:24 11.01.2020
997 Clear 32 1014 48 0 0.47 280 09:40 11.01.2020
998 Clear 32 1014 48 0 0.47 280 09:21 11.01.2020
999 Clear 32 1014 48 0 0.47 280 08:43 11.01.2020
1000 Clouds 32 1014 50 0 0.77 266 08:23 11.01.2020
1001 Clouds 23 1015 80 0 1.08 135 07:45 11.01.2020
1002 Clouds 23 1015 80 0 1.08 135 07:26 11.01.2020
1003 Clouds 23 1015 80 0 1.08 135 07:26 11.01.2020
1004 Clouds 23 1015 80 0 1.08 135 06:56 11.01.2020
1005 Clouds 26 1020 69 8000 3.1 50 06:28 11.01.2020
1006 Clouds 20 1012 94 0 0.73 312 04:49 11.01.2020
1007 Clouds 20 1012 94 0 0.73 312 04:30 11.01.2020
1008 Clouds 20 1012 94 0 0.73 312 03:58 11.01.2020
1009 Clouds 20 1012 94 0 0.73 312 02:43 11.01.2020
1010 Clouds 21 1011 86 0 1.23 202 01:44 11.01.2020
1011 Clouds 21 1011 87 0 1.34 210 01:21 11.01.2020
1012 Clouds 21 1011 87 0 1.34 210 01:21 11.01.2020
1013 Clouds 21 1011 87 0 1.34 210 00:47 11.01.2020
1014 Clouds 21 1011 87 0 1.34 210 00:20 11.01.2020
1015 Clouds 21 1011 87 0 1.34 210 23:41 10.01.2020
1016 Clouds 21 1011 87 0 1.34 210 23:23 10.01.2020
1017 Clouds 22 1012 76 0 1.57 207 22:59 10.01.2020
1018 Clouds 22 1012 76 0 1.57 207 22:41 10.01.2020
1019 Clouds 22 1012 76 0 1.57 207 22:21 10.01.2020
1020 Clouds 22 1012 76 0 1.57 207 21:58 10.01.2020
1021 Clouds 22 1012 76 0 1.57 207 21:39 10.01.2020
1022 Clouds 22 1012 76 0 1.57 207 21:20 10.01.2020
1023 Clouds 22 1012 76 0 1.57 207 20:55 10.01.2020
1024 Clouds 22 1012 76 0 1.57 207 20:37 10.01.2020
1025 Clouds 24 1010 67 0 1.37 208 20:19 10.01.2020
1026 Clouds 24 1010 67 0 1.37 208 19:39 10.01.2020
1027 Clouds 24 1010 67 0 1.37 208 19:20 10.01.2020
1028 Clouds 24 1010 67 0 1.37 208 18:54 10.01.2020
1029 Clouds 24 1010 67 0 1.37 208 18:36 10.01.2020
1030 Clouds 27 1011 78 7000 1.5 0 18:18 10.01.2020
1031 Clouds 27 1011 78 7000 1.5 0 17:55 10.01.2020
1032 Clouds 27 1011 78 7000 1.5 0 17:37 10.01.2020
1033 Clouds 29 1011 74 8000 3.1 270 17:18 10.01.2020
1034 Clouds 30 1007 48 0 1.02 349 16:41 10.01.2020
1035 Clouds 30 1007 48 0 1.02 349 16:21 10.01.2020
1036 Clouds 30 1007 48 0 1.02 349 16:21 10.01.2020
1037 Clouds 30 1007 48 0 1.02 349 15:56 10.01.2020
1038 Clouds 30 1007 48 0 1.02 349 15:37 10.01.2020
1039 Clouds 30 1012 66 9000 3.1 290 15:19 10.01.2020
1040 Clouds 30 1012 66 9000 3.1 290 14:57 10.01.2020
1041 Clouds 30 1012 66 9000 3.1 290 14:38 10.01.2020
1042 Rain 33 1010 39 0 1.28 325 14:19 10.01.2020
1043 Rain 33 1010 39 0 1.28 325 13:45 10.01.2020
1044 Clouds 28 1014 74 10000 1.5 0 13:27 10.01.2020
1045 Clouds 28 1014 74 10000 1.5 0 12:59 10.01.2020
1046 Clouds 28 1014 74 10000 1.5 0 12:40 10.01.2020
1047 Clouds 28 1014 69 10000 2.1 160 12:21 10.01.2020
1048 Clouds 28 1014 69 10000 2.1 160 11:58 10.01.2020
1049 Clouds 28 1014 69 10000 2.1 160 11:40 10.01.2020
1050 Clouds 26 1015 83 10000 2.1 180 11:19 10.01.2020
1051 Clouds 26 1015 83 10000 2.1 180 10:58 10.01.2020
1052 Clouds 26 1015 83 10000 2.1 180 10:38 10.01.2020
1053 Clouds 25 1016 88 8000 2.1 180 10:18 10.01.2020
1054 Clouds 25 1016 88 8000 2.1 180 09:45 10.01.2020
1055 Rain 28 1013 76 0 0.67 263 09:26 10.01.2020
1056 Rain 28 1013 76 0 0.67 263 08:56 10.01.2020
1057 Rain 28 1013 76 0 0.67 263 08:37 10.01.2020
1058 Rain 28 1013 76 0 0.67 263 08:37 10.01.2020
1059 Mist 23 1015 94 4000 0.68 125 08:18 10.01.2020
1060 Mist 23 1015 94 4000 0.68 125 07:41 10.01.2020
1061 Clouds 24 1013 88 0 0.68 125 07:21 10.01.2020
1062 Clouds 24 1013 88 0 0.68 125 06:41 10.01.2020
1063 Clouds 24 1013 88 0 0.68 125 06:23 10.01.2020
1064 Clouds 24 1013 88 0 0.68 125 05:25 10.01.2020
1065 Rain 22 1011 94 0 1.05 80 03:32 10.01.2020
1066 Rain 22 1011 94 0 1.05 80 02:53 10.01.2020
1067 Rain 22 1011 94 0 1.05 80 02:33 10.01.2020
1068 Clouds 23 1010 84 0 1.14 178 01:33 10.01.2020
1069 Clouds 23 1010 84 0 1.14 178 00:53 10.01.2020
1070 Clouds 23 1010 84 0 1.14 178 00:35 10.01.2020
1071 Clouds 23 1010 84 0 1.14 178 23:57 09.01.2020
1072 Clouds 23 1010 84 0 1.14 178 23:37 09.01.2020
1073 Clouds 23 1010 85 0 1.22 194 23:19 09.01.2020
1074 Clouds 23 1010 85 0 1.22 194 22:56 09.01.2020
1075 Clouds 23 1010 85 0 1.22 194 22:37 09.01.2020
1076 Clouds 23 1010 85 0 1.22 194 22:18 09.01.2020
1077 Clouds 23 1010 85 0 1.22 194 21:55 09.01.2020
1078 Clouds 23 1010 85 0 1.22 194 21:37 09.01.2020
1079 Clouds 23 1010 85 0 1.22 194 21:18 09.01.2020
1080 Clouds 23 1010 85 0 1.22 194 20:55 09.01.2020
1081 Clouds 23 1010 85 0 1.22 194 20:37 09.01.2020
1082 Clouds 24 1008 78 0 1.62 188 20:18 09.01.2020
1083 Clouds 24 1008 78 0 1.62 188 19:39 09.01.2020
1084 Clouds 24 1008 78 0 1.62 188 19:21 09.01.2020
1085 Clouds 24 1008 78 0 1.62 188 18:57 09.01.2020
1086 Clouds 24 1008 78 0 1.62 188 18:39 09.01.2020
1087 Clouds 24 1008 78 0 1.62 188 18:21 09.01.2020
1088 Clouds 24 1008 78 0 1.62 188 17:41 09.01.2020
1089 Clouds 30 1006 55 0 1.41 202 17:20 09.01.2020
1090 Clouds 30 1006 55 0 1.41 202 16:59 09.01.2020
1091 Clouds 30 1006 55 0 1.41 202 16:59 09.01.2020
1092 Clouds 30 1006 55 0 1.41 202 16:41 09.01.2020
1093 Thunderstorm 25 1010 94 6000 2.1 90 16:21 09.01.2020
1094 Thunderstorm 25 1010 94 6000 2.1 90 15:43 09.01.2020
1095 Thunderstorm 25 1010 94 6000 2.1 90 15:23 09.01.2020
1096 Clouds 30 1006 55 0 1.41 202 14:58 09.01.2020
1097 Clouds 30 1006 55 0 1.41 202 14:40 09.01.2020
1098 Thunderstorm 26 1012 88 0 3.1 60 14:19 09.01.2020
1099 Thunderstorm 26 1012 88 0 3.1 60 13:55 09.01.2020
1100 Thunderstorm 26 1012 88 0 3.1 60 13:37 09.01.2020
1101 Thunderstorm 26 1012 88 0 3.1 60 13:19 09.01.2020
1102 Clouds 26 1013 88 7000 3.1 120 12:56 09.01.2020
1103 Rain 33 1009 48 0 0.92 198 12:38 09.01.2020
1104 Rain 33 1009 48 0 0.92 198 12:18 09.01.2020
1105 Rain 33 1009 48 0 0.92 198 11:42 09.01.2020
1106 Rain 33 1009 48 0 0.92 198 11:24 09.01.2020
1107 Rain 33 1009 48 0 0.92 198 11:24 09.01.2020
1108 Clouds 25 1013 78 0 1.18 110 10:58 09.01.2020
1109 Clouds 25 1013 78 0 1.18 110 10:39 09.01.2020
1110 Clouds 25 1014 88 6000 2.1 30 10:21 09.01.2020
1111 Clouds 25 1014 88 6000 2.1 30 09:46 09.01.2020
1112 Clouds 25 1014 88 6000 2.1 30 09:25 09.01.2020
1113 Clouds 25 1013 78 0 1.18 110 08:58 09.01.2020
1114 Clouds 25 1013 78 0 1.18 110 08:39 09.01.2020
1115 Mist 23 1014 94 4000 2.1 90 08:20 09.01.2020
1116 Mist 23 1014 94 4000 2.1 90 07:48 09.01.2020
1117 Mist 23 1014 94 4000 2.1 90 07:30 09.01.2020
1118 Rain 22 1013 96 0 1.7 152 06:40 09.01.2020
1119 Rain 22 1013 96 0 1.7 152 06:22 09.01.2020
1120 Rain 22 1013 96 0 1.7 152 05:51 09.01.2020
1121 Clouds 23 1010 84 0 0.85 131 05:20 09.01.2020
1122 Clouds 23 1010 84 0 0.85 131 04:39 09.01.2020
1123 Clouds 23 1010 84 0 0.85 131 03:27 09.01.2020
1124 Clouds 23 1010 84 0 0.85 131 02:46 09.01.2020
1125 Clouds 24 1009 71 0 1.13 161 01:42 09.01.2020
1126 Clouds 24 1009 71 0 1.13 161 01:42 09.01.2020
1127 Clouds 24 1010 70 0 1.23 166 00:59 09.01.2020
1128 Clouds 24 1010 70 0 1.23 166 00:37 09.01.2020
1129 Clouds 24 1010 70 0 1.23 166 00:19 09.01.2020
1130 Clouds 24 1010 70 0 1.23 166 23:39 08.01.2020
1131 Clouds 25 1010 61 0 0.85 159 23:20 08.01.2020
1132 Clouds 25 1010 61 0 0.85 159 22:41 08.01.2020
1133 Clouds 25 1010 61 0 0.85 159 22:23 08.01.2020
1134 Clouds 25 1010 61 0 0.85 159 21:59 08.01.2020
1135 Clouds 25 1010 61 0 0.85 159 21:40 08.01.2020
1136 Clouds 25 1010 61 0 0.85 159 21:21 08.01.2020
1137 Clouds 25 1010 61 0 0.85 159 20:59 08.01.2020
1138 Clouds 25 1010 61 0 0.85 159 20:41 08.01.2020
1139 Clouds 27 1008 52 0 0.66 149 20:21 08.01.2020
1140 Clouds 27 1008 52 0 0.66 149 19:58 08.01.2020
1141 Clouds 27 1008 52 0 0.66 149 19:38 08.01.2020
1142 Clouds 27 1008 52 0 0.66 149 19:19 08.01.2020
1143 Clouds 27 1008 52 0 0.66 149 18:58 08.01.2020
1144 Clouds 27 1008 52 0 0.66 149 18:39 08.01.2020
1145 Clouds 27 1008 52 0 0.66 149 18:39 08.01.2020
1146 Clouds 27 1008 52 0 0.66 149 18:19 08.01.2020
1147 Clouds 27 1008 52 0 0.66 149 17:57 08.01.2020
1148 Clouds 27 1008 52 0 0.66 149 17:38 08.01.2020
1149 Clouds 30 1005 49 0 0.97 9 17:19 08.01.2020
1150 Clouds 30 1005 49 0 0.97 9 17:19 08.01.2020
1151 Clouds 30 1005 49 0 0.97 9 16:55 08.01.2020
1152 Clouds 30 1005 49 0 0.97 9 16:37 08.01.2020
1153 Clouds 30 1005 49 0 0.97 9 16:18 08.01.2020
1154 Clouds 30 1005 49 0 0.97 9 15:44 08.01.2020
1155 Clouds 30 1005 49 0 0.97 9 15:44 08.01.2020
1156 Clouds 30 1005 49 0 0.97 9 15:21 08.01.2020
1157 Clouds 30 1005 49 0 0.97 9 14:58 08.01.2020
1158 Clouds 30 1005 49 0 0.97 9 14:58 08.01.2020
1159 Clouds 30 1005 49 0 0.97 9 14:40 08.01.2020
1160 Clouds 36 1007 30 0 1.08 25 14:20 08.01.2020
1161 Clouds 36 1007 30 0 1.08 25 13:41 08.01.2020
1162 Clouds 36 1007 30 0 1.08 25 13:21 08.01.2020
1163 Clouds 36 1007 29 0 1.13 27 13:21 08.01.2020
1164 Clouds 36 1007 29 0 1.13 27 12:54 08.01.2020
1165 Clouds 36 1007 29 0 1.13 27 12:36 08.01.2020
1166 Clouds 36 1007 29 0 1.13 27 12:18 08.01.2020
1167 Clouds 36 1007 29 0 1.13 27 11:47 08.01.2020
1168 Clouds 27 1014 83 7000 4.1 140 11:19 08.01.2020
1169 Clouds 27 1014 83 7000 4.1 140 10:58 08.01.2020
1170 Clouds 33 1011 41 0 0.83 96 10:40 08.01.2020
1171 Clouds 26 1014 83 6000 3.1 140 10:19 08.01.2020
1172 Clouds 26 1014 83 6000 3.1 140 09:42 08.01.2020
1173 Clouds 26 1014 83 6000 3.1 140 09:20 08.01.2020
1174 Clouds 33 1011 41 0 0.83 96 08:58 08.01.2020
1175 Clouds 33 1011 41 0 0.83 96 08:39 08.01.2020
1176 Mist 23 1013 100 3000 3.1 180 08:20 08.01.2020
1177 Mist 23 1013 100 3000 3.1 180 07:51 08.01.2020
1178 Mist 23 1013 100 3000 3.1 180 07:33 08.01.2020
1179 Clouds 23 1011 68 0 0.4 130 06:58 08.01.2020
1180 Clouds 23 1011 68 0 0.4 130 06:40 08.01.2020
1181 Clouds 23 1011 68 0 0.4 130 05:54 08.01.2020
1182 Clouds 23 1011 68 0 0.4 130 05:25 08.01.2020
1183 Clouds 21 1009 76 0 0.23 41 04:35 08.01.2020
1184 Clouds 21 1009 76 0 0.23 41 02:46 08.01.2020
1185 Clouds 21 1009 76 0 0.23 41 02:28 08.01.2020
1186 Clouds 22 1009 69 0 0.41 162 01:52 08.01.2020
1187 Clouds 22 1008 68 0 0.53 163 01:26 08.01.2020
1188 Clouds 22 1008 68 0 0.53 163 00:42 08.01.2020
1189 Clouds 22 1008 68 0 0.53 163 00:21 08.01.2020
1190 Clouds 22 1008 68 0 0.53 163 23:44 07.01.2020
1191 Clouds 23 1010 68 0 0.92 145 23:20 07.01.2020
1192 Clouds 23 1010 68 0 0.92 145 22:41 07.01.2020
1193 Haze 24 1011 88 5000 0.92 145 22:21 07.01.2020
1194 Haze 24 1011 88 5000 0.92 145 21:57 07.01.2020
1195 Haze 24 1011 88 5000 0.92 145 21:39 07.01.2020
1196 Haze 24 1011 88 5000 0.92 145 21:21 07.01.2020
1197 Haze 24 1011 88 5000 0.92 145 21:21 07.01.2020
1198 Haze 25 1011 88 5000 2.1 30 20:57 07.01.2020
1199 Haze 25 1011 88 5000 2.1 30 20:38 07.01.2020
1200 Haze 25 1011 88 5000 2.1 30 20:20 07.01.2020
1201 Clouds 25 1007 63 0 1.17 148 19:55 07.01.2020
1202 Clouds 25 1007 63 0 1.17 148 19:36 07.01.2020
1203 Clouds 25 1007 63 0 1.17 148 19:18 07.01.2020
1204 Clouds 25 1007 63 0 1.17 148 19:18 07.01.2020
1205 Clouds 25 1007 63 0 1.17 148 18:55 07.01.2020
1206 Clouds 25 1007 63 0 1.17 148 18:36 07.01.2020
1207 Haze 31 1009 62 5000 2.1 50 18:18 07.01.2020
1208 Clouds 25 1007 63 0 1.17 148 17:40 07.01.2020
1209 Clouds 33 1005 42 0 0.84 16 17:22 07.01.2020
1210 Clouds 33 1005 42 0 0.84 16 16:57 07.01.2020
1211 Clouds 33 1005 42 0 0.84 16 16:38 07.01.2020
1212 Clouds 33 1005 42 0 0.84 16 16:38 07.01.2020
1213 Clouds 33 1005 42 0 0.84 16 16:38 07.01.2020
1214 Clouds 33 1005 42 0 0.84 16 16:19 07.01.2020
1215 Clouds 33 1005 42 0 0.84 16 15:59 07.01.2020
1216 Clouds 33 1005 42 0 0.84 16 15:40 07.01.2020
1217 Haze 32 1009 49 5000 2.1 20 15:22 07.01.2020
1218 Clouds 33 1005 42 0 0.84 16 14:55 07.01.2020
1219 Clouds 33 1005 42 0 0.84 16 14:37 07.01.2020
1220 Clouds 31 1010 52 6000 2.1 330 14:18 07.01.2020
1221 Clouds 31 1010 52 6000 2.1 330 13:40 07.01.2020
1222 Clouds 31 1010 52 6000 2.1 330 13:19 07.01.2020
1223 Clouds 31 1011 52 7000 2.1 120 12:42 07.01.2020
1224 Clouds 31 1011 52 7000 2.1 120 12:42 07.01.2020
1225 Clouds 30 1012 55 7000 2.1 90 12:21 07.01.2020
1226 Clouds 34 1007 33 0 2.11 25 11:58 07.01.2020
1227 Clouds 34 1007 33 0 2.11 25 11:38 07.01.2020
1228 Clouds 34 1007 33 0 2.11 25 11:38 07.01.2020
1229 Clouds 31 1011 49 0 2.05 37 11:20 07.01.2020
1230 Clouds 31 1011 49 0 2.05 37 10:42 07.01.2020
1231 Clouds 31 1011 49 0 2.05 37 10:24 07.01.2020
1232 Clouds 31 1011 49 0 2.05 37 09:59 07.01.2020
1233 Clouds 31 1011 49 0 2.05 37 09:38 07.01.2020
1234 Clouds 31 1011 49 0 2.05 37 09:20 07.01.2020
1235 Clouds 31 1011 49 0 2.05 37 08:46 07.01.2020
1236 Mist 22 1013 94 3000 2.1 90 08:26 07.01.2020
1237 Mist 22 1013 94 3000 2.1 90 07:54 07.01.2020
1238 Mist 22 1013 94 3000 2.1 90 07:29 07.01.2020
1239 Clouds 24 1012 75 0 0.91 85 06:54 07.01.2020
1240 Clouds 24 1012 75 0 0.91 85 06:54 07.01.2020
1241 Clouds 24 1012 75 0 0.91 85 06:35 07.01.2020
1242 Mist 20 1012 100 3000 0.91 85 05:57 07.01.2020
1243 Clouds 24 1012 75 0 0.91 85 05:35 07.01.2020
1244 Clouds 21 1010 86 0 0.9 46 03:29 07.01.2020
1245 Clouds 22 1009 80 0 0.85 156 02:24 07.01.2020
1246 Clouds 22 1009 80 0 0.85 156 01:57 07.01.2020
1247 Clouds 22 1009 80 0 0.85 156 01:32 07.01.2020
1248 Clouds 22 1009 83 0 0.83 161 00:37 07.01.2020
1249 Clouds 22 1009 83 0 0.83 161 00:19 07.01.2020
1250 Clouds 22 1009 83 0 0.83 161 23:55 06.01.2020
1251 Clouds 22 1009 83 0 0.83 161 23:36 06.01.2020
1252 Clouds 22 1009 83 0 0.83 161 23:36 06.01.2020
1253 Clouds 23 1009 80 0 1.05 155 23:18 06.01.2020
1254 Clouds 23 1009 80 0 1.05 155 22:42 06.01.2020
1255 Clouds 23 1009 80 0 1.05 155 22:22 06.01.2020
1256 Clouds 23 1009 80 0 1.05 155 21:57 06.01.2020
1257 Clouds 23 1009 80 0 1.05 155 21:38 06.01.2020
1258 Clouds 23 1009 80 0 1.05 155 21:20 06.01.2020
1259 Clouds 23 1009 80 0 1.05 155 21:20 06.01.2020
1260 Clouds 23 1009 80 0 1.05 155 21:20 06.01.2020
1261 Clouds 23 1009 80 0 1.05 155 20:56 06.01.2020
1262 Clouds 23 1009 80 0 1.05 155 20:38 06.01.2020
1263 Clouds 24 1008 76 0 1.08 114 20:20 06.01.2020
1264 Clouds 24 1008 76 0 1.08 114 19:56 06.01.2020
1265 Clouds 24 1008 76 0 1.08 114 19:56 06.01.2020
1266 Clouds 24 1008 76 0 1.08 114 19:37 06.01.2020
1267 Clouds 24 1008 76 0 1.08 114 19:19 06.01.2020
1268 Clouds 24 1008 76 0 1.08 114 19:19 06.01.2020
1269 Clouds 24 1008 76 0 1.08 114 18:46 06.01.2020
1270 Clouds 28 1009 78 6000 1.08 114 18:21 06.01.2020
1271 Clouds 28 1009 78 6000 1.08 114 17:57 06.01.2020
1272 Clouds 24 1008 76 0 1.08 114 17:37 06.01.2020
1273 Clouds 24 1008 76 0 1.08 114 17:37 06.01.2020
1274 Clouds 30 1009 66 6000 1.5 0 17:18 06.01.2020
1275 Clouds 30 1009 66 6000 1.5 0 16:44 06.01.2020
1276 Clouds 30 1009 66 6000 1.5 0 16:24 06.01.2020
1277 Clouds 31 1006 53 0 1.22 49 15:59 06.01.2020
1278 Clouds 31 1006 53 0 1.22 49 15:38 06.01.2020
1279 Clouds 32 1009 55 6000 2.1 40 15:18 06.01.2020
1280 Clouds 32 1009 55 6000 2.1 40 15:18 06.01.2020
1281 Clouds 32 1009 55 6000 2.1 40 14:56 06.01.2020
1282 Clouds 32 1009 55 6000 2.1 40 14:37 06.01.2020
1283 Clouds 32 1009 55 6000 2.1 40 14:18 06.01.2020
1284 Clouds 32 1010 52 6000 2.1 100 13:41 06.01.2020
1285 Clouds 32 1010 52 6000 2.1 100 13:22 06.01.2020
1286 Clouds 31 1012 62 7000 2.1 10 12:59 06.01.2020
1287 Clouds 31 1012 62 7000 2.1 10 12:41 06.01.2020
1288 Clouds 31 1012 62 7000 2.1 10 12:20 06.01.2020
1289 Clouds 30 1013 66 8000 1.5 0 11:55 06.01.2020
1290 Clouds 30 1013 66 8000 1.5 0 11:37 06.01.2020
1291 Clouds 30 1013 66 8000 1.5 0 11:18 06.01.2020
1292 Clouds 28 1013 74 7000 0.96 100 10:42 06.01.2020
1293 Clouds 28 1013 74 7000 0.96 100 10:21 06.01.2020
1294 Clouds 27 1014 78 7000 2.1 100 09:42 06.01.2020
1295 Clouds 27 1014 78 7000 2.1 100 09:24 06.01.2020
1296 Clouds 25 1015 88 6000 1.5 0 08:58 06.01.2020
1297 Clouds 30 1012 53 0 0.96 100 08:38 06.01.2020
1298 Mist 23 1015 94 4000 1.5 0 08:19 06.01.2020
1299 Mist 23 1015 94 4000 1.5 0 07:44 06.01.2020
1300 Clouds 22 1012 90 0 0.55 139 06:55 06.01.2020
1301 Clouds 22 1012 90 0 0.55 139 06:35 06.01.2020
1302 Clouds 22 1012 90 0 0.55 139 05:48 06.01.2020
1303 Clouds 22 1012 90 0 0.55 139 05:24 06.01.2020
1304 Clouds 20 1011 95 0 0.37 138 04:24 06.01.2020
1305 Clouds 20 1011 95 0 0.37 138 03:51 06.01.2020
1306 Clouds 20 1011 95 0 0.37 138 02:28 06.01.2020
1307 Clouds 20 1011 97 0 0.66 174 01:53 06.01.2020
1308 Clouds 20 1011 97 0 0.66 174 01:30 06.01.2020
1309 Clouds 20 1011 97 0 0.76 164 00:46 06.01.2020
1310 Clouds 20 1011 97 0 0.76 164 00:28 06.01.2020
1311 Clouds 20 1011 97 0 0.76 164 23:57 05.01.2020
1312 Clouds 20 1011 97 0 0.76 164 23:57 05.01.2020
1313 Clouds 20 1011 97 0 0.76 164 23:38 05.01.2020
1314 Clouds 21 1012 97 0 1.02 173 23:20 05.01.2020
1315 Clouds 21 1012 97 0 1.02 173 22:40 05.01.2020
1316 Clouds 21 1012 97 0 1.02 173 22:21 05.01.2020
1317 Clouds 21 1012 97 0 1.02 173 21:58 05.01.2020
1318 Clouds 21 1012 97 0 1.02 173 21:40 05.01.2020
1319 Clouds 21 1012 97 0 1.02 173 21:20 05.01.2020
1320 Clouds 21 1012 97 0 1.02 173 20:58 05.01.2020
1321 Clouds 21 1012 97 0 1.02 173 20:39 05.01.2020
1322 Clouds 22 1011 90 0 0.97 206 20:19 05.01.2020
1323 Clouds 22 1011 90 0 0.97 206 19:58 05.01.2020
1324 Clouds 22 1011 90 0 0.97 206 19:39 05.01.2020
1325 Clouds 22 1011 90 0 0.97 206 19:20 05.01.2020
1326 Clouds 22 1011 90 0 0.97 206 18:56 05.01.2020
1327 Clouds 22 1011 90 0 0.97 206 18:37 05.01.2020
1328 Thunderstorm 28 1011 69 7000 3.1 210 18:19 05.01.2020
1329 Thunderstorm 28 1011 69 7000 3.1 210 17:58 05.01.2020
1330 Clouds 22 1011 90 0 0.97 206 17:39 05.01.2020
1331 Rain 26 1009 84 0 1.01 213 17:20 05.01.2020
1332 Rain 26 1009 84 0 1.01 213 17:20 05.01.2020
1333 Rain 26 1009 84 0 1.01 213 16:56 05.01.2020
1334 Rain 26 1009 84 0 1.01 213 16:38 05.01.2020
1335 Clouds 29 1010 70 7000 3.1 310 16:19 05.01.2020
1336 Rain 26 1009 84 0 1.01 213 15:39 05.01.2020
1337 Rain 26 1009 84 0 1.01 213 15:39 05.01.2020
1338 Rain 26 1009 84 0 1.01 213 15:20 05.01.2020
1339 Rain 26 1009 84 0 1.01 213 14:56 05.01.2020
1340 Rain 26 1009 84 0 1.01 213 14:38 05.01.2020
1341 Rain 27 1010 75 0 1.56 229 14:19 05.01.2020
1342 Rain 27 1010 75 0 1.56 229 13:56 05.01.2020
1343 Rain 27 1010 75 0 1.56 229 13:37 05.01.2020
1344 Clouds 29 1013 70 7000 3.1 250 13:18 05.01.2020
1345 Clouds 29 1013 70 7000 3.1 250 12:55 05.01.2020
1346 Clouds 29 1013 70 7000 3.1 250 12:55 05.01.2020
1347 Clouds 28 1010 60 0 1.92 238 12:37 05.01.2020
1348 Clouds 28 1010 60 0 1.92 238 12:18 05.01.2020
1349 Clouds 28 1010 60 0 1.92 238 12:18 05.01.2020
1350 Clouds 28 1010 60 0 1.92 238 11:43 05.01.2020
1351 Rain 22 1014 94 0 0.61 189 11:20 05.01.2020
1352 Rain 22 1014 94 0 0.61 189 10:58 05.01.2020
1353 Rain 22 1014 94 0 0.61 189 10:39 05.01.2020
1354 Rain 22 1014 94 0 0.61 189 10:39 05.01.2020
1355 Rain 22 1014 94 0 0.61 189 10:19 05.01.2020
1356 Rain 22 1014 94 0 0.61 189 09:42 05.01.2020
1357 Rain 22 1014 94 0 0.61 189 09:22 05.01.2020
1358 Rain 22 1014 94 0 0.61 189 08:50 05.01.2020
1359 Mist 22 1015 94 2000 2.1 360 08:31 05.01.2020
1360 Mist 22 1015 94 2000 2.1 360 07:57 05.01.2020
1361 Mist 22 1015 94 2000 2.1 360 07:38 05.01.2020
1362 Mist 22 1015 94 2000 2.1 360 07:20 05.01.2020
1363 Mist 21 1015 100 2000 2.1 340 06:20 05.01.2020
1364 Rain 21 1013 95 0 1.43 183 05:33 05.01.2020
1365 Rain 21 1013 95 0 1.43 183 05:33 05.01.2020
1366 Rain 21 1011 93 0 0.58 212 04:44 05.01.2020
1367 Rain 21 1011 93 0 0.58 212 04:18 05.01.2020
1368 Rain 21 1011 93 0 0.58 212 02:46 05.01.2020
1369 Rain 21 1011 93 0 0.58 212 02:24 05.01.2020
1370 Clouds 21 1011 95 0 1 201 01:48 05.01.2020
1371 Clouds 21 1011 95 0 1 201 01:19 05.01.2020
1372 Clouds 21 1010 94 0 0.99 206 00:54 05.01.2020
1373 Clouds 21 1010 94 0 0.99 206 00:36 05.01.2020
1374 Clouds 21 1010 94 0 0.99 206 00:18 05.01.2020
1375 Clouds 21 1010 94 0 0.99 206 23:40 04.01.2020
1376 Clouds 21 1011 95 0 1.18 208 23:19 04.01.2020
1377 Clouds 21 1011 95 0 1.18 208 22:40 04.01.2020
1378 Clouds 21 1011 95 0 1.18 208 22:22 04.01.2020
1379 Clouds 21 1011 95 0 1.18 208 21:58 04.01.2020
1380 Clouds 21 1011 95 0 1.18 208 21:40 04.01.2020
1381 Clouds 21 1011 95 0 1.18 208 21:20 04.01.2020
1382 Clouds 21 1011 95 0 1.18 208 20:59 04.01.2020
1383 Clouds 21 1011 95 0 1.18 208 20:40 04.01.2020
1384 Rain 22 1010 93 0 0.56 228 20:22 04.01.2020
1385 Rain 22 1010 93 0 0.56 228 19:57 04.01.2020
1386 Rain 22 1010 93 0 0.56 228 19:38 04.01.2020
1387 Rain 22 1010 93 0 0.56 228 19:20 04.01.2020
1388 Rain 22 1010 93 0 0.56 228 18:56 04.01.2020
1389 Rain 22 1010 93 0 0.56 228 18:37 04.01.2020
1390 Clouds 24 1012 88 6000 1.5 0 18:18 04.01.2020
1391 Rain 22 1010 93 0 0.56 228 17:41 04.01.2020
1392 Rain 22 1010 93 0 0.56 228 17:23 04.01.2020
1393 Rain 25 1008 92 0 0.73 304 16:58 04.01.2020
1394 Rain 25 1008 92 0 0.73 304 16:39 04.01.2020
1395 Clouds 26 1012 74 6000 2.1 60 16:21 04.01.2020
1396 Clouds 26 1012 74 6000 2.1 60 15:56 04.01.2020
1397 Clouds 26 1012 74 6000 2.1 60 15:37 04.01.2020
1398 Clouds 26 1012 74 6000 2.1 60 15:18 04.01.2020
1399 Clouds 26 1012 74 6000 1.5 0 14:42 04.01.2020
1400 Clouds 26 1012 74 6000 1.5 0 14:42 04.01.2020
1401 Clouds 26 1012 74 6000 1.5 0 14:20 04.01.2020
1402 Rain 27 1010 86 0 1.24 258 13:59 04.01.2020
1403 Rain 27 1010 86 0 1.24 258 13:38 04.01.2020
1404 Rain 27 1010 86 0 1.24 258 13:19 04.01.2020
1405 Rain 27 1010 85 0 1.01 266 12:57 04.01.2020
1406 Rain 27 1010 85 0 1.01 266 12:39 04.01.2020
1407 Rain 27 1010 85 0 1.01 266 12:19 04.01.2020
1408 Rain 27 1010 85 0 1.01 266 11:57 04.01.2020
1409 Rain 27 1010 85 0 1.01 266 11:57 04.01.2020
1410 Rain 27 1010 85 0 1.01 266 11:38 04.01.2020
1411 Rain 27 1010 85 0 1.01 266 11:38 04.01.2020
1412 Rain 26 1012 85 0 2.08 233 11:18 04.01.2020
1413 Rain 26 1012 85 0 2.08 233 10:41 04.01.2020
1414 Clouds 23 1016 88 7000 2.1 180 10:22 04.01.2020
1415 Clouds 23 1016 88 7000 2.1 180 09:48 04.01.2020
1416 Clouds 23 1016 88 7000 2.1 180 09:26 04.01.2020
1417 Rain 26 1012 85 0 2.08 233 08:57 04.01.2020
1418 Rain 26 1012 85 0 2.08 233 08:37 04.01.2020
1419 Mist 22 1015 94 4000 3.1 340 08:19 04.01.2020
1420 Mist 22 1015 94 4000 3.1 340 07:42 04.01.2020
1421 Rain 23 1013 93 0 1.59 181 06:49 04.01.2020
1422 Rain 23 1013 93 0 1.59 181 05:59 04.01.2020
1423 Rain 22 1010 97 0 0.37 87 05:18 04.01.2020
1424 Rain 22 1010 97 0 0.37 87 04:33 04.01.2020
1425 Rain 22 1010 97 0 0.37 87 03:39 04.01.2020
1426 Rain 22 1010 97 0 0.37 87 03:18 04.01.2020
1427 Rain 22 1010 91 0 1 186 02:21 04.01.2020
1428 Rain 22 1010 91 0 1 186 01:53 04.01.2020
1429 Rain 22 1010 91 0 1 186 01:30 04.01.2020
1430 Clouds 23 1010 81 0 1.25 188 00:41 04.01.2020
1431 Clouds 23 1010 81 0 1.25 188 00:22 04.01.2020
1432 Clouds 23 1010 81 0 1.25 188 23:41 03.01.2020
1433 Clouds 23 1010 81 0 1.25 188 23:23 03.01.2020
1434 Clouds 24 1010 76 0 1.17 206 22:41 03.01.2020
1435 Clouds 24 1010 76 0 1.17 206 22:20 03.01.2020
1436 Clouds 24 1010 76 0 1.17 206 21:58 03.01.2020
1437 Clouds 24 1010 76 0 1.17 206 21:38 03.01.2020
1438 Clouds 24 1012 88 6000 1.17 206 21:19 03.01.2020
1439 Clouds 24 1012 88 6000 1.17 206 20:58 03.01.2020
1440 Clouds 24 1012 88 6000 1.17 206 20:40 03.01.2020
1441 Clouds 24 1012 88 6000 1.38 208 20:18 03.01.2020
1442 Clouds 25 1011 83 6000 1.38 208 19:55 03.01.2020
1443 Clouds 25 1011 83 6000 1.38 208 19:55 03.01.2020
1444 Clouds 25 1008 77 0 1.38 208 19:37 03.01.2020
1445 Clouds 25 1011 83 6000 2.1 0 19:18 03.01.2020
1446 Clouds 25 1011 83 6000 2.1 0 18:43 03.01.2020
1447 Clouds 25 1011 83 6000 2.1 0 18:24 03.01.2020
1448 Clouds 27 1010 74 7000 4.1 120 17:55 03.01.2020
1449 Clouds 27 1010 74 7000 4.1 120 17:36 03.01.2020
1450 Clouds 27 1010 74 7000 4.1 120 17:18 03.01.2020
1451 Rain 27 1006 70 0 1.36 185 16:42 03.01.2020
1452 Clouds 28 1010 69 7000 4.1 210 16:22 03.01.2020
1453 Clouds 28 1010 69 7000 4.1 210 15:44 03.01.2020
1454 Clouds 28 1010 69 7000 4.1 210 15:19 03.01.2020
1455 Clouds 28 1010 69 7000 4.1 210 15:19 03.01.2020
1456 Clouds 29 1011 58 10000 4.1 210 14:59 03.01.2020
1457 Clouds 29 1011 58 10000 4.1 210 14:38 03.01.2020
1458 Clouds 29 1011 58 10000 4.1 210 14:19 03.01.2020
1459 Rain 31 1008 55 0 1.31 229 13:43 03.01.2020
1460 Rain 30 1008 61 0 2.71 260 13:24 03.01.2020
1461 Rain 30 1008 61 0 2.71 260 12:58 03.01.2020
1462 Rain 30 1008 61 0 2.71 260 12:39 03.01.2020
1463 Rain 30 1008 61 0 2.71 260 12:21 03.01.2020
1464 Rain 30 1008 61 0 2.71 260 11:44 03.01.2020
1465 Clouds 34 1012 43 0 0.48 290 11:21 03.01.2020
1466 Clouds 34 1012 43 0 0.48 290 10:44 03.01.2020
1467 Clouds 34 1012 43 0 0.48 290 10:26 03.01.2020
1468 Clouds 34 1012 43 0 0.48 290 09:58 03.01.2020
1469 Clouds 34 1012 43 0 0.48 290 09:39 03.01.2020
1470 Clouds 34 1012 43 0 0.48 290 09:21 03.01.2020
1471 Clouds 34 1012 43 0 0.48 290 08:56 03.01.2020
1472 Clouds 34 1012 43 0 0.48 290 08:38 03.01.2020
1473 Thunderstorm 23 1014 94 4000 2.1 270 08:19 03.01.2020
1474 Thunderstorm 23 1014 94 4000 2.1 270 07:40 03.01.2020
1475 Thunderstorm 23 1014 94 4000 2.1 270 07:18 03.01.2020
1476 Thunderstorm 23 1014 94 4000 2.1 270 07:18 03.01.2020
1477 Clouds 24 1012 84 0 1.09 151 06:47 03.01.2020
1478 Clouds 24 1012 84 0 1.09 151 06:47 03.01.2020
1479 Mist 22 1012 100 4000 1.09 151 06:29 03.01.2020
1480 Clouds 24 1012 84 0 1.09 151 05:39 03.01.2020
1481 Clouds 22 1010 93 0 0.53 128 04:21 03.01.2020
1482 Clouds 22 1010 93 0 0.53 128 02:56 03.01.2020
1483 Clouds 22 1010 93 0 0.53 128 02:56 03.01.2020
1484 Clouds 22 1010 93 0 0.53 128 02:28 03.01.2020
1485 Rain 22 1010 89 0 1.56 196 01:42 03.01.2020
1486 Clouds 23 1010 86 0 1.26 192 00:49 03.01.2020
1487 Clouds 23 1010 86 0 1.26 192 00:29 03.01.2020
1488 Clouds 23 1010 86 0 1.26 192 23:55 02.01.2020
1489 Clouds 23 1010 86 0 1.26 192 23:37 02.01.2020
1490 Clouds 24 1011 81 0 1.78 231 23:18 02.01.2020
1491 Clouds 24 1011 81 0 1.78 231 22:45 02.01.2020
1492 Clouds 24 1011 81 0 1.78 231 22:21 02.01.2020
1493 Clouds 24 1011 81 0 1.78 231 21:59 02.01.2020
1494 Clouds 24 1011 81 0 1.78 231 21:41 02.01.2020
1495 Clouds 24 1011 81 0 1.78 231 21:23 02.01.2020
1496 Clouds 24 1011 81 0 1.78 231 20:58 02.01.2020
1497 Clouds 24 1011 81 0 1.78 231 20:39 02.01.2020
1498 Clouds 24 1011 81 0 1.78 231 20:39 02.01.2020
1499 Clouds 25 1009 68 0 1.4 221 20:21 02.01.2020
1500 Clouds 25 1009 68 0 1.4 221 19:55 02.01.2020
1501 Clouds 25 1009 68 0 1.4 221 19:55 02.01.2020
1502 Clouds 25 1009 68 0 1.4 221 19:55 02.01.2020
1503 Clouds 25 1009 68 0 1.4 221 19:37 02.01.2020
1504 Clouds 25 1009 68 0 1.4 221 19:19 02.01.2020
1505 Clouds 25 1009 68 0 1.4 221 18:57 02.01.2020
1506 Clouds 25 1009 68 0 1.4 221 18:38 02.01.2020
1507 Clouds 25 1009 68 0 1.4 221 18:20 02.01.2020
1508 Clouds 25 1009 68 0 1.4 221 17:56 02.01.2020
1509 Clouds 25 1009 68 0 1.4 221 17:36 02.01.2020
1510 Thunderstorm 27 1008 69 7000 3.1 130 17:18 02.01.2020
1511 Thunderstorm 27 1008 69 7000 3.1 130 16:56 02.01.2020
1512 Clouds 30 1006 54 0 0.67 227 16:38 02.01.2020
1513 Clouds 30 1006 54 0 0.67 227 16:19 02.01.2020
1514 Clouds 30 1006 54 0 0.67 227 15:45 02.01.2020
1515 Clouds 30 1006 54 0 0.67 227 15:24 02.01.2020
1516 Clouds 30 1006 54 0 0.67 227 14:58 02.01.2020
1517 Clouds 30 1006 54 0 0.67 227 14:38 02.01.2020
1518 Clouds 33 1010 59 7000 3.1 260 14:20 02.01.2020
1519 Clouds 33 1010 59 7000 3.1 260 13:58 02.01.2020
1520 Clouds 33 1010 59 7000 3.1 260 13:40 02.01.2020
1521 Clouds 33 1010 59 7000 3.1 260 13:19 02.01.2020
1522 Clouds 23 1011 100 7000 3.1 190 12:42 02.01.2020
1523 Clouds 23 1011 100 7000 3.1 190 12:21 02.01.2020
1524 Clouds 31 1012 62 8000 3.1 150 11:42 02.01.2020
1525 Clouds 31 1012 62 8000 3.1 150 11:22 02.01.2020
1526 Clouds 29 1013 74 8000 3.1 180 10:46 02.01.2020
1527 Clouds 27 1010 69 0 0.45 281 10:28 02.01.2020
1528 Clouds 27 1010 69 0 0.45 281 09:58 02.01.2020
1529 Clouds 27 1010 69 0 0.45 281 09:36 02.01.2020
1530 Clouds 27 1010 69 0 0.45 281 08:59 02.01.2020
1531 Clouds 27 1010 69 0 0.45 281 08:40 02.01.2020
1532 Clouds 25 1011 73 0 1.12 111 08:21 02.01.2020
1533 Clouds 25 1011 75 0 1.09 114 07:47 02.01.2020
1534 Clouds 25 1011 75 0 1.09 114 07:27 02.01.2020
1535 Clouds 25 1011 75 0 1.09 114 06:41 02.01.2020
1536 Clouds 25 1011 75 0 1.09 114 05:42 02.01.2020
1537 Clouds 24 1008 74 0 1.02 99 04:36 02.01.2020
1538 Clouds 24 1008 74 0 1.02 99 03:44 02.01.2020
1539 Clouds 23 1008 76 0 0.97 235 02:21 02.01.2020
1540 Clouds 23 1008 76 0 0.97 235 01:53 02.01.2020
1541 Clouds 23 1008 75 0 0.97 212 01:26 02.01.2020
1542 Clouds 23 1008 75 0 0.97 212 00:49 02.01.2020
1543 Clouds 23 1008 75 0 0.97 212 00:26 02.01.2020
1544 Clouds 23 1008 75 0 0.97 212 23:43 01.01.2020
1545 Clouds 23 1008 75 0 0.97 212 23:23 01.01.2020
1546 Clouds 25 1009 71 0 1.48 222 22:39 01.01.2020
1547 Clouds 25 1009 71 0 1.48 222 22:21 01.01.2020
1548 Clouds 25 1009 71 0 1.48 222 21:58 01.01.2020
1549 Clouds 25 1009 71 0 1.48 222 21:40 01.01.2020
1550 Clouds 25 1009 71 0 1.48 222 21:20 01.01.2020
1551 Clouds 25 1009 71 0 1.48 222 20:58 01.01.2020
1552 Clouds 25 1009 71 0 1.48 222 20:38 01.01.2020
1553 Clear 25 1009 88 7000 2.1 30 20:20 01.01.2020
1554 Clear 25 1009 88 7000 2.1 30 19:57 01.01.2020
1555 Clouds 26 1007 71 0 1.05 223 19:38 01.01.2020
1556 Clouds 26 1007 71 0 1.05 223 19:20 01.01.2020
1557 Clouds 26 1007 71 0 1.05 223 18:57 01.01.2020
1558 Clouds 26 1007 71 0 1.05 223 18:38 01.01.2020
1559 Clouds 26 1007 71 0 1.05 223 18:20 01.01.2020
1560 Clouds 26 1007 71 0 1.05 223 17:57 01.01.2020
1561 Clouds 26 1007 71 0 1.05 223 17:39 01.01.2020
1562 Clouds 31 1005 54 0 1.58 217 17:19 01.01.2020
1563 Clouds 31 1005 54 0 1.58 217 16:57 01.01.2020
1564 Clouds 31 1005 54 0 1.58 217 16:37 01.01.2020
1565 Clouds 31 1005 54 0 1.58 217 16:37 01.01.2020
1566 Clouds 28 1009 78 8000 3.1 50 16:19 01.01.2020
1567 Clouds 28 1009 78 8000 3.1 50 16:19 01.01.2020
1568 Clouds 28 1009 78 8000 3.1 50 15:54 01.01.2020
1569 Clouds 31 1005 54 0 1.58 217 15:36 01.01.2020
1570 Clouds 31 1005 54 0 1.58 217 15:36 01.01.2020
1571 Clouds 27 1009 83 8000 3.1 90 15:18 01.01.2020
1572 Clouds 27 1009 83 8000 3.1 90 14:41 01.01.2020
1573 Clouds 27 1009 83 8000 3.1 90 14:23 01.01.2020
1574 Clouds 27 1017 57 6000 3.1 120 13:57 01.01.2020
1575 Clouds 27 1017 57 6000 3.1 120 13:38 01.01.2020
1576 Clouds 27 1017 57 6000 3.1 120 13:19 01.01.2020
1577 Clouds 25 1011 88 8000 3.1 90 12:58 01.01.2020
1578 Clouds 25 1011 88 8000 3.1 90 12:40 01.01.2020
1579 Clouds 25 1011 88 8000 3.1 90 12:19 01.01.2020
1580 Clouds 25 1012 88 7000 3.1 180 11:56 01.01.2020
1581 Clouds 25 1012 88 7000 3.1 180 11:38 01.01.2020
1582 Clouds 25 1012 88 7000 3.1 180 11:19 01.01.2020
1583 Clouds 27 1012 78 7000 3.1 180 10:54 01.01.2020
1584 Clouds 27 1012 78 7000 3.1 180 10:36 01.01.2020
1585 Clouds 27 1012 78 7000 3.1 180 10:18 01.01.2020
1586 Clouds 34 1010 43 0 0.79 113 09:39 01.01.2020
1587 Clouds 34 1010 43 0 0.79 113 09:19 01.01.2020
1588 Clouds 34 1010 43 0 0.79 113 08:56 01.01.2020
1589 Clouds 34 1010 43 0 0.79 113 08:37 01.01.2020
1590 Clouds 25 1011 71 0 1.12 126 08:19 01.01.2020
1591 Clouds 25 1011 72 0 1.06 130 07:55 01.01.2020
1592 Clouds 25 1011 72 0 1.06 130 07:37 01.01.2020
1593 Clouds 25 1011 72 0 1.06 130 06:46 01.01.2020
1594 Clouds 25 1011 72 0 1.06 130 06:22 01.01.2020
1595 Clouds 25 1011 72 0 1.06 130 05:45 01.01.2020
1596 Clouds 22 1008 81 0 0.9 74 03:48 01.01.2020
1597 Clouds 22 1008 81 0 0.9 74 03:28 01.01.2020
1598 Clouds 22 1008 81 0 0.9 74 02:59 01.01.2020
1599 Clouds 22 1008 81 0 0.9 74 02:40 01.01.2020
1600 Clouds 23 1008 75 0 0.73 230 02:21 01.01.2020
1601 Clouds 23 1008 75 0 0.73 230 01:39 01.01.2020
1602 Clouds 23 1008 75 0 0.73 230 01:39 01.01.2020
1603 Clouds 23 1008 76 0 0.91 233 01:21 01.01.2020
1604 Clouds 23 1008 76 0 0.91 233 00:44 01.01.2020
1605 Clouds 23 1008 76 0 0.91 233 00:26 01.01.2020
1606 Clouds 23 1008 76 0 0.91 233 23:42 31.12.2019
1607 Clouds 24 1009 71 0 0.89 196 23:22 31.12.2019
1608 Clouds 24 1009 71 0 0.89 196 22:59 31.12.2019
1609 Clouds 24 1009 71 0 0.89 196 22:39 31.12.2019
1610 Clouds 24 1009 71 0 0.89 196 22:20 31.12.2019
1611 Clouds 24 1009 71 0 0.89 196 21:59 31.12.2019
1612 Clouds 24 1009 71 0 0.89 196 21:59 31.12.2019
1613 Clouds 24 1009 71 0 0.89 196 21:40 31.12.2019
1614 Clouds 24 1009 71 0 0.89 196 21:40 31.12.2019
1615 Clouds 24 1009 71 0 0.89 196 21:22 31.12.2019
1616 Clouds 24 1009 71 0 0.89 196 20:57 31.12.2019
1617 Clouds 24 1009 71 0 0.89 196 20:37 31.12.2019
1618 Clouds 26 1008 59 0 0.7 167 20:19 31.12.2019
1619 Clouds 26 1008 59 0 0.7 167 19:55 31.12.2019
1620 Clouds 26 1008 59 0 0.7 167 19:36 31.12.2019
1621 Clouds 26 1008 59 0 0.7 167 19:18 31.12.2019
1622 Clouds 26 1008 59 0 0.7 167 18:54 31.12.2019
1623 Clouds 26 1008 59 0 0.7 167 18:36 31.12.2019
1624 Clouds 30 1008 74 7000 0.7 167 18:18 31.12.2019
1625 Clouds 30 1008 74 7000 0.7 167 17:54 31.12.2019
1626 Clouds 26 1008 59 0 0.7 167 17:36 31.12.2019
1627 Clouds 32 1008 66 7000 1 80 17:18 31.12.2019
1628 Clouds 32 1008 66 7000 1 80 17:18 31.12.2019
1629 Clouds 32 1008 66 7000 1 80 16:55 31.12.2019
1630 Clouds 32 1008 66 7000 1 80 16:36 31.12.2019
1631 Clouds 32 1008 66 7000 1 80 16:18 31.12.2019
1632 Clouds 32 1005 47 0 1 80 15:55 31.12.2019
1633 Clouds 32 1005 47 0 1 80 15:37 31.12.2019
1634 Clouds 32 1005 47 0 1 80 15:18 31.12.2019
1635 Clouds 32 1005 47 0 1 80 15:18 31.12.2019
1636 Clouds 32 1005 47 0 1 80 14:55 31.12.2019
1637 Clouds 32 1005 47 0 1 80 14:36 31.12.2019
1638 Clouds 33 1009 59 8000 2.1 120 14:18 31.12.2019
1639 Clouds 33 1009 59 8000 2.1 120 13:54 31.12.2019
1640 Clouds 35 1007 33 0 1.6 29 13:36 31.12.2019
1641 Clouds 35 1007 33 0 1.77 36 13:18 31.12.2019
1642 Clouds 35 1007 33 0 1.77 36 12:40 31.12.2019
1643 Clouds 31 1011 66 8000 3.1 240 12:20 31.12.2019
1644 Clouds 31 1011 66 8000 3.1 240 12:20 31.12.2019
1645 Clouds 35 1007 33 0 1.77 36 11:57 31.12.2019
1646 Clouds 35 1007 33 0 1.77 36 11:39 31.12.2019
1647 Clouds 30 1012 66 8000 4.1 160 11:21 31.12.2019
1648 Clouds 30 1012 66 8000 4.1 160 10:58 31.12.2019
1649 Clouds 30 1012 66 8000 4.1 160 10:39 31.12.2019
1650 Clouds 30 1012 66 8000 4.1 160 10:20 31.12.2019
1651 Clouds 29 1013 70 10000 3.1 180 09:59 31.12.2019
1652 Clouds 29 1013 70 10000 3.1 180 09:40 31.12.2019
1653 Clouds 29 1013 70 10000 3.1 180 09:21 31.12.2019
1654 Clouds 27 1013 78 6000 3.1 170 08:58 31.12.2019
1655 Clouds 33 1011 48 0 1.03 135 08:39 31.12.2019
1656 Clouds 25 1011 79 0 1.17 158 08:20 31.12.2019
1657 Clouds 25 1011 79 0 1.17 158 07:44 31.12.2019
1658 Clouds 25 1011 79 0 1.17 158 07:22 31.12.2019
1659 Clouds 25 1011 79 0 1.17 158 06:51 31.12.2019
1660 Mist 21 1012 94 4000 2.1 0 05:59 31.12.2019
1661 Clouds 22 1010 88 0 0.61 125 04:54 31.12.2019
1662 Clouds 22 1010 88 0 0.61 125 04:21 31.12.2019
1663 Clouds 22 1010 88 0 0.61 125 02:56 31.12.2019
1664 Clouds 23 1009 77 0 0.91 200 02:19 31.12.2019
1665 Clouds 23 1009 77 0 0.91 200 01:48 31.12.2019
1666 Clouds 23 1009 75 0 0.96 194 01:29 31.12.2019
1667 Clouds 23 1009 75 0 0.96 194 00:48 31.12.2019
1668 Clouds 23 1009 75 0 0.96 194 00:24 31.12.2019
1669 Clouds 23 1009 75 0 0.96 194 23:58 30.12.2019
1670 Clouds 23 1009 75 0 0.96 194 23:39 30.12.2019
1671 Clouds 24 1010 65 0 0.75 180 23:21 30.12.2019
1672 Clouds 24 1010 65 0 0.75 180 22:59 30.12.2019
1673 Clouds 24 1010 65 0 0.75 180 22:40 30.12.2019
1674 Clouds 24 1010 65 0 0.75 180 22:20 30.12.2019
1675 Clouds 24 1010 65 0 0.75 180 21:57 30.12.2019
1676 Clouds 24 1010 65 0 0.75 180 21:39 30.12.2019
1677 Clouds 24 1010 65 0 0.75 180 21:20 30.12.2019
1678 Clouds 24 1010 65 0 0.75 180 20:58 30.12.2019
1679 Clouds 24 1010 65 0 0.75 180 20:40 30.12.2019
1680 Clouds 26 1008 53 0 1.11 117 20:20 30.12.2019
1681 Clouds 26 1008 57 0 1.19 115 19:58 30.12.2019
1682 Clouds 26 1008 57 0 1.19 115 19:38 30.12.2019
1683 Clouds 26 1008 57 0 1.19 115 19:19 30.12.2019
1684 Clouds 26 1008 57 0 1.19 115 18:57 30.12.2019
1685 Clouds 26 1008 57 0 1.19 115 18:38 30.12.2019
1686 Clouds 26 1008 57 0 1.19 115 18:20 30.12.2019
1687 Clouds 26 1008 57 0 1.19 115 17:55 30.12.2019
1688 Clouds 26 1008 57 0 1.19 115 17:37 30.12.2019
1689 Clear 33 1004 39 0 0.69 33 17:18 30.12.2019
1690 Clear 33 1004 39 0 0.69 33 16:57 30.12.2019
1691 Clear 33 1004 39 0 0.69 33 16:37 30.12.2019
1692 Clear 33 1004 39 0 0.69 33 16:37 30.12.2019
1693 Clear 33 1004 39 0 0.69 33 16:18 30.12.2019
1694 Clear 33 1004 39 0 0.69 33 15:55 30.12.2019
1695 Clear 33 1004 39 0 0.69 33 15:37 30.12.2019
1696 Clear 33 1004 39 0 0.69 33 15:18 30.12.2019
1697 Clear 33 1004 39 0 0.69 33 14:42 30.12.2019
1698 Clear 35 1006 32 0 1.87 28 14:20 30.12.2019
1699 Clear 35 1006 32 0 1.87 28 13:56 30.12.2019
1700 Clear 35 1006 32 0 1.87 28 13:37 30.12.2019
1701 Clouds 35 1006 31 0 1.76 27 13:19 30.12.2019
1702 Clouds 35 1006 31 0 1.76 27 12:43 30.12.2019
1703 Clouds 35 1006 31 0 1.76 27 12:22 30.12.2019
1704 Clouds 35 1006 31 0 1.76 27 11:59 30.12.2019
1705 Clouds 35 1006 31 0 1.76 27 11:40 30.12.2019
1706 Clouds 34 1011 42 0 0.46 30 11:19 30.12.2019
1707 Clouds 34 1011 42 0 0.46 30 11:19 30.12.2019
1708 Clouds 34 1011 42 0 0.46 30 10:45 30.12.2019
1709 Clouds 34 1011 42 0 0.46 30 10:22 30.12.2019
1710 Clouds 34 1011 42 0 0.46 30 09:59 30.12.2019
1711 Clouds 34 1011 42 0 0.46 30 09:41 30.12.2019
1712 Clouds 34 1011 42 0 0.46 30 09:20 30.12.2019
1713 Clouds 34 1011 42 0 0.46 30 08:54 30.12.2019
1714 Clouds 34 1010 41 0 0.59 56 08:36 30.12.2019
1715 Clouds 34 1011 42 0 0.46 30 08:36 30.12.2019
1716 Clouds 24 1011 68 0 0.78 198 08:18 30.12.2019
1717 Clouds 24 1011 68 0 0.78 198 07:39 30.12.2019
1718 Clouds 24 1011 68 0 0.78 198 06:52 30.12.2019
1719 Clouds 24 1011 68 0 0.78 198 05:24 30.12.2019
1720 Clouds 21 1009 71 0 0.91 260 03:58 30.12.2019
1721 Clouds 21 1009 71 0 0.91 260 03:19 30.12.2019
1722 Clouds 21 1009 71 0 0.91 260 02:40 30.12.2019
1723 Clouds 22 1008 66 0 0.63 171 01:56 30.12.2019
1724 Clouds 22 1008 66 0 0.85 192 01:25 30.12.2019
1725 Clouds 22 1008 66 0 0.85 192 00:45 30.12.2019
1726 Clouds 22 1008 66 0 0.85 192 00:23 30.12.2019
1727 Clouds 22 1008 66 0 0.85 192 23:40 29.12.2019
1728 Clouds 23 1009 66 0 0.73 132 23:21 29.12.2019
1729 Clouds 23 1009 66 0 0.73 132 22:56 29.12.2019
1730 Clouds 23 1009 66 0 0.73 132 22:37 29.12.2019
1731 Clouds 23 1009 66 0 0.73 132 22:18 29.12.2019
1732 Clouds 23 1009 66 0 0.73 132 21:43 29.12.2019
1733 Clouds 23 1009 66 0 0.73 132 21:21 29.12.2019
1734 Clouds 23 1009 66 0 0.73 132 21:21 29.12.2019
1735 Clouds 23 1009 66 0 0.73 132 20:58 29.12.2019
1736 Clouds 23 1009 66 0 0.73 132 20:39 29.12.2019
1737 Clear 25 1007 59 0 1.15 114 20:21 29.12.2019
1738 Clear 25 1007 61 0 0.99 111 19:59 29.12.2019
1739 Clear 25 1007 61 0 0.99 111 19:40 29.12.2019
1740 Clear 25 1007 61 0 0.99 111 19:21 29.12.2019
1741 Clear 25 1007 61 0 0.99 111 19:21 29.12.2019
1742 Clear 25 1007 61 0 0.99 111 18:58 29.12.2019
1743 Clear 25 1007 61 0 0.99 111 18:39 29.12.2019
1744 Clear 25 1007 61 0 0.99 111 18:20 29.12.2019
1745 Clear 25 1007 61 0 0.99 111 17:58 29.12.2019
1746 Clear 25 1007 61 0 0.99 111 17:58 29.12.2019
1747 Clear 25 1007 61 0 0.99 111 17:39 29.12.2019
1748 Clear 33 1004 42 0 0.64 353 17:20 29.12.2019
1749 Clear 33 1004 42 0 0.64 353 16:57 29.12.2019
1750 Clear 33 1004 42 0 0.64 353 16:57 29.12.2019
1751 Clear 33 1004 42 0 0.64 353 16:39 29.12.2019
1752 Clear 33 1004 42 0 0.64 353 16:21 29.12.2019
1753 Clear 33 1004 42 0 0.64 353 15:58 29.12.2019
1754 Clear 33 1004 42 0 0.64 353 15:39 29.12.2019
1755 Clear 33 1004 42 0 0.64 353 15:20 29.12.2019
1756 Clear 33 1004 42 0 0.64 353 15:20 29.12.2019
1757 Clear 33 1004 42 0 0.64 353 14:58 29.12.2019
1758 Clear 33 1004 42 0 0.64 353 14:39 29.12.2019
1759 Clouds 35 1006 31 0 1.78 34 14:18 29.12.2019
1760 Clouds 35 1006 31 0 1.78 34 13:58 29.12.2019
1761 Clouds 35 1006 31 0 1.78 34 13:39 29.12.2019
1762 Clouds 30 1015 58 10000 4.1 270 13:21 29.12.2019
1763 Clouds 30 1015 58 10000 4.1 270 12:56 29.12.2019
1764 Clouds 30 1015 58 10000 4.1 270 12:38 29.12.2019
1765 Clouds 30 1015 58 10000 4.1 270 12:19 29.12.2019
1766 Clouds 35 1006 31 0 1.69 31 11:40 29.12.2019
1767 Clouds 33 1010 46 0 0.94 68 11:21 29.12.2019
1768 Clouds 33 1010 46 0 0.94 68 10:56 29.12.2019
1769 Clouds 33 1010 46 0 0.94 68 10:37 29.12.2019
1770 Clouds 33 1010 46 0 0.94 68 10:18 29.12.2019
1771 Clouds 33 1010 46 0 0.94 68 09:44 29.12.2019
1772 Clouds 33 1010 46 0 0.94 68 09:26 29.12.2019
1773 Clouds 33 1010 46 0 0.94 68 08:52 29.12.2019
1774 Clouds 33 1010 46 0 0.97 75 08:29 29.12.2019
1775 Clouds 24 1010 80 0 1.15 86 07:59 29.12.2019
1776 Clouds 24 1010 80 0 1.15 86 07:32 29.12.2019
1777 Clouds 24 1010 80 0 1.15 86 06:59 29.12.2019
1778 Clouds 24 1010 80 0 1.15 86 06:27 29.12.2019
1779 Clouds 24 1010 80 0 1.15 86 05:55 29.12.2019
1780 Clouds 21 1009 93 0 0.18 134 04:47 29.12.2019
1781 Clouds 21 1009 93 0 0.18 134 04:28 29.12.2019
1782 Clouds 21 1009 93 0 0.18 134 03:28 29.12.2019
1783 Clouds 22 1008 85 0 1.3 182 02:22 29.12.2019
1784 Clouds 22 1008 85 0 1.3 182 01:42 29.12.2019
1785 Clouds 22 1008 83 0 1.35 180 01:23 29.12.2019
1786 Clouds 22 1008 83 0 1.35 180 00:44 29.12.2019
1787 Clouds 22 1008 83 0 1.35 180 00:24 29.12.2019
1788 Clouds 22 1008 83 0 1.35 180 23:45 28.12.2019
1789 Clear 23 1011 88 6000 0.85 136 23:19 28.12.2019
1790 Clear 23 1011 88 6000 0.85 136 23:19 28.12.2019
1791 Clear 23 1011 88 6000 0.85 136 23:19 28.12.2019
1792 Clear 23 1011 88 6000 0.85 136 22:59 28.12.2019
1793 Clear 23 1011 88 6000 0.85 136 22:37 28.12.2019
1794 Clear 23 1011 88 6000 0.85 136 22:18 28.12.2019
1795 Clear 25 1011 83 6000 0.85 136 21:55 28.12.2019
1796 Clear 25 1011 83 6000 0.85 136 21:37 28.12.2019
1797 Clear 25 1011 83 6000 0.85 136 21:19 28.12.2019
1798 Clouds 23 1010 73 0 0.85 136 20:40 28.12.2019
1799 Clouds 26 1007 63 0 0.77 240 20:22 28.12.2019
1800 Clouds 26 1007 63 0 0.77 240 19:59 28.12.2019
1801 Clouds 26 1007 63 0 0.77 240 19:40 28.12.2019
1802 Clouds 27 1009 78 6000 2.1 330 19:22 28.12.2019
1803 Clouds 27 1009 78 6000 2.1 330 18:59 28.12.2019
1804 Clouds 26 1007 63 0 0.77 240 18:40 28.12.2019
1805 Clouds 29 1008 66 8000 2.1 360 18:19 28.12.2019
1806 Clouds 26 1007 63 0 0.77 240 17:56 28.12.2019
1807 Clouds 26 1007 63 0 0.77 240 17:38 28.12.2019
1808 Clouds 32 1017 59 8000 2.1 360 17:19 28.12.2019
1809 Clouds 32 1017 59 8000 2.1 360 16:46 28.12.2019
1810 Clouds 31 1017 58 10000 2.1 360 16:26 28.12.2019
1811 Clouds 31 1017 58 10000 2.1 360 15:57 28.12.2019
1812 Clouds 31 1017 58 10000 2.1 360 15:39 28.12.2019
1813 Clouds 31 1017 58 10000 2.1 360 15:19 28.12.2019
1814 Clouds 32 1008 59 10000 2.1 30 14:44 28.12.2019
1815 Clouds 32 1008 59 10000 2.1 30 14:24 28.12.2019
1816 Clouds 32 1008 59 10000 2.1 30 14:24 28.12.2019
1817 Clouds 31 1009 62 10000 2.1 120 13:57 28.12.2019
1818 Clouds 31 1009 62 10000 2.1 120 13:38 28.12.2019
1819 Clouds 31 1009 62 10000 2.1 120 13:19 28.12.2019
1820 Clouds 31 1009 62 10000 2.1 120 13:19 28.12.2019
1821 Clouds 31 1011 62 10000 2.1 210 12:43 28.12.2019
1822 Clouds 31 1011 62 10000 2.1 210 12:24 28.12.2019
1823 Clouds 31 1011 62 10000 2.1 210 12:24 28.12.2019
1824 Clouds 30 1012 62 10000 2.1 120 11:58 28.12.2019
1825 Clouds 30 1012 62 10000 2.1 120 11:39 28.12.2019
1826 Clouds 30 1012 62 10000 2.1 120 11:20 28.12.2019
1827 Rain 32 1011 59 0 0.14 16 10:46 28.12.2019
1828 Clouds 28 1013 74 8000 3.1 180 10:22 28.12.2019
1829 Clouds 28 1013 74 8000 3.1 180 10:22 28.12.2019
1830 Clouds 28 1013 74 8000 3.1 180 10:22 28.12.2019
1831 Clouds 28 1013 74 8000 3.1 180 09:58 28.12.2019
1832 Clouds 28 1013 74 8000 3.1 180 09:40 28.12.2019
1833 Clouds 28 1013 74 8000 3.1 180 09:20 28.12.2019
1834 Clouds 28 1013 74 8000 3.1 180 09:20 28.12.2019
1835 Rain 32 1011 59 0 0.14 16 08:44 28.12.2019
1836 Clouds 34 1010 45 0 0.15 344 08:26 28.12.2019
1837 Clear 25 1011 76 0 0.79 139 07:57 28.12.2019
1838 Clear 25 1011 76 0 0.79 139 07:39 28.12.2019
1839 Mist 21 1012 100 2000 0.79 139 06:42 28.12.2019
1840 Clear 22 1009 87 0 0.65 172 05:19 28.12.2019
1841 Clear 22 1009 87 0 0.65 172 03:47 28.12.2019
1842 Clear 22 1009 87 0 0.65 172 02:49 28.12.2019
1843 Clouds 23 1009 82 0 0.48 147 02:19 28.12.2019
1844 Clouds 23 1009 82 0 0.48 147 01:42 28.12.2019
1845 Clouds 22 1009 81 0 0.67 154 01:18 28.12.2019
1846 Clouds 22 1009 81 0 0.67 154 00:40 28.12.2019
1847 Clouds 22 1009 81 0 0.67 154 00:21 28.12.2019
1848 Clouds 22 1009 81 0 0.67 154 23:45 27.12.2019
1849 Clouds 23 1010 78 0 0.87 172 23:20 27.12.2019
1850 Clouds 23 1010 78 0 0.87 172 22:58 27.12.2019
1851 Clouds 23 1010 78 0 0.87 172 22:39 27.12.2019
1852 Clouds 23 1010 78 0 0.87 172 22:20 27.12.2019
1853 Clouds 23 1010 78 0 0.87 172 21:58 27.12.2019
1854 Clouds 23 1010 78 0 0.87 172 21:38 27.12.2019
1855 Clouds 23 1010 78 0 0.87 172 21:19 27.12.2019
1856 Clouds 23 1010 78 0 0.87 172 20:42 27.12.2019
1857 Clear 23 1010 74 0 0.97 160 20:23 27.12.2019
1858 Clouds 25 1008 67 0 1.2 105 19:54 27.12.2019
1859 Clouds 25 1008 67 0 1.2 105 19:36 27.12.2019
1860 Clouds 25 1008 67 0 1.2 105 19:18 27.12.2019
1861 Clouds 25 1008 67 0 1.2 105 18:40 27.12.2019
1862 Clouds 27 1009 83 6000 4.1 150 18:22 27.12.2019
1863 Clouds 27 1009 83 6000 4.1 150 17:59 27.12.2019
1864 Clouds 27 1009 83 6000 4.1 150 17:40 27.12.2019
1865 Clouds 27 1009 83 6000 4.1 150 17:19 27.12.2019
1866 Clouds 29 1008 79 8000 1.67 80 16:59 27.12.2019
1867 Clouds 29 1008 79 8000 1.67 80 16:39 27.12.2019
1868 Clouds 29 1008 79 8000 1.67 80 16:20 27.12.2019
1869 Clouds 31 1008 62 8000 1.67 80 15:45 27.12.2019
1870 Clouds 31 1008 62 8000 1.67 80 15:24 27.12.2019
1871 Clouds 32 1009 59 8000 1.67 80 14:59 27.12.2019
1872 Clouds 32 1009 59 8000 1.67 80 14:40 27.12.2019
1873 Clouds 32 1009 59 8000 1.8 37 14:22 27.12.2019
1874 Clouds 32 1010 62 8000 1.8 37 13:58 27.12.2019
1875 Clouds 35 1006 33 0 1.8 37 13:40 27.12.2019
1876 Clear 35 1007 33 0 1.93 41 13:21 27.12.2019
1877 Clear 35 1007 33 0 1.93 41 12:44 27.12.2019
1878 Clouds 30 1012 74 8000 1.93 41 12:26 27.12.2019
1879 Clouds 30 1012 74 8000 1.93 41 11:55 27.12.2019
1880 Clouds 30 1012 74 8000 1.93 41 11:37 27.12.2019
1881 Clouds 30 1012 74 8000 1.17 40 11:18 27.12.2019
1882 Clouds 30 1013 70 8000 1.5 0 10:41 27.12.2019
1883 Clouds 30 1013 70 8000 1.5 0 10:23 27.12.2019
1884 Clouds 29 1013 74 8000 1.5 0 09:49 27.12.2019
1885 Clouds 29 1013 74 8000 1.5 0 09:22 27.12.2019
1886 Clouds 29 1013 74 8000 1.5 0 09:22 27.12.2019
1887 Clear 33 1010 41 0 1.17 40 08:59 27.12.2019
1888 Clear 33 1010 41 0 1.17 40 08:40 27.12.2019
1889 Clouds 26 1011 73 0 0.71 112 08:18 27.12.2019
1890 Clouds 26 1011 77 0 1 130 07:38 27.12.2019
1891 Clouds 26 1011 77 0 1 130 06:43 27.12.2019
1892 Clouds 26 1011 77 0 1 130 06:22 27.12.2019
1893 Clouds 24 1009 84 0 0.97 167 04:37 27.12.2019
1894 Clouds 24 1009 84 0 0.97 167 02:28 27.12.2019
1895 Clouds 24 1009 80 0 0.61 150 01:44 27.12.2019
1896 Clouds 23 1009 87 0 0.54 160 01:21 27.12.2019
1897 Clouds 23 1009 87 0 0.54 160 00:46 27.12.2019
1898 Clouds 23 1009 87 0 0.54 160 00:25 27.12.2019
1899 Clouds 23 1009 87 0 0.54 160 00:25 27.12.2019
1900 Clouds 23 1009 87 0 0.54 160 23:56 26.12.2019
1901 Clouds 23 1009 87 0 0.54 160 23:37 26.12.2019
1902 Clouds 22 1010 94 6000 0.81 146 23:19 26.12.2019
1903 Clouds 22 1010 94 6000 0.81 146 22:40 26.12.2019
1904 Clouds 22 1010 94 6000 0.81 146 22:18 26.12.2019
1905 Clouds 23 1010 88 6000 2.1 30 21:40 26.12.2019
1906 Clouds 23 1010 88 6000 2.1 30 21:21 26.12.2019
1907 Clouds 24 1010 80 0 0.81 146 20:57 26.12.2019
1908 Clouds 24 1010 80 0 0.81 146 20:38 26.12.2019
1909 Clouds 26 1009 66 0 0.89 79 20:19 26.12.2019
1910 Clouds 25 1008 69 0 0.47 72 19:55 26.12.2019
1911 Clouds 25 1008 69 0 0.47 72 19:37 26.12.2019
1912 Thunderstorm 27 1009 74 7000 2.1 310 19:19 26.12.2019
1913 Thunderstorm 27 1009 74 7000 2.1 310 19:19 26.12.2019
1914 Thunderstorm 27 1009 74 7000 2.1 310 18:55 26.12.2019
1915 Thunderstorm 27 1009 74 7000 2.1 310 18:36 26.12.2019
1916 Thunderstorm 27 1009 74 7000 2.1 310 18:18 26.12.2019
1917 Clouds 25 1008 69 0 0.47 72 17:41 26.12.2019
1918 Clouds 30 1007 57 0 1.12 45 17:21 26.12.2019
1919 Clouds 30 1007 57 0 1.12 45 16:50 26.12.2019
1920 Clouds 32 1009 62 10000 2.1 310 16:27 26.12.2019
1921 Clouds 32 1009 62 10000 2.1 310 15:57 26.12.2019
1922 Clouds 32 1009 62 10000 2.1 310 15:39 26.12.2019
1923 Clouds 32 1009 62 10000 2.1 310 15:19 26.12.2019
1924 Clouds 32 1009 62 10000 2.1 330 14:41 26.12.2019
1925 Clouds 31 1010 66 10000 2.1 0 14:23 26.12.2019
1926 Clouds 31 1010 66 10000 2.1 0 13:57 26.12.2019
1927 Clouds 31 1010 66 10000 2.1 0 13:39 26.12.2019
1928 Clouds 31 1010 66 10000 2.1 0 13:18 26.12.2019
1929 Clouds 33 1007 43 0 0.55 72 12:45 26.12.2019
1930 Clouds 30 1012 66 10000 3.1 270 12:26 26.12.2019
1931 Clouds 30 1012 66 10000 3.1 270 11:59 26.12.2019
1932 Clouds 33 1007 43 0 0.55 72 11:40 26.12.2019
1933 Clear 32 1011 51 0 1.21 146 11:22 26.12.2019
1934 Clear 32 1011 51 0 1.21 146 10:51 26.12.2019
1935 Clear 32 1011 51 0 1.21 146 10:28 26.12.2019
1936 Clear 32 1011 51 0 1.21 146 09:59 26.12.2019
1937 Clear 32 1011 51 0 1.21 146 09:41 26.12.2019
1938 Clear 32 1011 51 0 1.21 146 09:22 26.12.2019
1939 Clear 32 1011 51 0 1.21 146 08:40 26.12.2019
1940 Clouds 23 1012 85 0 1.52 141 08:21 26.12.2019
1941 Clouds 24 1012 86 0 1.8 147 07:46 26.12.2019
1942 Clouds 24 1012 86 0 1.8 147 07:26 26.12.2019
1943 Clouds 24 1012 86 0 1.8 147 06:39 26.12.2019
1944 Clouds 24 1012 86 0 1.8 147 06:20 26.12.2019
1945 Clouds 24 1012 86 0 1.8 147 05:43 26.12.2019
1946 Clouds 21 1010 97 0 1.1 160 04:36 26.12.2019
1947 Clouds 21 1010 97 0 1.1 160 03:46 26.12.2019
1948 Clouds 21 1010 97 0 1.1 160 02:47 26.12.2019
1949 Clouds 21 1010 97 0 1.1 160 02:29 26.12.2019
1950 Clouds 22 1010 95 0 1.29 174 01:44 26.12.2019
1951 Clouds 22 1010 95 0 1.29 174 01:26 26.12.2019
1952 Clouds 23 1010 93 0 1.18 178 00:47 26.12.2019
1953 Clouds 23 1010 93 0 1.18 178 00:24 26.12.2019
1954 Clouds 23 1010 93 0 1.18 178 23:58 25.12.2019
1955 Clouds 23 1010 93 0 1.18 178 23:38 25.12.2019
1956 Clouds 23 1011 91 0 1.47 184 23:19 25.12.2019
1957 Clouds 23 1011 91 0 1.47 184 22:57 25.12.2019
1958 Clouds 23 1011 91 0 1.47 184 22:37 25.12.2019
1959 Clouds 23 1011 91 0 1.47 184 22:19 25.12.2019
1960 Clouds 23 1011 91 0 1.47 184 21:57 25.12.2019
1961 Clouds 23 1011 91 0 1.47 184 21:39 25.12.2019
1962 Clouds 23 1011 91 0 1.47 184 21:19 25.12.2019
1963 Clouds 23 1011 91 0 1.47 184 20:41 25.12.2019
1964 Clouds 23 1011 91 0 1.47 184 20:41 25.12.2019
1965 Rain 24 1010 86 0 1.26 180 20:21 25.12.2019
1966 Rain 24 1009 85 0 1.36 166 19:59 25.12.2019
1967 Rain 24 1009 85 0 1.36 166 19:41 25.12.2019
1968 Rain 24 1009 85 0 1.36 166 19:22 25.12.2019
1969 Rain 24 1009 85 0 1.36 166 18:41 25.12.2019
1970 Rain 24 1009 85 0 1.36 166 18:21 25.12.2019
1971 Rain 24 1009 85 0 1.36 166 17:59 25.12.2019
1972 Rain 24 1009 85 0 1.36 166 17:39 25.12.2019
1973 Clouds 27 1010 74 10000 3.1 170 17:18 25.12.2019
1974 Clouds 27 1010 74 10000 3.1 170 16:55 25.12.2019
1975 Rain 29 1006 67 0 2.25 172 16:36 25.12.2019
1976 Clouds 27 1010 74 10000 3.1 130 16:18 25.12.2019
1977 Clouds 27 1010 74 10000 3.1 130 15:56 25.12.2019
1978 Clouds 27 1010 74 10000 3.1 130 15:37 25.12.2019
1979 Clouds 27 1010 74 10000 3.1 130 15:18 25.12.2019
1980 Clouds 26 1012 78 10000 3.1 140 14:54 25.12.2019
1981 Clouds 26 1012 78 10000 3.1 140 14:36 25.12.2019
1982 Clouds 26 1012 78 10000 3.1 140 14:18 25.12.2019
1983 Clouds 26 1013 78 8000 3.1 180 13:41 25.12.2019
1984 Clouds 35 1007 37 0 1.58 20 13:20 25.12.2019
1985 Clouds 35 1007 36 0 1.43 31 12:44 25.12.2019
1986 Clouds 35 1007 36 0 1.43 31 12:22 25.12.2019
1987 Clouds 35 1007 36 0 1.43 31 11:58 25.12.2019
1988 Clouds 35 1007 36 0 1.43 31 11:40 25.12.2019
1989 Clouds 26 1014 83 8000 3.1 200 11:21 25.12.2019
1990 Clouds 26 1014 83 8000 3.1 200 10:39 25.12.2019
1991 Clouds 26 1014 83 8000 3.1 200 10:21 25.12.2019
1992 Clouds 26 1014 83 8000 3.1 200 09:59 25.12.2019
1993 Clouds 26 1014 83 8000 3.1 200 09:40 25.12.2019
1994 Clouds 26 1014 83 8000 3.1 200 09:22 25.12.2019
1995 Clouds 34 1011 45 0 0.56 119 08:43 25.12.2019
1996 Mist 24 1013 94 4000 2.1 120 08:24 25.12.2019
1997 Mist 24 1013 94 4000 2.1 120 07:43 25.12.2019
1998 Mist 21 1012 94 4000 2.1 90 07:22 25.12.2019
1999 Clouds 24 1012 77 0 0.89 87 06:24 25.12.2019
2000 Clouds 24 1012 77 0 0.89 87 06:24 25.12.2019
2001 Clouds 24 1012 77 0 0.89 87 05:51 25.12.2019
2002 Clouds 22 1009 88 0 0.22 33 04:46 25.12.2019
2003 Clouds 22 1009 88 0 0.22 33 04:24 25.12.2019
2004 Clouds 22 1009 88 0 0.22 33 03:44 25.12.2019
2005 Clouds 22 1009 88 0 0.22 33 03:18 25.12.2019
2006 Clouds 22 1011 88 6000 2.1 120 02:30 25.12.2019
2007 Clouds 22 1011 88 6000 2.1 120 01:53 25.12.2019
2008 Clouds 22 1011 88 6000 2.1 120 01:22 25.12.2019
2009 Clouds 23 1009 83 0 0.71 180 00:45 25.12.2019
2010 Clouds 23 1009 83 0 0.71 180 00:26 25.12.2019
2011 Clouds 23 1009 83 0 0.71 180 23:40 24.12.2019
2012 Clear 24 1010 79 0 1 200 23:20 24.12.2019
2013 Clear 24 1010 79 0 1 200 22:58 24.12.2019
2014 Clear 24 1010 79 0 1 200 22:37 24.12.2019
2015 Clear 24 1010 79 0 1 200 22:19 24.12.2019
2016 Clear 24 1010 79 0 1 200 21:41 24.12.2019
2017 Clear 24 1010 79 0 1 200 21:41 24.12.2019
2018 Clear 24 1010 79 0 1 200 21:22 24.12.2019
2019 Clear 24 1010 79 0 1 200 20:43 24.12.2019
2020 Clouds 24 1009 80 0 0.95 197 20:24 24.12.2019
2021 Clouds 25 1008 78 0 0.54 209 19:57 24.12.2019
2022 Clouds 25 1008 78 0 0.54 209 19:37 24.12.2019
2023 Clouds 25 1008 78 0 0.54 209 19:18 24.12.2019
2024 Clouds 25 1008 78 0 0.54 209 18:42 24.12.2019
2025 Clouds 25 1008 78 0 0.54 209 18:19 24.12.2019
2026 Clouds 25 1008 78 0 0.54 209 17:45 24.12.2019
2027 Clouds 25 1008 78 0 0.54 209 17:24 24.12.2019
2028 Clouds 31 1005 55 0 0.68 121 16:59 24.12.2019
2029 Clouds 31 1005 55 0 0.68 121 16:59 24.12.2019
2030 Clouds 31 1005 55 0 0.68 121 16:40 24.12.2019
2031 Clouds 31 1005 55 0 0.68 121 16:22 24.12.2019
2032 Clouds 31 1005 55 0 0.68 121 15:58 24.12.2019
2033 Clouds 31 1005 55 0 0.68 121 15:58 24.12.2019
2034 Clouds 31 1005 55 0 0.68 121 15:38 24.12.2019
2035 Clouds 31 1005 55 0 0.68 121 15:20 24.12.2019
2036 Clouds 31 1005 55 0 0.68 121 14:59 24.12.2019
2037 Clouds 31 1005 55 0 0.68 121 14:40 24.12.2019
2038 Clouds 34 1009 59 10000 3.1 90 14:22 24.12.2019
2039 Clouds 34 1009 59 10000 3.1 90 13:57 24.12.2019
2040 Clouds 33 1007 50 0 1.13 83 13:39 24.12.2019
2041 Clouds 32 1011 59 10000 3.1 360 13:20 24.12.2019
2042 Clouds 32 1011 59 10000 3.1 360 13:20 24.12.2019
2043 Clouds 32 1011 59 10000 3.1 360 12:57 24.12.2019
2044 Clouds 32 1011 59 10000 3.1 360 12:38 24.12.2019
2045 Clouds 32 1011 59 10000 3.1 360 12:38 24.12.2019
2046 Clouds 32 1011 59 10000 3.1 360 12:19 24.12.2019
2047 Clouds 32 1011 59 10000 3.1 360 12:19 24.12.2019
2048 Clouds 31 1013 66 10000 3.1 270 11:58 24.12.2019
2049 Clouds 31 1013 66 10000 3.1 270 11:38 24.12.2019
2050 Clouds 31 1013 66 10000 3.1 270 11:38 24.12.2019
2051 Clouds 31 1013 66 10000 3.1 270 11:20 24.12.2019
2052 Clouds 31 1013 66 10000 3.1 270 10:57 24.12.2019
2053 Clouds 31 1013 66 10000 3.1 270 10:38 24.12.2019
2054 Clouds 31 1013 66 10000 3.1 270 10:20 24.12.2019
2055 Clouds 29 1011 63 0 1.25 92 09:59 24.12.2019
2056 Clouds 29 1011 63 0 1.25 92 09:41 24.12.2019
2057 Clouds 29 1011 63 0 1.25 92 09:22 24.12.2019
2058 Clouds 29 1011 63 0 1.25 92 08:56 24.12.2019
2059 Clouds 29 1011 63 0 1.25 92 08:37 24.12.2019
2060 Clouds 23 1012 90 0 0.63 118 08:18 24.12.2019
2061 Clouds 24 1012 81 0 0.98 133 07:43 24.12.2019
2062 Mist 21 1012 100 3000 0.98 133 07:21 24.12.2019
2063 Mist 21 1012 100 3000 0.98 133 06:41 24.12.2019
2064 Clouds 24 1012 81 0 0.98 133 06:22 24.12.2019
2065 Clouds 24 1012 81 0 0.98 133 05:55 24.12.2019
2066 Clouds 21 1010 92 0 0.9 185 05:19 24.12.2019
2067 Clouds 21 1010 92 0 0.9 185 04:21 24.12.2019
2068 Clouds 21 1010 92 0 0.9 185 03:48 24.12.2019
2069 Clouds 21 1010 92 0 0.9 185 02:29 24.12.2019
2070 Clouds 22 1010 89 0 0.94 180 01:57 24.12.2019
2071 Clouds 22 1010 89 0 0.94 180 01:27 24.12.2019
2072 Clouds 22 1010 90 0 1.08 167 00:58 24.12.2019
2073 Clouds 22 1010 90 0 1.08 167 00:40 24.12.2019
2074 Clouds 22 1010 90 0 1.08 167 00:20 24.12.2019
2075 Clouds 22 1010 90 0 1.08 167 23:43 23.12.2019
2076 Clouds 22 1010 90 0 1.08 167 23:24 23.12.2019
2077 Clouds 22 1010 90 0 1.08 167 23:24 23.12.2019
2078 Clouds 22 1011 89 0 0.9 227 22:57 23.12.2019
2079 Clouds 22 1011 89 0 0.9 227 22:38 23.12.2019
2080 Clouds 22 1011 89 0 0.9 227 22:20 23.12.2019
2081 Clouds 22 1011 89 0 0.9 227 21:57 23.12.2019
2082 Clouds 22 1011 89 0 0.9 227 21:37 23.12.2019
2083 Clouds 22 1011 89 0 0.9 227 21:19 23.12.2019
2084 Clouds 22 1011 89 0 0.9 227 20:59 23.12.2019
2085 Clouds 22 1011 89 0 0.9 227 20:41 23.12.2019
2086 Clouds 24 1009 84 0 0.86 162 20:19 23.12.2019
2087 Clouds 24 1009 84 0 0.86 162 19:59 23.12.2019
2088 Clouds 24 1009 84 0 0.86 162 19:41 23.12.2019
2089 Clouds 24 1009 84 0 0.86 162 19:22 23.12.2019
2090 Clouds 24 1009 84 0 0.86 162 18:59 23.12.2019
2091 Clouds 24 1009 84 0 0.86 162 18:39 23.12.2019
2092 Clouds 29 1009 74 9000 2.1 0 18:21 23.12.2019
2093 Clouds 24 1009 84 0 0.86 162 17:59 23.12.2019
2094 Clouds 24 1009 84 0 0.86 162 17:41 23.12.2019
2095 Clouds 32 1009 59 9000 0.98 250 17:20 23.12.2019
2096 Clouds 32 1009 59 9000 0.98 250 16:59 23.12.2019
2097 Clouds 32 1009 59 9000 0.98 250 16:40 23.12.2019
2098 Clouds 32 1009 59 9000 0.98 250 16:19 23.12.2019
2099 Clouds 32 1009 59 9000 1.5 0 15:58 23.12.2019
2100 Rain 28 1006 71 0 0.98 250 15:37 23.12.2019
2101 Clouds 31 1010 62 10000 2.1 190 15:19 23.12.2019
2102 Clouds 31 1010 62 10000 2.1 190 14:57 23.12.2019
2103 Rain 28 1006 71 0 0.98 250 14:39 23.12.2019
2104 Rain 28 1006 71 0 0.98 250 14:39 23.12.2019
2105 Clouds 31 1012 58 10000 1.5 0 14:19 23.12.2019
2106 Clouds 31 1012 58 10000 1.5 0 13:57 23.12.2019
2107 Clouds 34 1008 40 0 1.81 23 13:39 23.12.2019
2108 Clouds 34 1008 40 0 1.81 23 13:39 23.12.2019
2109 Clouds 30 1012 58 10000 4.1 180 13:20 23.12.2019
2110 Clouds 30 1012 58 10000 4.1 180 13:20 23.12.2019
2111 Clouds 30 1012 58 10000 4.1 180 12:55 23.12.2019
2112 Clouds 30 1012 58 10000 4.1 180 12:37 23.12.2019
2113 Clouds 30 1012 58 10000 4.1 180 12:18 23.12.2019
2114 Clouds 29 1013 70 10000 3.1 210 11:42 23.12.2019
2115 Clouds 29 1013 70 10000 3.1 210 11:24 23.12.2019
2116 Clouds 31 1012 55 0 1.21 147 10:56 23.12.2019
2117 Clouds 31 1012 55 0 1.21 147 10:38 23.12.2019
2118 Clouds 26 1014 78 9000 3.1 150 10:20 23.12.2019
2119 Clouds 26 1014 78 9000 3.1 150 09:58 23.12.2019
2120 Clouds 31 1012 55 0 1.21 147 09:39 23.12.2019
2121 Clouds 31 1012 55 0 1.21 147 09:39 23.12.2019
2122 Clouds 23 1014 88 7000 2.1 120 09:19 23.12.2019
2123 Clouds 23 1014 88 7000 2.1 120 08:55 23.12.2019
2124 Clouds 23 1014 88 7000 2.1 120 08:37 23.12.2019
2125 Clouds 23 1014 88 7000 2.1 120 08:18 23.12.2019
2126 Mist 21 1014 100 4000 2.1 90 07:42 23.12.2019
2127 Mist 21 1014 100 4000 2.1 90 07:19 23.12.2019
2128 Clouds 23 1013 87 0 0.88 167 06:45 23.12.2019
2129 Mist 21 1013 94 4000 2.1 210 06:23 23.12.2019
2130 Mist 21 1013 94 4000 2.1 210 05:47 23.12.2019
2131 Mist 21 1013 94 4000 2.1 210 05:18 23.12.2019
2132 Clouds 21 1011 99 0 1.12 145 04:19 23.12.2019
2133 Clouds 21 1011 99 0 1.12 145 02:48 23.12.2019
2134 Clear 22 1014 94 6000 1.12 145 02:23 23.12.2019
2135 Clear 22 1014 94 6000 1.15 170 01:51 23.12.2019
2136 Clouds 21 1011 96 0 1.15 170 01:32 23.12.2019
2137 Clouds 21 1011 97 0 1.09 174 00:54 23.12.2019
2138 Clouds 21 1011 97 0 1.09 174 00:35 23.12.2019
2139 Clouds 21 1011 97 0 1.09 174 23:57 22.12.2019
2140 Clouds 21 1011 97 0 1.09 174 23:39 22.12.2019
2141 Clouds 22 1011 93 0 1.42 184 23:20 22.12.2019
2142 Clouds 22 1011 93 0 1.42 184 22:57 22.12.2019
2143 Clouds 22 1011 93 0 1.42 184 22:38 22.12.2019
2144 Clouds 22 1011 93 0 1.42 184 22:38 22.12.2019
2145 Clouds 22 1011 93 0 1.42 184 22:19 22.12.2019
2146 Clouds 22 1011 93 0 1.42 184 21:56 22.12.2019
2147 Clouds 22 1011 93 0 1.42 184 21:38 22.12.2019
2148 Clouds 22 1011 93 0 1.42 184 21:20 22.12.2019
2149 Clouds 22 1011 93 0 1.42 184 20:43 22.12.2019
2150 Clouds 23 1010 90 0 1.05 169 20:20 22.12.2019
2151 Clouds 23 1010 90 0 1.05 169 20:20 22.12.2019
2152 Clouds 23 1010 90 0 1.05 169 19:58 22.12.2019
2153 Clouds 23 1010 90 0 1.05 169 19:40 22.12.2019
2154 Clouds 23 1010 90 0 1.05 169 19:21 22.12.2019
2155 Clouds 23 1010 90 0 1.05 169 18:58 22.12.2019
2156 Clouds 23 1010 90 0 1.05 169 18:38 22.12.2019
2157 Clouds 23 1010 90 0 1.05 169 18:19 22.12.2019
2158 Clouds 23 1010 90 0 1.05 169 17:55 22.12.2019
2159 Clouds 23 1010 90 0 1.05 169 17:37 22.12.2019
2160 Rain 28 1008 67 0 0.33 259 17:18 22.12.2019
2161 Rain 28 1008 67 0 0.33 259 16:42 22.12.2019
2162 Rain 28 1008 67 0 0.33 259 16:23 22.12.2019
2163 Rain 28 1008 67 0 0.33 259 15:58 22.12.2019
2164 Rain 28 1008 67 0 0.33 259 15:39 22.12.2019
2165 Rain 28 1008 67 0 0.33 259 15:21 22.12.2019
2166 Rain 28 1008 67 0 0.33 259 14:59 22.12.2019
2167 Rain 28 1008 67 0 0.33 259 14:38 22.12.2019
2168 Rain 30 1009 66 0 0.36 256 14:19 22.12.2019
2169 Rain 30 1009 66 0 0.36 256 13:56 22.12.2019
2170 Rain 30 1009 66 0 0.36 256 13:38 22.12.2019
2171 Rain 32 1009 53 0 0.38 304 13:19 22.12.2019
2172 Rain 32 1009 53 0 0.38 304 12:57 22.12.2019
2173 Rain 32 1009 53 0 0.38 304 12:57 22.12.2019
2174 Rain 32 1009 53 0 0.38 304 12:38 22.12.2019
2175 Rain 32 1009 53 0 0.38 304 12:19 22.12.2019
2176 Rain 32 1009 53 0 0.38 304 12:19 22.12.2019
2177 Rain 32 1009 53 0 0.38 304 12:19 22.12.2019
2178 Rain 32 1009 53 0 0.38 304 11:59 22.12.2019
2179 Rain 32 1009 53 0 0.38 304 11:39 22.12.2019
2180 Rain 29 1012 69 0 1.08 235 11:20 22.12.2019
2181 Rain 29 1012 69 0 1.08 235 10:57 22.12.2019
2182 Rain 29 1012 69 0 1.08 235 10:39 22.12.2019
2183 Rain 29 1012 69 0 1.08 235 10:19 22.12.2019
2184 Rain 29 1012 69 0 1.08 235 09:58 22.12.2019
2185 Rain 29 1012 69 0 1.08 235 09:39 22.12.2019
2186 Rain 29 1012 69 0 1.08 235 09:21 22.12.2019
2187 Rain 29 1012 69 0 1.08 235 08:45 22.12.2019
2188 Clouds 28 1012 68 0 1.88 191 08:23 22.12.2019
2189 Clouds 22 1013 94 0 1.43 174 07:50 22.12.2019
2190 Clouds 22 1013 94 0 1.43 174 07:22 22.12.2019
2191 Clouds 22 1013 94 0 1.43 174 06:56 22.12.2019
2192 Clouds 22 1013 94 0 1.43 174 06:27 22.12.2019
2193 Clouds 22 1013 94 0 1.43 174 05:43 22.12.2019
2194 Rain 22 1011 92 0 1.19 207 05:21 22.12.2019
2195 Rain 22 1011 92 0 1.19 207 04:26 22.12.2019
2196 Rain 22 1011 92 0 1.19 207 03:24 22.12.2019
2197 Rain 22 1011 92 0 1.19 207 02:34 22.12.2019
2198 Rain 23 1010 86 0 0.79 157 01:32 22.12.2019
2199 Clouds 21 1011 90 0 1.02 169 00:58 22.12.2019
2200 Clouds 21 1011 90 0 1.02 169 00:39 22.12.2019
2201 Clouds 21 1011 90 0 1.02 169 00:20 22.12.2019
2202 Clouds 21 1011 90 0 1.02 169 23:42 21.12.2019
2203 Clouds 21 1011 90 0 1.02 169 23:24 21.12.2019
2204 Clouds 22 1011 89 0 1.11 227 22:57 21.12.2019
2205 Clouds 22 1011 89 0 1.11 227 22:39 21.12.2019
2206 Clouds 22 1011 89 0 1.11 227 22:18 21.12.2019
2207 Clouds 22 1011 89 0 1.11 227 21:56 21.12.2019
2208 Clouds 22 1011 89 0 1.11 227 21:56 21.12.2019
2209 Clouds 22 1011 89 0 1.11 227 21:37 21.12.2019
2210 Clouds 22 1011 89 0 1.11 227 21:18 21.12.2019
2211 Clouds 22 1011 89 0 1.11 227 20:57 21.12.2019
2212 Clouds 22 1011 89 0 1.11 227 20:57 21.12.2019
2213 Clouds 22 1011 89 0 1.11 227 20:37 21.12.2019
2214 Clouds 22 1011 89 0 1.11 227 20:37 21.12.2019
2215 Clouds 24 1009 82 0 1.14 77 20:19 21.12.2019
2216 Clouds 24 1009 82 0 1.14 77 19:56 21.12.2019
2217 Clouds 24 1009 82 0 1.14 77 19:36 21.12.2019
2218 Clouds 24 1009 82 0 1.14 77 19:18 21.12.2019
2219 Clouds 24 1009 82 0 1.14 77 18:42 21.12.2019
2220 Clouds 24 1009 82 0 1.14 77 18:42 21.12.2019
2221 Clouds 24 1010 88 8000 1.14 77 18:23 21.12.2019
2222 Clouds 24 1010 88 8000 1.14 77 17:57 21.12.2019
2223 Clouds 24 1009 82 0 1.14 77 17:39 21.12.2019
2224 Clouds 30 1007 60 0 0.61 267 17:20 21.12.2019
2225 Clouds 30 1007 60 0 0.61 267 16:57 21.12.2019
2226 Clouds 30 1007 60 0 0.61 267 16:39 21.12.2019
2227 Clouds 30 1007 60 0 0.61 267 16:18 21.12.2019
2228 Clouds 30 1007 60 0 0.61 267 15:56 21.12.2019
2229 Clouds 30 1007 60 0 0.61 267 15:37 21.12.2019
2230 Clouds 31 1010 66 8000 2.1 200 15:18 21.12.2019
2231 Clouds 31 1010 66 8000 2.1 200 14:42 21.12.2019
2232 Clouds 31 1010 66 8000 2.1 200 14:23 21.12.2019
2233 Clouds 29 1011 79 8000 3.1 260 13:58 21.12.2019
2234 Clouds 29 1011 79 8000 3.1 260 13:40 21.12.2019
2235 Clouds 29 1011 79 8000 3.1 260 13:20 21.12.2019
2236 Clouds 31 1012 66 8000 2.1 200 12:57 21.12.2019
2237 Clouds 34 1008 42 0 0.88 304 12:39 21.12.2019
2238 Clouds 34 1008 42 0 0.88 304 12:20 21.12.2019
2239 Clouds 34 1008 42 0 0.88 304 11:55 21.12.2019
2240 Clouds 34 1008 42 0 0.88 304 11:37 21.12.2019
2241 Clouds 26 1014 83 7000 1.32 186 11:19 21.12.2019
2242 Clouds 26 1014 83 7000 1.32 186 10:41 21.12.2019
2243 Clouds 26 1014 83 7000 1.32 186 10:22 21.12.2019
2244 Clouds 24 1015 88 6000 1.5 0 09:58 21.12.2019
2245 Clouds 24 1015 88 6000 1.5 0 09:39 21.12.2019
2246 Clouds 24 1015 88 6000 1.5 0 09:20 21.12.2019
2247 Clouds 28 1012 64 0 1.32 186 08:52 21.12.2019
2248 Clouds 28 1012 64 0 1.32 186 08:27 21.12.2019
2249 Clouds 24 1013 80 0 1.15 136 07:58 21.12.2019
2250 Clouds 24 1013 80 0 1.15 136 07:40 21.12.2019
2251 Mist 21 1014 100 4000 3.1 90 07:21 21.12.2019
2252 Mist 21 1014 100 4000 3.1 90 06:41 21.12.2019
2253 Mist 21 1014 100 4000 3.1 90 06:23 21.12.2019
2254 Mist 22 1013 94 3000 1.15 136 05:37 21.12.2019
2255 Clouds 20 1011 95 0 0.82 156 04:55 21.12.2019
2256 Clouds 20 1011 95 0 0.82 156 03:56 21.12.2019
2257 Clouds 20 1011 95 0 0.82 156 02:25 21.12.2019
2258 Clouds 21 1010 91 0 1.04 181 01:50 21.12.2019
2259 Clouds 23 1013 88 6000 2.1 30 01:25 21.12.2019
2260 Clouds 23 1013 88 6000 2.1 30 00:49 21.12.2019
2261 Clouds 23 1013 88 6000 2.1 30 00:28 21.12.2019
2262 Clouds 21 1010 92 0 0.89 171 23:39 20.12.2019
2263 Clouds 21 1010 92 0 0.89 171 23:39 20.12.2019
2264 Clouds 22 1012 92 0 1.39 162 23:21 20.12.2019
2265 Clouds 22 1012 92 0 1.39 162 22:59 20.12.2019
2266 Clouds 22 1012 92 0 1.39 162 22:39 20.12.2019
2267 Clouds 22 1012 92 0 1.39 162 22:19 20.12.2019
2268 Clouds 22 1012 92 0 1.39 162 21:54 20.12.2019
2269 Clouds 22 1012 92 0 1.39 162 21:36 20.12.2019
2270 Clouds 22 1012 92 0 1.39 162 21:18 20.12.2019
2271 Clouds 22 1012 92 0 1.39 162 21:18 20.12.2019
2272 Clouds 22 1012 92 0 1.39 162 21:18 20.12.2019
2273 Clouds 22 1012 92 0 1.39 162 20:39 20.12.2019
2274 Clouds 25 1018 88 6000 2.1 0 20:19 20.12.2019
2275 Clouds 25 1018 88 6000 2.1 0 19:57 20.12.2019
2276 Clouds 25 1018 88 6000 2.1 0 19:38 20.12.2019
2277 Clouds 25 1018 88 6000 2.1 0 19:19 20.12.2019
2278 Thunderstorm 26 1011 88 6000 3.1 180 18:42 20.12.2019
2279 Thunderstorm 28 1011 78 6000 3.1 180 18:23 20.12.2019
2280 Thunderstorm 28 1011 78 6000 3.1 180 17:58 20.12.2019
2281 Rain 22 1010 94 0 1.59 171 17:40 20.12.2019
2282 Clouds 29 1012 54 10000 3.1 280 17:20 20.12.2019
2283 Clouds 29 1012 54 10000 3.1 280 16:57 20.12.2019
2284 Clouds 29 1012 54 10000 3.1 280 16:38 20.12.2019
2285 Thunderstorm 31 1010 62 7000 3.1 210 16:19 20.12.2019
2286 Rain 27 1008 75 0 1.65 124 15:55 20.12.2019
2287 Rain 27 1008 75 0 1.65 124 15:37 20.12.2019
2288 Rain 27 1008 75 0 1.65 124 15:37 20.12.2019
2289 Clouds 31 1012 66 7000 3.1 180 15:19 20.12.2019
2290 Clouds 31 1012 66 7000 3.1 180 14:43 20.12.2019
2291 Clouds 30 1012 70 8000 3.1 180 14:24 20.12.2019
2292 Clouds 30 1012 70 8000 3.1 180 13:57 20.12.2019
2293 Clouds 30 1012 70 8000 3.1 180 13:38 20.12.2019
2294 Clouds 29 1013 74 9000 3.1 180 13:19 20.12.2019
2295 Clouds 29 1013 74 9000 3.1 180 12:57 20.12.2019
2296 Clouds 29 1013 74 9000 3.1 180 12:37 20.12.2019
2297 Clouds 27 1014 74 9000 2.1 180 12:18 20.12.2019
2298 Clouds 27 1014 74 9000 2.1 180 11:57 20.12.2019
2299 Clouds 27 1014 74 9000 2.1 180 11:39 20.12.2019
2300 Clouds 30 1012 55 0 1.25 167 11:18 20.12.2019
2301 Clouds 30 1012 55 0 1.25 167 11:18 20.12.2019
2302 Clouds 30 1012 55 0 1.25 167 10:56 20.12.2019
2303 Clouds 30 1012 55 0 1.25 167 10:38 20.12.2019
2304 Clouds 30 1012 55 0 1.25 167 10:19 20.12.2019
2305 Clouds 30 1012 55 0 1.25 167 09:43 20.12.2019
2306 Clouds 30 1012 55 0 1.25 167 09:21 20.12.2019
2307 Clouds 30 1012 55 0 1.25 167 08:57 20.12.2019
2308 Clouds 30 1012 55 0 1.25 167 08:38 20.12.2019
2309 Clouds 24 1013 84 0 1.36 181 08:20 20.12.2019
2310 Clouds 23 1013 85 0 1.16 181 08:20 20.12.2019
2311 Clouds 24 1013 84 0 1.36 181 07:57 20.12.2019
2312 Clouds 24 1013 84 0 1.36 181 07:57 20.12.2019
2313 Clouds 24 1013 84 0 1.36 181 07:38 20.12.2019
2314 Mist 23 1014 94 4000 1.5 0 07:18 20.12.2019
2315 Mist 23 1014 94 4000 1.5 0 06:46 20.12.2019
2316 Clouds 23 1013 94 6000 1.36 181 06:28 20.12.2019
2317 Clouds 23 1013 94 6000 1.36 181 05:48 20.12.2019
2318 Clouds 23 1013 100 6000 0.93 187 05:18 20.12.2019
2319 Clouds 21 1011 96 0 0.93 187 03:49 20.12.2019
2320 Clouds 21 1011 96 0 0.93 187 03:20 20.12.2019
2321 Clouds 22 1010 86 0 1.33 204 02:20 20.12.2019
2322 Clouds 22 1010 86 0 1.33 204 01:36 20.12.2019
2323 Clouds 22 1010 85 0 1.37 207 00:57 20.12.2019
2324 Clouds 22 1010 85 0 1.37 207 00:35 20.12.2019
2325 Clouds 22 1010 85 0 1.37 207 23:58 19.12.2019
2326 Clouds 22 1010 85 0 1.37 207 23:40 19.12.2019
2327 Clouds 23 1011 80 0 0.9 215 23:21 19.12.2019
2328 Clouds 23 1011 80 0 0.9 215 22:40 19.12.2019
2329 Clouds 23 1011 80 0 0.9 215 22:22 19.12.2019
2330 Clouds 23 1011 80 0 0.9 215 21:59 19.12.2019
2331 Clouds 23 1011 80 0 0.9 215 21:59 19.12.2019
2332 Clouds 23 1011 80 0 0.9 215 21:41 19.12.2019
2333 Clouds 23 1011 80 0 0.9 215 21:19 19.12.2019
2334 Clouds 23 1011 80 0 0.9 215 20:57 19.12.2019
2335 Clouds 23 1011 80 0 0.9 215 20:38 19.12.2019
2336 Clouds 25 1012 94 6000 0.38 240 20:20 19.12.2019
2337 Clouds 25 1012 94 6000 0.47 235 20:20 19.12.2019
2338 Clouds 25 1012 94 6000 0.38 240 19:58 19.12.2019
2339 Clouds 25 1012 94 6000 0.38 240 19:40 19.12.2019
2340 Clouds 24 1009 67 0 0.38 240 19:19 19.12.2019
2341 Clouds 24 1009 67 0 0.38 240 19:19 19.12.2019
2342 Clouds 24 1009 67 0 0.38 240 19:19 19.12.2019
2343 Clouds 24 1009 67 0 0.38 240 19:19 19.12.2019
2344 Clouds 24 1009 67 0 0.38 240 18:58 19.12.2019
2345 Clouds 24 1009 67 0 0.38 240 18:40 19.12.2019
2346 Clouds 28 1010 78 6000 1.5 0 18:20 19.12.2019
2347 Clouds 28 1010 78 6000 1.5 0 17:56 19.12.2019
2348 Clouds 28 1010 78 6000 1.5 0 17:38 19.12.2019
2349 Clouds 30 1006 50 0 1.07 73 17:18 19.12.2019
2350 Clouds 30 1006 50 0 1.07 73 16:56 19.12.2019
2351 Clouds 30 1006 50 0 1.07 73 16:37 19.12.2019
2352 Clouds 30 1010 66 6000 4.1 200 16:19 19.12.2019
2353 Clouds 30 1010 66 6000 4.1 200 15:57 19.12.2019
2354 Clouds 30 1010 66 6000 4.1 200 15:37 19.12.2019
2355 Clouds 31 1010 58 8000 2.1 150 15:19 19.12.2019
2356 Clouds 31 1010 58 8000 2.1 150 14:56 19.12.2019
2357 Clouds 31 1010 58 8000 2.1 150 14:38 19.12.2019
2358 Clouds 33 1008 36 0 1.7 36 14:18 19.12.2019
2359 Clouds 33 1008 36 0 1.7 36 13:38 19.12.2019
2360 Clouds 33 1008 36 0 1.7 36 13:20 19.12.2019
2361 Clouds 33 1008 37 0 1.37 43 12:58 19.12.2019
2362 Clouds 33 1008 37 0 1.37 43 12:40 19.12.2019
2363 Clouds 29 1012 70 7000 4.1 180 12:19 19.12.2019
2364 Clouds 29 1012 70 7000 4.1 180 12:19 19.12.2019
2365 Clouds 29 1012 70 7000 4.1 180 11:59 19.12.2019
2366 Clouds 29 1012 70 7000 4.1 180 11:40 19.12.2019
2367 Clouds 29 1013 70 7000 2.1 20 11:18 19.12.2019
2368 Clouds 29 1013 70 7000 2.1 20 10:59 19.12.2019
2369 Clouds 29 1013 70 7000 2.1 20 10:38 19.12.2019
2370 Clouds 29 1013 70 7000 2.1 20 10:38 19.12.2019
2371 Clouds 25 1011 72 0 0.99 141 10:20 19.12.2019
2372 Clouds 25 1011 72 0 0.99 141 09:56 19.12.2019
2373 Clouds 25 1011 72 0 0.99 141 09:37 19.12.2019
2374 Clouds 25 1011 72 0 0.99 141 09:37 19.12.2019
2375 Clouds 25 1011 72 0 0.99 141 09:19 19.12.2019
2376 Clouds 25 1011 72 0 0.99 141 08:55 19.12.2019
2377 Clouds 25 1011 72 0 0.99 141 08:55 19.12.2019
2378 Clouds 25 1011 72 0 0.99 141 08:36 19.12.2019
2379 Clouds 22 1011 88 0 0.47 25 08:18 19.12.2019
2380 Clouds 22 1011 88 0 0.47 25 07:41 19.12.2019
2381 Mist 21 1013 100 3000 0.47 25 07:23 19.12.2019
2382 Mist 21 1013 100 3000 0.47 25 06:58 19.12.2019
2383 Mist 21 1013 100 3000 0.47 25 06:39 19.12.2019
2384 Clouds 22 1011 88 0 0.47 25 06:21 19.12.2019
2385 Clouds 22 1011 88 0 0.47 25 05:42 19.12.2019
2386 Rain 21 1009 91 0 0.8 72 05:19 19.12.2019
2387 Rain 21 1009 91 0 0.8 72 03:51 19.12.2019
2388 Rain 21 1009 91 0 0.8 72 02:28 19.12.2019
2389 Rain 22 1009 80 0 1.18 15 01:25 19.12.2019
2390 Clouds 24 1009 71 0 0.55 11 00:57 19.12.2019
2391 Clouds 24 1009 71 0 0.55 11 00:38 19.12.2019
2392 Clouds 24 1009 71 0 0.55 11 00:19 19.12.2019
2393 Clouds 24 1009 71 0 0.55 11 23:44 18.12.2019
2394 Clouds 23 1010 78 0 0.52 306 23:19 18.12.2019
2395 Clouds 23 1010 78 0 0.52 306 22:57 18.12.2019
2396 Clouds 23 1010 78 0 0.52 306 22:38 18.12.2019
2397 Clouds 23 1010 78 0 0.52 306 22:20 18.12.2019
2398 Clouds 23 1010 78 0 0.52 306 21:58 18.12.2019
2399 Clouds 23 1010 78 0 0.52 306 21:58 18.12.2019
2400 Clouds 23 1010 78 0 0.52 306 21:39 18.12.2019
2401 Clouds 23 1010 78 0 0.52 306 21:20 18.12.2019
2402 Clouds 23 1010 78 0 0.52 306 21:20 18.12.2019
2403 Clouds 23 1010 78 0 0.52 306 20:57 18.12.2019
2404 Clouds 23 1010 78 0 0.52 306 20:38 18.12.2019
2405 Clouds 25 1008 73 0 0.77 39 20:20 18.12.2019
2406 Clouds 25 1008 73 0 0.77 39 19:56 18.12.2019
2407 Clouds 25 1008 73 0 0.77 39 19:38 18.12.2019
2408 Clouds 25 1008 73 0 0.77 39 19:38 18.12.2019
2409 Clouds 28 1009 69 6000 2.1 0 19:18 18.12.2019
2410 Clouds 28 1009 69 6000 2.1 0 18:54 18.12.2019
2411 Clouds 28 1009 69 6000 2.1 0 18:36 18.12.2019
2412 Clouds 30 1008 62 6000 3.1 330 18:18 18.12.2019
2413 Clouds 30 1008 62 6000 3.1 330 17:55 18.12.2019
2414 Clouds 25 1008 73 0 0.77 39 17:37 18.12.2019
2415 Clouds 31 1008 58 8000 3.1 330 17:18 18.12.2019
2416 Clouds 31 1008 58 8000 3.1 330 16:42 18.12.2019
2417 Clouds 31 1008 58 8000 3.1 330 16:23 18.12.2019
2418 Clouds 32 1008 55 8000 3.1 330 15:57 18.12.2019
2419 Clouds 32 1008 55 8000 3.1 330 15:39 18.12.2019
2420 Clouds 32 1008 55 8000 3.1 330 15:21 18.12.2019
2421 Clouds 33 1008 52 8000 3.1 330 14:56 18.12.2019
2422 Clouds 33 1008 52 8000 3.1 330 14:38 18.12.2019
2423 Clouds 33 1008 52 8000 3.1 330 14:19 18.12.2019
2424 Clouds 32 1009 52 8000 3.1 330 13:55 18.12.2019
2425 Clouds 33 1006 44 0 2.18 21 13:36 18.12.2019
2426 Clouds 32 1010 55 8000 3.1 330 13:18 18.12.2019
2427 Clouds 32 1010 55 8000 3.1 330 13:18 18.12.2019
2428 Clouds 32 1006 47 0 1.65 16 12:40 18.12.2019
2429 Clouds 32 1011 52 8000 3.1 330 12:21 18.12.2019
2430 Clouds 32 1011 52 8000 3.1 330 11:57 18.12.2019
2431 Clouds 32 1011 52 8000 3.1 330 11:39 18.12.2019
2432 Clouds 32 1011 52 8000 3.1 330 11:20 18.12.2019
2433 Clouds 30 1012 62 8000 3.1 330 10:58 18.12.2019
2434 Clouds 30 1012 62 8000 3.1 330 10:39 18.12.2019
2435 Clouds 30 1012 62 8000 3.1 330 10:20 18.12.2019
2436 Clouds 29 1012 66 6000 2.1 330 09:57 18.12.2019
2437 Clouds 29 1012 66 6000 2.1 330 09:20 18.12.2019
2438 Clouds 28 1013 69 6000 2.1 330 08:43 18.12.2019
2439 Clouds 31 1009 51 0 2.04 33 08:24 18.12.2019
2440 Clouds 24 1011 86 0 1.06 84 07:57 18.12.2019
2441 Clouds 24 1011 86 0 1.06 84 07:39 18.12.2019
2442 Mist 21 1012 94 3000 1.06 84 07:20 18.12.2019
2443 Mist 21 1012 94 3000 1.06 84 06:52 18.12.2019
2444 Mist 21 1012 100 4000 1.06 84 06:24 18.12.2019
2445 Clouds 24 1011 86 0 1.06 84 05:36 18.12.2019
2446 Clouds 21 1009 93 0 0.67 49 04:31 18.12.2019
2447 Clouds 21 1009 93 0 0.67 49 02:47 18.12.2019
2448 Clouds 21 1009 93 0 0.67 49 02:28 18.12.2019
2449 Clouds 22 1009 92 0 1.03 34 01:45 18.12.2019
2450 Clouds 22 1009 93 0 0.74 27 01:27 18.12.2019
2451 Clouds 22 1009 93 0 0.74 27 00:55 18.12.2019
2452 Clouds 22 1009 93 0 0.74 27 00:36 18.12.2019
2453 Clouds 22 1009 93 0 0.74 27 00:18 18.12.2019
2454 Clouds 22 1009 93 0 0.74 27 23:43 17.12.2019
2455 Clouds 22 1009 93 0 0.74 27 23:23 17.12.2019
2456 Rain 22 1010 93 0 0.61 342 22:57 17.12.2019
2457 Rain 22 1010 93 0 0.61 342 22:39 17.12.2019
2458 Rain 22 1010 93 0 0.61 342 22:20 17.12.2019
2459 Rain 22 1010 93 0 0.61 342 21:57 17.12.2019
2460 Rain 22 1010 93 0 0.61 342 21:39 17.12.2019
2461 Rain 22 1010 93 0 0.61 342 21:20 17.12.2019
2462 Rain 22 1010 93 0 0.61 342 21:20 17.12.2019
2463 Rain 22 1010 93 0 0.61 342 20:59 17.12.2019
2464 Rain 22 1010 93 0 0.61 342 20:40 17.12.2019
2465 Rain 22 1009 90 0 0.58 273 20:19 17.12.2019
2466 Rain 24 1008 86 0 0.49 338 19:57 17.12.2019
2467 Rain 24 1008 86 0 0.49 338 19:39 17.12.2019
2468 Rain 24 1008 86 0 0.49 338 19:20 17.12.2019
2469 Rain 24 1008 86 0 0.49 338 18:57 17.12.2019
2470 Rain 24 1008 86 0 0.49 338 18:38 17.12.2019
2471 Rain 24 1008 86 0 0.49 338 18:20 17.12.2019
2472 Rain 24 1008 86 0 0.49 338 17:55 17.12.2019
2473 Rain 24 1008 86 0 0.49 338 17:37 17.12.2019
2474 Clouds 32 1008 52 10000 1.05 274 17:18 17.12.2019
2475 Clouds 32 1008 52 10000 1.05 274 16:55 17.12.2019
2476 Clouds 32 1008 52 10000 1.05 274 16:36 17.12.2019
2477 Clouds 32 1008 52 10000 1.05 274 16:18 17.12.2019
2478 Clouds 32 1008 52 10000 1.05 274 16:18 17.12.2019
2479 Clouds 32 1008 52 10000 1.05 274 16:18 17.12.2019
2480 Clouds 33 1008 49 10000 2.1 80 15:38 17.12.2019
2481 Clouds 33 1008 49 10000 2.1 80 15:20 17.12.2019
2482 Clouds 32 1009 49 10000 3.1 60 14:56 17.12.2019
2483 Clouds 32 1009 49 10000 3.1 60 14:38 17.12.2019
2484 Clouds 32 1009 49 10000 3.1 60 14:19 17.12.2019
2485 Clouds 32 1009 49 10000 3.1 60 14:19 17.12.2019
2486 Clouds 32 1010 52 10000 3.1 110 13:58 17.12.2019
2487 Clouds 32 1010 52 10000 3.1 110 13:40 17.12.2019
2488 Clouds 32 1010 52 10000 3.1 110 13:19 17.12.2019
2489 Clouds 31 1011 58 10000 3.1 330 12:59 17.12.2019
2490 Clouds 34 1006 43 0 1.26 62 12:38 17.12.2019
2491 Clouds 34 1006 43 0 1.26 62 12:18 17.12.2019
2492 Clouds 34 1006 43 0 1.26 62 11:57 17.12.2019
2493 Clouds 34 1006 43 0 1.26 62 11:37 17.12.2019
2494 Clouds 28 1010 66 0 0.82 88 11:18 17.12.2019
2495 Clouds 28 1010 66 0 0.82 88 10:57 17.12.2019
2496 Clouds 28 1010 66 0 0.82 88 10:38 17.12.2019
2497 Clouds 28 1013 69 10000 2.1 100 10:19 17.12.2019
2498 Clouds 28 1013 69 10000 2.1 100 10:19 17.12.2019
2499 Clouds 28 1013 69 10000 2.1 100 09:55 17.12.2019
2500 Clouds 28 1013 69 10000 2.1 100 09:37 17.12.2019
2501 Clouds 28 1013 69 10000 2.1 100 09:18 17.12.2019
2502 Clouds 28 1010 66 0 0.82 88 08:40 17.12.2019
2503 Clouds 23 1011 93 0 0.85 158 08:22 17.12.2019
2504 Clouds 23 1011 93 0 0.85 158 07:59 17.12.2019
2505 Clouds 23 1011 93 0 0.85 158 07:41 17.12.2019
2506 Clouds 23 1011 93 0 0.85 158 07:22 17.12.2019
2507 Clouds 23 1011 93 0 0.85 158 06:42 17.12.2019
2508 Mist 21 1012 100 4000 0.85 158 06:24 17.12.2019
2509 Mist 21 1012 100 4000 0.85 158 05:42 17.12.2019
2510 Clouds 20 1009 98 0 0.38 205 04:58 17.12.2019
2511 Clouds 20 1009 98 0 0.38 205 03:55 17.12.2019
2512 Clouds 20 1009 98 0 0.38 205 02:26 17.12.2019
2513 Clouds 20 1008 98 0 1.24 116 01:22 17.12.2019
2514 Clouds 20 1008 98 0 1.24 116 00:47 17.12.2019
2515 Clouds 20 1008 98 0 1.24 116 00:22 17.12.2019
2516 Clouds 20 1008 98 0 1.24 116 23:57 16.12.2019
2517 Clouds 20 1008 98 0 1.24 116 23:38 16.12.2019
2518 Clouds 21 1010 98 0 1.05 94 23:18 16.12.2019
2519 Clouds 21 1010 98 0 1.05 94 22:54 16.12.2019
2520 Clouds 21 1010 98 0 1.05 94 22:36 16.12.2019
2521 Clouds 21 1010 98 0 1.05 94 22:18 16.12.2019
2522 Clouds 21 1010 98 0 1.05 94 21:54 16.12.2019
2523 Clouds 21 1010 98 0 1.05 94 21:36 16.12.2019
2524 Clouds 24 1012 88 7000 2.1 0 21:18 16.12.2019
2525 Clouds 24 1012 88 7000 2.1 0 20:54 16.12.2019
2526 Clouds 21 1010 98 0 1.05 94 20:36 16.12.2019
2527 Clouds 23 1009 91 0 0.74 330 20:18 16.12.2019
2528 Clouds 23 1009 91 0 0.74 330 19:54 16.12.2019
2529 Clouds 23 1009 91 0 0.74 330 19:36 16.12.2019
2530 Clouds 23 1009 91 0 0.74 330 19:18 16.12.2019
2531 Clouds 23 1009 91 0 0.74 330 19:18 16.12.2019
2532 Clouds 23 1009 91 0 0.74 330 18:42 16.12.2019
2533 Clouds 26 1010 74 8000 2.1 30 18:20 16.12.2019
2534 Clouds 26 1010 74 8000 2.1 30 18:20 16.12.2019
2535 Clouds 26 1010 74 8000 2.1 30 17:59 16.12.2019
2536 Clouds 26 1010 74 8000 2.1 30 17:40 16.12.2019
2537 Clouds 26 1010 74 8000 2.1 30 17:40 16.12.2019
2538 Clouds 26 1010 74 8000 2.1 30 17:21 16.12.2019
2539 Clouds 28 1010 65 10000 4.1 360 16:58 16.12.2019
2540 Clouds 26 1007 77 0 0.85 239 16:39 16.12.2019
2541 Clouds 28 1010 65 10000 4.1 120 16:20 16.12.2019
2542 Clouds 28 1010 65 10000 4.1 120 15:59 16.12.2019
2543 Clouds 26 1007 77 0 0.85 239 15:39 16.12.2019
2544 Clouds 28 1011 69 10000 4.1 30 15:21 16.12.2019
2545 Clouds 28 1011 69 10000 4.1 30 14:57 16.12.2019
2546 Clouds 28 1011 69 10000 4.1 30 14:37 16.12.2019
2547 Clouds 28 1011 69 10000 4.1 30 14:37 16.12.2019
2548 Clouds 28 1011 69 10000 4.1 30 14:37 16.12.2019
2549 Clouds 28 1011 69 10000 4.1 30 14:19 16.12.2019
2550 Clouds 28 1012 69 10000 3.1 30 13:56 16.12.2019
2551 Rain 28 1009 71 0 1.2 215 13:38 16.12.2019
2552 Rain 28 1009 71 0 1.2 215 13:19 16.12.2019
2553 Clouds 30 1008 59 0 1.8 180 13:19 16.12.2019
2554 Clouds 30 1008 59 0 1.8 180 12:58 16.12.2019
2555 Clouds 30 1008 59 0 1.8 180 12:39 16.12.2019
2556 Clouds 24 1014 83 8000 3.1 90 12:19 16.12.2019
2557 Clouds 24 1014 83 8000 3.1 90 11:58 16.12.2019
2558 Clouds 24 1014 83 8000 3.1 90 11:40 16.12.2019
2559 Clouds 24 1014 83 8000 3.1 90 11:20 16.12.2019
2560 Clouds 24 1015 83 8000 3.1 90 10:57 16.12.2019
2561 Clouds 24 1015 83 8000 3.1 90 10:38 16.12.2019
2562 Clouds 24 1015 83 8000 3.1 90 10:19 16.12.2019
2563 Clouds 23 1016 88 8000 3.1 330 09:45 16.12.2019
2564 Clouds 23 1016 88 8000 3.1 330 09:27 16.12.2019
2565 Clouds 22 1015 94 8000 3.1 330 08:55 16.12.2019
2566 Clouds 22 1015 94 8000 3.1 330 08:37 16.12.2019
2567 Clouds 22 1015 94 8000 3.1 330 08:18 16.12.2019
2568 Clouds 21 1015 94 8000 3.1 330 07:42 16.12.2019
2569 Clouds 20 1014 100 8000 3.1 340 07:21 16.12.2019
2570 Clouds 20 1014 100 8000 3.1 340 06:45 16.12.2019
2571 Rain 22 1013 94 0 1.22 201 06:22 16.12.2019
2572 Rain 22 1013 94 0 1.22 201 05:49 16.12.2019
2573 Rain 22 1013 94 0 1.22 201 05:30 16.12.2019
2574 Clouds 21 1011 99 0 0.97 258 04:21 16.12.2019
2575 Clouds 21 1010 98 0 1.18 268 01:58 16.12.2019
2576 Clouds 21 1010 98 0 1.18 268 01:40 16.12.2019
2577 Clouds 21 1010 98 0 1.18 268 01:40 16.12.2019
2578 Rain 21 1010 98 0 1.26 290 00:42 16.12.2019
2579 Rain 21 1010 98 0 1.26 290 00:23 16.12.2019
2580 Rain 21 1010 98 0 1.26 290 23:58 15.12.2019
2581 Rain 21 1010 98 0 1.26 290 23:38 15.12.2019
2582 Rain 22 1011 96 0 1.34 236 23:19 15.12.2019
2583 Rain 22 1011 96 0 1.34 236 22:55 15.12.2019
2584 Rain 22 1011 96 0 1.34 236 22:37 15.12.2019
2585 Rain 22 1011 96 0 1.34 236 22:18 15.12.2019
2586 Rain 22 1011 96 0 1.34 236 21:55 15.12.2019
2587 Rain 22 1011 96 0 1.34 236 21:37 15.12.2019
2588 Rain 22 1011 96 0 1.34 236 21:19 15.12.2019
2589 Rain 22 1011 96 0 1.34 236 20:55 15.12.2019
2590 Rain 22 1011 96 0 1.34 236 20:55 15.12.2019
2591 Rain 22 1011 96 0 1.34 236 20:37 15.12.2019
2592 Clouds 24 1012 88 6000 0.13 125 20:18 15.12.2019
2593 Clouds 24 1012 88 6000 1.33 247 19:56 15.12.2019
2594 Clouds 24 1012 88 6000 1.33 247 19:38 15.12.2019
2595 Clouds 24 1012 88 6000 1.33 247 19:18 15.12.2019
2596 Rain 23 1009 96 0 1.33 247 18:55 15.12.2019
2597 Rain 23 1009 96 0 1.33 247 18:37 15.12.2019
2598 Clouds 28 1009 83 10000 1.33 247 18:18 15.12.2019
2599 Clouds 28 1009 83 10000 1.33 247 17:55 15.12.2019
2600 Clouds 28 1009 83 10000 0.13 125 17:36 15.12.2019
2601 Clouds 28 1009 83 10000 1.14 332 17:18 15.12.2019
2602 Clouds 28 1009 83 10000 1.22 348 17:18 15.12.2019
2603 Clouds 28 1009 83 10000 1.14 332 17:18 15.12.2019
2604 Thunderstorm 28 1009 78 10000 1.22 348 16:43 15.12.2019
2605 Thunderstorm 28 1009 78 10000 1.14 332 16:23 15.12.2019
2606 Clouds 29 1008 74 10000 3.1 210 15:57 15.12.2019
2607 Rain 30 1005 64 0 1.14 332 15:39 15.12.2019
2608 Thunderstorm 29 1009 74 10000 3.1 210 15:20 15.12.2019
2609 Thunderstorm 29 1009 74 10000 3.1 210 14:56 15.12.2019
2610 Rain 30 1005 64 0 1.14 332 14:38 15.12.2019
2611 Rain 31 1007 60 0 1.68 329 14:19 15.12.2019
2612 Rain 32 1007 46 0 1.77 17 13:59 15.12.2019
2613 Rain 31 1007 60 0 1.68 329 13:39 15.12.2019
2614 Clouds 28 1012 78 10000 4.1 210 13:20 15.12.2019
2615 Clouds 28 1012 78 10000 4.1 210 12:57 15.12.2019
2616 Clouds 28 1012 78 10000 4.1 210 12:39 15.12.2019
2617 Clouds 28 1012 78 10000 4.1 210 12:21 15.12.2019
2618 Clouds 27 1013 83 10000 4.1 200 11:59 15.12.2019
2619 Clouds 27 1013 83 10000 4.1 200 11:38 15.12.2019
2620 Clouds 27 1013 83 10000 4.1 200 11:19 15.12.2019
2621 Clouds 27 1013 83 10000 4.1 200 11:19 15.12.2019
2622 Clouds 27 1013 83 10000 4.1 200 11:19 15.12.2019
2623 Rain 26 1012 85 0 1.12 66 10:55 15.12.2019
2624 Rain 26 1012 85 0 1.12 66 10:37 15.12.2019
2625 Clouds 25 1014 88 8000 3.1 150 10:19 15.12.2019
2626 Clouds 25 1014 88 8000 3.1 150 09:56 15.12.2019
2627 Clouds 25 1014 88 8000 3.1 150 09:37 15.12.2019
2628 Clouds 25 1014 88 8000 3.1 150 09:18 15.12.2019
2629 Rain 26 1012 85 0 1.12 66 08:41 15.12.2019
2630 Clouds 24 1014 94 6000 3.1 90 08:22 15.12.2019
2631 Clouds 24 1014 94 6000 3.1 90 07:57 15.12.2019
2632 Clouds 24 1014 94 6000 3.1 90 07:37 15.12.2019
2633 Clouds 24 1012 89 0 0.47 119 06:57 15.12.2019
2634 Clouds 24 1012 89 0 0.47 119 06:23 15.12.2019
2635 Clouds 24 1012 89 0 0.47 119 05:39 15.12.2019
2636 Rain 21 1010 97 0 0.41 129 05:19 15.12.2019
2637 Rain 21 1010 97 0 0.41 129 03:56 15.12.2019
2638 Rain 21 1010 97 0 0.41 129 02:35 15.12.2019
2639 Rain 22 1010 94 0 0.75 110 01:55 15.12.2019
2640 Rain 22 1010 92 0 0.77 133 01:37 15.12.2019
2641 Rain 22 1010 92 0 0.77 133 01:18 15.12.2019
2642 Rain 22 1010 92 0 0.77 133 00:42 15.12.2019
2643 Rain 22 1010 92 0 0.77 133 00:23 15.12.2019
2644 Rain 22 1010 92 0 0.77 133 23:40 14.12.2019
2645 Rain 23 1011 86 0 0.5 197 23:21 14.12.2019
2646 Rain 23 1011 86 0 0.5 197 22:58 14.12.2019
2647 Rain 23 1011 86 0 0.5 197 22:40 14.12.2019
2648 Rain 23 1011 86 0 0.5 197 22:21 14.12.2019
2649 Rain 23 1011 86 0 0.5 197 21:56 14.12.2019
2650 Rain 23 1011 86 0 0.5 197 21:38 14.12.2019
2651 Rain 23 1011 86 0 0.5 197 21:19 14.12.2019
2652 Rain 23 1011 86 0 0.5 197 20:57 14.12.2019
2653 Rain 23 1011 86 0 0.5 197 20:39 14.12.2019
2654 Clouds 25 1010 79 0 0.97 48 20:19 14.12.2019
2655 Clouds 25 1010 79 0 0.97 48 19:56 14.12.2019
2656 Clouds 25 1010 79 0 0.97 48 19:37 14.12.2019
2657 Clouds 25 1010 79 0 0.97 48 19:18 14.12.2019
2658 Clouds 25 1010 79 0 0.97 48 18:56 14.12.2019
2659 Clouds 25 1010 79 0 0.97 48 18:36 14.12.2019
2660 Thunderstorm 27 1010 83 8000 3.1 90 18:18 14.12.2019
2661 Thunderstorm 27 1010 83 8000 3.1 90 17:43 14.12.2019
2662 Thunderstorm 27 1010 83 8000 3.1 90 17:23 14.12.2019
2663 Thunderstorm 28 1009 83 9000 3.1 120 16:56 14.12.2019
2664 Clouds 31 1006 56 0 1.18 49 16:38 14.12.2019
2665 Thunderstorm 29 1009 74 9000 3.1 90 16:18 14.12.2019
2666 Thunderstorm 29 1009 74 9000 3.1 90 15:42 14.12.2019
2667 Thunderstorm 30 1009 70 9000 3.1 180 15:21 14.12.2019
2668 Thunderstorm 30 1009 70 9000 3.1 180 14:58 14.12.2019
2669 Thunderstorm 30 1009 70 9000 3.1 180 14:38 14.12.2019
2670 Thunderstorm 30 1009 70 9000 3.1 180 14:19 14.12.2019
2671 Thunderstorm 30 1009 70 9000 3.1 180 14:19 14.12.2019
2672 Thunderstorm 30 1010 70 10000 3.1 120 13:45 14.12.2019
2673 Thunderstorm 30 1010 70 10000 3.1 120 13:21 14.12.2019
2674 Thunderstorm 30 1010 70 10000 3.1 120 13:21 14.12.2019
2675 Clouds 30 1012 70 10000 3.1 310 12:59 14.12.2019
2676 Clouds 30 1012 70 10000 3.1 310 12:41 14.12.2019
2677 Clouds 30 1012 70 10000 3.1 310 12:21 14.12.2019
2678 Clouds 30 1012 70 10000 3.1 310 12:21 14.12.2019
2679 Clouds 30 1013 66 10000 3.1 330 11:59 14.12.2019
2680 Clouds 30 1013 66 10000 3.1 330 11:40 14.12.2019
2681 Clouds 30 1013 66 10000 3.1 330 11:20 14.12.2019
2682 Clouds 29 1014 70 7000 3.1 330 10:59 14.12.2019
2683 Clouds 29 1014 70 7000 3.1 330 10:59 14.12.2019
2684 Clouds 29 1014 70 7000 3.1 330 10:40 14.12.2019
2685 Clouds 29 1014 70 7000 3.1 330 10:22 14.12.2019
2686 Clouds 27 1015 78 9000 4.1 330 09:59 14.12.2019
2687 Clouds 27 1015 78 9000 4.1 330 09:40 14.12.2019
2688 Clouds 27 1015 78 9000 4.1 330 09:20 14.12.2019
2689 Rain 29 1012 74 0 0.43 108 08:43 14.12.2019
2690 Clear 24 1013 88 0 0.87 9 08:20 14.12.2019
2691 Clear 24 1013 88 0 0.87 9 07:44 14.12.2019
2692 Clear 24 1013 88 0 0.87 9 07:24 14.12.2019
2693 Clear 24 1013 88 0 0.87 9 06:58 14.12.2019
2694 Clear 24 1013 88 0 0.87 9 06:38 14.12.2019
2695 Clear 24 1013 88 0 0.87 9 06:18 14.12.2019
2696 Clouds 21 1010 97 0 0.46 2 04:48 14.12.2019
2697 Clouds 21 1010 97 0 0.46 2 02:41 14.12.2019
2698 Clouds 21 1010 96 0 0.44 229 02:19 14.12.2019
2699 Clouds 21 1010 96 0 0.44 229 01:37 14.12.2019
2700 Clouds 21 1010 95 0 0.45 250 00:50 14.12.2019
2701 Clouds 21 1010 95 0 0.45 250 00:29 14.12.2019
2702 Clouds 21 1010 95 0 0.45 250 23:57 13.12.2019
2703 Clouds 21 1010 95 0 0.45 250 23:38 13.12.2019
2704 Rain 22 1011 95 0 0.8 296 23:19 13.12.2019
2705 Rain 22 1011 95 0 0.8 296 22:42 13.12.2019
2706 Rain 22 1011 95 0 0.8 296 22:19 13.12.2019
2707 Rain 22 1011 95 0 0.8 296 21:56 13.12.2019
2708 Rain 22 1011 95 0 0.8 296 21:38 13.12.2019
2709 Rain 22 1011 95 0 0.8 296 21:20 13.12.2019
2710 Rain 22 1011 95 0 0.8 296 20:54 13.12.2019
2711 Rain 22 1011 95 0 0.8 296 20:36 13.12.2019
2712 Rain 23 1010 92 0 0.69 186 20:18 13.12.2019
2713 Rain 22 1010 94 0 0.32 200 19:42 13.12.2019
2714 Rain 22 1010 94 0 0.32 200 19:23 13.12.2019
2715 Rain 22 1010 94 0 0.32 200 18:59 13.12.2019
2716 Rain 22 1010 94 0 0.32 200 18:41 13.12.2019
2717 Rain 22 1010 94 0 0.32 200 18:19 13.12.2019
2718 Rain 22 1010 94 0 0.32 200 17:57 13.12.2019
2719 Rain 22 1010 94 0 0.32 200 17:38 13.12.2019
2720 Rain 25 1007 92 0 1.22 228 17:18 13.12.2019
2721 Rain 25 1007 92 0 1.22 228 16:54 13.12.2019
2722 Rain 25 1007 92 0 1.22 228 16:36 13.12.2019
2723 Rain 25 1007 92 0 1.22 228 16:18 13.12.2019
2724 Rain 25 1007 92 0 1.22 228 15:38 13.12.2019
2725 Rain 25 1007 92 0 1.22 228 15:20 13.12.2019
2726 Rain 25 1007 92 0 1.22 228 14:42 13.12.2019
2727 Rain 32 1008 55 0 0.93 276 14:22 13.12.2019
2728 Rain 32 1008 55 0 0.93 276 13:58 13.12.2019
2729 Rain 32 1008 55 0 0.93 276 13:40 13.12.2019
2730 Rain 32 1009 51 0 0.81 279 13:21 13.12.2019
2731 Rain 32 1009 51 0 0.81 279 12:44 13.12.2019
2732 Rain 32 1009 51 0 0.81 279 12:44 13.12.2019
2733 Rain 32 1009 51 0 0.81 279 12:23 13.12.2019
2734 Rain 32 1009 51 0 0.81 279 11:59 13.12.2019
2735 Rain 32 1009 51 0 0.81 279 11:41 13.12.2019
2736 Rain 32 1009 51 0 0.81 279 11:23 13.12.2019
2737 Rain 25 1013 82 0 0.73 154 10:56 13.12.2019
2738 Rain 25 1013 82 0 0.73 154 10:38 13.12.2019
2739 Rain 25 1013 82 0 0.73 154 10:19 13.12.2019
2740 Rain 25 1013 82 0 0.73 154 09:41 13.12.2019
2741 Rain 25 1013 82 0 0.73 154 09:20 13.12.2019
2742 Rain 25 1013 82 0 0.73 154 09:20 13.12.2019
2743 Rain 25 1013 82 0 0.73 154 08:44 13.12.2019
2744 Clouds 22 1014 100 7000 1.44 161 08:25 13.12.2019
2745 Clouds 22 1014 100 7000 0.57 112 07:48 13.12.2019
2746 Clouds 22 1013 94 6000 2.1 360 07:24 13.12.2019
2747 Clouds 22 1013 94 6000 2.1 360 06:55 13.12.2019
2748 Rain 22 1013 96 0 0.57 112 06:29 13.12.2019
2749 Rain 22 1013 96 0 0.57 112 05:51 13.12.2019
2750 Rain 22 1013 96 0 0.57 112 05:30 13.12.2019
2751 Rain 21 1011 96 0 1.43 45 04:48 13.12.2019
2752 Rain 21 1011 96 0 1.43 45 03:49 13.12.2019
2753 Rain 21 1011 96 0 1.43 45 02:35 13.12.2019
2754 Clouds 22 1010 90 0 1.11 148 01:49 13.12.2019
2755 Clouds 22 1010 89 0 1.14 158 01:19 13.12.2019
2756 Clouds 22 1010 89 0 1.14 158 00:45 13.12.2019
2757 Clouds 22 1010 89 0 1.14 158 00:22 13.12.2019
2758 Clouds 22 1010 89 0 1.14 158 23:41 12.12.2019
2759 Clouds 22 1011 85 0 1.07 170 23:22 12.12.2019
2760 Clouds 22 1011 85 0 1.07 170 22:56 12.12.2019
2761 Clouds 22 1011 85 0 1.07 170 22:37 12.12.2019
2762 Clouds 22 1011 85 0 1.07 170 22:19 12.12.2019
2763 Clouds 22 1011 85 0 1.07 170 21:55 12.12.2019
2764 Clouds 22 1011 85 0 1.07 170 21:55 12.12.2019
2765 Clouds 22 1011 85 0 1.07 170 21:55 12.12.2019
2766 Clouds 22 1011 85 0 1.07 170 21:37 12.12.2019
2767 Clouds 24 1011 88 7000 2.1 0 21:19 12.12.2019
2768 Clouds 24 1011 88 7000 2.1 0 20:56 12.12.2019
2769 Clouds 24 1011 88 7000 2.1 0 20:38 12.12.2019
2770 Rain 24 1009 82 0 0.73 220 20:20 12.12.2019
2771 Rain 24 1009 82 0 0.73 220 19:43 12.12.2019
2772 Rain 24 1009 82 0 0.73 220 19:43 12.12.2019
2773 Rain 24 1009 82 0 0.73 220 19:23 12.12.2019
2774 Rain 24 1009 82 0 0.73 220 18:58 12.12.2019
2775 Rain 24 1009 82 0 0.73 220 18:40 12.12.2019
2776 Clouds 30 1009 62 10000 3.1 270 18:21 12.12.2019
2777 Clouds 30 1009 62 10000 3.1 270 17:59 12.12.2019
2778 Clouds 30 1009 62 10000 3.1 270 17:40 12.12.2019
2779 Clouds 28 1006 69 0 0.49 93 17:21 12.12.2019
2780 Clouds 28 1006 69 0 0.49 93 16:59 12.12.2019
2781 Clouds 28 1006 69 0 0.49 93 16:41 12.12.2019
2782 Clouds 28 1006 69 0 0.49 93 16:21 12.12.2019
2783 Clouds 28 1006 69 0 0.49 93 15:59 12.12.2019
2784 Clouds 28 1006 69 0 0.49 93 15:41 12.12.2019
2785 Clouds 28 1006 69 0 0.49 93 15:19 12.12.2019
2786 Clouds 28 1006 69 0 0.49 93 15:19 12.12.2019
2787 Clouds 28 1006 69 0 0.49 93 14:57 12.12.2019
2788 Clouds 28 1006 69 0 0.49 93 14:36 12.12.2019
2789 Clouds 33 1007 45 0 0.56 123 14:18 12.12.2019
2790 Clouds 33 1007 45 0 0.56 123 13:54 12.12.2019
2791 Clouds 33 1007 45 0 0.56 123 13:36 12.12.2019
2792 Clouds 32 1008 48 0 1.32 160 13:18 12.12.2019
2793 Clouds 32 1008 48 0 1.32 160 12:41 12.12.2019
2794 Clouds 28 1013 69 10000 2.1 360 12:22 12.12.2019
2795 Clouds 28 1013 69 10000 2.1 360 11:59 12.12.2019
2796 Clouds 28 1013 69 10000 2.1 360 11:40 12.12.2019
2797 Clouds 27 1014 74 10000 2.1 180 11:21 12.12.2019
2798 Clouds 27 1014 74 10000 2.1 180 10:58 12.12.2019
2799 Clouds 27 1014 74 10000 2.1 180 10:40 12.12.2019
2800 Clouds 27 1012 63 0 1.42 135 10:22 12.12.2019
2801 Clouds 27 1012 63 0 1.42 135 09:56 12.12.2019
2802 Clouds 27 1012 63 0 1.42 135 09:38 12.12.2019
2803 Clouds 27 1012 63 0 1.42 135 09:20 12.12.2019
2804 Clouds 27 1012 63 0 1.42 135 08:47 12.12.2019
2805 Clouds 27 1012 63 0 1.42 135 08:29 12.12.2019
2806 Rain 21 1014 96 0 1.24 150 07:55 12.12.2019
2807 Rain 21 1014 96 0 1.24 150 07:36 12.12.2019
2808 Rain 21 1014 96 0 1.24 150 07:18 12.12.2019
2809 Rain 21 1014 96 0 1.24 150 06:41 12.12.2019
2810 Rain 21 1014 96 0 1.24 150 06:21 12.12.2019
2811 Rain 21 1014 96 0 1.24 150 05:28 12.12.2019
2812 Clouds 20 1012 99 0 1.03 155 04:46 12.12.2019
2813 Clouds 20 1012 99 0 1.03 155 02:42 12.12.2019
2814 Clouds 20 1012 99 0 1.03 155 02:24 12.12.2019
2815 Clouds 20 1012 99 0 0.38 177 01:59 12.12.2019
2816 Clouds 20 1012 99 0 0.38 177 01:59 12.12.2019
2817 Clouds 20 1012 99 0 0.38 177 01:36 12.12.2019
2818 Clouds 20 1012 99 0 0.57 170 00:49 12.12.2019
2819 Clouds 20 1012 99 0 0.57 170 00:22 12.12.2019
2820 Clouds 20 1012 99 0 0.57 170 23:58 11.12.2019
2821 Clouds 20 1012 99 0 0.57 170 23:37 11.12.2019
2822 Clouds 20 1013 99 0 0.42 188 23:18 11.12.2019
2823 Clouds 20 1013 99 0 0.42 188 22:55 11.12.2019
2824 Clouds 20 1013 99 0 0.42 188 22:37 11.12.2019
2825 Clouds 20 1013 99 0 0.42 188 22:18 11.12.2019
2826 Clouds 20 1013 99 0 0.42 188 22:18 11.12.2019
2827 Clouds 20 1013 99 0 0.42 188 21:54 11.12.2019
2828 Clouds 20 1013 99 0 0.42 188 21:36 11.12.2019
2829 Clouds 20 1013 99 0 0.42 188 21:18 11.12.2019
2830 Clouds 20 1013 99 0 0.42 188 20:54 11.12.2019
2831 Clouds 20 1013 99 0 0.42 188 20:36 11.12.2019
2832 Clouds 20 1012 96 0 0.4 205 20:18 11.12.2019
2833 Clouds 20 1012 96 0 0.4 205 19:42 11.12.2019
2834 Clouds 20 1012 96 0 0.4 205 19:23 11.12.2019
2835 Clouds 20 1012 96 0 0.4 205 18:59 11.12.2019
2836 Clouds 20 1012 96 0 0.4 205 18:40 11.12.2019
2837 Clouds 23 1011 94 7000 2.1 160 18:19 11.12.2019
2838 Clouds 23 1011 94 7000 2.1 160 17:56 11.12.2019
2839 Clouds 23 1011 94 7000 2.1 160 17:38 11.12.2019
2840 Rain 21 1010 95 0 1.71 239 17:18 11.12.2019
2841 Rain 21 1010 95 0 1.71 239 16:55 11.12.2019
2842 Rain 21 1010 95 0 1.71 239 16:37 11.12.2019
2843 Clouds 25 1011 88 8000 2.1 190 16:18 11.12.2019
2844 Clouds 25 1011 88 8000 2.1 190 15:56 11.12.2019
2845 Clouds 25 1011 88 8000 2.1 190 15:37 11.12.2019
2846 Rain 21 1010 95 0 1.71 239 15:18 11.12.2019
2847 Rain 21 1010 95 0 1.71 239 14:54 11.12.2019
2848 Rain 21 1010 95 0 1.71 239 14:36 11.12.2019
2849 Rain 24 1012 88 7000 3.1 180 14:18 11.12.2019
2850 Rain 24 1012 88 7000 3.1 180 13:42 11.12.2019
2851 Clouds 24 1013 83 7000 2.1 130 13:22 11.12.2019
2852 Clouds 24 1013 83 7000 2.1 130 12:58 11.12.2019
2853 Clouds 24 1013 83 7000 2.1 130 12:39 11.12.2019
2854 Clouds 24 1014 83 6000 3.1 140 12:21 11.12.2019
2855 Clouds 24 1014 83 6000 3.1 140 12:21 11.12.2019
2856 Clouds 24 1014 83 6000 3.1 140 11:58 11.12.2019
2857 Clouds 24 1014 83 6000 3.1 140 11:58 11.12.2019
2858 Clouds 25 1011 71 0 0.69 256 11:39 11.12.2019
2859 Clouds 21 1014 95 0 0.6 185 11:19 11.12.2019
2860 Clouds 21 1014 95 0 0.6 185 10:57 11.12.2019
2861 Clouds 21 1014 95 0 0.6 185 10:39 11.12.2019
2862 Clouds 21 1014 95 0 0.6 185 10:20 11.12.2019
2863 Clouds 21 1014 95 0 0.6 185 10:20 11.12.2019
2864 Clouds 21 1014 95 0 0.6 185 09:44 11.12.2019
2865 Clouds 21 1014 95 0 0.6 185 09:44 11.12.2019
2866 Clouds 21 1014 95 0 0.6 185 09:21 11.12.2019
2867 Clouds 21 1014 95 0 0.6 185 08:58 11.12.2019
2868 Clouds 21 1014 95 0 0.6 185 08:40 11.12.2019
2869 Rain 22 1014 94 4000 2.1 120 08:20 11.12.2019
2870 Rain 22 1014 94 4000 2.1 120 07:59 11.12.2019
2871 Rain 22 1014 94 4000 2.1 120 07:41 11.12.2019
2872 Mist 20 1019 100 3000 2.1 120 07:22 11.12.2019
2873 Mist 20 1019 100 3000 2.1 120 06:44 11.12.2019
2874 Rain 20 1014 98 0 1.09 130 06:23 11.12.2019
2875 Rain 20 1014 98 0 1.09 130 05:46 11.12.2019
2876 Rain 20 1014 98 0 1.09 130 05:27 11.12.2019
2877 Rain 20 1011 98 0 1.43 156 04:41 11.12.2019
2878 Rain 20 1011 98 0 1.43 156 02:49 11.12.2019
2879 Clouds 20 1011 90 0 0.9 173 01:26 11.12.2019
2880 Clouds 20 1011 90 0 0.9 173 00:49 11.12.2019
2881 Clouds 20 1011 90 0 0.9 173 00:25 11.12.2019
2882 Clouds 20 1011 90 0 0.9 173 23:59 10.12.2019
2883 Clouds 20 1011 90 0 0.9 173 23:40 10.12.2019
2884 Clouds 20 1012 92 0 0.99 161 23:21 10.12.2019
2885 Clouds 20 1012 92 0 0.99 161 22:41 10.12.2019
2886 Clouds 20 1012 92 0 0.99 161 22:22 10.12.2019
2887 Clouds 20 1012 92 0 0.99 161 21:57 10.12.2019
2888 Clouds 20 1012 92 0 0.99 161 21:39 10.12.2019
2889 Clouds 20 1012 92 0 0.99 161 21:39 10.12.2019
2890 Clouds 20 1012 92 0 0.99 161 21:21 10.12.2019
2891 Clouds 20 1012 92 0 0.99 161 20:57 10.12.2019
2892 Clouds 20 1012 92 0 0.99 161 20:38 10.12.2019
2893 Clouds 22 1010 87 0 0.35 150 20:19 10.12.2019
2894 Clouds 22 1010 87 0 0.35 150 20:19 10.12.2019
2895 Clouds 22 1010 87 0 0.35 150 20:19 10.12.2019
2896 Clouds 22 1010 87 0 0.35 150 20:19 10.12.2019
2897 Clouds 22 1010 87 0 0.35 150 19:55 10.12.2019
2898 Clouds 22 1010 87 0 0.35 150 19:37 10.12.2019
2899 Clouds 22 1010 87 0 0.35 150 19:19 10.12.2019
2900 Clouds 22 1010 87 0 0.35 150 18:42 10.12.2019
2901 Clouds 22 1010 87 0 0.35 150 18:21 10.12.2019
2902 Clouds 22 1010 87 0 0.35 150 17:59 10.12.2019
2903 Clouds 22 1010 87 0 0.35 150 17:40 10.12.2019
2904 Clouds 26 1007 70 0 0.87 17 17:22 10.12.2019
2905 Clouds 26 1007 70 0 0.87 17 17:22 10.12.2019
2906 Clouds 26 1007 70 0 0.87 17 16:55 10.12.2019
2907 Clouds 26 1007 70 0 0.87 17 16:36 10.12.2019
2908 Clouds 26 1007 70 0 0.87 17 16:18 10.12.2019
2909 Clouds 26 1007 70 0 0.87 17 15:38 10.12.2019
2910 Clouds 26 1007 70 0 0.87 17 15:18 10.12.2019
2911 Clouds 26 1007 70 0 0.87 17 14:56 10.12.2019
2912 Clouds 26 1007 70 0 0.87 17 14:38 10.12.2019
2913 Thunderstorm 24 1011 60 5000 2.1 330 14:20 10.12.2019
2914 Thunderstorm 24 1011 60 5000 2.1 330 13:57 10.12.2019
2915 Thunderstorm 24 1011 60 5000 2.1 330 13:39 10.12.2019
2916 Clouds 23 1008 88 0 0.7 256 13:20 10.12.2019
2917 Clouds 23 1008 88 0 0.7 256 12:48 10.12.2019
2918 Clouds 23 1008 88 0 0.7 256 12:48 10.12.2019
2919 Thunderstorm 21 1014 100 4000 2.1 330 12:28 10.12.2019
2920 Thunderstorm 21 1014 100 4000 2.1 330 11:56 10.12.2019
2921 Thunderstorm 21 1014 100 4000 2.1 330 11:38 10.12.2019
2922 Rain 23 1012 88 0 1.69 131 11:19 10.12.2019
2923 Rain 23 1012 88 0 1.69 131 10:43 10.12.2019
2924 Rain 23 1012 88 0 1.69 131 10:24 10.12.2019
2925 Rain 23 1012 88 0 1.69 131 09:57 10.12.2019
2926 Rain 23 1012 88 0 1.69 131 09:39 10.12.2019
2927 Rain 23 1012 88 0 1.69 131 09:20 10.12.2019
2928 Rain 23 1012 88 0 1.69 131 08:58 10.12.2019
2929 Rain 23 1012 88 0 1.69 131 08:39 10.12.2019
2930 Mist 23 1012 94 4000 1.35 128 08:20 10.12.2019
2931 Mist 23 1012 94 4000 1.35 128 07:45 10.12.2019
2932 Mist 23 1012 94 3000 1.35 128 07:27 10.12.2019
2933 Mist 23 1012 94 3000 1.35 128 06:50 10.12.2019
2934 Mist 22 1012 100 4000 1.35 128 06:25 10.12.2019
2935 Mist 22 1012 100 4000 1.35 128 05:57 10.12.2019
2936 Mist 22 1012 100 4000 1.35 128 05:38 10.12.2019
2937 Clouds 20 1010 97 0 0.49 152 03:55 10.12.2019
2938 Clouds 20 1010 97 0 0.49 152 03:24 10.12.2019
2939 Clouds 21 1011 97 0 1.02 208 01:55 10.12.2019
2940 Clouds 22 1011 96 0 1.08 198 01:28 10.12.2019
2941 Clouds 22 1011 96 0 1.08 198 01:28 10.12.2019
2942 Clouds 22 1011 96 0 1.08 198 00:58 10.12.2019
2943 Clouds 22 1011 96 0 1.08 198 00:26 10.12.2019
2944 Clouds 22 1011 96 0 1.08 198 23:57 09.12.2019
2945 Clouds 22 1011 96 0 1.08 198 23:37 09.12.2019
2946 Rain 21 1012 96 0 0.74 209 23:18 09.12.2019
2947 Rain 21 1012 96 0 0.74 209 22:54 09.12.2019
2948 Rain 21 1012 96 0 0.74 209 22:36 09.12.2019
2949 Rain 21 1012 96 0 0.74 209 22:18 09.12.2019
2950 Rain 21 1012 96 0 0.74 209 21:54 09.12.2019
2951 Rain 21 1012 96 0 0.74 209 21:36 09.12.2019
2952 Rain 21 1012 96 0 0.74 209 21:18 09.12.2019
2953 Rain 21 1012 96 0 0.74 209 20:55 09.12.2019
2954 Rain 21 1012 96 0 0.74 209 20:37 09.12.2019
2955 Rain 22 1010 95 0 0.83 158 20:18 09.12.2019
2956 Rain 22 1010 95 0 0.83 158 19:54 09.12.2019
2957 Rain 22 1010 95 0 0.83 158 19:36 09.12.2019
2958 Rain 22 1010 95 0 0.83 158 19:18 09.12.2019
2959 Rain 22 1010 95 0 0.83 158 18:54 09.12.2019
2960 Rain 22 1010 95 0 0.83 158 18:36 09.12.2019
2961 Rain 22 1010 95 0 0.83 158 18:18 09.12.2019
2962 Rain 22 1010 95 0 0.83 158 17:54 09.12.2019
2963 Rain 22 1010 95 0 0.83 158 17:36 09.12.2019
2964 Clouds 27 1009 78 8000 3.1 120 17:18 09.12.2019
2965 Clouds 27 1009 78 8000 3.1 120 16:54 09.12.2019
2966 Clouds 27 1009 78 8000 3.1 120 16:36 09.12.2019
2967 Rain 26 1007 78 0 1.63 190 16:18 09.12.2019
2968 Rain 26 1007 78 0 1.63 190 15:54 09.12.2019
2969 Rain 26 1007 78 0 1.63 190 15:36 09.12.2019
2970 Clouds 28 1011 74 8000 3.1 180 15:18 09.12.2019
2971 Clouds 28 1011 74 8000 3.1 180 14:41 09.12.2019
2972 Clouds 28 1011 74 8000 3.1 130 14:18 09.12.2019
2973 Clouds 28 1011 74 8000 3.1 130 13:56 09.12.2019
2974 Clouds 28 1011 74 8000 3.1 130 13:37 09.12.2019
2975 Clouds 27 1011 83 8000 3.1 180 13:19 09.12.2019
2976 Rain 33 1008 44 0 0.88 281 12:55 09.12.2019
2977 Rain 33 1008 44 0 0.88 281 12:55 09.12.2019
2978 Rain 33 1008 44 0 0.88 281 12:37 09.12.2019
2979 Clouds 26 1012 78 8000 3.1 180 12:18 09.12.2019
2980 Clouds 26 1012 78 8000 3.1 180 11:41 09.12.2019
2981 Clouds 26 1013 78 8000 2.1 120 11:22 09.12.2019
2982 Clouds 26 1013 78 8000 2.1 120 10:59 09.12.2019
2983 Clouds 26 1013 78 8000 2.1 120 10:39 09.12.2019
2984 Clouds 25 1014 83 8000 3.1 200 10:19 09.12.2019
2985 Rain 29 1011 65 0 1.52 170 09:55 09.12.2019
2986 Rain 29 1011 65 0 1.52 170 09:36 09.12.2019
2987 Rain 29 1011 65 0 1.52 170 09:18 09.12.2019
2988 Rain 29 1011 65 0 1.52 170 08:40 09.12.2019
2989 Clouds 23 1013 94 6000 1.5 0 08:22 09.12.2019
2990 Clouds 23 1013 94 6000 1.5 0 07:52 09.12.2019
2991 Clouds 23 1012 87 0 1.06 177 07:34 09.12.2019
2992 Clouds 22 1013 94 6000 2.1 0 06:58 09.12.2019
2993 Clouds 23 1012 87 0 1.06 177 06:32 09.12.2019
2994 Clouds 23 1012 87 0 1.06 177 05:51 09.12.2019
2995 Clouds 23 1012 87 0 1.06 177 05:24 09.12.2019
2996 Clouds 20 1010 97 0 0.58 193 04:28 09.12.2019
2997 Clouds 20 1010 97 0 0.58 193 02:46 09.12.2019
2998 Clouds 20 1010 96 0 0.85 230 01:47 09.12.2019
2999 Clouds 21 1010 96 0 0.86 203 01:23 09.12.2019
3000 Clouds 21 1010 96 0 0.86 203 00:34 09.12.2019
3001 Clouds 21 1010 96 0 0.86 203 23:58 08.12.2019
3002 Clouds 21 1010 96 0 0.86 203 23:37 08.12.2019
3003 Clouds 21 1011 95 0 1.44 166 23:19 08.12.2019
3004 Clouds 21 1011 95 0 1.44 166 22:56 08.12.2019
3005 Clouds 21 1011 95 0 1.44 166 22:38 08.12.2019
3006 Clouds 21 1011 95 0 1.44 166 22:18 08.12.2019
3007 Clouds 21 1011 95 0 1.44 166 21:57 08.12.2019
3008 Clouds 21 1011 95 0 1.44 166 21:38 08.12.2019
3009 Clouds 21 1011 95 0 1.44 166 21:19 08.12.2019
3010 Clouds 21 1011 95 0 1.44 166 20:56 08.12.2019
3011 Clouds 21 1011 95 0 1.44 166 20:37 08.12.2019
3012 Clouds 24 1010 88 8000 2.1 30 20:19 08.12.2019
3013 Clouds 24 1010 88 8000 2.1 30 19:55 08.12.2019
3014 Clouds 24 1010 88 8000 2.1 30 19:37 08.12.2019
3015 Rain 22 1010 95 0 1.11 125 19:19 08.12.2019
3016 Rain 22 1010 95 0 1.11 125 18:54 08.12.2019
3017 Rain 22 1010 95 0 1.11 125 18:36 08.12.2019
3018 Rain 22 1010 95 0 1.11 125 18:36 08.12.2019
3019 Rain 22 1010 95 0 1.11 125 18:18 08.12.2019
3020 Rain 22 1010 95 0 1.11 125 17:55 08.12.2019
3021 Clouds 27 1008 69 8000 3.1 270 17:36 08.12.2019
3022 Clouds 27 1008 69 8000 3.1 270 17:18 08.12.2019
3023 Clouds 27 1008 69 8000 3.1 270 16:55 08.12.2019
3024 Clouds 27 1008 69 8000 3.1 270 16:37 08.12.2019
3025 Clouds 30 1008 66 9000 3.1 270 16:18 08.12.2019
3026 Clouds 30 1008 66 9000 3.1 270 15:38 08.12.2019
3027 Clouds 31 1009 62 10000 3.1 270 15:19 08.12.2019
3028 Clouds 31 1009 62 10000 3.1 270 14:58 08.12.2019
3029 Clouds 31 1009 62 10000 3.1 270 14:38 08.12.2019
3030 Clouds 30 1010 66 10000 3.1 210 14:20 08.12.2019
3031 Clouds 30 1010 66 10000 3.1 210 13:42 08.12.2019
3032 Rain 28 1007 69 0 1.3 308 13:23 08.12.2019
3033 Rain 28 1007 69 0 1.3 308 12:59 08.12.2019
3034 Rain 28 1007 69 0 1.3 308 12:41 08.12.2019
3035 Clouds 30 1012 66 10000 4.1 270 12:23 08.12.2019
3036 Clouds 30 1012 66 10000 4.1 270 11:59 08.12.2019
3037 Clouds 30 1012 66 10000 4.1 270 11:38 08.12.2019
3038 Clouds 29 1013 66 9000 4.1 180 11:19 08.12.2019
3039 Clouds 29 1013 66 9000 4.1 180 10:57 08.12.2019
3040 Clouds 29 1013 66 9000 4.1 180 10:38 08.12.2019
3041 Clouds 29 1013 66 9000 4.1 180 10:38 08.12.2019
3042 Rain 28 1011 71 0 1.38 215 10:19 08.12.2019
3043 Rain 28 1011 71 0 1.38 215 10:19 08.12.2019
3044 Rain 28 1011 71 0 1.38 215 09:55 08.12.2019
3045 Rain 28 1011 71 0 1.38 215 09:37 08.12.2019
3046 Clouds 25 1013 83 8000 2.1 160 09:19 08.12.2019
3047 Clouds 25 1013 83 8000 2.1 160 08:57 08.12.2019
3048 Clouds 25 1013 83 8000 2.1 160 08:36 08.12.2019
3049 Mist 23 1013 94 4000 0.82 194 08:18 08.12.2019
3050 Mist 23 1013 94 4000 0.82 194 07:41 08.12.2019
3051 Fog 22 1012 100 300 0.82 194 07:19 08.12.2019
3052 Fog 22 1012 100 300 0.82 194 06:43 08.12.2019
3053 Clouds 24 1011 79 0 0.82 194 06:21 08.12.2019
3054 Mist 21 1012 100 3000 0.82 194 05:30 08.12.2019
3055 Clouds 21 1010 91 0 0.82 198 04:57 08.12.2019
3056 Clouds 21 1010 91 0 0.82 198 03:41 08.12.2019
3057 Clouds 21 1010 91 0 0.82 198 02:52 08.12.2019
3058 Clouds 21 1010 91 0 0.82 198 02:52 08.12.2019
3059 Clouds 21 1010 91 0 0.82 198 02:27 08.12.2019
3060 Clouds 21 1010 86 0 0.94 166 01:48 08.12.2019
3061 Clouds 21 1010 84 0 1.01 174 00:56 08.12.2019
3062 Clouds 21 1010 84 0 1.01 174 00:37 08.12.2019
3063 Clouds 21 1010 84 0 1.01 174 00:18 08.12.2019
3064 Clouds 21 1010 84 0 1.01 174 23:39 07.12.2019
3065 Clouds 22 1011 81 0 0.89 179 23:20 07.12.2019
3066 Clouds 22 1011 81 0 0.89 179 22:56 07.12.2019
3067 Clouds 22 1011 81 0 0.89 179 22:37 07.12.2019
3068 Clouds 22 1011 81 0 0.89 179 22:19 07.12.2019
3069 Clouds 22 1011 81 0 0.89 179 21:56 07.12.2019
3070 Clouds 22 1011 81 0 0.89 179 21:37 07.12.2019
3071 Clouds 22 1011 81 0 0.89 179 21:19 07.12.2019
3072 Clouds 22 1011 81 0 0.89 179 20:54 07.12.2019
3073 Clouds 22 1011 81 0 0.89 179 20:36 07.12.2019
3074 Clear 23 1008 84 0 0.97 151 20:18 07.12.2019
3075 Clear 23 1008 84 0 0.97 151 19:54 07.12.2019
3076 Clear 23 1008 84 0 0.97 151 19:36 07.12.2019
3077 Clear 23 1008 84 0 0.97 151 19:36 07.12.2019
3078 Clear 23 1008 84 0 0.97 151 19:18 07.12.2019
3079 Clear 23 1008 84 0 0.97 151 18:42 07.12.2019
3080 Clouds 27 1010 78 10000 1.5 0 18:18 07.12.2019
3081 Clouds 27 1010 78 10000 1.5 0 17:56 07.12.2019
3082 Clouds 27 1010 78 10000 1.5 0 17:37 07.12.2019
3083 Clouds 28 1010 69 10000 2.1 320 17:19 07.12.2019
3084 Clouds 28 1010 69 10000 2.1 320 16:56 07.12.2019
3085 Clouds 28 1010 69 10000 2.1 320 16:37 07.12.2019
3086 Clouds 29 1011 62 10000 4.1 330 16:18 07.12.2019
3087 Clouds 29 1011 62 10000 4.1 330 15:41 07.12.2019
3088 Clouds 29 1011 62 10000 4.1 330 15:41 07.12.2019
3089 Clouds 27 1010 74 10000 1.5 0 15:23 07.12.2019
3090 Clouds 27 1010 74 10000 1.5 0 14:57 07.12.2019
3091 Clouds 27 1010 74 10000 1.5 0 14:38 07.12.2019
3092 Clouds 27 1011 74 10000 2.1 60 14:18 07.12.2019
3093 Clouds 27 1011 74 10000 2.1 60 13:41 07.12.2019
3094 Clouds 32 1007 47 0 0.86 300 13:21 07.12.2019
3095 Clouds 32 1007 47 0 0.86 300 12:56 07.12.2019
3096 Clouds 32 1007 47 0 0.86 300 12:37 07.12.2019
3097 Clouds 32 1007 47 0 0.86 300 12:19 07.12.2019
3098 Clouds 32 1007 47 0 0.86 300 11:55 07.12.2019
3099 Clouds 32 1007 47 0 0.86 300 11:37 07.12.2019
3100 Clouds 23 1011 89 0 0.79 143 11:19 07.12.2019
3101 Clouds 23 1011 89 0 0.79 143 10:37 07.12.2019
3102 Clouds 23 1011 89 0 0.79 143 10:19 07.12.2019
3103 Clouds 23 1011 89 0 0.79 143 09:41 07.12.2019
3104 Clouds 23 1011 89 0 0.79 143 09:22 07.12.2019
3105 Clouds 23 1011 89 0 0.79 143 08:47 07.12.2019
3106 Mist 22 1014 100 4000 2.1 30 08:26 07.12.2019
3107 Mist 22 1014 100 4000 2.1 30 07:57 07.12.2019
3108 Mist 22 1014 100 4000 2.1 30 07:38 07.12.2019
3109 Clouds 22 1012 92 0 0.97 166 07:19 07.12.2019
3110 Clouds 22 1012 92 0 0.97 166 06:45 07.12.2019
3111 Clouds 22 1012 92 0 0.97 166 06:24 07.12.2019
3112 Clouds 21 1011 96 0 0.67 213 04:52 07.12.2019
3113 Clouds 21 1011 96 0 0.67 213 03:54 07.12.2019
3114 Clouds 21 1011 96 0 0.67 213 02:50 07.12.2019
3115 Clouds 21 1010 98 0 0.71 223 02:19 07.12.2019
3116 Clouds 21 1010 98 0 0.71 223 01:31 07.12.2019
3117 Clouds 20 1010 99 0 1.02 228 00:43 07.12.2019
3118 Clouds 20 1010 99 0 1.02 228 00:19 07.12.2019
3119 Clouds 20 1010 99 0 1.02 228 23:47 06.12.2019
3120 Clouds 20 1010 99 0 1.02 228 23:24 06.12.2019
3121 Clouds 21 1012 98 0 0.84 184 22:58 06.12.2019
3122 Clouds 21 1012 98 0 0.84 184 22:37 06.12.2019
3123 Clouds 21 1012 98 0 0.84 184 22:18 06.12.2019
3124 Clouds 21 1012 98 0 0.84 184 21:56 06.12.2019
3125 Clouds 21 1012 98 0 0.84 184 21:37 06.12.2019
3126 Clouds 21 1012 98 0 0.84 184 21:19 06.12.2019
3127 Clouds 21 1012 98 0 0.84 184 20:42 06.12.2019
3128 Rain 22 1010 96 0 2.06 183 20:22 06.12.2019
3129 Rain 22 1009 97 0 1.54 172 19:57 06.12.2019
3130 Rain 22 1009 97 0 1.54 172 19:39 06.12.2019
3131 Rain 22 1009 97 0 1.54 172 19:21 06.12.2019
3132 Rain 22 1009 97 0 1.54 172 18:45 06.12.2019
3133 Rain 22 1009 97 0 1.54 172 18:23 06.12.2019
3134 Rain 22 1009 97 0 1.54 172 17:58 06.12.2019
3135 Rain 22 1009 97 0 1.54 172 17:40 06.12.2019
3136 Clouds 23 1011 94 8000 4.1 120 17:22 06.12.2019
3137 Clouds 23 1011 94 8000 4.1 120 16:59 06.12.2019
3138 Clouds 23 1011 94 8000 4.1 120 16:40 06.12.2019
3139 Clouds 23 1011 94 8000 4.1 120 16:21 06.12.2019
3140 Clouds 23 1011 94 8000 4.1 120 15:56 06.12.2019
3141 Rain 25 1007 90 0 1.72 214 15:38 06.12.2019
3142 Clouds 23 1011 94 8000 4.1 120 15:38 06.12.2019
3143 Rain 25 1007 90 0 1.72 214 15:18 06.12.2019
3144 Rain 25 1007 90 0 1.72 214 15:18 06.12.2019
3145 Rain 25 1007 90 0 1.72 214 14:41 06.12.2019
3146 Clouds 24 1011 88 8000 4.1 120 14:20 06.12.2019
3147 Clouds 24 1011 88 8000 4.1 120 13:58 06.12.2019
3148 Clouds 24 1011 88 8000 4.1 120 13:40 06.12.2019
3149 Rain 28 1007 78 0 1.18 131 13:21 06.12.2019
3150 Rain 26 1007 89 0 1.5 105 13:21 06.12.2019
3151 Rain 26 1007 89 0 1.5 105 12:41 06.12.2019
3152 Clouds 25 1011 94 6000 3.1 90 12:22 06.12.2019
3153 Rain 26 1007 89 0 1.5 105 11:43 06.12.2019
3154 Rain 26 1007 89 0 1.5 105 11:24 06.12.2019
3155 Rain 26 1007 89 0 1.5 105 11:24 06.12.2019
3156 Clouds 28 1010 65 0 0.45 90 10:59 06.12.2019
3157 Clouds 28 1010 65 0 0.45 90 10:59 06.12.2019
3158 Clouds 28 1010 65 0 0.45 90 10:40 06.12.2019
3159 Clouds 28 1010 65 0 0.45 90 10:21 06.12.2019
3160 Clouds 28 1010 65 0 0.45 90 09:56 06.12.2019
3161 Clouds 28 1010 65 0 0.45 90 09:37 06.12.2019
3162 Clouds 28 1010 65 0 0.45 90 09:19 06.12.2019
3163 Clouds 28 1010 65 0 0.45 90 08:44 06.12.2019
3164 Clouds 28 1010 65 0 0.45 90 08:26 06.12.2019
3165 Rain 25 1011 76 0 0.36 136 07:44 06.12.2019
3166 Rain 25 1011 76 0 0.36 136 07:23 06.12.2019
3167 Rain 25 1011 76 0 0.36 136 06:57 06.12.2019
3168 Rain 25 1011 76 0 0.36 136 06:26 06.12.2019
3169 Rain 25 1011 76 0 0.36 136 05:52 06.12.2019
3170 Clear 22 1010 89 0 0.48 29 04:52 06.12.2019
3171 Clear 22 1009 86 0 0.42 50 01:48 06.12.2019
3172 Rain 22 1009 87 0 0.44 80 01:22 06.12.2019
3173 Rain 22 1009 87 0 0.44 80 00:39 06.12.2019
3174 Rain 22 1009 87 0 0.44 80 00:19 06.12.2019
3175 Rain 22 1009 87 0 0.44 80 23:38 05.12.2019
3176 Clear 22 1010 83 0 0.97 53 23:18 05.12.2019
3177 Clear 22 1010 83 0 0.97 53 22:55 05.12.2019
3178 Clear 22 1010 83 0 0.97 53 22:37 05.12.2019
3179 Clear 22 1010 83 0 0.97 53 22:18 05.12.2019
3180 Clear 22 1010 83 0 0.97 53 21:42 05.12.2019
3181 Clear 22 1010 83 0 0.97 53 21:24 05.12.2019
3182 Clear 22 1010 83 0 0.97 53 20:59 05.12.2019
3183 Clear 22 1010 83 0 0.97 53 20:40 05.12.2019
3184 Clear 22 1010 83 0 0.97 53 20:40 05.12.2019
3185 Clouds 25 1008 78 0 1.02 94 20:20 05.12.2019
3186 Clouds 25 1008 78 0 1.02 94 19:55 05.12.2019
3187 Clouds 25 1008 78 0 1.02 94 19:36 05.12.2019
3188 Clouds 25 1008 78 0 1.02 94 19:18 05.12.2019
3189 Clouds 25 1008 78 0 1.02 94 18:39 05.12.2019
3190 Clouds 25 1008 78 0 1.02 94 18:39 05.12.2019
3191 Clouds 25 1008 78 0 1.02 94 18:21 05.12.2019
3192 Clouds 25 1008 78 0 1.02 94 17:59 05.12.2019
3193 Clouds 25 1008 78 0 1.02 94 17:39 05.12.2019
3194 Clouds 31 1005 52 0 1.38 62 17:19 05.12.2019
3195 Clouds 31 1005 52 0 1.38 62 16:55 05.12.2019
3196 Clouds 31 1005 52 0 1.38 62 16:37 05.12.2019
3197 Clouds 31 1005 52 0 1.38 62 16:19 05.12.2019
3198 Clouds 31 1005 52 0 1.38 62 15:56 05.12.2019
3199 Clouds 31 1005 52 0 1.38 62 15:37 05.12.2019
3200 Clouds 31 1005 52 0 1.38 62 15:18 05.12.2019
3201 Clouds 31 1005 52 0 1.38 62 14:55 05.12.2019
3202 Clouds 31 1005 52 0 1.38 62 14:36 05.12.2019
3203 Clouds 34 1006 39 0 1.82 31 14:18 05.12.2019
3204 Clouds 34 1006 39 0 1.82 31 13:55 05.12.2019
3205 Clouds 34 1006 39 0 1.82 31 13:37 05.12.2019
3206 Clear 34 1006 37 0 1.77 35 13:18 05.12.2019
3207 Clear 34 1006 37 0 1.77 35 12:43 05.12.2019
3208 Clear 34 1006 37 0 1.77 35 12:23 05.12.2019
3209 Clear 34 1006 37 0 1.77 35 11:56 05.12.2019
3210 Clear 34 1006 37 0 1.77 35 11:56 05.12.2019
3211 Clear 34 1006 37 0 1.77 35 11:38 05.12.2019
3212 Clear 32 1010 48 0 1.11 107 11:20 05.12.2019
3213 Clear 32 1010 48 0 1.11 107 10:56 05.12.2019
3214 Clear 32 1010 48 0 1.11 107 10:38 05.12.2019
3215 Clear 32 1010 48 0 1.11 107 10:18 05.12.2019
3216 Clear 32 1010 48 0 1.11 107 09:45 05.12.2019
3217 Clouds 26 1013 78 8000 3.1 90 09:23 05.12.2019
3218 Clear 32 1010 48 0 1.11 107 08:59 05.12.2019
3219 Clear 32 1010 48 0 1.11 107 08:38 05.12.2019
3220 Clear 24 1011 79 0 1.29 140 08:19 05.12.2019
3221 Clear 24 1011 79 0 1.29 140 07:50 05.12.2019
3222 Clear 24 1011 79 0 1.29 140 07:32 05.12.2019
3223 Clear 24 1011 79 0 1.29 140 07:32 05.12.2019
3224 Clear 24 1011 79 0 1.29 140 06:58 05.12.2019
3225 Clear 24 1011 79 0 1.29 140 06:40 05.12.2019
3226 Clear 24 1011 79 0 1.29 140 06:19 05.12.2019
3227 Clear 24 1011 79 0 1.29 140 05:47 05.12.2019
3228 Clear 20 1010 98 0 0.79 160 05:23 05.12.2019
3229 Clear 20 1010 98 0 0.79 160 04:20 05.12.2019
3230 Clear 20 1010 98 0 0.79 160 02:43 05.12.2019
3231 Clear 20 1010 98 0 0.79 160 02:24 05.12.2019
3232 Clouds 20 1010 97 0 0.9 152 01:52 05.12.2019
3233 Clouds 20 1010 98 0 0.94 150 01:24 05.12.2019
3234 Clouds 20 1010 98 0 0.94 150 00:51 05.12.2019
3235 Clouds 20 1010 98 0 0.94 150 00:31 05.12.2019
3236 Clouds 20 1010 98 0 0.94 150 23:57 04.12.2019
3237 Clouds 20 1010 98 0 0.94 150 23:39 04.12.2019
3238 Clear 20 1012 96 0 1.19 126 23:21 04.12.2019
3239 Clear 20 1012 96 0 1.19 126 22:55 04.12.2019
3240 Clear 20 1012 96 0 1.19 126 22:36 04.12.2019
3241 Clear 20 1012 96 0 1.19 126 22:18 04.12.2019
3242 Clear 20 1012 96 0 1.19 126 21:54 04.12.2019
3243 Clear 20 1012 96 0 1.19 126 21:36 04.12.2019
3244 Clear 20 1012 96 0 1.19 126 21:18 04.12.2019
3245 Clear 20 1012 96 0 1.19 126 20:54 04.12.2019
3246 Clear 20 1012 96 0 1.19 126 20:36 04.12.2019
3247 Clouds 21 1011 94 0 1.35 109 20:18 04.12.2019
3248 Clouds 22 1010 90 0 1.26 125 20:18 04.12.2019
3249 Clouds 22 1010 90 0 1.26 125 20:18 04.12.2019
3250 Clouds 22 1010 90 0 1.26 125 19:39 04.12.2019
3251 Clouds 25 1010 83 8000 2.1 90 19:21 04.12.2019
3252 Clouds 25 1010 83 8000 2.1 90 18:57 04.12.2019
3253 Clouds 22 1010 90 0 1.26 125 18:39 04.12.2019
3254 Clouds 25 1010 83 8000 2.1 90 18:20 04.12.2019
3255 Clouds 25 1010 83 8000 2.1 90 17:40 04.12.2019
3256 Clouds 25 1010 83 8000 2.1 90 17:22 04.12.2019
3257 Clouds 27 1010 78 8000 4.1 120 16:59 04.12.2019
3258 Clouds 27 1010 78 8000 4.1 120 16:40 04.12.2019
3259 Clouds 27 1010 78 8000 4.1 120 16:40 04.12.2019
3260 Clouds 27 1010 78 8000 4.1 120 16:20 04.12.2019
3261 Clouds 27 1008 72 0 2.23 110 15:56 04.12.2019
3262 Clouds 27 1008 72 0 2.23 110 15:38 04.12.2019
3263 Clouds 27 1011 78 10000 3.1 180 15:19 04.12.2019
3264 Clouds 27 1011 78 10000 3.1 180 14:44 04.12.2019
3265 Clouds 27 1011 78 10000 3.1 180 14:24 04.12.2019
3266 Clouds 27 1011 78 10000 3.1 180 13:59 04.12.2019
3267 Clouds 27 1011 78 10000 3.1 180 13:38 04.12.2019
3268 Clouds 27 1011 78 10000 3.1 180 13:20 04.12.2019
3269 Rain 28 1008 69 0 0.65 75 12:45 04.12.2019
3270 Rain 28 1008 69 0 0.65 75 12:25 04.12.2019
3271 Rain 28 1008 69 0 0.65 75 12:25 04.12.2019
3272 Rain 28 1008 69 0 0.65 75 11:58 04.12.2019
3273 Rain 28 1008 69 0 0.65 75 11:39 04.12.2019
3274 Clouds 24 1012 89 0 1 135 11:21 04.12.2019
3275 Clouds 24 1012 89 0 1 135 10:44 04.12.2019
3276 Clouds 24 1012 89 0 1 135 10:24 04.12.2019
3277 Clouds 24 1012 89 0 1 135 10:24 04.12.2019
3278 Clouds 24 1012 89 0 1 135 09:57 04.12.2019
3279 Clouds 24 1012 89 0 1 135 09:39 04.12.2019
3280 Clouds 24 1012 89 0 1 135 09:39 04.12.2019
3281 Clouds 23 1014 94 8000 2.1 160 09:20 04.12.2019
3282 Clouds 23 1014 94 8000 2.1 160 08:42 04.12.2019
3283 Clouds 23 1014 94 8000 2.1 160 08:23 04.12.2019
3284 Clouds 22 1014 100 6000 1.2 147 07:51 04.12.2019
3285 Clouds 22 1012 92 0 1.2 147 07:30 04.12.2019
3286 Clouds 22 1012 92 0 1.2 147 06:51 04.12.2019
3287 Clouds 22 1012 92 0 1.2 147 06:31 04.12.2019
3288 Clouds 22 1012 92 0 1.2 147 05:43 04.12.2019
3289 Clouds 21 1011 98 0 0.82 195 04:31 04.12.2019
3290 Clouds 21 1011 98 0 0.82 195 03:25 04.12.2019
3291 Clouds 22 1010 94 0 0.74 179 01:21 04.12.2019
3292 Clouds 22 1010 94 0 0.74 179 00:40 04.12.2019
3293 Clouds 22 1010 94 0 0.74 179 00:19 04.12.2019
3294 Clouds 22 1010 94 0 0.74 179 23:41 03.12.2019
3295 Clouds 22 1012 93 0 0.75 169 23:20 03.12.2019
3296 Clouds 22 1012 93 0 0.75 169 22:56 03.12.2019
3297 Clouds 22 1012 93 0 0.75 169 22:36 03.12.2019
3298 Clouds 22 1012 93 0 0.75 169 22:18 03.12.2019
3299 Clouds 22 1012 93 0 0.75 169 21:54 03.12.2019
3300 Clouds 22 1012 93 0 0.75 169 21:36 03.12.2019
3301 Clouds 22 1012 93 0 0.75 169 21:18 03.12.2019
3302 Clouds 22 1012 93 0 0.75 169 20:41 03.12.2019
3303 Rain 22 1010 96 0 0.94 155 20:19 03.12.2019
3304 Rain 22 1010 96 0 0.94 155 19:56 03.12.2019
3305 Rain 22 1010 96 0 0.94 155 19:37 03.12.2019
3306 Rain 22 1010 96 0 0.94 155 19:19 03.12.2019
3307 Rain 22 1010 96 0 0.94 155 18:57 03.12.2019
3308 Rain 22 1010 96 0 0.94 155 18:57 03.12.2019
3309 Rain 22 1010 96 0 0.94 155 18:39 03.12.2019
3310 Rain 22 1010 96 0 0.94 155 18:21 03.12.2019
3311 Rain 22 1010 96 0 0.94 155 18:21 03.12.2019
3312 Rain 22 1010 96 0 0.94 155 18:21 03.12.2019
3313 Rain 22 1010 96 0 0.94 155 17:57 03.12.2019
3314 Rain 22 1010 96 0 0.94 155 17:38 03.12.2019
3315 Rain 24 1007 91 0 1.74 167 17:18 03.12.2019
3316 Rain 24 1007 91 0 1.74 167 16:57 03.12.2019
3317 Rain 24 1007 91 0 1.74 167 16:38 03.12.2019
3318 Rain 24 1007 91 0 1.74 167 16:20 03.12.2019
3319 Rain 24 1007 91 0 1.74 167 15:56 03.12.2019
3320 Rain 24 1007 91 0 1.74 167 15:56 03.12.2019
3321 Rain 24 1007 91 0 1.74 167 15:38 03.12.2019
3322 Rain 24 1007 91 0 1.74 167 15:18 03.12.2019
3323 Rain 24 1007 91 0 1.74 167 14:42 03.12.2019
3324 Clouds 30 1008 51 0 1.66 257 14:20 03.12.2019
3325 Clouds 30 1008 51 0 1.66 257 13:56 03.12.2019
3326 Clouds 30 1008 51 0 1.66 257 13:37 03.12.2019
3327 Rain 22 1015 100 2000 1.43 199 13:18 03.12.2019
3328 Clouds 30 1008 55 0 1.43 199 12:41 03.12.2019
3329 Clouds 30 1008 55 0 1.43 199 12:19 03.12.2019
3330 Clouds 30 1008 55 0 1.43 199 11:58 03.12.2019
3331 Clouds 30 1008 55 0 1.43 199 11:39 03.12.2019
3332 Clouds 29 1012 57 0 1.25 233 11:21 03.12.2019
3333 Clouds 29 1012 57 0 1.25 233 10:58 03.12.2019
3334 Clouds 29 1012 57 0 1.25 233 10:58 03.12.2019
3335 Clouds 29 1012 57 0 1.25 233 10:40 03.12.2019
3336 Clouds 29 1012 57 0 1.25 233 10:19 03.12.2019
3337 Clouds 29 1012 57 0 1.25 233 09:46 03.12.2019
3338 Rain 23 1015 100 6000 3.1 200 09:25 03.12.2019
3339 Clouds 29 1012 57 0 1.25 233 08:59 03.12.2019
3340 Clouds 29 1012 57 0 1.25 233 08:40 03.12.2019
3341 Rain 23 1012 92 0 1.05 202 08:21 03.12.2019
3342 Rain 23 1012 88 0 1.34 200 07:53 03.12.2019
3343 Rain 23 1012 88 0 1.34 200 07:30 03.12.2019
3344 Rain 23 1012 88 0 1.34 200 07:30 03.12.2019
3345 Rain 23 1012 88 0 1.34 200 06:59 03.12.2019
3346 Rain 23 1012 88 0 1.34 200 06:21 03.12.2019
3347 Rain 23 1012 88 0 1.34 200 05:56 03.12.2019
3348 Rain 21 1011 95 0 1.26 224 04:48 03.12.2019
3349 Rain 21 1011 95 0 1.26 224 03:23 03.12.2019
3350 Rain 21 1011 95 0 1.26 224 02:58 03.12.2019
3351 Rain 21 1011 95 0 1.26 224 02:40 03.12.2019
3352 Clouds 21 1010 91 0 0.76 181 02:21 03.12.2019
3353 Clouds 21 1010 91 0 0.76 181 01:41 03.12.2019
3354 Clouds 22 1012 94 7000 0.87 199 01:21 03.12.2019
3355 Clouds 22 1012 94 7000 0.87 199 00:44 03.12.2019
3356 Clouds 22 1012 94 7000 0.87 199 00:25 03.12.2019
3357 Clouds 21 1011 89 0 0.87 199 23:44 02.12.2019
3358 Clouds 21 1011 89 0 0.87 199 23:23 02.12.2019
3359 Clouds 21 1012 89 0 0.86 188 22:59 02.12.2019
3360 Clouds 21 1012 89 0 0.86 188 22:39 02.12.2019
3361 Clouds 23 1012 88 7000 0.86 188 22:21 02.12.2019
3362 Clouds 23 1012 88 7000 0.86 188 21:57 02.12.2019
3363 Clouds 21 1012 89 0 0.86 188 21:36 02.12.2019
3364 Clouds 21 1012 89 0 0.86 188 21:36 02.12.2019
3365 Clouds 21 1012 89 0 0.86 188 21:18 02.12.2019
3366 Clouds 21 1012 89 0 0.86 188 20:55 02.12.2019
3367 Clouds 21 1012 89 0 0.86 188 20:55 02.12.2019
3368 Clouds 21 1012 89 0 0.86 188 20:55 02.12.2019
3369 Clouds 21 1012 89 0 0.86 188 20:37 02.12.2019
3370 Rain 24 1011 88 7000 0.35 75 20:18 02.12.2019
3371 Rain 24 1011 88 7000 0.35 75 19:42 02.12.2019
3372 Rain 24 1011 88 7000 0.35 75 19:21 02.12.2019
3373 Rain 25 1010 88 7000 0.35 75 18:57 02.12.2019
3374 Rain 25 1010 88 7000 0.35 75 18:57 02.12.2019
3375 Rain 25 1010 88 7000 0.35 75 18:38 02.12.2019
3376 Rain 25 1010 88 7000 0.35 75 18:18 02.12.2019
3377 Rain 21 1010 95 0 0.35 75 17:57 02.12.2019
3378 Rain 21 1010 95 0 0.35 75 17:38 02.12.2019
3379 Rain 24 1008 93 0 1.25 191 17:19 02.12.2019
3380 Rain 24 1008 93 0 1.25 191 16:40 02.12.2019
3381 Rain 24 1008 93 0 1.25 191 16:19 02.12.2019
3382 Rain 24 1008 93 0 1.25 191 15:58 02.12.2019
3383 Rain 24 1008 93 0 1.25 191 15:39 02.12.2019
3384 Clouds 27 1010 74 10000 2.1 360 15:21 02.12.2019
3385 Rain 24 1008 93 0 1.25 191 14:56 02.12.2019
3386 Rain 24 1008 93 0 1.25 191 14:37 02.12.2019
3387 Clouds 26 1011 78 8000 2.1 360 14:19 02.12.2019
3388 Clouds 26 1011 78 8000 2.1 360 13:56 02.12.2019
3389 Clouds 26 1011 78 8000 2.1 360 13:38 02.12.2019
3390 Clouds 26 1011 78 8000 2.1 360 13:19 02.12.2019
3391 Clouds 26 1013 78 8000 3.1 330 12:54 02.12.2019
3392 Clouds 26 1013 78 8000 3.1 330 12:54 02.12.2019
3393 Clouds 26 1013 78 8000 3.1 330 12:36 02.12.2019
3394 Clouds 26 1013 78 8000 3.1 330 12:18 02.12.2019
3395 Clouds 26 1013 78 8000 3.1 330 11:38 02.12.2019
3396 Clouds 26 1013 78 8000 3.1 330 11:20 02.12.2019
3397 Clouds 26 1013 78 8000 3.1 330 11:20 02.12.2019
3398 Rain 22 1013 96 0 2.51 176 10:58 02.12.2019
3399 Rain 22 1013 96 0 2.51 176 10:40 02.12.2019
3400 Rain 22 1013 96 0 2.51 176 10:21 02.12.2019
3401 Rain 22 1013 96 0 2.51 176 09:56 02.12.2019
3402 Rain 22 1013 96 0 2.51 176 09:38 02.12.2019
3403 Rain 22 1013 96 0 2.51 176 09:18 02.12.2019
3404 Rain 22 1013 96 0 2.51 176 08:55 02.12.2019
3405 Rain 22 1013 96 0 2.51 176 08:36 02.12.2019
3406 Rain 21 1012 99 0 0.84 214 08:18 02.12.2019
3407 Rain 21 1012 99 0 0.84 214 07:39 02.12.2019
3408 Clouds 23 1013 94 6000 3.1 180 07:20 02.12.2019
3409 Clouds 23 1013 94 6000 3.1 180 06:42 02.12.2019
3410 Clouds 22 1012 100 6000 3.1 180 05:49 02.12.2019
3411 Rain 21 1010 98 0 0.45 208 05:19 02.12.2019
3412 Rain 21 1010 98 0 0.45 208 03:28 02.12.2019
3413 Rain 21 1010 98 0 0.45 208 02:50 02.12.2019
3414 Rain 21 1010 97 0 0.68 216 01:47 02.12.2019
3415 Rain 21 1010 97 0 0.68 216 01:21 02.12.2019
3416 Clouds 21 1010 97 0 0.95 213 00:39 02.12.2019
3417 Clouds 21 1010 97 0 0.95 213 00:21 02.12.2019
3418 Clouds 21 1010 97 0 0.95 213 23:43 01.12.2019
3419 Clouds 21 1011 97 0 0.97 253 23:22 01.12.2019
3420 Clouds 21 1011 97 0 0.97 253 22:56 01.12.2019
3421 Clouds 21 1011 97 0 0.97 253 22:38 01.12.2019
3422 Clouds 21 1011 97 0 0.97 253 22:19 01.12.2019
3423 Clouds 21 1011 97 0 0.97 253 21:56 01.12.2019
3424 Clouds 21 1011 97 0 0.97 253 21:38 01.12.2019
3425 Clouds 21 1011 97 0 0.97 253 21:20 01.12.2019
3426 Clouds 21 1011 97 0 0.97 253 20:58 01.12.2019
3427 Clouds 21 1011 97 0 0.97 253 20:39 01.12.2019
3428 Rain 22 1010 96 0 1.23 284 20:21 01.12.2019
3429 Rain 22 1010 96 0 1.23 284 19:57 01.12.2019
3430 Rain 22 1010 96 0 1.23 284 19:39 01.12.2019
3431 Rain 22 1010 96 0 1.23 284 19:20 01.12.2019
3432 Rain 22 1010 96 0 1.23 284 18:56 01.12.2019
3433 Rain 22 1010 96 0 1.23 284 18:37 01.12.2019
3434 Thunderstorm 25 1009 88 6000 1.5 0 18:18 01.12.2019
3435 Thunderstorm 25 1009 88 6000 1.5 0 17:56 01.12.2019
3436 Rain 22 1010 96 0 1.23 284 17:38 01.12.2019
3437 Rain 26 1006 89 0 1.8 320 17:20 01.12.2019
3438 Rain 26 1006 89 0 1.8 320 16:45 01.12.2019
3439 Rain 26 1006 89 0 1.8 320 16:25 01.12.2019
3440 Rain 26 1006 89 0 1.8 320 15:58 01.12.2019
3441 Rain 26 1006 89 0 1.8 320 15:58 01.12.2019
3442 Rain 26 1006 89 0 1.8 320 15:40 01.12.2019
3443 Rain 26 1006 89 0 1.8 320 15:40 01.12.2019
3444 Clouds 31 1007 66 8000 3.1 30 15:22 01.12.2019
3445 Clouds 31 1007 66 8000 3.1 30 15:22 01.12.2019
3446 Clouds 31 1007 66 8000 3.1 30 14:38 01.12.2019
3447 Clouds 31 1007 66 8000 3.1 30 14:19 01.12.2019
3448 Clouds 32 1008 62 10000 1.5 0 13:40 01.12.2019
3449 Clouds 32 1008 62 10000 1.5 0 13:22 01.12.2019
3450 Clouds 31 1011 66 10000 3.1 160 12:59 01.12.2019
3451 Clouds 31 1011 66 10000 3.1 160 12:40 01.12.2019
3452 Clouds 31 1011 66 10000 3.1 160 12:40 01.12.2019
3453 Clouds 31 1011 66 10000 3.1 160 12:40 01.12.2019
3454 Clouds 31 1011 66 10000 3.1 160 12:40 01.12.2019
3455 Clouds 31 1011 66 10000 3.1 160 12:40 01.12.2019
3456 Clouds 31 1012 70 10000 3.1 160 11:54 01.12.2019
3457 Clouds 31 1012 70 10000 3.1 160 11:36 01.12.2019
3458 Clouds 31 1012 70 10000 3.1 160 11:18 01.12.2019
3459 Rain 26 1011 91 0 1.43 123 10:42 01.12.2019
3460 Clouds 26 1013 88 8000 2.1 180 10:20 01.12.2019
3461 Clouds 26 1013 88 8000 2.1 180 09:42 01.12.2019
3462 Clouds 26 1013 88 8000 2.1 180 09:23 01.12.2019
3463 Rain 26 1011 91 0 1.43 123 08:57 01.12.2019
3464 Rain 26 1011 91 0 1.43 123 08:37 01.12.2019
3465 Rain 23 1012 95 0 1.53 122 08:18 01.12.2019
3466 Rain 23 1012 96 0 1.56 126 07:47 01.12.2019
3467 Clouds 22 1012 100 200 2.1 120 07:28 01.12.2019
3468 Clouds 22 1012 100 200 2.1 120 06:52 01.12.2019
3469 Rain 23 1012 96 0 1.56 126 05:58 01.12.2019
3470 Rain 21 1009 96 0 0.81 8 04:55 01.12.2019
3471 Rain 21 1009 96 0 0.81 8 04:28 01.12.2019
3472 Rain 21 1009 96 0 0.81 8 02:45 01.12.2019
3473 Rain 21 1009 96 0 0.81 8 02:27 01.12.2019
3474 Rain 22 1009 93 0 0.39 281 01:54 01.12.2019
3475 Rain 22 1009 93 0 0.39 281 01:54 01.12.2019
3476 Rain 22 1009 90 0 0.13 177 01:30 01.12.2019
3477 Rain 22 1009 90 0 0.13 177 00:47 01.12.2019
3478 Rain 22 1009 90 0 0.13 177 00:26 01.12.2019
3479 Rain 22 1009 90 0 0.13 177 23:56 30.11.2019
3480 Rain 22 1009 90 0 0.13 177 23:37 30.11.2019
3481 Clouds 23 1010 83 0 0.74 119 23:18 30.11.2019
3482 Clouds 23 1010 83 0 0.74 119 22:41 30.11.2019
3483 Clouds 23 1010 83 0 0.74 119 22:20 30.11.2019
3484 Clouds 23 1010 83 0 0.74 119 21:48 30.11.2019
3485 Clouds 23 1011 88 7000 0.74 119 21:28 30.11.2019
3486 Clouds 23 1011 88 7000 0.74 119 20:58 30.11.2019
3487 Clouds 23 1011 88 7000 0.74 119 20:40 30.11.2019
3488 Clouds 23 1011 88 7000 1 77 20:20 30.11.2019
3489 Clouds 23 1010 88 7000 3.1 360 19:57 30.11.2019
3490 Clouds 23 1010 88 7000 3.1 360 19:39 30.11.2019
3491 Clouds 23 1010 88 7000 3.1 360 19:21 30.11.2019
3492 Clouds 24 1008 83 0 1 77 18:59 30.11.2019
3493 Clouds 24 1008 83 0 1 77 18:39 30.11.2019
3494 Clouds 24 1008 83 0 1 77 18:21 30.11.2019
3495 Clouds 24 1008 83 0 1 77 17:59 30.11.2019
3496 Clouds 24 1008 83 0 1 77 17:41 30.11.2019
3497 Thunderstorm 24 1008 88 7000 3.1 360 17:22 30.11.2019
3498 Thunderstorm 24 1008 88 7000 3.1 360 16:58 30.11.2019
3499 Clouds 30 1005 61 0 1.04 78 16:40 30.11.2019
3500 Clouds 30 1005 61 0 1.04 78 16:21 30.11.2019
3501 Clouds 30 1005 61 0 1.04 78 15:54 30.11.2019
3502 Clouds 30 1005 61 0 1.04 78 15:36 30.11.2019
3503 Clouds 30 1005 61 0 1.04 78 15:18 30.11.2019
3504 Clouds 30 1005 61 0 1.04 78 14:54 30.11.2019
3505 Clouds 30 1005 61 0 1.04 78 14:36 30.11.2019
3506 Clouds 30 1011 74 10000 2.1 90 14:18 30.11.2019
3507 Clouds 30 1011 74 10000 2.1 90 13:42 30.11.2019
3508 Rain 33 1006 45 0 1.71 91 13:24 30.11.2019
3509 Rain 33 1006 45 0 1.71 91 12:47 30.11.2019
3510 Clouds 27 1013 83 10000 2.1 60 12:29 30.11.2019
3511 Clouds 27 1013 83 10000 2.1 60 11:59 30.11.2019
3512 Clouds 27 1013 83 10000 2.1 60 11:41 30.11.2019
3513 Clouds 27 1013 83 10000 2.1 60 11:19 30.11.2019
3514 Clouds 25 1014 88 6000 5.1 300 10:54 30.11.2019
3515 Clouds 25 1014 88 6000 5.1 300 10:36 30.11.2019
3516 Clouds 25 1014 88 6000 5.1 300 10:18 30.11.2019
3517 Rain 30 1011 67 0 0.95 117 09:42 30.11.2019
3518 Rain 30 1011 67 0 0.95 117 09:20 30.11.2019
3519 Rain 30 1011 67 0 0.95 117 08:42 30.11.2019
3520 -273 0 0 0 0 0 08:19 30.11.2019
3521 Clouds 24 1012 92 0 1.1 146 07:44 30.11.2019
3522 Mist 23 1013 94 4000 3.1 60 07:26 30.11.2019
3523 Mist 23 1013 94 4000 3.1 60 06:49 30.11.2019
3524 Clouds 24 1012 92 0 1.1 146 06:28 30.11.2019
3525 Clouds 24 1012 92 0 1.1 146 05:33 30.11.2019
3526 Rain 21 1010 98 0 0.79 78 03:42 30.11.2019
3527 Rain 21 1010 98 0 0.79 78 02:39 30.11.2019
3528 Clouds 22 1010 92 0 0.69 61 02:20 30.11.2019
3529 Clouds 22 1010 92 0 0.69 61 01:25 30.11.2019
3530 Rain 22 1010 93 0 0.64 95 00:48 30.11.2019
3531 Rain 22 1010 93 0 0.64 95 00:30 30.11.2019
3532 Rain 22 1010 93 0 0.64 95 23:57 29.11.2019
3533 Rain 22 1010 93 0 0.64 95 23:38 29.11.2019
3534 Clouds 23 1011 84 0 0.92 170 23:18 29.11.2019
3535 Clouds 23 1011 84 0 0.92 170 22:40 29.11.2019
3536 Clouds 23 1011 84 0 0.92 170 22:21 29.11.2019
3537 Clouds 23 1011 84 0 0.92 170 21:43 29.11.2019
3538 Clouds 23 1011 84 0 0.92 170 21:23 29.11.2019
3539 Clouds 23 1011 84 0 0.92 170 20:57 29.11.2019
3540 Clouds 23 1011 84 0 0.92 170 20:38 29.11.2019
3541 Clouds 26 1011 88 7000 1.02 83 20:19 29.11.2019
3542 Clouds 26 1011 88 7000 1.02 83 19:56 29.11.2019
3543 Clouds 26 1011 88 7000 1.02 83 19:38 29.11.2019
3544 Clouds 26 1011 88 7000 1.02 83 19:19 29.11.2019
3545 Clouds 25 1009 74 0 1.02 83 18:55 29.11.2019
3546 Clouds 25 1009 74 0 1.02 83 18:36 29.11.2019
3547 Clouds 29 1009 66 8000 1.02 83 18:18 29.11.2019
3548 Clouds 25 1009 74 0 1.02 83 17:41 29.11.2019
3549 Clouds 31 1005 55 0 1.03 81 17:22 29.11.2019
3550 Clouds 31 1005 55 0 1.03 81 16:55 29.11.2019
3551 Clouds 31 1005 55 0 1.03 81 16:37 29.11.2019
3552 Clouds 32 1009 55 10000 3.1 340 16:18 29.11.2019
3553 Clouds 32 1009 55 10000 3.1 340 15:40 29.11.2019
3554 Clouds 32 1009 55 10000 3.1 340 15:21 29.11.2019
3555 Clouds 32 1009 59 10000 3.1 340 14:42 29.11.2019
3556 Clouds 31 1011 62 10000 2.1 340 14:22 29.11.2019
3557 Clouds 31 1011 62 10000 2.1 340 13:59 29.11.2019
3558 Clouds 31 1011 62 10000 2.1 340 13:39 29.11.2019
3559 Clouds 31 1011 62 10000 2.1 340 13:20 29.11.2019
3560 Clouds 31 1012 70 10000 3.1 50 12:45 29.11.2019
3561 Clouds 31 1012 70 10000 3.1 50 12:25 29.11.2019
3562 Clouds 31 1012 70 10000 3.1 50 12:25 29.11.2019
3563 Clouds 31 1013 70 10000 2.1 120 11:59 29.11.2019
3564 Clouds 31 1013 70 10000 2.1 120 11:41 29.11.2019
3565 Clouds 31 1013 70 10000 2.1 120 11:19 29.11.2019
3566 Clouds 29 1014 70 10000 3.1 130 10:59 29.11.2019
3567 Clear 32 1011 48 0 1.09 109 10:39 29.11.2019
3568 Clear 32 1011 48 0 1.09 109 10:21 29.11.2019
3569 Clear 32 1011 48 0 1.09 109 09:59 29.11.2019
3570 Clear 32 1011 48 0 1.09 109 09:40 29.11.2019
3571 Clouds 26 1015 83 10000 2.1 130 09:22 29.11.2019
3572 Clouds 26 1015 83 10000 2.1 130 08:57 29.11.2019
3573 Clouds 26 1015 83 10000 2.1 130 08:37 29.11.2019
3574 Clouds 26 1015 83 10000 2.1 130 08:19 29.11.2019
3575 Clouds 25 1013 76 0 0.64 145 07:42 29.11.2019
3576 Clouds 26 1013 74 7000 2.1 30 07:23 29.11.2019
3577 Clouds 26 1013 74 7000 2.1 30 06:55 29.11.2019
3578 Clouds 26 1013 74 7000 2.1 30 06:36 29.11.2019
3579 Clouds 25 1013 76 0 0.64 145 05:47 29.11.2019
3580 Clouds 25 1013 76 0 0.64 145 05:23 29.11.2019
3581 Clouds 20 1011 95 0 0.74 155 03:58 29.11.2019
3582 Clouds 20 1011 95 0 0.74 155 03:58 29.11.2019
3583 Clouds 20 1011 95 0 0.74 155 03:19 29.11.2019
3584 Clouds 20 1011 95 0 0.74 155 02:28 29.11.2019
3585 Clouds 20 1012 96 0 0.63 138 01:50 29.11.2019
3586 Clouds 20 1012 96 0 0.57 129 01:25 29.11.2019
3587 Clouds 20 1012 96 0 0.57 129 00:42 29.11.2019
3588 Clouds 20 1012 96 0 0.57 129 00:20 29.11.2019
3589 Clouds 20 1012 96 0 0.57 129 23:44 28.11.2019
3590 Clouds 20 1012 96 0 0.57 129 23:44 28.11.2019
3591 Clouds 21 1012 92 0 0.62 98 23:21 28.11.2019
3592 Clouds 21 1012 92 0 0.62 98 22:58 28.11.2019
3593 Clouds 21 1012 92 0 0.62 98 22:38 28.11.2019
3594 Clouds 21 1012 92 0 0.62 98 22:20 28.11.2019
3595 Clouds 21 1012 92 0 0.62 98 21:56 28.11.2019
3596 Clouds 21 1012 92 0 0.62 98 21:37 28.11.2019
3597 Clouds 21 1012 92 0 0.62 98 21:18 28.11.2019
3598 Clouds 21 1012 92 0 0.62 98 20:43 28.11.2019
3599 Clouds 22 1011 89 0 1.1 120 20:23 28.11.2019
3600 Clouds 22 1011 89 0 1.1 120 19:59 28.11.2019
3601 Clouds 22 1011 89 0 1.1 120 19:40 28.11.2019
3602 Clouds 26 1011 88 7000 2.1 30 19:22 28.11.2019
3603 Clouds 26 1011 88 7000 2.1 30 18:59 28.11.2019
3604 Clouds 26 1011 88 7000 2.1 30 18:39 28.11.2019
3605 Clouds 26 1011 88 7000 2.1 30 18:18 28.11.2019
3606 Clouds 27 1010 83 7000 2.1 50 17:59 28.11.2019
3607 -273 0 0 0 0 0 17:41 28.11.2019
3608 Clouds 22 1011 89 0 1.1 120 17:41 28.11.2019
3609 Clouds 27 1007 64 0 0.76 103 17:21 28.11.2019
3610 Clouds 27 1007 64 0 0.76 103 16:57 28.11.2019
3611 Clouds 27 1007 64 0 0.76 103 16:56 28.11.2019
3612 Clouds 27 1007 64 0 0.76 103 16:38 28.11.2019
3613 Clouds 24 1010 83 9000 2.1 30 16:18 28.11.2019
3614 Clouds 24 1010 83 9000 2.1 30 16:18 28.11.2019
3615 Clouds 24 1010 83 9000 2.1 30 15:41 28.11.2019
3616 Clouds 24 1010 83 9000 2.1 30 15:20 28.11.2019
3617 Clouds 30 1011 66 10000 0.76 103 14:59 28.11.2019
3618 Clouds 30 1011 66 10000 0.76 103 14:41 28.11.2019
3619 Clouds 30 1011 66 10000 1.4 160 14:21 28.11.2019
3620 Clouds 27 1010 63 0 1.4 160 13:56 28.11.2019
3621 Clouds 27 1010 63 0 1.4 160 13:38 28.11.2019
3622 Thunderstorm 28 1014 69 10000 2.1 340 13:20 28.11.2019
3623 Thunderstorm 28 1014 69 10000 2.1 340 12:43 28.11.2019
3624 Clouds 27 1014 74 10000 2.1 30 12:24 28.11.2019
3625 Clouds 27 1014 74 10000 2.1 30 11:58 28.11.2019
3626 Clouds 29 1009 56 0 0.89 151 11:39 28.11.2019
3627 Clouds 27 1015 74 10000 2.36 96 11:20 28.11.2019
3628 Clouds 27 1015 74 10000 2.36 96 10:55 28.11.2019
3629 Clouds 27 1015 74 10000 2.36 96 10:37 28.11.2019
3630 Clouds 27 1015 74 10000 2.36 96 10:18 28.11.2019
3631 Clouds 26 1014 73 0 2.36 96 09:40 28.11.2019
3632 Clouds 24 1015 88 8000 2.1 60 09:21 28.11.2019
3633 Clouds 24 1015 88 8000 2.1 60 08:55 28.11.2019
3634 Clouds 24 1015 88 8000 2.1 60 08:36 28.11.2019
3635 Clouds 24 1015 88 8000 2.1 60 08:18 28.11.2019
3636 Clouds 23 1014 94 6000 1.02 81 07:41 28.11.2019
3637 Clouds 23 1014 94 6000 1.02 81 07:23 28.11.2019
3638 Clouds 21 1014 100 6000 1.02 81 06:43 28.11.2019
3639 Clouds 21 1014 100 6000 1.02 81 06:22 28.11.2019
3640 Clouds 21 1013 100 7000 1.02 81 05:44 28.11.2019
3641 Rain 20 1012 99 0 1.03 60 04:57 28.11.2019
3642 Rain 20 1012 99 0 1.03 60 02:36 28.11.2019
3643 Clouds 21 1012 99 0 1.01 290 01:28 28.11.2019
3644 Clouds 21 1012 99 0 0.58 265 00:43 28.11.2019
3645 Clouds 21 1012 99 0 0.58 265 00:20 28.11.2019
3646 Clouds 21 1012 99 0 0.58 265 23:40 27.11.2019
3647 Clouds 22 1012 98 0 1.69 215 23:22 27.11.2019
3648 Clouds 22 1012 98 0 1.69 215 22:59 27.11.2019
3649 Clouds 22 1012 98 0 1.69 215 22:38 27.11.2019
3650 Clouds 22 1012 98 0 1.69 215 22:19 27.11.2019
3651 Clouds 22 1012 98 0 1.69 215 21:56 27.11.2019
3652 Clouds 22 1012 98 0 1.69 215 21:37 27.11.2019
3653 Clouds 22 1012 98 0 1.69 215 21:19 27.11.2019
3654 Clouds 22 1012 98 0 1.69 215 21:19 27.11.2019
3655 Clouds 22 1012 98 0 1.69 215 20:57 27.11.2019
3656 Clouds 22 1012 98 0 1.69 215 20:38 27.11.2019
3657 Rain 22 1011 97 0 2.59 214 20:19 27.11.2019
3658 Rain 22 1011 97 0 2.59 214 19:57 27.11.2019
3659 Rain 22 1011 97 0 2.59 214 19:38 27.11.2019
3660 Rain 22 1011 97 0 2.59 214 19:19 27.11.2019
3661 Rain 22 1011 97 0 2.59 214 18:58 27.11.2019
3662 Rain 22 1011 97 0 2.59 214 18:36 27.11.2019
3663 Rain 22 1011 97 0 2.59 214 18:18 27.11.2019
3664 Rain 22 1011 97 0 2.59 214 17:55 27.11.2019
3665 Rain 22 1011 97 0 2.59 214 17:37 27.11.2019
3666 Clouds 28 1009 65 10000 3.1 160 17:18 27.11.2019
3667 -273 0 0 0 0 0 16:56 27.11.2019
3668 Rain 24 1006 94 0 2.08 213 16:36 27.11.2019
3669 Rain 24 1006 94 0 2.08 213 16:18 27.11.2019
3670 Rain 24 1006 94 0 2.08 213 15:56 27.11.2019
3671 Rain 24 1006 94 0 2.08 213 15:37 27.11.2019
3672 Clouds 28 1010 65 10000 4.1 180 15:19 27.11.2019
3673 Clouds 28 1010 65 10000 4.1 180 14:56 27.11.2019
3674 Clouds 28 1010 65 10000 4.1 180 14:38 27.11.2019
3675 Clouds 28 1010 65 10000 4.1 180 14:19 27.11.2019
3676 Clouds 28 1010 65 10000 4.1 180 14:19 27.11.2019
3677 Clouds 28 1010 65 10000 4.1 180 14:19 27.11.2019
3678 Clouds 29 1011 62 10000 5.1 240 13:55 27.11.2019
3679 Clouds 29 1011 62 10000 5.1 240 13:37 27.11.2019
3680 Clouds 29 1011 62 10000 5.1 240 13:18 27.11.2019
3681 Clouds 32 1006 47 0 0.5 122 12:41 27.11.2019
3682 Clouds 27 1013 78 10000 5.1 180 12:22 27.11.2019
3683 Clouds 32 1006 47 0 0.5 122 11:56 27.11.2019
3684 Clouds 32 1006 47 0 0.5 122 11:36 27.11.2019
3685 Clouds 25 1014 83 10000 4.1 180 11:18 27.11.2019
3686 Clouds 25 1014 83 10000 4.1 180 10:46 27.11.2019
3687 Clouds 25 1014 83 10000 4.1 180 10:46 27.11.2019
3688 Clouds 25 1014 83 10000 4.1 180 10:24 27.11.2019
3689 Clouds 25 1014 83 10000 3.1 180 09:57 27.11.2019
3690 Clouds 25 1014 83 10000 3.1 180 09:39 27.11.2019
3691 Clouds 25 1014 83 10000 3.1 180 09:18 27.11.2019
3692 Clouds 24 1014 83 10000 3.1 160 08:42 27.11.2019
3693 Clouds 24 1014 83 10000 3.1 160 08:23 27.11.2019
3694 Clouds 22 1013 94 8000 1.5 0 07:48 27.11.2019
3695 Clouds 22 1013 94 8000 1.5 0 07:29 27.11.2019
3696 Clouds 22 1013 94 8000 1.5 0 07:29 27.11.2019
3697 Clouds 24 1011 83 0 0.65 98 06:55 27.11.2019
3698 Clouds 24 1011 83 0 0.65 98 06:36 27.11.2019
3699 Clouds 24 1011 83 0 0.65 98 05:49 27.11.2019
3700 Clouds 21 1009 96 0 0.36 35 05:22 27.11.2019
3701 Clouds 21 1009 96 0 0.36 35 04:49 27.11.2019
3702 Clouds 21 1009 96 0 0.36 35 04:30 27.11.2019
3703 Clouds 21 1009 96 0 0.36 35 03:41 27.11.2019
3704 Clouds 21 1009 96 0 0.36 35 03:20 27.11.2019
3705 Clouds 21 1009 96 0 0.36 35 02:28 27.11.2019
3706 Clouds 22 1009 93 0 0.19 350 00:50 27.11.2019
3707 Clouds 22 1009 93 0 0.19 350 00:30 27.11.2019
3708 Clouds 22 1009 93 0 0.19 350 23:56 26.11.2019
3709 Clouds 22 1009 93 0 0.19 350 23:38 26.11.2019
3710 Clouds 22 1010 91 0 0.8 10 23:18 26.11.2019
3711 Clouds 22 1010 91 0 0.8 10 22:40 26.11.2019
3712 Clouds 22 1010 91 0 0.8 10 22:20 26.11.2019
3713 Clouds 22 1010 91 0 0.8 10 21:59 26.11.2019
3714 Clouds 22 1010 91 0 0.8 10 21:38 26.11.2019
3715 Clouds 22 1010 91 0 0.8 10 21:38 26.11.2019
3716 Clouds 22 1010 91 0 0.8 10 21:20 26.11.2019
3717 Clouds 22 1010 91 0 0.8 10 20:57 26.11.2019
3718 Clouds 22 1010 91 0 0.8 10 20:37 26.11.2019
3719 Rain 24 1009 86 0 1.06 45 20:19 26.11.2019
3720 Rain 24 1009 86 0 1.06 45 19:55 26.11.2019
3721 Rain 24 1009 86 0 1.06 45 19:55 26.11.2019
3722 Rain 24 1009 86 0 1.06 45 19:37 26.11.2019
3723 Rain 24 1009 86 0 1.06 45 19:19 26.11.2019
3724 Rain 24 1009 86 0 1.06 45 18:57 26.11.2019
3725 Rain 24 1009 86 0 1.06 45 18:39 26.11.2019
3726 Rain 24 1009 86 0 1.06 45 18:20 26.11.2019
3727 Rain 24 1009 86 0 1.06 45 17:57 26.11.2019
3728 Rain 24 1009 86 0 1.06 45 17:39 26.11.2019
3729 Rain 24 1009 86 0 1.06 45 17:39 26.11.2019
3730 Clouds 30 1009 66 10000 3.1 90 17:20 26.11.2019
3731 Clouds 30 1009 66 10000 3.1 90 16:57 26.11.2019
3732 Clouds 30 1009 66 10000 3.1 90 16:37 26.11.2019
3733 Clouds 30 1009 66 10000 3.1 90 16:18 26.11.2019
3734 Clouds 30 1009 66 10000 3.1 90 16:18 26.11.2019
3735 Clouds 30 1005 60 0 1.14 23 15:58 26.11.2019
3736 Clouds 30 1005 60 0 1.14 23 15:37 26.11.2019
3737 Clouds 30 1005 60 0 1.14 23 15:19 26.11.2019
3738 Clouds 30 1005 60 0 1.14 23 14:47 26.11.2019
3739 Clouds 29 1010 70 10000 2.1 90 14:25 26.11.2019
3740 Clouds 29 1010 70 10000 2.1 90 13:56 26.11.2019
3741 Clouds 35 1006 40 0 0.85 59 13:38 26.11.2019
3742 Clouds 21 1018 73 7000 4.1 40 13:18 26.11.2019
3743 Clouds 21 1018 73 7000 4.1 40 12:38 26.11.2019
3744 Clouds 21 1018 73 7000 4.1 40 12:20 26.11.2019
3745 Clouds 27 1013 78 10000 2.1 360 11:58 26.11.2019
3746 Clouds 27 1013 78 10000 2.1 360 11:38 26.11.2019
3747 Clouds 27 1013 78 10000 2.1 360 11:19 26.11.2019
3748 Clouds 26 1014 78 10000 2.1 180 10:57 26.11.2019
3749 Clouds 31 1011 51 0 1.08 92 10:39 26.11.2019
3750 Clouds 31 1011 51 0 1.08 92 10:39 26.11.2019
3751 Clouds 25 1013 83 10000 2.1 310 10:20 26.11.2019
3752 Clouds 25 1013 83 10000 2.1 310 09:45 26.11.2019
3753 Clouds 25 1013 83 10000 2.1 310 09:26 26.11.2019
3754 Clouds 23 1013 94 8000 2.1 300 08:59 26.11.2019
3755 Clouds 31 1011 51 0 1.08 92 08:38 26.11.2019
3756 Clouds 22 1013 94 8000 1.07 77 08:20 26.11.2019
3757 Clouds 22 1013 94 8000 1.21 72 07:43 26.11.2019
3758 Clouds 22 1012 94 6000 2.1 340 07:24 26.11.2019
3759 Clouds 22 1012 94 6000 2.1 340 06:54 26.11.2019
3760 Rain 22 1012 100 4000 2.1 340 06:22 26.11.2019
3761 Rain 22 1012 100 4000 2.1 340 05:38 26.11.2019
3762 Clouds 21 1010 93 0 0.45 110 03:43 26.11.2019
3763 Clouds 21 1011 93 0 0.49 18 01:55 26.11.2019
3764 Clouds 21 1011 93 0 0.49 18 01:29 26.11.2019
3765 Clouds 20 1010 96 0 0.82 12 00:48 26.11.2019
3766 Clouds 20 1010 96 0 0.82 12 00:23 26.11.2019
3767 Clouds 20 1010 96 0 0.82 12 23:39 25.11.2019
3768 Clear 21 1011 94 0 0.56 130 23:20 25.11.2019
3769 Clear 21 1011 94 0 0.56 130 22:58 25.11.2019
3770 Clear 21 1011 94 0 0.56 130 22:37 25.11.2019
3771 Clear 21 1011 94 0 0.56 130 22:18 25.11.2019
3772 Clear 21 1011 94 0 0.56 130 21:58 25.11.2019
3773 Clear 21 1011 94 0 0.56 130 21:39 25.11.2019
3774 Clear 21 1011 94 0 0.56 130 21:19 25.11.2019
3775 Clear 21 1011 94 0 0.56 130 20:55 25.11.2019
3776 Clear 21 1011 94 0 0.56 130 20:36 25.11.2019
3777 Clouds 23 1010 100 6000 3.1 280 20:18 25.11.2019
3778 Clouds 23 1010 100 6000 3.1 280 19:54 25.11.2019
3779 Clouds 23 1011 85 0 0.9 110 19:36 25.11.2019
3780 Clouds 23 1011 85 0 0.9 110 19:18 25.11.2019
3781 Clouds 23 1011 85 0 0.9 110 18:56 25.11.2019
3782 Clouds 23 1011 85 0 0.9 110 18:37 25.11.2019
3783 Clouds 23 1011 85 0 0.9 110 18:18 25.11.2019
3784 Clouds 23 1011 85 0 0.9 110 17:55 25.11.2019
3785 Clouds 23 1011 85 0 0.9 110 17:36 25.11.2019
3786 Clouds 28 1007 65 0 0.97 67 17:18 25.11.2019
3787 Clouds 28 1007 65 0 0.97 67 16:43 25.11.2019
3788 Clouds 28 1007 65 0 0.97 67 16:25 25.11.2019
3789 Clouds 28 1007 65 0 0.97 67 15:58 25.11.2019
3790 Clouds 28 1007 65 0 0.97 67 15:39 25.11.2019
3791 Clouds 28 1007 65 0 0.97 67 15:20 25.11.2019
3792 Clouds 28 1007 65 0 0.97 67 14:56 25.11.2019
3793 Clouds 28 1007 65 0 0.97 67 14:38 25.11.2019
3794 Clouds 32 1009 45 0 1.55 56 14:20 25.11.2019
3795 Clouds 32 1009 45 0 1.55 56 13:40 25.11.2019
3796 Thunderstorm 30 1011 66 10000 1.5 0 13:21 25.11.2019
3797 Thunderstorm 30 1011 66 10000 1.5 0 12:59 25.11.2019
3798 -273 0 0 0 0 0 12:40 25.11.2019
3799 Thunderstorm 30 1011 66 10000 1.5 0 12:21 25.11.2019
3800 Clouds 33 1008 41 0 1.66 44 11:57 25.11.2019
3801 Clouds 33 1008 41 0 1.66 44 11:38 25.11.2019
3802 Clouds 29 1012 55 0 1.81 109 11:19 25.11.2019
3803 Clouds 30 1013 74 10000 1.5 0 10:44 25.11.2019
3804 Clouds 30 1013 74 10000 1.5 0 10:26 25.11.2019
3805 Clouds 29 1014 74 10000 3.1 30 09:58 25.11.2019
3806 Clouds 29 1014 74 10000 3.1 30 09:39 25.11.2019
3807 Clouds 29 1014 74 10000 3.1 30 09:21 25.11.2019
3808 Clouds 29 1012 55 0 1.81 109 08:41 25.11.2019
3809 Mist 23 1014 94 4000 1.25 136 08:21 25.11.2019
3810 Mist 23 1014 94 4000 1.25 136 07:43 25.11.2019
3811 Mist 23 1014 94 4000 1.25 136 07:24 25.11.2019
3812 Clouds 23 1014 82 0 1.25 136 06:49 25.11.2019
3813 Clouds 23 1014 82 0 1.25 136 06:21 25.11.2019
3814 Clouds 23 1014 82 0 1.25 136 05:39 25.11.2019
3815 Clouds 20 1011 97 0 0.86 137 04:52 25.11.2019
3816 Clouds 20 1011 97 0 0.86 137 03:18 25.11.2019
3817 Clouds 20 1011 97 0 0.86 137 02:26 25.11.2019
3818 Clouds 19 1012 96 0 0.56 134 01:40 25.11.2019
3819 Clouds 19 1012 96 0 0.56 134 01:21 25.11.2019
3820 Clouds 19 1011 98 0 0.69 133 00:23 25.11.2019
3821 Clouds 19 1011 98 0 0.69 133 23:58 24.11.2019
3822 Clouds 19 1011 98 0 0.69 133 23:39 24.11.2019
3823 Clouds 20 1012 93 0 0.84 103 23:19 24.11.2019
3824 Clouds 20 1012 93 0 0.84 103 22:55 24.11.2019
3825 Clouds 20 1012 93 0 0.84 103 22:36 24.11.2019
3826 Clouds 20 1012 93 0 0.84 103 22:18 24.11.2019
3827 Clouds 20 1012 93 0 0.84 103 21:42 24.11.2019
3828 Clouds 20 1012 93 0 0.84 103 21:21 24.11.2019
3829 Clouds 20 1012 93 0 0.84 103 20:59 24.11.2019
3830 Clouds 20 1012 93 0 0.84 103 20:59 24.11.2019
3831 Clouds 20 1012 93 0 0.84 103 20:40 24.11.2019
3832 Clouds 21 1012 91 0 0.75 59 20:20 24.11.2019
3833 Clouds 21 1012 91 0 0.75 59 19:57 24.11.2019
3834 Clouds 21 1012 91 0 0.75 59 19:39 24.11.2019
3835 Clouds 21 1012 91 0 0.75 59 19:21 24.11.2019
3836 Clouds 21 1012 91 0 0.75 59 19:21 24.11.2019
3837 Clouds 21 1012 91 0 0.75 59 18:59 24.11.2019
3838 Clouds 21 1012 91 0 0.75 59 18:38 24.11.2019
3839 Clouds 26 1010 78 8000 3.1 120 18:20 24.11.2019
3840 Clouds 26 1010 78 8000 3.1 120 17:58 24.11.2019
3841 Clouds 26 1010 78 8000 3.1 120 17:58 24.11.2019
3842 Clouds 26 1010 78 8000 3.1 120 17:40 24.11.2019
3843 Clouds 26 1010 78 8000 3.1 120 17:22 24.11.2019
3844 Clouds 28 1010 69 10000 3.1 180 16:58 24.11.2019
3845 Clouds 28 1010 69 10000 3.1 180 16:39 24.11.2019
3846 Clouds 28 1010 69 10000 3.1 180 16:21 24.11.2019
3847 Clouds 28 1011 69 10000 3.1 360 15:55 24.11.2019
3848 Clouds 23 1010 85 0 1.55 44 15:36 24.11.2019
3849 Clouds 29 1011 66 10000 3.1 180 15:18 24.11.2019
3850 Clouds 23 1010 85 0 1.55 44 14:39 24.11.2019
3851 Clouds 29 1011 66 8000 3.1 360 14:19 24.11.2019
3852 Clouds 29 1011 66 8000 3.1 360 13:56 24.11.2019
3853 Clouds 25 1011 72 0 1.33 44 13:37 24.11.2019
3854 Clouds 29 1013 70 9000 3.1 180 13:19 24.11.2019
3855 Clouds 29 1013 70 9000 3.1 180 12:55 24.11.2019
3856 Clouds 23 1010 81 0 0.59 127 12:37 24.11.2019
3857 Clouds 23 1010 81 0 0.59 127 12:18 24.11.2019
3858 Clouds 23 1010 81 0 0.59 127 11:37 24.11.2019
3859 Clouds 23 1010 81 0 0.59 127 11:37 24.11.2019
3860 Clouds 27 1013 66 0 1.6 94 11:19 24.11.2019
3861 Clouds 27 1013 66 0 1.6 94 10:48 24.11.2019
3862 Clouds 27 1013 66 0 1.6 94 10:30 24.11.2019
3863 Clouds 27 1013 66 0 1.6 94 09:59 24.11.2019
3864 Clouds 27 1013 66 0 1.6 94 09:38 24.11.2019
3865 Clouds 27 1013 66 0 1.6 94 09:19 24.11.2019
3866 Clouds 27 1013 66 0 1.6 94 08:56 24.11.2019
3867 Clouds 27 1013 66 0 1.6 94 08:37 24.11.2019
3868 Clouds 21 1015 95 0 0.63 111 08:18 24.11.2019
3869 Clouds 21 1014 96 0 0.87 112 07:47 24.11.2019
3870 Rain 23 1014 94 3000 1.5 0 07:20 24.11.2019
3871 Rain 23 1014 94 3000 1.5 0 07:20 24.11.2019
3872 Rain 23 1014 94 3000 1.5 0 06:40 24.11.2019
3873 Clouds 23 1013 94 6000 1.5 0 04:54 24.11.2019
3874 Clouds 20 1012 98 0 0.4 86 04:35 24.11.2019
3875 Clouds 20 1012 98 0 0.4 86 02:36 24.11.2019
3876 Clouds 20 1013 98 0 0.6 115 01:55 24.11.2019
3877 Clouds 20 1013 98 0 0.6 115 01:32 24.11.2019
3878 Clouds 20 1013 98 0 0.81 121 00:52 24.11.2019
3879 Clouds 20 1013 98 0 0.81 121 00:25 24.11.2019
3880 Clouds 20 1013 98 0 0.81 121 23:57 23.11.2019
3881 Clouds 20 1013 98 0 0.81 121 23:38 23.11.2019
3882 Rain 20 1015 97 0 1.13 143 23:20 23.11.2019
3883 Rain 20 1015 97 0 1.13 143 22:55 23.11.2019
3884 Rain 20 1015 97 0 1.13 143 22:37 23.11.2019
3885 Rain 20 1015 97 0 1.13 143 22:19 23.11.2019
3886 Rain 20 1015 97 0 1.13 143 21:55 23.11.2019
3887 Rain 20 1015 97 0 1.13 143 21:36 23.11.2019
3888 Rain 20 1015 97 0 1.13 143 21:18 23.11.2019
3889 Rain 20 1015 97 0 1.13 143 20:38 23.11.2019
3890 Rain 24 1014 94 7000 3.1 100 20:19 23.11.2019
3891 Rain 24 1014 94 7000 3.1 100 19:56 23.11.2019
3892 Rain 24 1014 94 7000 3.1 100 19:38 23.11.2019
3893 Rain 24 1014 94 7000 3.1 100 19:18 23.11.2019
3894 Rain 24 1014 94 7000 3.1 100 19:18 23.11.2019
3895 Rain 21 1013 92 0 1.22 186 18:55 23.11.2019
3896 Rain 21 1013 92 0 1.22 186 18:36 23.11.2019
3897 Clouds 25 1012 88 8000 1.5 0 18:18 23.11.2019
3898 Clouds 25 1012 88 8000 1.5 0 17:42 23.11.2019
3899 Clouds 25 1012 88 8000 1.5 0 17:21 23.11.2019
3900 Clouds 26 1011 83 10000 1.5 0 16:57 23.11.2019
3901 Clouds 26 1011 83 10000 1.5 0 16:38 23.11.2019
3902 -273 0 0 0 0 0 16:38 23.11.2019
3903 Clouds 26 1011 83 10000 1.5 0 16:20 23.11.2019
3904 Clouds 27 1011 78 10000 3.1 180 15:58 23.11.2019
3905 Clouds 27 1011 78 10000 3.1 180 15:39 23.11.2019
3906 Clouds 27 1011 78 10000 3.1 180 15:19 23.11.2019
3907 Rain 23 1010 86 0 1.31 229 14:56 23.11.2019
3908 Rain 23 1010 86 0 1.31 229 14:56 23.11.2019
3909 Rain 23 1010 86 0 1.31 229 14:37 23.11.2019
3910 Clouds 28 1012 69 10000 2.1 150 14:18 23.11.2019
3911 Clouds 28 1012 69 10000 2.1 150 13:42 23.11.2019
3912 Clouds 28 1012 69 10000 2.1 150 13:20 23.11.2019
3913 Clouds 28 1013 74 10000 3.1 160 12:58 23.11.2019
3914 Clouds 26 1011 64 0 1.95 245 12:39 23.11.2019
3915 Clouds 27 1014 74 8000 3.1 170 12:21 23.11.2019
3916 Clouds 27 1014 74 8000 3.1 170 11:42 23.11.2019
3917 Clouds 27 1014 74 8000 3.1 170 11:20 23.11.2019
3918 Clouds 26 1015 83 8000 2.1 180 10:45 23.11.2019
3919 Clouds 26 1015 83 8000 2.1 180 10:22 23.11.2019
3920 Clouds 25 1015 83 8000 2.1 150 09:43 23.11.2019
3921 Clouds 23 1015 94 8000 2.1 190 09:21 23.11.2019
3922 Clouds 23 1015 94 8000 2.1 190 08:55 23.11.2019
3923 Clouds 23 1015 94 8000 2.1 190 08:36 23.11.2019
3924 Clouds 23 1015 94 8000 2.1 190 08:18 23.11.2019
3925 Clouds 20 1014 98 0 0.87 209 07:39 23.11.2019
3926 Clouds 20 1014 98 0 0.87 209 06:48 23.11.2019
3927 Clouds 20 1014 98 0 0.87 209 06:21 23.11.2019
3928 Clouds 20 1014 98 0 0.87 209 05:53 23.11.2019
3929 Clouds 20 1014 98 0 0.87 209 05:30 23.11.2019
3930 Rain 19 1011 99 0 1.08 253 04:50 23.11.2019
3931 Rain 19 1011 99 0 1.08 253 04:28 23.11.2019
3932 Rain 19 1011 99 0 1.08 253 02:53 23.11.2019
3933 Rain 19 1011 99 0 1.08 253 02:24 23.11.2019
3934 Rain 19 1012 98 0 2.23 242 01:38 23.11.2019
3935 Rain 19 1012 98 0 1.71 256 00:43 23.11.2019
3936 Rain 19 1012 98 0 1.71 256 00:18 23.11.2019
3937 Rain 19 1012 98 0 1.71 256 23:42 22.11.2019
3938 Rain 19 1013 98 0 1.34 223 23:21 22.11.2019
3939 Rain 19 1013 98 0 1.34 223 22:58 22.11.2019
3940 Rain 19 1013 98 0 1.34 223 22:38 22.11.2019
3941 Rain 19 1013 98 0 1.34 223 22:38 22.11.2019
3942 Rain 19 1013 98 0 1.34 223 22:20 22.11.2019
3943 Rain 19 1013 98 0 1.34 223 21:59 22.11.2019
3944 Rain 19 1013 98 0 1.34 223 21:39 22.11.2019
3945 Rain 19 1013 98 0 1.34 223 21:20 22.11.2019
3946 Rain 19 1013 98 0 1.34 223 20:43 22.11.2019
3947 Rain 21 1013 99 0 1.41 213 20:22 22.11.2019
3948 Rain 21 1012 99 0 1.71 222 19:58 22.11.2019
3949 Rain 21 1012 99 0 1.71 222 19:38 22.11.2019
3950 Clouds 24 1012 88 7000 2.1 30 19:19 22.11.2019
3951 Clouds 24 1012 88 7000 2.1 30 18:58 22.11.2019
3952 Clouds 24 1012 88 7000 2.1 30 18:36 22.11.2019
3953 Clouds 24 1012 88 7000 2.1 30 18:18 22.11.2019
3954 Clouds 24 1012 88 7000 3.1 30 17:40 22.11.2019
3955 Clouds 24 1012 88 7000 3.1 30 17:22 22.11.2019
3956 Clouds 24 1019 88 7000 3.1 330 16:48 22.11.2019
3957 Clouds 24 1019 88 7000 3.1 330 16:29 22.11.2019
3958 Clouds 24 1013 88 7000 3.1 330 15:47 22.11.2019
3959 Clouds 24 1013 88 7000 3.1 330 15:25 22.11.2019
3960 Rain 22 1009 98 0 1.26 243 14:57 22.11.2019
3961 Rain 22 1009 98 0 1.26 243 14:39 22.11.2019
3962 Rain 24 1013 88 7000 3.1 210 14:21 22.11.2019
3963 Rain 24 1013 88 7000 3.1 210 13:59 22.11.2019
3964 Rain 24 1013 88 7000 3.1 210 13:59 22.11.2019
3965 Rain 24 1013 88 7000 3.1 210 13:37 22.11.2019
3966 Rain 24 1013 88 7000 3.1 210 13:19 22.11.2019
3967 Rain 25 1010 90 0 1.84 232 12:57 22.11.2019
3968 Rain 25 1010 90 0 1.84 232 12:39 22.11.2019
3969 Thunderstorm 23 1013 100 8000 3.1 90 12:19 22.11.2019
3970 Thunderstorm 23 1013 100 8000 3.1 90 11:56 22.11.2019
3971 Thunderstorm 23 1013 100 8000 3.1 90 11:36 22.11.2019
3972 Thunderstorm 23 1013 100 8000 3.1 90 11:18 22.11.2019
3973 Thunderstorm 21 1014 100 8000 3.1 60 10:41 22.11.2019
3974 Thunderstorm 21 1014 100 8000 3.1 60 10:22 22.11.2019
3975 Thunderstorm 21 1014 100 7000 3.1 30 09:58 22.11.2019
3976 Thunderstorm 21 1014 100 7000 3.1 30 09:39 22.11.2019
3977 Thunderstorm 21 1014 100 7000 3.1 30 09:21 22.11.2019
3978 Rain 23 1012 96 0 1.31 221 08:48 22.11.2019
3979 Rain 23 1012 96 0 1.31 221 08:48 22.11.2019
3980 Thunderstorm 23 1013 94 1000 3.1 180 08:28 22.11.2019
3981 Thunderstorm 23 1013 94 1000 3.1 180 07:58 22.11.2019
3982 Rain 22 1011 98 0 0.82 304 07:40 22.11.2019
3983 Rain 22 1011 98 0 0.82 304 07:19 22.11.2019
3984 Rain 22 1011 98 0 0.82 304 06:41 22.11.2019
3985 Thunderstorm 24 1011 94 4000 4.1 260 05:57 22.11.2019
3986 Rain 21 1009 99 0 0.91 257 04:55 22.11.2019
3987 Rain 21 1009 99 0 0.91 257 02:59 22.11.2019
3988 Rain 21 1009 99 0 0.91 257 02:37 22.11.2019
3989 Rain 22 1008 99 0 1.11 289 02:18 22.11.2019
3990 Rain 22 1008 99 0 1.11 289 01:42 22.11.2019
3991 Rain 22 1008 98 0 1.08 333 01:18 22.11.2019
3992 Rain 22 1008 98 0 1.08 333 00:26 22.11.2019
3993 Rain 22 1008 98 0 1.08 333 23:57 21.11.2019
3994 Rain 22 1008 98 0 1.08 333 23:39 21.11.2019
3995 Rain 22 1009 98 0 0.86 341 23:21 21.11.2019
3996 Rain 22 1009 98 0 0.86 341 22:54 21.11.2019
3997 Rain 22 1009 98 0 0.86 341 22:36 21.11.2019
3998 Rain 22 1009 98 0 0.86 341 22:18 21.11.2019
3999 Rain 22 1009 98 0 0.86 341 21:54 21.11.2019
4000 Rain 22 1009 98 0 0.86 341 21:36 21.11.2019
4001 Rain 22 1009 98 0 0.86 341 21:18 21.11.2019
4002 Rain 22 1009 98 0 0.86 341 20:54 21.11.2019
4003 Rain 22 1009 98 0 0.86 341 20:36 21.11.2019
4004 Clouds 26 1008 88 8000 0.26 48 20:18 21.11.2019
4005 Clouds 25 1006 76 0 0.26 48 19:41 21.11.2019
4006 Clouds 25 1006 76 0 0.26 48 19:23 21.11.2019
4007 Clouds 25 1006 76 0 0.26 48 18:58 21.11.2019
4008 Clouds 25 1006 76 0 0.26 48 18:40 21.11.2019
4009 Clouds 31 1006 62 8000 1.5 0 18:21 21.11.2019
4010 Clouds 31 1006 62 8000 1.5 0 17:58 21.11.2019
4011 Clouds 31 1006 62 8000 1.5 0 17:39 21.11.2019
4012 Clouds 31 1006 62 8000 1.5 0 17:21 21.11.2019
4013 Clouds 32 1006 55 10000 1.5 0 16:56 21.11.2019
4014 Clouds 32 1006 55 10000 1.5 0 16:37 21.11.2019
4015 Clouds 32 1006 55 10000 1.5 0 16:19 21.11.2019
4016 Clouds 29 1003 66 0 0.63 75 15:42 21.11.2019
4017 Clouds 29 1003 66 0 0.63 75 15:21 21.11.2019
4018 Clouds 29 1003 66 0 0.63 75 14:57 21.11.2019
4019 Clouds 29 1003 66 0 0.63 75 14:57 21.11.2019
4020 Clouds 29 1003 66 0 0.63 75 14:37 21.11.2019
4021 Clouds 32 1009 59 10000 1.5 0 14:19 21.11.2019
4022 Clouds 32 1009 59 10000 1.5 0 13:57 21.11.2019
4023 Clouds 32 1009 59 10000 1.5 0 13:37 21.11.2019
4024 Clouds 32 1009 59 10000 1.5 0 13:18 21.11.2019
4025 Clouds 32 1009 59 10000 1.5 0 13:18 21.11.2019
4026 Clouds 34 1005 39 0 1.84 44 12:40 21.11.2019
4027 Clouds 31 1010 58 10000 4.1 70 12:22 21.11.2019
4028 Clouds 31 1010 58 10000 4.1 70 11:55 21.11.2019
4029 Clouds 31 1010 58 10000 4.1 70 11:37 21.11.2019
4030 Clouds 31 1010 58 10000 4.1 70 11:19 21.11.2019
4031 Clouds 30 1011 62 10000 3.1 60 10:42 21.11.2019
4032 Clouds 30 1011 62 10000 3.1 60 10:24 21.11.2019
4033 Clouds 28 1011 74 0 3.1 100 09:58 21.11.2019
4034 Clouds 28 1011 74 0 3.1 100 09:39 21.11.2019
4035 Clouds 28 1011 74 0 3.1 100 09:21 21.11.2019
4036 Clouds 26 1012 78 8000 3.1 30 08:44 21.11.2019
4037 Clouds 33 1008 49 0 1.31 77 08:24 21.11.2019
4038 Clouds 24 1010 91 0 1 99 07:46 21.11.2019
4039 Clouds 24 1010 91 0 1 99 07:20 21.11.2019
4040 Clouds 24 1010 91 0 1 99 06:58 21.11.2019
4041 Clouds 24 1010 91 0 1 99 06:37 21.11.2019
4042 Clouds 24 1010 91 0 1 99 06:19 21.11.2019
4043 Clouds 21 1008 98 0 0.75 92 03:42 21.11.2019
4044 Clouds 21 1008 98 0 0.75 92 02:42 21.11.2019
4045 Clouds 21 1008 98 0 0.75 92 02:24 21.11.2019
4046 Rain 22 1008 98 0 1.24 166 01:49 21.11.2019
4047 Clouds 22 1008 98 0 0.63 75 01:20 21.11.2019
4048 Clouds 22 1008 98 0 0.63 75 00:38 21.11.2019
4049 Clouds 22 1008 98 0 0.63 75 00:20 21.11.2019
4050 Clouds 22 1008 98 0 0.63 75 23:48 20.11.2019
4051 Rain 21 1009 97 0 0.88 138 23:22 20.11.2019
4052 Rain 21 1009 97 0 0.88 138 22:58 20.11.2019
4053 Rain 21 1009 97 0 0.88 138 22:40 20.11.2019
4054 Rain 21 1009 97 0 0.88 138 22:19 20.11.2019
4055 Rain 21 1009 97 0 0.88 138 21:58 20.11.2019
4056 Rain 21 1009 97 0 0.88 138 21:39 20.11.2019
4057 Rain 21 1009 97 0 0.88 138 21:20 20.11.2019
4058 Rain 21 1009 97 0 0.88 138 21:20 20.11.2019
4059 Rain 21 1009 97 0 0.88 138 20:57 20.11.2019
4060 Rain 21 1009 97 0 0.88 138 20:39 20.11.2019
4061 Rain 23 1009 96 0 1.07 154 20:20 20.11.2019
4062 Rain 23 1009 96 0 1.07 154 19:56 20.11.2019
4063 Rain 23 1009 96 0 1.07 154 19:37 20.11.2019
4064 Rain 23 1009 96 0 1.07 154 19:19 20.11.2019
4065 Rain 23 1009 96 0 1.07 154 18:58 20.11.2019
4066 Rain 23 1009 96 0 1.07 154 18:39 20.11.2019
4067 Thunderstorm 26 1008 88 7000 3.1 30 18:21 20.11.2019
4068 Thunderstorm 26 1008 88 7000 3.1 30 17:56 20.11.2019
4069 Thunderstorm 26 1008 88 7000 3.1 30 17:56 20.11.2019
4070 Rain 23 1009 96 0 1.07 154 17:38 20.11.2019
4071 Rain 23 1009 96 0 1.07 154 17:38 20.11.2019
4072 Rain 28 1006 78 0 0.55 177 17:20 20.11.2019
4073 Rain 28 1006 78 0 0.55 177 16:56 20.11.2019
4074 Rain 28 1006 78 0 0.55 177 16:37 20.11.2019
4075 Clouds 32 1007 62 10000 2.1 180 16:18 20.11.2019
4076 Clouds 32 1007 62 10000 2.1 180 15:42 20.11.2019
4077 Clouds 32 1007 62 10000 2.1 180 15:42 20.11.2019
4078 Clouds 32 1007 62 10000 2.1 180 15:22 20.11.2019
4079 Clouds 32 1008 59 10000 2.1 100 14:59 20.11.2019
4080 Clouds 32 1008 59 10000 2.1 100 14:40 20.11.2019
4081 Clouds 32 1008 59 10000 2.1 100 14:21 20.11.2019
4082 Clouds 32 1009 62 10000 1.82 163 13:58 20.11.2019
4083 Clouds 32 1009 62 10000 1.82 163 13:58 20.11.2019
4084 Clouds 32 1009 62 10000 1.82 163 13:39 20.11.2019
4085 Clouds 32 1009 62 10000 1.92 183 13:20 20.11.2019
4086 Clouds 31 1011 70 10000 2.1 90 12:55 20.11.2019
4087 Rain 30 1007 57 0 1.92 183 12:36 20.11.2019
4088 Clouds 31 1012 66 10000 2.1 90 12:18 20.11.2019
4089 Clouds 31 1012 66 10000 2.1 90 11:45 20.11.2019
4090 Clouds 27 1012 68 0 1.39 208 11:22 20.11.2019
4091 Clouds 27 1012 68 0 1.39 208 10:56 20.11.2019
4092 Clouds 27 1012 68 0 1.39 208 10:38 20.11.2019
4093 Clouds 27 1012 68 0 1.39 208 10:19 20.11.2019
4094 Clouds 27 1012 68 0 1.39 208 09:43 20.11.2019
4095 Clouds 27 1012 68 0 1.39 208 09:23 20.11.2019
4096 Clouds 27 1012 68 0 1.39 208 08:59 20.11.2019
4097 Clouds 27 1012 68 0 1.39 208 08:39 20.11.2019
4098 Rain 22 1013 98 0 1.52 195 08:21 20.11.2019
4099 Rain 22 1012 98 0 1.87 194 07:48 20.11.2019
4100 Rain 22 1012 98 0 1.87 194 07:28 20.11.2019
4101 Rain 22 1012 98 0 1.87 194 06:50 20.11.2019
4102 Rain 22 1012 98 0 1.87 194 06:22 20.11.2019
4103 Rain 22 1012 98 0 1.87 194 05:51 20.11.2019
4104 Rain 21 1009 99 0 1.45 153 03:45 20.11.2019
4105 Rain 21 1009 96 0 0.24 307 02:22 20.11.2019
4106 Rain 21 1009 96 0 0.24 307 01:33 20.11.2019
4107 Rain 21 1009 96 0 0.31 124 00:42 20.11.2019
4108 Rain 21 1009 96 0 0.31 124 23:59 19.11.2019
4109 Rain 21 1009 96 0 0.31 124 23:27 19.11.2019
4110 Clear 22 1010 91 0 0.5 207 22:59 19.11.2019
4111 Clear 22 1010 91 0 0.5 207 22:41 19.11.2019
4112 Clear 22 1010 91 0 0.5 207 22:19 19.11.2019
4113 Clear 22 1010 91 0 0.5 207 21:57 19.11.2019
4114 Clear 22 1010 91 0 0.5 207 21:38 19.11.2019
4115 Clear 22 1010 91 0 0.5 207 21:20 19.11.2019
4116 Clear 22 1010 91 0 0.5 207 20:57 19.11.2019
4117 Clear 22 1010 91 0 0.5 207 20:39 19.11.2019
4118 Rain 23 1009 93 0 0.98 219 20:20 19.11.2019
4119 Rain 23 1009 93 0 0.98 219 19:57 19.11.2019
4120 Rain 23 1009 93 0 0.98 219 19:57 19.11.2019
4121 Rain 23 1009 93 0 0.98 219 19:39 19.11.2019
4122 Rain 23 1009 93 0 0.98 219 19:19 19.11.2019
4123 Rain 23 1009 93 0 0.98 219 18:55 19.11.2019
4124 Rain 23 1009 93 0 0.98 219 18:36 19.11.2019
4125 Clouds 24 1011 88 8000 1.5 0 18:18 19.11.2019
4126 Clouds 24 1011 88 8000 1.5 0 17:56 19.11.2019
4127 Clouds 24 1011 88 8000 1.5 0 17:37 19.11.2019
4128 Clouds 24 1011 88 8000 1.5 0 17:18 19.11.2019
4129 Clouds 25 1010 83 10000 4.1 250 16:43 19.11.2019
4130 Clouds 25 1010 83 10000 4.1 250 16:24 19.11.2019
4131 Rain 27 1005 75 0 0.22 10 15:59 19.11.2019
4132 Rain 27 1005 75 0 0.22 10 15:39 19.11.2019
4133 Rain 27 1005 75 0 0.22 10 15:21 19.11.2019
4134 Rain 27 1005 75 0 0.22 10 14:56 19.11.2019
4135 Rain 27 1005 75 0 0.22 10 14:56 19.11.2019
4136 Rain 27 1005 75 0 0.22 10 14:37 19.11.2019
4137 Clouds 25 1011 88 10000 3.1 200 14:19 19.11.2019
4138 Clouds 25 1011 88 10000 3.1 200 13:40 19.11.2019
4139 Clouds 25 1011 88 10000 3.1 200 13:19 19.11.2019
4140 Clouds 32 1006 46 0 1.27 47 12:41 19.11.2019
4141 Clouds 25 1013 88 10000 4.1 200 12:23 19.11.2019
4142 Clouds 25 1013 88 10000 4.1 200 12:23 19.11.2019
4143 Clouds 25 1013 88 10000 4.1 200 11:58 19.11.2019
4144 Clouds 32 1006 46 0 1.27 47 11:38 19.11.2019
4145 Clouds 26 1014 88 10000 4.1 180 11:19 19.11.2019
4146 Clouds 26 1014 88 10000 4.1 180 10:48 19.11.2019
4147 Clear 33 1010 50 0 0.56 117 10:23 19.11.2019
4148 Clear 33 1010 50 0 0.56 117 09:59 19.11.2019
4149 Clear 33 1010 50 0 0.56 117 09:41 19.11.2019
4150 Clear 33 1010 50 0 0.56 117 09:19 19.11.2019
4151 Clear 33 1010 50 0 0.56 117 08:41 19.11.2019
4152 Clear 33 1010 48 0 0.84 178 08:23 19.11.2019
4153 Clouds 24 1013 88 0 0.96 148 07:59 19.11.2019
4154 Clouds 24 1013 88 0 0.96 148 07:41 19.11.2019
4155 Clouds 24 1013 88 0 0.96 148 07:22 19.11.2019
4156 Clouds 24 1013 88 0 0.96 148 06:52 19.11.2019
4157 Clouds 24 1013 88 0 0.96 148 06:33 19.11.2019
4158 Clouds 24 1013 88 0 0.96 148 05:40 19.11.2019
4159 Rain 21 1010 97 0 0.46 156 04:24 19.11.2019
4160 Rain 21 1010 97 0 0.46 156 03:34 19.11.2019
4161 Rain 21 1010 97 0 0.46 156 02:57 19.11.2019
4162 Rain 21 1010 97 0 0.46 156 02:31 19.11.2019
4163 Clouds 21 1010 97 0 0.38 203 01:43 19.11.2019
4164 Rain 21 1010 97 0 0.64 183 00:22 19.11.2019
4165 Rain 21 1010 97 0 0.64 183 23:57 18.11.2019
4166 Rain 21 1010 97 0 0.64 183 23:37 18.11.2019
4167 Clouds 21 1010 97 0 0.76 169 23:18 18.11.2019
4168 Clouds 21 1010 97 0 0.76 169 22:44 18.11.2019
4169 Clouds 21 1010 97 0 0.76 169 22:23 18.11.2019
4170 Clouds 21 1010 97 0 0.76 169 21:56 18.11.2019
4171 Clouds 21 1010 97 0 0.76 169 21:37 18.11.2019
4172 Clouds 26 1010 83 7000 2.1 120 21:19 18.11.2019
4173 Clouds 26 1010 83 7000 2.1 120 20:57 18.11.2019
4174 Clouds 26 1010 83 7000 2.1 120 20:38 18.11.2019
4175 Clouds 26 1010 83 7000 2.1 120 20:18 18.11.2019
4176 Clouds 27 1010 78 7000 2.1 90 19:55 18.11.2019
4177 Clouds 27 1010 78 7000 2.1 90 19:37 18.11.2019
4178 Clouds 27 1010 78 7000 2.1 90 19:18 18.11.2019
4179 Clouds 29 1009 70 7000 2.1 30 18:55 18.11.2019
4180 Clouds 29 1009 70 7000 2.1 30 18:36 18.11.2019
4181 Clouds 29 1009 70 7000 2.1 30 18:18 18.11.2019
4182 Clouds 30 1009 66 8000 2.1 30 17:39 18.11.2019
4183 Clouds 30 1009 66 8000 2.1 30 17:20 18.11.2019
4184 Clouds 31 1008 62 9000 2.1 50 16:55 18.11.2019
4185 Clouds 31 1008 62 9000 2.1 50 16:55 18.11.2019
4186 Clouds 31 1008 62 9000 2.1 50 16:37 18.11.2019
4187 Clouds 31 1008 62 9000 2.1 50 16:19 18.11.2019
4188 Clouds 30 1008 66 10000 2.1 180 15:56 18.11.2019
4189 Clouds 30 1008 66 10000 2.1 180 15:56 18.11.2019
4190 Clouds 30 1008 66 10000 2.1 180 15:37 18.11.2019
4191 Clouds 30 1008 66 10000 2.1 180 15:18 18.11.2019
4192 Clouds 31 1009 66 10000 2.1 180 14:42 18.11.2019
4193 Clouds 31 1009 66 10000 2.1 180 14:23 18.11.2019
4194 -273 0 0 0 0 0 13:55 18.11.2019
4195 Clouds 30 1010 66 10000 2.1 160 13:54 18.11.2019
4196 Rain 27 1008 85 0 2.09 146 13:36 18.11.2019
4197 Clouds 30 1011 70 10000 2.1 220 13:18 18.11.2019
4198 Clouds 30 1011 70 10000 2.1 220 12:38 18.11.2019
4199 Clouds 30 1011 70 10000 2.1 220 12:19 18.11.2019
4200 Clouds 29 1013 70 10000 2.1 180 11:45 18.11.2019
4201 Clouds 29 1013 70 10000 2.1 180 11:26 18.11.2019
4202 Clouds 27 1013 78 10000 2.1 220 10:58 18.11.2019
4203 Clouds 27 1013 78 10000 2.1 220 10:39 18.11.2019
4204 Clouds 27 1013 78 10000 2.1 220 10:20 18.11.2019
4205 Clouds 26 1013 83 8000 3.1 220 09:55 18.11.2019
4206 Clouds 26 1013 83 8000 3.1 220 09:36 18.11.2019
4207 Clouds 26 1013 83 8000 3.1 220 09:18 18.11.2019
4208 Rain 27 1012 67 0 2.16 166 08:43 18.11.2019
4209 Rain 21 1013 98 0 0.78 131 08:20 18.11.2019
4210 Rain 22 1012 98 0 1.31 145 07:48 18.11.2019
4211 Rain 22 1012 98 0 1.31 145 07:48 18.11.2019
4212 Rain 22 1012 98 0 1.31 145 07:29 18.11.2019
4213 Rain 22 1012 98 0 1.31 145 06:56 18.11.2019
4214 Rain 22 1012 98 0 1.31 145 06:56 18.11.2019
4215 Rain 22 1012 98 0 1.31 145 06:32 18.11.2019
4216 Rain 22 1012 98 0 1.31 145 05:51 18.11.2019
4217 Rain 20 1010 99 0 0.69 162 04:57 18.11.2019
4218 Rain 20 1010 99 0 0.69 162 02:59 18.11.2019
4219 Rain 21 1010 99 0 1.79 178 01:31 18.11.2019
4220 Rain 21 1010 99 0 1.41 174 00:24 18.11.2019
4221 Rain 21 1010 99 0 1.41 174 23:44 17.11.2019
4222 Rain 21 1010 99 0 1.41 174 23:24 17.11.2019
4223 Clouds 21 1011 97 0 0.98 187 22:58 17.11.2019
4224 Clouds 21 1011 97 0 0.98 187 22:40 17.11.2019
4225 Clouds 21 1011 97 0 0.98 187 22:22 17.11.2019
4226 Clouds 21 1011 97 0 0.98 187 21:58 17.11.2019
4227 Clouds 21 1011 97 0 0.98 187 21:40 17.11.2019
4228 Clouds 21 1011 97 0 0.98 187 21:19 17.11.2019
4229 Clouds 21 1011 97 0 0.98 187 20:56 17.11.2019
4230 Clouds 21 1011 97 0 0.98 187 20:38 17.11.2019
4231 Clouds 21 1011 97 0 0.98 187 20:38 17.11.2019
4232 Rain 22 1009 97 0 1.34 191 20:19 17.11.2019
4233 Rain 22 1009 97 0 1.34 191 20:19 17.11.2019
4234 Rain 22 1009 97 0 1.34 191 19:56 17.11.2019
4235 Rain 22 1009 97 0 1.34 191 19:37 17.11.2019
4236 Rain 22 1009 97 0 1.34 191 19:19 17.11.2019
4237 Rain 22 1009 97 0 1.34 191 18:55 17.11.2019
4238 Rain 22 1009 97 0 1.34 191 18:37 17.11.2019
4239 Rain 22 1009 97 0 1.34 191 18:18 17.11.2019
4240 Rain 22 1009 97 0 1.34 191 17:57 17.11.2019
4241 Rain 22 1009 97 0 1.34 191 17:38 17.11.2019
4242 Rain 22 1009 97 0 1.34 191 17:38 17.11.2019
4243 Rain 25 1005 95 0 1 184 17:19 17.11.2019
4244 Rain 25 1005 95 0 1 184 16:57 17.11.2019
4245 Rain 25 1005 95 0 1 184 16:38 17.11.2019
4246 Rain 25 1005 95 0 1 184 16:20 17.11.2019
4247 Rain 25 1005 95 0 1 184 15:55 17.11.2019
4248 Rain 25 1005 95 0 1 184 15:36 17.11.2019
4249 Rain 25 1005 95 0 1 184 15:36 17.11.2019
4250 Rain 25 1005 95 0 1 184 15:18 17.11.2019
4251 Rain 25 1005 95 0 1 184 14:55 17.11.2019
4252 Rain 25 1005 95 0 1 184 14:37 17.11.2019
4253 Rain 30 1006 68 0 0.95 246 14:18 17.11.2019
4254 Rain 30 1006 68 0 0.95 246 13:41 17.11.2019
4255 Rain 30 1006 68 0 0.95 246 13:22 17.11.2019
4256 Rain 29 1006 69 0 1.87 273 13:00 17.11.2019
4257 Rain 29 1006 69 0 1.87 273 12:38 17.11.2019
4258 Rain 29 1006 69 0 1.87 273 12:19 17.11.2019
4259 Rain 29 1006 69 0 1.87 273 11:56 17.11.2019
4260 Rain 29 1006 69 0 1.87 273 11:38 17.11.2019
4261 Rain 27 1009 91 0 1.77 216 11:19 17.11.2019
4262 Rain 27 1009 91 0 1.77 216 10:41 17.11.2019
4263 Rain 27 1009 91 0 1.77 216 10:22 17.11.2019
4264 Rain 27 1009 91 0 1.77 216 09:43 17.11.2019
4265 Rain 27 1009 91 0 1.77 216 09:24 17.11.2019
4266 Rain 27 1009 91 0 1.77 216 08:58 17.11.2019
4267 Rain 27 1009 91 0 1.77 216 08:37 17.11.2019
4268 Rain 23 1011 96 0 1.94 223 08:19 17.11.2019
4269 Rain 23 1010 97 0 1.82 226 07:42 17.11.2019
4270 Rain 23 1010 97 0 1.82 226 07:22 17.11.2019
4271 Rain 23 1010 97 0 1.82 226 06:55 17.11.2019
4272 Rain 23 1010 97 0 1.82 226 06:30 17.11.2019
4273 Rain 23 1010 97 0 1.82 226 05:39 17.11.2019
4274 Rain 21 1007 99 0 1.05 206 04:20 17.11.2019
4275 Rain 21 1007 99 0 1.05 206 03:42 17.11.2019
4276 -273 0 0 0 0 0 03:23 17.11.2019
4277 Rain 22 1007 98 0 1.2 296 02:19 17.11.2019
4278 Rain 22 1007 98 0 1.2 296 01:22 17.11.2019
4279 Rain 22 1007 98 0 0.98 310 00:49 17.11.2019
4280 Rain 22 1007 98 0 0.98 310 00:22 17.11.2019
4281 Rain 22 1007 98 0 0.98 310 23:43 16.11.2019
4282 Rain 22 1007 98 0 0.98 310 23:43 16.11.2019
4283 Clouds 24 1007 81 0 0.58 209 23:19 16.11.2019
4284 Clouds 24 1007 81 0 0.58 209 22:58 16.11.2019
4285 Clouds 24 1007 81 0 0.58 209 22:40 16.11.2019
4286 Clouds 24 1007 81 0 0.58 209 22:18 16.11.2019
4287 Clouds 24 1007 81 0 0.58 209 21:41 16.11.2019
4288 Clouds 24 1007 81 0 0.58 209 21:23 16.11.2019
4289 Clouds 24 1007 81 0 0.58 209 20:58 16.11.2019
4290 Clouds 24 1007 81 0 0.58 209 20:39 16.11.2019
4291 Clouds 26 1006 75 0 1.24 141 20:20 16.11.2019
4292 Clouds 26 1005 76 0 1 153 19:57 16.11.2019
4293 Clouds 26 1005 76 0 1 153 19:38 16.11.2019
4294 Clouds 26 1005 76 0 1 153 19:20 16.11.2019
4295 Clouds 26 1005 76 0 1 153 18:45 16.11.2019
4296 Clouds 25 1009 78 9000 5.1 270 18:27 16.11.2019
4297 Clouds 25 1009 78 9000 5.1 270 17:56 16.11.2019
4298 Clouds 25 1009 78 9000 5.1 270 17:37 16.11.2019
4299 Clouds 25 1009 78 9000 5.1 270 17:18 16.11.2019
4300 Clouds 31 1002 60 0 1.3 75 16:47 16.11.2019
4301 Clouds 31 1002 60 0 1.3 75 16:28 16.11.2019
4302 Clouds 31 1002 60 0 1.3 75 15:56 16.11.2019
4303 Clouds 31 1002 60 0 1.3 75 15:38 16.11.2019
4304 Clouds 32 1006 62 10000 2.1 180 15:20 16.11.2019
4305 Clouds 32 1006 62 10000 2.1 180 14:42 16.11.2019
4306 Clouds 32 1006 62 10000 2.1 180 14:22 16.11.2019
4307 Clouds 34 1007 56 10000 3.1 180 13:58 16.11.2019
4308 Clouds 34 1007 56 10000 3.1 180 13:39 16.11.2019
4309 Clouds 34 1007 56 10000 3.1 180 13:39 16.11.2019
4310 Clouds 34 1007 56 10000 3.1 180 13:19 16.11.2019
4311 Clouds 33 1004 45 0 2.15 63 12:59 16.11.2019
4312 Clouds 33 1004 45 0 2.15 63 12:41 16.11.2019
4313 Clouds 28 1009 78 10000 2.15 63 12:20 16.11.2019
4314 Clouds 28 1009 78 10000 2.15 63 11:46 16.11.2019
4315 Clouds 28 1009 78 10000 2.15 63 11:28 16.11.2019
4316 Clouds 27 1010 78 10000 2.1 150 10:58 16.11.2019
4317 Clouds 27 1010 78 10000 2.1 150 10:40 16.11.2019
4318 Clouds 27 1010 78 10000 2.1 150 10:21 16.11.2019
4319 Clouds 31 1008 51 0 1.55 55 09:45 16.11.2019
4320 Clouds 24 1010 88 10000 2.1 60 09:22 16.11.2019
4321 Clouds 24 1010 88 10000 2.1 60 08:59 16.11.2019
4322 Clouds 24 1010 88 10000 2.1 60 08:40 16.11.2019
4323 Clouds 24 1010 88 10000 2.1 60 08:20 16.11.2019
4324 Rain 24 1009 94 0 0.21 304 07:43 16.11.2019
4325 Rain 24 1009 94 0 0.21 304 07:22 16.11.2019
4326 Rain 24 1009 94 0 0.21 304 06:56 16.11.2019
4327 Rain 24 1009 94 0 0.21 304 06:35 16.11.2019
4328 Rain 24 1009 94 0 0.21 304 05:59 16.11.2019
4329 Rain 21 1007 98 0 1.1 67 04:21 16.11.2019
4330 Rain 21 1007 98 0 1.1 67 03:26 16.11.2019
4331 Rain 21 1007 98 0 1.1 67 02:35 16.11.2019
4332 Rain 21 1006 96 0 0.58 348 01:29 16.11.2019
4333 Clouds 22 1007 95 0 0.69 339 00:47 16.11.2019
4334 Clouds 22 1007 95 0 0.69 339 00:27 16.11.2019
4335 Clouds 22 1007 95 0 0.69 339 23:44 15.11.2019
4336 Clouds 22 1007 95 0 0.69 339 23:23 15.11.2019
4337 Clouds 23 1007 88 0 0.23 251 22:59 15.11.2019
4338 Clouds 23 1007 88 0 0.23 251 22:39 15.11.2019
4339 Clouds 23 1007 88 0 0.23 251 22:19 15.11.2019
4340 Clouds 23 1007 88 0 0.23 251 21:55 15.11.2019
4341 Clouds 23 1007 88 0 0.23 251 21:37 15.11.2019
4342 Clouds 23 1007 88 0 0.23 251 21:19 15.11.2019
4343 Clouds 23 1007 88 0 0.23 251 20:56 15.11.2019
4344 Clouds 23 1007 88 0 0.23 251 20:37 15.11.2019
4345 Clouds 25 1006 82 0 0.89 259 20:19 15.11.2019
4346 Clouds 25 1006 82 0 0.89 259 19:56 15.11.2019
4347 Clouds 25 1006 82 0 0.89 259 19:37 15.11.2019
4348 Clouds 25 1006 82 0 0.89 259 19:19 15.11.2019
4349 Clouds 25 1006 82 0 0.89 259 18:42 15.11.2019
4350 Clouds 25 1006 82 0 0.89 259 18:24 15.11.2019
4351 Clouds 25 1006 82 0 0.89 259 17:58 15.11.2019
4352 Clouds 25 1006 82 0 0.89 259 17:39 15.11.2019
4353 Thunderstorm 32 1006 66 10000 2.1 180 17:20 15.11.2019
4354 Thunderstorm 32 1006 66 10000 2.1 180 16:54 15.11.2019
4355 Thunderstorm 32 1006 66 10000 2.1 180 16:36 15.11.2019
4356 Thunderstorm 32 1006 66 10000 2.1 180 16:18 15.11.2019
4357 Clouds 30 1003 64 0 0.47 3 15:37 15.11.2019
4358 Clouds 30 1003 64 0 0.47 3 15:37 15.11.2019
4359 Clouds 32 1007 66 10000 4.1 210 15:19 15.11.2019
4360 Clouds 32 1007 66 10000 4.1 210 14:56 15.11.2019
4361 Clouds 30 1003 64 0 0.47 3 14:37 15.11.2019
4362 Clouds 31 1008 70 10000 4.1 210 14:19 15.11.2019
4363 Clouds 31 1008 70 10000 4.1 210 13:56 15.11.2019
4364 Clouds 34 1005 44 0 0.27 266 13:38 15.11.2019
4365 Clouds 30 1009 70 10000 4.1 180 13:19 15.11.2019
4366 Clouds 30 1009 70 10000 4.1 180 12:56 15.11.2019
4367 Clouds 34 1006 42 0 1.11 355 12:37 15.11.2019
4368 Clouds 30 1011 70 10000 3.1 330 12:18 15.11.2019
4369 Clouds 30 1011 70 10000 3.1 330 11:55 15.11.2019
4370 Clouds 30 1011 70 10000 3.1 330 11:37 15.11.2019
4371 Clouds 30 1011 70 10000 3.1 330 11:18 15.11.2019
4372 Clouds 33 1010 51 0 0.75 23 10:39 15.11.2019
4373 Clouds 33 1010 51 0 0.75 23 10:21 15.11.2019
4374 Clouds 33 1010 51 0 0.75 23 09:58 15.11.2019
4375 Clouds 33 1010 51 0 0.75 23 09:58 15.11.2019
4376 Clouds 33 1010 51 0 0.75 23 09:39 15.11.2019
4377 Clouds 33 1010 51 0 0.75 23 09:18 15.11.2019
4378 Clouds 33 1010 51 0 0.75 23 08:42 15.11.2019
4379 Clouds 33 1010 51 0 0.75 23 08:42 15.11.2019
4380 Clouds 24 1011 87 0 0.21 19 08:21 15.11.2019
4381 Clouds 24 1011 87 0 0.21 19 07:46 15.11.2019
4382 Clouds 24 1011 87 0 0.21 19 07:26 15.11.2019
4383 Clouds 24 1011 87 0 0.21 19 06:36 15.11.2019
4384 Clouds 24 1011 87 0 0.21 19 05:57 15.11.2019
4385 Clouds 24 1011 87 0 0.21 19 05:38 15.11.2019
4386 Clouds 20 1008 99 0 0.41 117 04:55 15.11.2019
4387 Clouds 20 1008 99 0 0.41 117 03:44 15.11.2019
4388 Clouds 20 1008 99 0 0.41 117 02:44 15.11.2019
4389 Clouds 21 1009 98 0 0.72 98 01:58 15.11.2019
4390 Clouds 21 1009 98 0 0.72 98 01:32 15.11.2019
4391 Clouds 20 1009 98 0 0.91 133 00:42 15.11.2019
4392 Clouds 20 1009 98 0 0.91 133 00:24 15.11.2019
4393 Clouds 20 1009 98 0 0.91 133 23:47 14.11.2019
4394 Clouds 20 1009 98 0 0.91 133 23:27 14.11.2019
4395 Clouds 20 1009 98 0 0.91 133 23:27 14.11.2019
4396 Clouds 21 1011 98 0 0.91 101 22:55 14.11.2019
4397 Clouds 21 1011 98 0 0.91 101 22:37 14.11.2019
4398 Clouds 21 1011 98 0 0.91 101 22:19 14.11.2019
4399 Clouds 21 1011 98 0 0.91 101 21:42 14.11.2019
4400 Clouds 21 1011 98 0 0.91 101 21:23 14.11.2019
4401 Clouds 21 1011 98 0 0.91 101 20:56 14.11.2019
4402 Clouds 21 1011 98 0 0.91 101 20:37 14.11.2019
4403 Clouds 22 1010 96 0 0.22 151 20:19 14.11.2019
4404 Clouds 22 1010 98 0 1.29 50 19:57 14.11.2019
4405 Clouds 22 1010 98 0 1.29 50 19:38 14.11.2019
4406 Clouds 22 1010 98 0 1.29 50 19:18 14.11.2019
4407 Clouds 22 1010 98 0 1.29 50 18:43 14.11.2019
4408 Clouds 22 1010 98 0 1.29 50 18:24 14.11.2019
4409 Clouds 22 1010 98 0 1.29 50 17:58 14.11.2019
4410 Clouds 22 1010 98 0 1.29 50 17:38 14.11.2019
4411 Rain 26 1007 86 0 0.77 77 17:20 14.11.2019
4412 Rain 26 1007 86 0 0.77 77 16:58 14.11.2019
4413 Rain 26 1007 86 0 0.77 77 16:58 14.11.2019
4414 Rain 26 1007 86 0 0.77 77 16:58 14.11.2019
4415 Rain 26 1007 86 0 0.77 77 16:38 14.11.2019
4416 Rain 26 1007 86 0 0.77 77 16:19 14.11.2019
4417 Rain 26 1007 86 0 0.77 77 15:58 14.11.2019
4418 Rain 26 1007 86 0 0.77 77 15:39 14.11.2019
4419 Clouds 31 1009 55 10000 0.77 77 15:20 14.11.2019
4420 Clouds 31 1009 55 10000 0.77 77 14:57 14.11.2019
4421 Clouds 31 1009 55 10000 0.77 77 14:39 14.11.2019
4422 Clouds 31 1009 55 10000 1.93 159 14:20 14.11.2019
4423 Rain 28 1008 71 0 1.93 159 13:42 14.11.2019
4424 Clouds 30 1011 66 10000 3.1 310 13:23 14.11.2019
4425 Clouds 30 1011 66 10000 3.1 310 12:57 14.11.2019
4426 Clouds 30 1011 66 10000 3.1 310 12:39 14.11.2019
4427 Clouds 30 1011 66 10000 3.1 310 12:21 14.11.2019
4428 Rain 26 1009 75 0 2.1 171 11:55 14.11.2019
4429 Rain 26 1009 75 0 2.1 171 11:37 14.11.2019
4430 Clouds 27 1014 74 10000 2.1 180 11:18 14.11.2019
4431 Clouds 27 1014 74 10000 2.1 180 10:56 14.11.2019
4432 Rain 26 1013 73 0 2.23 171 10:37 14.11.2019
4433 Clouds 26 1014 83 10000 2.1 300 10:19 14.11.2019
4434 Clouds 26 1014 83 10000 2.1 300 10:19 14.11.2019
4435 Clouds 26 1014 83 10000 2.1 300 09:42 14.11.2019
4436 Rain 26 1013 73 0 2.23 171 09:24 14.11.2019
4437 Rain 26 1013 73 0 2.23 171 08:58 14.11.2019
4438 Rain 26 1013 73 0 2.23 171 08:39 14.11.2019
4439 Rain 22 1013 98 0 1.52 170 08:21 14.11.2019
4440 Rain 22 1013 98 0 1.52 170 07:42 14.11.2019
4441 -273 0 0 0 0 0 07:23 14.11.2019
4442 Rain 22 1013 98 0 1.52 170 06:46 14.11.2019
4443 Rain 22 1013 98 0 1.52 170 06:20 14.11.2019
4444 Rain 22 1013 98 0 1.52 170 05:27 14.11.2019
4445 Rain 21 1010 99 0 1.03 141 04:35 14.11.2019
4446 Rain 21 1010 99 0 1.03 141 02:51 14.11.2019
4447 Rain 21 1010 99 0 1.03 141 02:29 14.11.2019
4448 Rain 21 1009 98 0 0.57 135 01:40 14.11.2019
4449 Clouds 20 1010 95 0 1.01 86 00:56 14.11.2019
4450 Clouds 20 1010 95 0 1.01 86 00:36 14.11.2019
4451 Clouds 20 1010 95 0 1.01 86 00:18 14.11.2019
4452 Clouds 20 1010 95 0 1.01 86 23:38 13.11.2019
4453 Clouds 20 1010 95 0 1.01 86 23:38 13.11.2019
4454 Clouds 20 1011 95 0 0.35 17 23:19 13.11.2019
4455 Clouds 20 1011 95 0 0.35 17 22:42 13.11.2019
4456 Clouds 20 1011 95 0 0.35 17 22:23 13.11.2019
4457 Clouds 20 1011 95 0 0.35 17 21:57 13.11.2019
4458 Clouds 20 1011 95 0 0.35 17 21:39 13.11.2019
4459 Clouds 20 1011 95 0 0.35 17 21:21 13.11.2019
4460 Clouds 20 1011 95 0 0.35 17 20:58 13.11.2019
4461 Clouds 20 1011 95 0 0.35 17 20:38 13.11.2019
4462 Clouds 20 1011 95 0 0.35 17 20:38 13.11.2019
4463 Clouds 21 1009 97 0 0.59 22 20:20 13.11.2019
4464 Clouds 21 1009 97 0 0.59 22 19:59 13.11.2019
4465 Clouds 21 1009 97 0 0.59 22 19:40 13.11.2019
4466 Clouds 21 1009 97 0 0.59 22 19:18 13.11.2019
4467 Clouds 21 1009 97 0 0.59 22 18:55 13.11.2019
4468 Clouds 21 1009 97 0 0.59 22 18:37 13.11.2019
4469 Clouds 21 1009 97 0 0.59 22 18:18 13.11.2019
4470 Clouds 21 1009 97 0 0.59 22 17:56 13.11.2019
4471 Clouds 21 1009 97 0 0.59 22 17:56 13.11.2019
4472 Clouds 21 1009 97 0 0.59 22 17:37 13.11.2019
4473 Clouds 25 1006 79 0 0.6 354 17:19 13.11.2019
4474 Clouds 25 1006 79 0 0.6 354 16:56 13.11.2019
4475 Clouds 25 1006 79 0 0.6 354 16:37 13.11.2019
4476 Clouds 25 1006 79 0 0.6 354 16:37 13.11.2019
4477 Clouds 25 1006 79 0 0.6 354 16:18 13.11.2019
4478 Clouds 25 1006 79 0 0.6 354 15:56 13.11.2019
4479 Clouds 25 1006 79 0 0.6 354 15:56 13.11.2019
4480 Clouds 25 1006 79 0 0.6 354 15:37 13.11.2019
4481 Rain 24 1007 78 0 1.43 5 15:18 13.11.2019
4482 Clouds 25 1006 79 0 0.6 354 14:41 13.11.2019
4483 Clouds 31 1009 66 10000 4.1 260 14:20 13.11.2019
4484 Clouds 31 1009 66 10000 4.1 260 14:20 13.11.2019
4485 Rain 24 1008 94 0 2.58 61 13:38 13.11.2019
4486 Clouds 29 1010 74 10000 4.1 190 13:20 13.11.2019
4487 Clouds 29 1010 74 10000 4.1 190 12:58 13.11.2019
4488 Clouds 29 1010 74 10000 4.1 190 12:40 13.11.2019
4489 Clouds 29 1010 74 10000 4.1 190 12:21 13.11.2019
4490 Clouds 29 1012 79 10000 4.1 180 11:55 13.11.2019
4491 Clouds 29 1012 79 10000 4.1 180 11:36 13.11.2019
4492 Clouds 29 1012 79 10000 4.1 180 11:18 13.11.2019
4493 Clouds 27 1012 83 10000 2.1 190 10:54 13.11.2019
4494 Clouds 27 1012 83 10000 2.1 190 10:36 13.11.2019
4495 Clouds 27 1012 83 10000 2.1 190 10:18 13.11.2019
4496 Clouds 26 1012 83 9000 1.53 78 09:41 13.11.2019
4497 Clouds 26 1012 83 9000 1.53 78 09:20 13.11.2019
4498 Rain 24 1012 96 0 1.53 78 08:41 13.11.2019
4499 Clouds 23 1012 93 0 0.62 93 08:23 13.11.2019
4500 Clouds 23 1012 93 0 0.62 93 07:58 13.11.2019
4501 Clouds 23 1012 93 0 0.62 93 07:39 13.11.2019
4502 Clouds 23 1012 93 0 0.62 93 07:18 13.11.2019
4503 Clouds 23 1012 93 0 0.62 93 06:41 13.11.2019
4504 Clouds 23 1012 93 0 0.62 93 06:18 13.11.2019
4505 Clouds 23 1012 93 0 0.62 93 06:18 13.11.2019
4506 Clouds 23 1012 93 0 0.62 93 05:46 13.11.2019
4507 Clouds 20 1009 99 0 0.47 118 04:56 13.11.2019
4508 Clouds 20 1009 99 0 0.47 118 03:51 13.11.2019
4509 Clouds 20 1009 99 0 0.36 75 01:50 13.11.2019
4510 Clouds 20 1009 99 0 0.58 39 01:25 13.11.2019
4511 Clouds 20 1009 99 0 0.58 39 00:42 13.11.2019
4512 Clouds 20 1009 99 0 0.58 39 23:56 12.11.2019
4513 Clouds 20 1009 99 0 0.58 39 23:37 12.11.2019
4514 Clouds 20 1010 99 0 0.56 54 23:18 12.11.2019
4515 Clouds 20 1010 99 0 0.56 54 22:40 12.11.2019
4516 Clouds 20 1010 99 0 0.56 54 22:18 12.11.2019
4517 Clouds 20 1010 99 0 0.56 54 22:18 12.11.2019
4518 Clouds 20 1010 99 0 0.56 54 21:56 12.11.2019
4519 Clouds 20 1010 99 0 0.56 54 21:36 12.11.2019
4520 Clouds 20 1010 99 0 0.56 54 21:18 12.11.2019
4521 Clouds 20 1010 99 0 0.56 54 20:55 12.11.2019
4522 Clouds 20 1010 99 0 0.56 54 20:36 12.11.2019
4523 Clouds 21 1009 99 0 0.32 249 20:18 12.11.2019
4524 Clouds 21 1009 99 0 0.32 249 20:18 12.11.2019
4525 Clouds 21 1009 99 0 0.32 249 19:54 12.11.2019
4526 Clouds 21 1009 99 0 0.32 249 19:54 12.11.2019
4527 Clouds 21 1009 99 0 0.32 249 19:36 12.11.2019
4528 Clouds 21 1009 99 0 0.32 249 19:18 12.11.2019
4529 Clouds 21 1009 99 0 0.32 249 18:55 12.11.2019
4530 Clouds 21 1009 99 0 0.32 249 18:36 12.11.2019
4531 Clouds 26 1008 83 10000 3.1 160 18:18 12.11.2019
4532 Clouds 26 1008 83 10000 3.1 160 17:55 12.11.2019
4533 Clouds 21 1009 99 0 0.32 249 17:36 12.11.2019
4534 Rain 22 1007 98 0 0.96 326 17:18 12.11.2019
4535 Rain 22 1007 98 0 0.96 326 16:42 12.11.2019
4536 Clouds 29 1008 74 10000 3.1 100 16:24 12.11.2019
4537 Clouds 29 1008 74 10000 3.1 100 15:55 12.11.2019
4538 Clouds 29 1008 74 10000 3.1 100 15:37 12.11.2019
4539 Clouds 29 1008 74 10000 3.1 100 15:18 12.11.2019
4540 Clouds 29 1008 74 10000 2.1 90 14:41 12.11.2019
4541 Clouds 29 1008 74 10000 2.1 90 14:20 12.11.2019
4542 Clouds 30 1009 70 10000 2.1 270 13:58 12.11.2019
4543 Clouds 30 1009 70 10000 2.1 270 13:39 12.11.2019
4544 Clouds 30 1009 70 10000 2.1 270 13:19 12.11.2019
4545 Clouds 29 1011 79 10000 3.1 270 12:58 12.11.2019
4546 Rain 22 1008 98 0 1.05 285 12:39 12.11.2019
4547 Clouds 28 1011 74 10000 3.1 180 12:18 12.11.2019
4548 Clouds 28 1011 74 10000 3.1 180 11:43 12.11.2019
4549 Clouds 28 1011 74 10000 3.1 180 11:23 12.11.2019
4550 Rain 22 1011 98 0 1.23 220 10:58 12.11.2019
4551 Rain 22 1011 98 0 1.23 220 10:39 12.11.2019
4552 Clouds 27 1011 74 10000 3.1 100 10:21 12.11.2019
4553 Clouds 27 1011 74 10000 3.1 100 09:59 12.11.2019
4554 Clouds 27 1011 74 10000 3.1 100 09:38 12.11.2019
4555 Clouds 27 1011 74 10000 3.1 100 09:18 12.11.2019
4556 Rain 22 1011 98 0 1.23 220 08:47 12.11.2019
4557 Rain 22 1011 98 0 1.23 220 08:28 12.11.2019
4558 Rain 22 1011 99 0 1.94 198 07:42 12.11.2019
4559 Rain 22 1011 99 0 1.94 198 07:24 12.11.2019
4560 Rain 22 1011 99 0 1.94 198 06:51 12.11.2019
4561 Rain 22 1011 99 0 1.94 198 06:24 12.11.2019
4562 Rain 22 1011 99 0 1.94 198 05:52 12.11.2019
4563 Rain 22 1008 99 0 1.37 233 04:51 12.11.2019
4564 Rain 22 1008 99 0 1.37 233 04:20 12.11.2019
4565 Rain 22 1007 99 0 1.69 281 01:53 12.11.2019
4566 Rain 22 1008 99 0 1.09 270 01:26 12.11.2019
4567 Rain 22 1008 99 0 1.09 270 00:52 12.11.2019
4568 Rain 22 1008 99 0 1.09 270 00:32 12.11.2019
4569 Rain 22 1008 99 0 1.09 270 23:50 11.11.2019
4570 Rain 22 1008 99 0 1.09 270 23:26 11.11.2019
4571 Rain 22 1009 99 0 1.03 254 22:59 11.11.2019
4572 Rain 22 1009 99 0 1.03 254 22:38 11.11.2019
4573 Rain 22 1009 99 0 1.03 254 22:19 11.11.2019
4574 Rain 22 1009 99 0 1.03 254 21:58 11.11.2019
4575 Rain 22 1009 99 0 1.03 254 21:39 11.11.2019
4576 Rain 22 1009 99 0 1.03 254 21:20 11.11.2019
4577 Rain 22 1009 99 0 1.03 254 21:20 11.11.2019
4578 Rain 22 1009 99 0 1.03 254 20:55 11.11.2019
4579 Rain 22 1009 99 0 1.03 254 20:36 11.11.2019
4580 Rain 23 1006 97 0 1.88 256 20:18 11.11.2019
4581 Rain 23 1006 97 0 1.88 256 19:42 11.11.2019
4582 Rain 23 1006 97 0 1.88 256 19:19 11.11.2019
4583 Rain 23 1006 97 0 1.88 256 18:57 11.11.2019
4584 Rain 23 1006 97 0 1.88 256 18:39 11.11.2019
4585 Rain 23 1006 97 0 1.88 256 18:20 11.11.2019
4586 Rain 23 1006 97 0 1.88 256 17:44 11.11.2019
4587 Clouds 30 1005 70 10000 3.1 210 17:26 11.11.2019
4588 Clouds 30 1005 70 10000 3.1 210 16:55 11.11.2019
4589 Clouds 30 1005 70 10000 3.1 210 16:37 11.11.2019
4590 Clouds 30 1005 70 10000 3.1 210 16:19 11.11.2019
4591 Clouds 32 1014 62 10000 3.1 310 15:41 11.11.2019
4592 Clouds 32 1014 62 10000 3.1 310 15:41 11.11.2019
4593 Clouds 32 1014 62 10000 3.1 310 15:20 11.11.2019
4594 Clouds 31 1015 66 10000 3.1 310 14:54 11.11.2019
4595 Clouds 31 1015 66 10000 3.1 310 14:54 11.11.2019
4596 Rain 24 1003 95 0 2.74 249 14:36 11.11.2019
4597 Clouds 30 1006 66 10000 3.1 310 14:18 11.11.2019
4598 Clouds 30 1006 66 10000 3.1 310 13:39 11.11.2019
4599 Clouds 30 1006 66 10000 3.1 310 13:21 11.11.2019
4600 Clouds 30 1009 70 10000 3.1 310 12:58 11.11.2019
4601 Clouds 30 1009 70 10000 3.1 310 12:58 11.11.2019
4602 Rain 30 1003 74 0 1.49 278 12:40 11.11.2019
4603 Rain 30 1003 74 0 1.49 278 12:22 11.11.2019
4604 Rain 30 1003 74 0 1.49 278 11:57 11.11.2019
4605 Rain 30 1003 74 0 1.49 278 11:38 11.11.2019
4606 Thunderstorm 28 1010 74 8000 3.1 210 11:20 11.11.2019
4607 Thunderstorm 28 1010 74 8000 3.1 210 10:42 11.11.2019
4608 Thunderstorm 28 1010 74 8000 3.1 210 10:18 11.11.2019
4609 Clouds 27 1007 76 0 0.41 168 09:56 11.11.2019
4610 Clouds 25 1011 88 7000 3.1 180 09:37 11.11.2019
4611 Clouds 25 1011 88 7000 3.1 180 09:18 11.11.2019
4612 Clouds 25 1011 88 7000 3.1 180 09:18 11.11.2019
4613 Clouds 27 1007 76 0 0.41 168 08:41 11.11.2019
4614 Rain 24 1009 94 0 0.69 111 08:21 11.11.2019
4615 Rain 24 1009 93 0 0.39 167 07:57 11.11.2019
4616 Rain 24 1009 93 0 0.39 167 07:37 11.11.2019
4617 Rain 24 1009 93 0 0.39 167 07:18 11.11.2019
4618 Rain 24 1009 93 0 0.39 167 06:47 11.11.2019
4619 Rain 24 1009 93 0 0.39 167 06:22 11.11.2019
4620 Rain 24 1009 93 0 0.39 167 05:51 11.11.2019
4621 Rain 21 1007 98 0 0.75 24 04:30 11.11.2019
4622 Rain 21 1007 98 0 0.75 24 03:23 11.11.2019
4623 Rain 21 1007 98 0 0.75 24 02:24 11.11.2019
4624 Rain 21 1006 96 0 1.35 18 01:56 11.11.2019
4625 Rain 21 1006 96 0 1.35 18 01:34 11.11.2019
4626 Clouds 23 1006 81 0 1.16 17 00:49 11.11.2019
4627 Clouds 23 1006 81 0 1.16 17 00:49 11.11.2019
4628 Clouds 23 1006 81 0 1.16 17 00:21 11.11.2019
4629 Clouds 23 1006 81 0 1.16 17 23:40 10.11.2019
4630 Clouds 23 1006 81 0 1.16 17 23:40 10.11.2019
4631 Clouds 23 1006 81 0 1.16 17 23:40 10.11.2019
4632 Clouds 24 1007 73 0 0.69 32 23:20 10.11.2019
4633 Clouds 24 1007 73 0 0.69 32 23:20 10.11.2019
4634 Clouds 24 1007 73 0 0.69 32 22:58 10.11.2019
4635 Clouds 24 1007 73 0 0.69 32 22:38 10.11.2019
4636 Clouds 24 1007 73 0 0.69 32 22:20 10.11.2019
4637 Clouds 24 1007 73 0 0.69 32 21:58 10.11.2019
4638 Clouds 24 1007 73 0 0.69 32 21:58 10.11.2019
4639 Clouds 24 1007 73 0 0.69 32 21:58 10.11.2019
4640 Clouds 24 1007 73 0 0.69 32 21:40 10.11.2019
4641 Clouds 24 1007 73 0 0.69 32 21:21 10.11.2019
4642 Clouds 24 1007 73 0 0.69 32 20:58 10.11.2019
4643 Clouds 24 1007 73 0 0.69 32 20:38 10.11.2019
4644 Clouds 27 1008 78 7000 3.1 30 20:20 10.11.2019
4645 Clouds 27 1008 78 7000 3.1 30 20:20 10.11.2019
4646 Clouds 27 1008 78 7000 3.1 30 19:55 10.11.2019
4647 Clouds 27 1008 78 7000 3.1 30 19:37 10.11.2019
4648 Clouds 27 1008 78 7000 3.1 30 19:18 10.11.2019
4649 Clouds 26 1006 74 0 1.09 55 18:54 10.11.2019
4650 Clouds 26 1006 74 0 1.09 55 18:36 10.11.2019
4651 Clouds 30 1006 66 8000 3.1 30 18:18 10.11.2019
4652 Clouds 30 1006 66 8000 3.1 30 17:55 10.11.2019
4653 Clouds 30 1006 66 8000 3.1 30 17:55 10.11.2019
4654 Clouds 30 1006 66 8000 3.1 30 17:37 10.11.2019
4655 Clouds 30 1006 66 8000 3.1 30 17:18 10.11.2019
4656 Clouds 33 1006 55 10000 2.1 360 16:43 10.11.2019
4657 Clouds 33 1006 55 10000 2.1 360 16:25 10.11.2019
4658 Clouds 33 1006 52 10000 2.1 50 15:56 10.11.2019
4659 Clouds 33 1006 52 10000 2.1 50 15:38 10.11.2019
4660 Clouds 33 1006 52 10000 2.1 50 15:19 10.11.2019
4661 Clouds 32 1006 55 10000 2.1 180 14:58 10.11.2019
4662 Clouds 32 1006 55 10000 2.1 180 14:38 10.11.2019
4663 Clouds 32 1006 55 10000 2.1 180 14:20 10.11.2019
4664 Clouds 32 1007 55 10000 3.1 120 13:55 10.11.2019
4665 Clouds 32 1007 55 10000 3.1 120 13:36 10.11.2019
4666 Clouds 32 1007 55 10000 3.1 120 13:18 10.11.2019
4667 Clouds 35 1004 40 0 1.38 44 12:41 10.11.2019
4668 Clouds 32 1011 55 10000 3.1 330 12:19 10.11.2019
4669 Clouds 32 1011 55 10000 3.1 330 11:55 10.11.2019
4670 Clouds 32 1011 55 10000 3.1 330 11:55 10.11.2019
4671 Clouds 32 1011 55 10000 3.1 330 11:55 10.11.2019
4672 Clouds 32 1011 55 10000 3.1 330 11:55 10.11.2019
4673 Clouds 32 1011 55 10000 3.1 330 11:37 10.11.2019
4674 Clouds 32 1011 55 10000 3.1 330 11:19 10.11.2019
4675 Clouds 31 1011 58 9000 3.1 310 10:42 10.11.2019
4676 Clouds 31 1011 58 9000 3.1 310 10:21 10.11.2019
4677 Clouds 28 1011 74 9000 3.1 330 09:57 10.11.2019
4678 Clouds 28 1011 74 9000 3.1 330 09:39 10.11.2019
4679 Clouds 28 1011 74 9000 3.1 330 09:19 10.11.2019
4680 Clouds 32 1009 52 0 1.18 44 08:39 10.11.2019
4681 Clouds 25 1018 88 7000 3.1 330 08:20 10.11.2019
4682 Clouds 25 1018 88 7000 3.1 330 07:46 10.11.2019
4683 Clouds 25 1011 81 0 0.88 0 07:26 10.11.2019
4684 Clouds 25 1011 81 0 0.88 0 06:57 10.11.2019
4685 Clouds 25 1011 81 0 0.88 0 05:55 10.11.2019
4686 Clouds 21 1008 96 0 0.36 343 03:33 10.11.2019
4687 Clouds 21 1008 96 0 0.36 343 02:27 10.11.2019
4688 Clouds 22 1008 92 0 0.31 304 01:36 10.11.2019
4689 Clouds 22 1008 92 0 0.31 304 01:18 10.11.2019
4690 Clouds 21 1008 93 0 0.22 246 00:23 10.11.2019
4691 Clouds 21 1008 93 0 0.22 246 00:23 10.11.2019
4692 Clouds 21 1008 93 0 0.22 246 23:40 09.11.2019
4693 Clouds 22 1009 88 0 0.34 92 23:19 09.11.2019
4694 Clouds 22 1009 88 0 0.34 92 22:42 09.11.2019
4695 Clouds 22 1009 88 0 0.34 92 22:22 09.11.2019
4696 Clouds 22 1009 88 0 0.34 92 21:58 09.11.2019
4697 Clouds 22 1009 88 0 0.34 92 21:39 09.11.2019
4698 Clouds 22 1009 88 0 0.34 92 21:20 09.11.2019
4699 Clouds 22 1009 88 0 0.34 92 20:56 09.11.2019
4700 Clouds 22 1009 88 0 0.34 92 20:37 09.11.2019
4701 Clouds 24 1009 85 0 0.62 43 20:18 09.11.2019
4702 Clouds 24 1009 85 0 0.62 43 19:41 09.11.2019
4703 Clouds 24 1009 85 0 0.62 43 19:22 09.11.2019
4704 Clouds 24 1009 85 0 0.62 43 18:58 09.11.2019
4705 Clouds 24 1009 85 0 0.62 43 18:38 09.11.2019
4706 Clouds 29 1009 74 10000 0.62 43 18:18 09.11.2019
4707 Clouds 29 1009 74 10000 0.62 43 17:43 09.11.2019
4708 Clouds 29 1009 74 10000 1.39 359 17:23 09.11.2019
4709 Clouds 31 1009 62 10000 2.1 300 16:57 09.11.2019
4710 Clouds 30 1006 59 0 1.39 359 16:39 09.11.2019
4711 Clouds 31 1009 62 10000 2.1 340 16:19 09.11.2019
4712 Clouds 31 1009 62 10000 2.1 340 15:42 09.11.2019
4713 Clouds 31 1009 62 10000 3.1 320 15:24 09.11.2019
4714 Clouds 31 1009 62 10000 3.1 320 15:24 09.11.2019
4715 Clouds 31 1009 62 10000 3.1 320 14:47 09.11.2019
4716 Clouds 31 1011 62 10000 4.1 360 14:24 09.11.2019
4717 Clouds 31 1011 62 10000 4.1 360 14:24 09.11.2019
4718 Clouds 31 1011 62 10000 4.1 360 13:58 09.11.2019
4719 Clouds 33 1007 42 0 1.41 26 13:40 09.11.2019
4720 Clouds 30 1012 62 10000 4.1 340 13:21 09.11.2019
4721 Clouds 30 1012 62 10000 4.1 340 12:59 09.11.2019
4722 Clouds 30 1012 62 10000 4.1 340 12:41 09.11.2019
4723 Clouds 30 1013 62 9000 4.1 20 12:22 09.11.2019
4724 Clouds 30 1013 62 9000 4.1 20 11:55 09.11.2019
4725 Clouds 32 1007 48 0 1.76 9 11:37 09.11.2019
4726 Clouds 29 1014 74 10000 1.5 0 11:18 09.11.2019
4727 Clouds 29 1014 74 10000 1.5 0 10:40 09.11.2019
4728 Clouds 29 1014 74 10000 1.5 0 10:19 09.11.2019
4729 Clouds 26 1014 78 10000 1.5 0 09:48 09.11.2019
4730 Clouds 24 1014 88 8000 1.05 333 09:28 09.11.2019
4731 Clouds 24 1014 88 8000 1.05 333 08:59 09.11.2019
4732 Clouds 24 1014 88 8000 1.05 333 08:40 09.11.2019
4733 Clouds 24 1014 88 8000 0.74 273 08:21 09.11.2019
4734 Clouds 23 1013 88 6000 2.1 40 07:46 09.11.2019
4735 Rain 22 1013 98 0 0.74 273 07:23 09.11.2019
4736 Rain 22 1013 98 0 0.74 273 06:49 09.11.2019
4737 Rain 22 1013 98 0 0.74 273 06:31 09.11.2019
4738 Rain 22 1013 98 0 0.74 273 05:45 09.11.2019
4739 Rain 21 1010 99 0 0.79 119 04:58 09.11.2019
4740 Rain 21 1010 99 0 0.79 119 03:52 09.11.2019
4741 Rain 21 1010 99 0 0.79 119 02:43 09.11.2019
4742 Rain 22 1009 97 0 0.18 2 01:55 09.11.2019
4743 Rain 21 1009 97 0 0.51 70 00:53 09.11.2019
4744 Rain 21 1009 97 0 0.51 70 00:31 09.11.2019
4745 Rain 21 1009 97 0 0.51 70 00:31 09.11.2019
4746 Rain 21 1009 97 0 0.51 70 23:58 08.11.2019
4747 Rain 21 1009 97 0 0.51 70 23:39 08.11.2019
4748 Rain 22 1010 96 0 0.39 105 23:19 08.11.2019
4749 Rain 22 1010 96 0 0.39 105 23:19 08.11.2019
4750 Rain 22 1010 96 0 0.39 105 22:48 08.11.2019
4751 Rain 22 1010 96 0 0.39 105 22:22 08.11.2019
4752 Rain 22 1010 96 0 0.39 105 21:56 08.11.2019
4753 Rain 22 1010 96 0 0.39 105 21:38 08.11.2019
4754 Rain 22 1010 96 0 0.39 105 21:18 08.11.2019
4755 Rain 22 1010 96 0 0.39 105 20:42 08.11.2019
4756 Rain 23 1009 94 0 0.8 178 20:22 08.11.2019
4757 Rain 23 1009 94 0 0.8 178 19:59 08.11.2019
4758 Rain 23 1009 94 0 0.8 178 19:39 08.11.2019
4759 Rain 23 1009 94 0 0.8 178 19:18 08.11.2019
4760 Rain 23 1009 94 0 0.8 178 19:18 08.11.2019
4761 Rain 23 1009 94 0 0.8 178 18:56 08.11.2019
4762 Rain 23 1009 94 0 0.8 178 18:56 08.11.2019
4763 Rain 23 1009 94 0 0.8 178 18:38 08.11.2019
4764 Rain 23 1009 94 0 0.8 178 18:38 08.11.2019
4765 Rain 23 1009 94 0 0.8 178 18:19 08.11.2019
4766 Rain 23 1009 94 0 0.8 178 17:55 08.11.2019
4767 Rain 23 1009 94 0 0.8 178 17:37 08.11.2019
4768 Rain 28 1006 81 0 1.05 231 17:19 08.11.2019
4769 Rain 28 1006 81 0 1.05 231 16:58 08.11.2019
4770 Rain 28 1006 81 0 1.05 231 16:39 08.11.2019
4771 Rain 28 1006 81 0 1.05 231 16:19 08.11.2019
4772 Rain 28 1006 81 0 1.05 231 16:19 08.11.2019
4773 Rain 28 1006 81 0 1.05 231 15:57 08.11.2019
4774 Rain 28 1006 81 0 1.05 231 15:38 08.11.2019
4775 Rain 28 1006 81 0 1.05 231 15:20 08.11.2019
4776 Rain 28 1006 81 0 1.05 231 14:55 08.11.2019
4777 Rain 28 1006 81 0 1.05 231 14:36 08.11.2019
4778 Rain 31 1007 58 0 1.7 162 14:18 08.11.2019
4779 Rain 31 1007 58 0 1.7 162 13:57 08.11.2019
4780 Rain 31 1007 58 0 1.7 162 13:38 08.11.2019
4781 Rain 28 1007 67 0 1.41 144 13:19 08.11.2019
4782 Rain 28 1007 67 0 1.41 144 12:42 08.11.2019
4783 Rain 28 1007 67 0 1.41 144 12:24 08.11.2019
4784 Rain 28 1007 67 0 1.41 144 11:57 08.11.2019
4785 Rain 28 1007 67 0 1.41 144 11:38 08.11.2019
4786 Rain 28 1007 67 0 1.41 144 11:38 08.11.2019
4787 Clouds 31 1012 55 0 0.95 21 11:19 08.11.2019
4788 Clouds 31 1012 55 0 0.95 21 10:56 08.11.2019
4789 Clouds 31 1012 55 0 0.95 21 10:38 08.11.2019
4790 Clouds 31 1012 55 0 0.95 21 10:20 08.11.2019
4791 Clouds 31 1012 55 0 0.95 21 09:41 08.11.2019
4792 Clouds 31 1012 55 0 0.95 21 09:20 08.11.2019
4793 Clouds 31 1012 55 0 0.95 21 08:58 08.11.2019
4794 Clouds 31 1012 55 0 0.95 21 08:37 08.11.2019
4795 Clouds 24 1013 90 0 0.81 352 08:18 08.11.2019
4796 Clouds 24 1013 89 0 0.69 8 07:40 08.11.2019
4797 Clouds 24 1013 89 0 0.69 8 07:22 08.11.2019
4798 Clouds 24 1013 89 0 0.69 8 06:41 08.11.2019
4799 Clouds 24 1013 89 0 0.69 8 06:21 08.11.2019
4800 Clouds 24 1013 89 0 0.69 8 05:53 08.11.2019
4801 Clouds 21 1010 98 0 0.5 358 05:19 08.11.2019
4802 Clouds 21 1010 98 0 0.5 358 03:44 08.11.2019
4803 Clouds 21 1010 98 0 0.5 358 03:21 08.11.2019
4804 Clouds 21 1010 98 0 0.5 358 02:42 08.11.2019
4805 Clouds 21 1010 98 0 0.79 54 01:47 08.11.2019
4806 Clouds 21 1009 98 0 0.69 51 01:22 08.11.2019
4807 Clouds 21 1009 98 0 0.69 51 00:24 08.11.2019
4808 Clouds 21 1009 98 0 0.69 51 00:24 08.11.2019
4809 Clouds 21 1009 98 0 0.69 51 23:58 07.11.2019
4810 Clouds 21 1009 98 0 0.69 51 23:40 07.11.2019
4811 Rain 22 1011 97 0 0.87 39 23:22 07.11.2019
4812 Rain 22 1011 97 0 0.87 39 22:42 07.11.2019
4813 Rain 22 1011 97 0 0.87 39 22:42 07.11.2019
4814 Rain 22 1011 97 0 0.87 39 22:21 07.11.2019
4815 Rain 22 1011 97 0 0.87 39 21:56 07.11.2019
4816 Rain 22 1011 97 0 0.87 39 21:37 07.11.2019
4817 Rain 22 1011 97 0 0.87 39 21:19 07.11.2019
4818 Rain 22 1011 97 0 0.87 39 20:57 07.11.2019
4819 Rain 22 1011 97 0 0.87 39 20:39 07.11.2019
4820 Rain 23 1010 96 0 0.61 356 20:20 07.11.2019
4821 Rain 23 1010 96 0 0.61 356 19:54 07.11.2019
4822 Rain 23 1010 96 0 0.61 356 19:36 07.11.2019
4823 Rain 23 1010 96 0 0.61 356 19:18 07.11.2019
4824 Rain 23 1010 96 0 0.61 356 18:55 07.11.2019
4825 Rain 23 1010 96 0 0.61 356 18:36 07.11.2019
4826 Rain 23 1010 96 0 0.61 356 18:18 07.11.2019
4827 Rain 23 1010 96 0 0.61 356 17:40 07.11.2019
4828 Rain 23 1010 96 0 0.61 356 17:40 07.11.2019
4829 Rain 27 1006 88 0 0.73 7 17:21 07.11.2019
4830 Rain 27 1006 88 0 0.73 7 16:58 07.11.2019
4831 -273 0 0 0 0 0 16:39 07.11.2019
4832 Rain 27 1006 88 0 0.73 7 16:20 07.11.2019
4833 Rain 27 1006 88 0 0.73 7 15:57 07.11.2019
4834 Rain 27 1006 88 0 0.73 7 15:37 07.11.2019
4835 Rain 27 1006 88 0 0.73 7 15:18 07.11.2019
4836 Rain 27 1006 88 0 0.73 7 14:44 07.11.2019
4837 Clouds 32 1009 55 10000 0.73 7 14:26 07.11.2019
4838 Clouds 32 1009 55 10000 1.63 322 13:57 07.11.2019
4839 Clouds 32 1009 55 10000 1.63 322 13:38 07.11.2019
4840 Clouds 32 1011 59 10000 3.1 330 13:20 07.11.2019
4841 Clouds 32 1011 59 10000 3.1 330 12:58 07.11.2019
4842 Clouds 32 1011 59 10000 3.1 330 12:39 07.11.2019
4843 Clouds 32 1012 55 10000 2.1 330 12:20 07.11.2019
4844 Clouds 32 1012 55 10000 2.1 330 12:20 07.11.2019
4845 Clouds 32 1012 55 10000 2.1 330 11:44 07.11.2019
4846 Clouds 32 1012 55 10000 2.1 330 11:44 07.11.2019
4847 Clouds 31 1013 62 10000 2.1 290 11:24 07.11.2019
4848 Clouds 31 1013 62 10000 2.1 290 11:23 07.11.2019
4849 Clouds 31 1013 62 10000 2.1 290 10:59 07.11.2019
4850 Clouds 31 1013 62 10000 2.1 290 10:40 07.11.2019
4851 Clouds 30 1013 66 10000 1.41 359 10:18 07.11.2019
4852 -273 0 0 0 0 0 09:42 07.11.2019
4853 Clouds 30 1013 66 10000 1.41 359 09:42 07.11.2019
4854 Clouds 28 1013 69 10000 1.41 359 09:21 07.11.2019
4855 Clouds 28 1013 69 10000 1.41 359 09:21 07.11.2019
4856 Clouds 28 1013 69 10000 1.41 359 08:48 07.11.2019
4857 Clouds 28 1013 69 10000 1.41 359 08:47 07.11.2019
4858 Clouds 28 1013 69 10000 1.41 359 08:46 07.11.2019
4859 Rain 27 1010 89 0 0.78 340 08:25 07.11.2019
4860 Clouds 31 1011 55 0 1.41 359 08:25 07.11.2019
4861 Rain 24 1012 91 0 0.3 92 07:59 07.11.2019
4862 Rain 24 1012 91 0 0.3 92 07:41 07.11.2019
4863 Rain 24 1012 91 0 0.3 92 07:21 07.11.2019
4864 Rain 24 1012 91 0 0.3 92 06:48 07.11.2019
4865 Rain 24 1012 91 0 0.3 92 06:28 07.11.2019
4866 Rain 24 1012 91 0 0.3 92 05:57 07.11.2019
4867 Rain 24 1012 91 0 0.3 92 05:39 07.11.2019
4868 Rain 21 1010 98 0 0.43 250 05:20 07.11.2019
4869 Rain 21 1010 98 0 0.43 250 04:42 07.11.2019
4870 Rain 21 1010 98 0 0.43 250 02:59 07.11.2019
4871 Rain 21 1010 98 0 0.43 250 02:59 07.11.2019
4872 Rain 21 1010 98 0 0.43 250 02:58 07.11.2019
4873 Rain 22 1010 95 0 0.65 267 00:47 07.11.2019
4874 Rain 22 1010 95 0 0.65 267 00:21 07.11.2019
4875 Rain 22 1010 95 0 0.65 267 23:47 06.11.2019
4876 Rain 22 1010 95 0 0.65 267 23:47 06.11.2019
4877 Clouds 22 1010 93 0 0.65 241 23:22 06.11.2019
4878 Clouds 22 1010 93 0 0.65 241 22:57 06.11.2019
4879 Clouds 22 1010 93 0 0.65 241 22:38 06.11.2019
4880 Clouds 22 1010 93 0 0.65 241 22:18 06.11.2019
4881 Clouds 22 1010 93 0 0.65 241 21:42 06.11.2019
4882 Clouds 22 1010 93 0 0.65 241 21:22 06.11.2019
4883 Clouds 22 1010 93 0 0.65 241 20:59 06.11.2019
4884 Clouds 22 1010 93 0 0.65 241 20:41 06.11.2019
4885 Rain 25 1011 83 7000 2.1 180 20:22 06.11.2019
4886 Rain 25 1011 83 7000 2.1 180 19:59 06.11.2019
4887 Rain 25 1011 83 7000 2.1 180 19:40 06.11.2019
4888 Rain 23 1009 91 0 1.17 275 19:21 06.11.2019
4889 Rain 23 1009 91 0 1.17 275 19:21 06.11.2019
4890 Rain 23 1009 91 0 1.17 275 18:58 06.11.2019
4891 Rain 23 1009 91 0 1.17 275 18:39 06.11.2019
4892 Clouds 27 1008 74 7000 2.1 180 18:19 06.11.2019
4893 Clouds 27 1008 74 7000 2.1 180 17:58 06.11.2019
4894 Rain 23 1009 91 0 1.17 275 17:40 06.11.2019
4895 Clouds 29 1008 66 10000 2.1 180 17:21 06.11.2019
4896 Clouds 29 1008 66 10000 2.1 180 16:55 06.11.2019
4897 Clouds 29 1008 66 10000 2.1 180 16:37 06.11.2019
4898 Clouds 29 1008 66 10000 2.1 180 16:18 06.11.2019
4899 Clouds 29 1006 68 0 1.38 229 15:55 06.11.2019
4900 Clouds 29 1006 68 0 1.38 229 15:36 06.11.2019
4901 Clouds 30 1009 62 10000 1.38 229 15:18 06.11.2019
4902 Clouds 29 1006 68 0 1.38 229 14:55 06.11.2019
4903 Clouds 29 1006 68 0 1.38 229 14:37 06.11.2019
4904 Clouds 30 1010 66 10000 2.1 200 14:19 06.11.2019
4905 Clouds 30 1010 66 10000 2.1 200 14:19 06.11.2019
4906 Rain 32 1007 51 0 1.23 294 13:40 06.11.2019
4907 Clouds 29 1013 66 10000 4.1 180 13:22 06.11.2019
4908 Clouds 29 1013 66 10000 4.1 180 12:58 06.11.2019
4909 Rain 32 1006 52 0 0.76 312 12:39 06.11.2019
4910 Rain 32 1006 52 0 0.76 312 12:39 06.11.2019
4911 Clouds 29 1013 66 10000 4.1 180 12:21 06.11.2019
4912 Clouds 29 1013 66 10000 4.1 180 11:58 06.11.2019
4913 Rain 32 1006 52 0 0.76 312 11:38 06.11.2019
4914 Clouds 32 1010 52 0 1.16 302 11:18 06.11.2019
4915 Clouds 32 1010 52 0 1.16 302 10:56 06.11.2019
4916 Clouds 32 1010 52 0 1.16 302 10:38 06.11.2019
4917 Clouds 25 1014 83 10000 2.1 180 10:19 06.11.2019
4918 Clouds 25 1014 83 10000 2.1 180 09:44 06.11.2019
4919 Clouds 32 1010 52 0 1.16 302 09:24 06.11.2019
4920 Clouds 32 1010 52 0 1.16 302 08:59 06.11.2019
4921 Clouds 32 1010 52 0 1.16 302 08:39 06.11.2019
4922 Rain 23 1013 94 0 0.14 345 08:20 06.11.2019
4923 Rain 23 1013 94 0 0.14 345 07:59 06.11.2019
4924 Rain 23 1013 94 0 0.14 345 07:40 06.11.2019
4925 Rain 23 1013 94 0 0.14 345 07:20 06.11.2019
4926 Rain 23 1013 94 0 0.14 345 06:45 06.11.2019
4927 Rain 23 1013 94 0 0.14 345 06:24 06.11.2019
4928 Rain 20 1010 98 0 0.26 207 04:52 06.11.2019
4929 Rain 21 1009 97 0 0.48 22 02:22 06.11.2019
4930 Rain 21 1009 97 0 0.48 22 01:37 06.11.2019
4931 Rain 21 1009 97 0 0.47 32 00:39 06.11.2019
4932 Rain 21 1009 97 0 0.47 32 23:58 05.11.2019
4933 Rain 21 1009 97 0 0.47 32 23:38 05.11.2019
4934 Rain 21 1009 97 0 0.47 32 23:38 05.11.2019
4935 Clear 22 1010 89 0 0.66 348 23:20 05.11.2019
4936 Clear 22 1010 89 0 0.66 348 22:43 05.11.2019
4937 Clear 22 1010 89 0 0.66 348 22:20 05.11.2019
4938 Clear 22 1010 89 0 0.66 348 21:59 05.11.2019
4939 Clear 22 1010 89 0 0.66 348 21:59 05.11.2019
4940 Clear 22 1010 89 0 0.66 348 21:41 05.11.2019
4941 Clear 22 1010 89 0 0.66 348 21:20 05.11.2019
4942 Clear 22 1010 89 0 0.66 348 20:57 05.11.2019
4943 Clear 22 1010 89 0 0.66 348 20:38 05.11.2019
4944 Rain 23 1009 93 0 1.05 326 20:20 05.11.2019
4945 Rain 23 1009 93 0 1.05 326 19:56 05.11.2019
4946 Rain 23 1009 93 0 1.05 326 19:38 05.11.2019
4947 Rain 23 1009 93 0 1.05 326 19:19 05.11.2019
4948 Rain 23 1009 93 0 1.05 326 18:56 05.11.2019
4949 Rain 23 1009 93 0 1.05 326 18:38 05.11.2019
4950 Clouds 26 1009 83 8000 1.5 0 18:19 05.11.2019
4951 Clouds 26 1009 83 8000 1.5 0 17:56 05.11.2019
4952 Clouds 26 1009 83 8000 1.5 0 17:37 05.11.2019
4953 Clouds 26 1009 83 8000 1.5 0 17:18 05.11.2019
4954 Clouds 30 1007 59 0 1.31 277 16:42 05.11.2019
4955 Clouds 27 1009 78 10000 2.1 160 16:22 05.11.2019
4956 Clouds 27 1009 78 10000 2.1 160 15:59 05.11.2019
4957 Clouds 27 1009 78 10000 2.1 160 15:37 05.11.2019
4958 Clouds 27 1009 78 10000 2.1 160 15:18 05.11.2019
4959 Clouds 28 1010 78 10000 4.1 220 14:55 05.11.2019
4960 Clouds 28 1010 78 10000 4.1 220 14:37 05.11.2019
4961 Clouds 28 1010 78 10000 4.1 220 14:19 05.11.2019
4962 Clouds 29 1010 66 10000 2.1 270 13:43 05.11.2019
4963 Clouds 25 1010 88 10000 2.1 340 13:24 05.11.2019
4964 Clouds 25 1010 88 10000 2.1 340 12:43 05.11.2019
4965 Clouds 23 1013 88 8000 2.1 360 12:24 05.11.2019
4966 Clouds 23 1013 88 8000 2.1 360 11:59 05.11.2019
4967 Rain 33 1008 44 0 1.28 302 11:40 05.11.2019
4968 Rain 27 1011 90 0 1.51 277 11:21 05.11.2019
4969 Rain 27 1011 90 0 1.51 277 10:59 05.11.2019
4970 Rain 27 1011 90 0 1.51 277 10:41 05.11.2019
4971 Thunderstorm 22 1015 100 2000 3.1 280 10:22 05.11.2019
4972 Thunderstorm 22 1015 100 2000 3.1 280 09:56 05.11.2019
4973 Rain 27 1011 90 0 1.51 277 09:37 05.11.2019
4974 Thunderstorm 25 1014 88 5000 2.1 140 09:18 05.11.2019
4975 Rain 27 1011 90 0 1.51 277 08:40 05.11.2019
4976 Mist 23 1014 94 4000 2.1 180 08:20 05.11.2019
4977 Mist 23 1014 94 4000 2.1 180 07:58 05.11.2019
4978 Mist 23 1014 94 4000 2.1 180 07:58 05.11.2019
4979 Clouds 23 1013 92 0 0.44 237 07:40 05.11.2019
4980 Clouds 23 1013 92 0 0.44 237 07:40 05.11.2019
4981 Clouds 23 1013 92 0 0.44 237 07:22 05.11.2019
4982 Clouds 23 1013 92 0 0.44 237 06:50 05.11.2019
4983 Clouds 23 1013 92 0 0.44 237 05:51 05.11.2019
4984 Clouds 23 1013 92 0 0.44 237 05:24 05.11.2019
4985 Rain 20 1011 99 0 0.37 351 04:38 05.11.2019
4986 Rain 20 1011 99 0 0.37 351 03:56 05.11.2019
4987 Rain 20 1011 99 0 0.37 351 02:51 05.11.2019
4988 Rain 20 1011 99 0 0.37 351 02:29 05.11.2019
4989 Clouds 21 1010 98 0 0.87 297 01:25 05.11.2019
4990 Rain 20 1010 98 0 0.65 300 00:38 05.11.2019
4991 Rain 20 1010 98 0 0.65 300 00:38 05.11.2019
4992 Rain 20 1010 98 0 0.65 300 23:57 04.11.2019
4993 Rain 20 1010 98 0 0.65 300 23:37 04.11.2019
4994 Rain 21 1011 95 0 0.87 266 23:18 04.11.2019
4995 Rain 21 1011 95 0 0.87 266 23:18 04.11.2019
4996 Rain 21 1011 95 0 0.87 266 22:42 04.11.2019
4997 Rain 21 1011 95 0 0.87 266 22:23 04.11.2019
4998 Rain 21 1011 95 0 0.87 266 21:56 04.11.2019
4999 Rain 21 1011 95 0 0.87 266 21:56 04.11.2019
5000 Rain 21 1011 95 0 0.87 266 21:38 04.11.2019
5001 Rain 21 1011 95 0 0.87 266 21:19 04.11.2019
5002 Rain 21 1011 95 0 0.87 266 20:59 04.11.2019
5003 Rain 21 1011 95 0 0.87 266 20:40 04.11.2019
5004 Clouds 23 1009 87 0 0.76 240 20:21 04.11.2019
5005 Clouds 23 1009 87 0 0.76 240 20:21 04.11.2019
5006 Clouds 23 1009 87 0 0.76 240 19:59 04.11.2019
5007 Clouds 23 1009 87 0 0.76 240 19:41 04.11.2019
5008 Clouds 23 1009 87 0 0.76 240 19:21 04.11.2019
5009 Clouds 23 1009 87 0 0.76 240 18:57 04.11.2019
5010 Clouds 23 1009 87 0 0.76 240 18:39 04.11.2019
5011 Clouds 23 1009 87 0 0.76 240 18:19 04.11.2019
5012 Clouds 23 1009 87 0 0.76 240 17:40 04.11.2019
5013 Clouds 29 1008 66 0 0.65 346 17:21 04.11.2019
5014 Clouds 29 1008 66 0 0.65 346 16:59 04.11.2019
5015 Clouds 29 1008 66 0 0.65 346 16:40 04.11.2019
5016 Clouds 29 1008 66 0 0.65 346 16:22 04.11.2019
5017 Clouds 29 1008 66 0 0.65 346 15:56 04.11.2019
5018 Clouds 29 1008 66 0 0.65 346 15:38 04.11.2019
5019 Clouds 29 1010 58 10000 2.1 90 15:19 04.11.2019
5020 Clouds 29 1010 58 10000 2.1 90 14:56 04.11.2019
5021 Clouds 29 1008 66 0 0.65 346 14:37 04.11.2019
5022 Clouds 28 1011 74 10000 2.1 320 14:18 04.11.2019
5023 Clouds 28 1011 74 10000 2.1 320 13:54 04.11.2019
5024 Clouds 28 1011 74 10000 2.1 320 13:36 04.11.2019
5025 Clouds 28 1011 74 10000 2.1 320 13:18 04.11.2019
5026 Clouds 31 1008 52 0 1.65 8 12:41 04.11.2019
5027 Clouds 27 1013 78 10000 3.1 300 12:23 04.11.2019
5028 Clouds 27 1013 78 10000 3.1 300 11:57 04.11.2019
5029 Clouds 27 1013 78 10000 3.1 300 11:38 04.11.2019
5030 Clouds 27 1013 78 10000 3.1 300 11:20 04.11.2019
5031 Rain 26 1012 81 0 0.64 315 10:45 04.11.2019
5032 Clouds 21 1015 100 7000 3.1 280 10:26 04.11.2019
5033 Clouds 21 1015 100 7000 3.1 280 09:54 04.11.2019
5034 Rain 26 1012 81 0 0.64 315 09:36 04.11.2019
5035 Thunderstorm 20 1015 100 4000 3.1 260 09:18 04.11.2019
5036 Thunderstorm 20 1015 100 4000 3.1 260 08:41 04.11.2019
5037 Thunderstorm 20 1015 100 4000 3.1 260 08:21 04.11.2019
5038 Thunderstorm 20 1015 100 4000 3.1 260 08:21 04.11.2019
5039 Rain 21 1013 99 0 0.75 298 07:45 04.11.2019
5040 Rain 21 1013 99 0 0.75 298 07:25 04.11.2019
5041 Rain 21 1013 99 0 0.75 298 06:59 04.11.2019
5042 Rain 21 1013 99 0 0.75 298 06:36 04.11.2019
5043 Rain 21 1013 99 0 0.75 298 05:59 04.11.2019
5044 Clouds 20 1011 99 0 0.62 104 04:50 04.11.2019
5045 Clouds 20 1011 99 0 0.62 104 04:25 04.11.2019
5046 Clouds 20 1011 99 0 0.62 104 02:59 04.11.2019
5047 Rain 20 1010 97 0 0.61 343 01:22 04.11.2019
5048 Rain 20 1011 93 0 1.06 23 00:51 04.11.2019
5049 Rain 20 1011 93 0 1.06 23 00:21 04.11.2019
5050 Rain 20 1011 93 0 1.06 23 23:58 03.11.2019
5051 Rain 20 1011 93 0 1.06 23 23:36 03.11.2019
5052 Rain 21 1011 91 0 0.61 206 23:18 03.11.2019
5053 Rain 21 1011 91 0 0.61 206 22:55 03.11.2019
5054 Rain 21 1011 91 0 0.61 206 22:37 03.11.2019
5055 Rain 21 1011 91 0 0.61 206 22:18 03.11.2019
5056 Rain 21 1011 91 0 0.61 206 21:42 03.11.2019
5057 Rain 21 1011 91 0 0.61 206 21:21 03.11.2019
5058 Rain 21 1011 91 0 0.61 206 20:57 03.11.2019
5059 Rain 21 1011 91 0 0.61 206 20:37 03.11.2019
5060 Clouds 22 1010 89 0 0.6 203 20:19 03.11.2019
5061 Clouds 22 1010 89 0 0.6 203 19:57 03.11.2019
5062 Clouds 22 1010 89 0 0.6 203 19:38 03.11.2019
5063 Clouds 22 1010 89 0 0.6 203 19:20 03.11.2019
5064 Clouds 22 1010 89 0 0.6 203 18:39 03.11.2019
5065 Clouds 22 1010 89 0 0.6 203 18:19 03.11.2019
5066 Clouds 22 1010 89 0 0.6 203 17:59 03.11.2019
5067 Clouds 22 1010 89 0 0.6 203 17:41 03.11.2019
5068 Clouds 22 1010 89 0 0.6 203 17:41 03.11.2019
5069 Thunderstorm 22 1010 94 7000 2.1 50 17:20 03.11.2019
5070 Thunderstorm 22 1010 94 7000 2.1 50 16:56 03.11.2019
5071 Clouds 27 1008 68 0 1.04 285 16:38 03.11.2019
5072 Clouds 27 1008 68 0 1.04 285 16:20 03.11.2019
5073 Clouds 27 1008 68 0 1.04 285 15:57 03.11.2019
5074 Clouds 27 1008 68 0 1.04 285 15:39 03.11.2019
5075 Thunderstorm 23 1009 88 2000 5.1 180 15:20 03.11.2019
5076 Thunderstorm 23 1009 88 2000 5.1 180 14:42 03.11.2019
5077 Thunderstorm 23 1009 88 2000 5.1 180 14:19 03.11.2019
5078 Thunderstorm 23 1009 88 2000 5.1 180 14:19 03.11.2019
5079 Thunderstorm 23 1009 88 2000 5.1 180 14:19 03.11.2019
5080 Rain 27 1010 68 0 2.26 266 13:56 03.11.2019
5081 Rain 27 1010 68 0 2.26 266 13:38 03.11.2019
5082 Clouds 32 1011 59 10000 3.1 360 13:18 03.11.2019
5083 Clouds 32 1011 59 10000 3.1 360 12:38 03.11.2019
5084 Clouds 32 1011 59 10000 3.1 360 12:20 03.11.2019
5085 Clouds 32 1011 59 10000 3.1 360 12:20 03.11.2019
5086 Clouds 31 1012 62 10000 3.1 310 11:57 03.11.2019
5087 Rain 26 1010 70 0 2.2 269 11:39 03.11.2019
5088 Rain 22 1013 98 0 1.74 259 11:20 03.11.2019
5089 Clouds 30 1013 70 10000 3.1 330 10:42 03.11.2019
5090 Clouds 30 1013 70 10000 3.1 330 10:22 03.11.2019
5091 Clouds 29 1013 66 9000 2.1 270 09:59 03.11.2019
5092 Clouds 29 1013 66 9000 2.1 270 09:41 03.11.2019
5093 Clouds 29 1013 66 9000 2.1 270 09:23 03.11.2019
5094 Rain 22 1013 98 0 1.74 259 08:53 03.11.2019
5095 Rain 22 1013 98 0 1.74 259 08:26 03.11.2019
5096 Rain 21 1013 98 0 0.58 325 07:55 03.11.2019
5097 Rain 21 1013 98 0 0.58 325 07:37 03.11.2019
5098 Rain 21 1013 98 0 0.58 325 07:18 03.11.2019
5099 Rain 21 1013 98 0 0.58 325 06:38 03.11.2019
5100 Rain 21 1013 98 0 0.58 325 05:41 03.11.2019
5101 Rain 19 1010 98 0 0.44 145 05:19 03.11.2019
5102 Rain 19 1010 98 0 0.44 145 04:48 03.11.2019
5103 Rain 19 1010 98 0 0.44 145 03:50 03.11.2019
5104 Rain 19 1010 98 0 0.44 145 02:46 03.11.2019
5105 Rain 20 1010 96 0 0.73 6 02:21 03.11.2019
5106 Rain 20 1010 96 0 0.73 6 01:44 03.11.2019
5107 Rain 20 1010 96 0 0.73 6 01:22 03.11.2019
5108 Rain 20 1010 95 0 0.43 348 00:46 03.11.2019
5109 Rain 20 1010 95 0 0.43 348 00:28 03.11.2019
5110 Rain 20 1010 95 0 0.43 348 23:59 02.11.2019
5111 Rain 20 1010 95 0 0.43 348 23:39 02.11.2019
5112 Clouds 21 1011 89 0 0.6 174 23:20 02.11.2019
5113 Clouds 21 1011 89 0 0.6 174 22:56 02.11.2019
5114 Clouds 21 1011 89 0 0.6 174 22:38 02.11.2019
5115 Clouds 21 1011 89 0 0.6 174 22:19 02.11.2019
5116 Clouds 21 1011 89 0 0.6 174 22:19 02.11.2019
5117 Clouds 21 1011 89 0 0.6 174 22:19 02.11.2019
5118 Clouds 21 1011 89 0 0.6 174 21:57 02.11.2019
5119 Clouds 21 1011 89 0 0.6 174 21:38 02.11.2019
5120 Clouds 21 1011 89 0 0.6 174 21:18 02.11.2019
5121 Clouds 21 1011 89 0 0.6 174 21:18 02.11.2019
5122 Clouds 21 1011 89 0 0.6 174 21:18 02.11.2019
5123 Clouds 21 1011 89 0 0.6 174 21:18 02.11.2019
5124 Clouds 21 1011 89 0 0.6 174 20:59 02.11.2019
5125 Clouds 21 1011 89 0 0.6 174 20:40 02.11.2019
5126 Clouds 22 1010 88 0 1.05 169 20:20 02.11.2019
5127 Clouds 23 1009 86 0 1.01 171 19:55 02.11.2019
5128 Clouds 23 1009 86 0 1.01 171 19:36 02.11.2019
5129 Clouds 23 1009 86 0 1.01 171 19:18 02.11.2019
5130 Clouds 23 1009 86 0 1.01 171 18:43 02.11.2019
5131 Clouds 27 1009 69 8000 2.1 90 18:24 02.11.2019
5132 Clouds 27 1009 69 8000 2.1 90 17:59 02.11.2019
5133 Clouds 27 1009 69 8000 2.1 90 17:40 02.11.2019
5134 Clouds 27 1009 69 8000 2.1 90 17:40 02.11.2019
5135 Clouds 27 1009 69 8000 2.1 90 17:22 02.11.2019
5136 Clouds 27 1009 69 8000 2.1 90 17:22 02.11.2019
5137 Clouds 29 1006 63 0 0.53 21 16:58 02.11.2019
5138 Clouds 29 1006 63 0 0.53 21 16:39 02.11.2019
5139 Clouds 29 1006 63 0 0.53 21 16:20 02.11.2019
5140 Clouds 29 1006 63 0 0.53 21 15:42 02.11.2019
5141 Clouds 27 1009 78 10000 3.1 360 15:20 02.11.2019
5142 Clouds 27 1009 78 10000 3.1 360 14:57 02.11.2019
5143 Clouds 27 1009 78 10000 3.1 360 14:39 02.11.2019
5144 Clouds 27 1009 78 10000 3.1 360 14:20 02.11.2019
5145 Rain 28 1007 63 0 1.12 253 13:40 02.11.2019
5146 Clouds 29 1011 62 10000 2.1 30 13:20 02.11.2019
5147 Clouds 29 1011 62 10000 2.1 30 12:57 02.11.2019
5148 Clouds 29 1011 62 10000 2.1 30 12:38 02.11.2019
5149 Clouds 29 1011 62 10000 2.1 30 12:19 02.11.2019
5150 Rain 31 1007 50 0 1.15 261 11:42 02.11.2019
5151 Clouds 25 1012 83 8000 3.1 270 11:24 02.11.2019
5152 Clouds 25 1012 83 8000 3.1 270 10:57 02.11.2019
5153 Clouds 25 1012 83 8000 3.1 270 10:39 02.11.2019
5154 Clouds 25 1012 83 8000 3.1 270 10:20 02.11.2019
5155 Rain 21 1012 93 0 1.73 144 09:43 02.11.2019
5156 Rain 21 1012 93 0 1.73 144 09:22 02.11.2019
5157 Rain 21 1012 93 0 1.73 144 08:55 02.11.2019
5158 Rain 21 1012 93 0 1.73 144 08:37 02.11.2019
5159 Rain 22 1013 96 0 1.37 110 08:18 02.11.2019
5160 Rain 22 1013 96 0 1.37 110 07:43 02.11.2019
5161 Rain 22 1013 96 0 1.37 110 07:25 02.11.2019
5162 Rain 22 1013 96 0 1.37 110 06:52 02.11.2019
5163 Rain 22 1013 96 0 1.37 110 06:52 02.11.2019
5164 Rain 22 1013 96 0 1.37 110 06:24 02.11.2019
5165 Rain 22 1013 96 0 1.37 110 05:44 02.11.2019
5166 Rain 20 1010 99 0 1.91 125 04:25 02.11.2019
5167 Rain 20 1010 99 0 1.91 125 03:52 02.11.2019
5168 Rain 20 1010 99 0 1.91 125 03:31 02.11.2019
5169 Rain 20 1010 99 0 1.91 125 03:31 02.11.2019
5170 Rain 20 1010 99 0 1.91 125 02:31 02.11.2019
5171 Rain 21 1009 97 0 0.46 140 01:36 02.11.2019
5172 Clouds 21 1009 95 0 0.28 86 01:18 02.11.2019
5173 Clouds 21 1009 95 0 0.28 86 00:42 02.11.2019
5174 Clouds 21 1009 95 0 0.28 86 00:21 02.11.2019
5175 Clouds 21 1009 95 0 0.28 86 23:42 01.11.2019
5176 Clouds 22 1010 90 0 0.51 353 23:19 01.11.2019
5177 Clouds 22 1010 90 0 0.51 353 22:42 01.11.2019
5178 Clouds 22 1010 90 0 0.51 353 22:21 01.11.2019
5179 Clouds 22 1010 90 0 0.51 353 21:55 01.11.2019
5180 Clouds 22 1010 90 0 0.51 353 21:36 01.11.2019
5181 Clouds 22 1010 90 0 0.51 353 21:18 01.11.2019
5182 Clouds 22 1010 90 0 0.51 353 20:42 01.11.2019
5183 Clouds 23 1009 83 0 0.62 43 20:23 01.11.2019
5184 Rain 22 1009 92 0 0.36 156 19:59 01.11.2019
5185 Rain 22 1009 92 0 0.36 156 19:41 01.11.2019
5186 Rain 22 1009 92 0 0.36 156 19:21 01.11.2019
5187 Rain 22 1009 92 0 0.36 156 18:41 01.11.2019
5188 Clouds 28 1008 69 8000 2.1 340 18:21 01.11.2019
5189 Clouds 28 1008 69 8000 2.1 340 17:59 01.11.2019
5190 Clouds 28 1008 69 8000 2.1 340 17:41 01.11.2019
5191 Clouds 28 1008 69 8000 2.1 340 17:23 01.11.2019
5192 Clouds 31 1008 55 10000 3.1 260 16:41 01.11.2019
5193 Clouds 31 1008 55 10000 3.1 260 16:41 01.11.2019
5194 Clouds 31 1008 55 10000 3.1 260 16:21 01.11.2019
5195 Rain 27 1006 81 0 0.83 169 15:59 01.11.2019
5196 Rain 27 1006 81 0 0.83 169 15:40 01.11.2019
5197 Rain 27 1006 81 0 0.83 169 15:40 01.11.2019
5198 Clouds 32 1009 66 10000 0.83 169 15:22 01.11.2019
5199 Clouds 32 1009 66 10000 0.83 169 15:22 01.11.2019
5200 Clouds 32 1009 66 10000 0.83 169 14:55 01.11.2019
5201 Rain 27 1006 81 0 0.83 169 14:36 01.11.2019
5202 Rain 27 1006 81 0 0.83 169 14:36 01.11.2019
5203 Clouds 32 1010 59 10000 2.1 160 14:18 01.11.2019
5204 Clouds 32 1007 48 0 0.46 356 13:41 01.11.2019
5205 Clouds 31 1011 66 10000 2.1 280 13:22 01.11.2019
5206 Clouds 31 1011 66 10000 2.1 280 12:56 01.11.2019
5207 Clouds 31 1007 48 0 0.77 348 12:37 01.11.2019
5208 Clouds 31 1012 66 10000 2.1 340 12:19 01.11.2019
5209 Clouds 31 1012 66 10000 2.1 340 11:42 01.11.2019
5210 Clouds 31 1012 66 10000 2.1 340 11:24 01.11.2019
5211 Clouds 30 1013 66 10000 3.1 360 10:56 01.11.2019
5212 Clouds 32 1012 48 0 0.89 353 10:37 01.11.2019
5213 Clouds 29 1013 74 10000 2.1 280 10:18 01.11.2019
5214 Clouds 29 1013 74 10000 2.1 280 09:42 01.11.2019
5215 Clouds 27 1013 78 10000 0.89 353 09:22 01.11.2019
5216 Clouds 27 1013 78 10000 0.89 353 08:55 01.11.2019
5217 Clouds 27 1013 78 10000 0.89 353 08:36 01.11.2019
5218 Clouds 27 1013 78 10000 0.89 353 08:36 01.11.2019
5219 Clouds 27 1013 78 10000 1.09 41 08:18 01.11.2019
5220 Clouds 24 1012 75 0 1.09 41 07:45 01.11.2019
5221 Clouds 24 1012 75 0 1.09 41 07:22 01.11.2019
5222 Clouds 24 1012 75 0 1.09 41 06:54 01.11.2019
5223 Clouds 24 1012 75 0 1.09 41 06:23 01.11.2019
5224 Clouds 24 1012 75 0 1.09 41 05:57 01.11.2019
5225 Clouds 24 1012 75 0 1.09 41 05:35 01.11.2019
5226 Clouds 19 1011 99 0 0.89 26 03:32 01.11.2019
5227 Clouds 20 1011 98 0 0.29 46 01:48 01.11.2019
5228 Clouds 19 1011 98 0 0.3 59 00:58 01.11.2019
5229 Clouds 19 1011 98 0 0.3 59 00:20 01.11.2019
5230 Clouds 19 1011 98 0 0.3 59 23:44 31.10.2019
5231 Clouds 19 1011 98 0 0.3 59 23:24 31.10.2019
5232 Clouds 20 1012 97 0 0.76 131 22:58 31.10.2019
5233 Clouds 20 1012 97 0 0.76 131 22:40 31.10.2019
5234 Clouds 20 1012 97 0 0.76 131 22:40 31.10.2019
5235 Clouds 20 1012 97 0 0.76 131 22:21 31.10.2019
5236 Clouds 20 1012 97 0 0.76 131 21:45 31.10.2019
5237 Clouds 20 1012 97 0 0.76 131 21:23 31.10.2019
5238 Clouds 20 1012 97 0 0.76 131 20:58 31.10.2019
5239 Clouds 20 1012 97 0 0.76 131 20:40 31.10.2019
5240 Clouds 21 1011 90 0 0.58 67 20:22 31.10.2019
5241 Clouds 21 1011 94 0 0.25 53 19:45 31.10.2019
5242 Clouds 21 1011 94 0 0.25 53 19:26 31.10.2019
5243 Clouds 21 1011 94 0 0.25 53 18:58 31.10.2019
5244 Clouds 21 1011 94 0 0.25 53 18:39 31.10.2019
5245 Clouds 27 1011 74 9000 0.25 53 18:21 31.10.2019
5246 Clouds 27 1011 74 9000 0.25 53 18:21 31.10.2019
5247 Clouds 27 1011 74 9000 0.25 53 18:21 31.10.2019
5248 Clouds 21 1011 94 0 0.25 53 17:54 31.10.2019
5249 Clouds 21 1011 94 0 0.25 53 17:36 31.10.2019
5250 Clouds 29 1011 62 10000 1.39 59 17:18 31.10.2019
5251 Clouds 24 1008 77 0 1.39 59 16:41 31.10.2019
5252 Clouds 29 1011 62 10000 2.1 340 16:20 31.10.2019
5253 Clouds 29 1011 62 10000 2.1 340 15:58 31.10.2019
5254 Clouds 24 1008 77 0 1.39 59 15:40 31.10.2019
5255 Clouds 24 1008 77 0 1.39 59 15:20 31.10.2019
5256 Clouds 24 1008 77 0 1.39 59 14:57 31.10.2019
5257 Clouds 24 1008 77 0 1.39 59 14:39 31.10.2019
5258 Clouds 29 1013 74 10000 2.82 20 14:20 31.10.2019
5259 Clouds 29 1013 74 10000 2.82 20 13:57 31.10.2019
5260 Clouds 27 1010 62 0 2.82 20 13:38 31.10.2019
5261 Clouds 25 1010 68 0 2.24 17 13:19 31.10.2019
5262 Clouds 25 1010 68 0 2.24 17 12:54 31.10.2019
5263 Clouds 28 1015 69 10000 4.1 330 12:36 31.10.2019
5264 Clouds 28 1015 69 10000 4.1 330 12:18 31.10.2019
5265 Clouds 25 1010 68 0 2.24 17 11:43 31.10.2019
5266 Rain 24 1014 87 0 2.6 20 11:19 31.10.2019
5267 Rain 24 1014 87 0 2.6 20 11:19 31.10.2019
5268 Rain 24 1014 87 0 2.6 20 10:57 31.10.2019
5269 Rain 24 1014 87 0 2.6 20 10:38 31.10.2019
5270 Clouds 26 1016 78 10000 3.1 360 10:19 31.10.2019
5271 Clouds 26 1016 78 10000 3.1 360 09:43 31.10.2019
5272 Clouds 26 1016 78 10000 3.1 360 09:19 31.10.2019
5273 Rain 24 1014 87 0 2.6 20 08:55 31.10.2019
5274 Rain 24 1014 87 0 2.6 20 08:36 31.10.2019
5275 Rain 23 1015 94 6000 2.1 340 08:18 31.10.2019
5276 Rain 23 1015 94 6000 2.1 340 07:42 31.10.2019
5277 Rain 23 1015 94 6000 2.1 340 07:42 31.10.2019
5278 Rain 23 1015 94 6000 2.1 340 07:23 31.10.2019
5279 Rain 21 1015 99 0 0.74 63 06:39 31.10.2019
5280 Rain 21 1015 99 0 0.74 63 06:20 31.10.2019
5281 Rain 21 1012 99 0 1.31 131 04:40 31.10.2019
5282 Rain 21 1012 99 0 1.31 131 02:46 31.10.2019
5283 Rain 21 1012 100 0 1.2 125 01:53 31.10.2019
5284 Rain 21 1012 100 0 1.2 125 01:53 31.10.2019
5285 Rain 21 1011 99 0 0.59 115 00:42 31.10.2019
5286 Rain 21 1011 99 0 0.59 115 00:23 31.10.2019
5287 Rain 21 1011 99 0 0.59 115 23:34 30.10.2019
5288 Clouds 21 1013 99 0 0.87 202 22:56 30.10.2019
5289 Clouds 21 1013 99 0 0.87 202 22:38 30.10.2019
5290 Clouds 21 1013 99 0 0.87 202 22:18 30.10.2019
5291 Clouds 21 1013 99 0 0.87 202 21:54 30.10.2019
5292 Clouds 21 1013 99 0 0.87 202 21:36 30.10.2019
5293 Clouds 21 1013 99 0 0.87 202 21:18 30.10.2019
5294 Clouds 21 1013 99 0 0.87 202 20:42 30.10.2019
5295 Clouds 19 1012 97 0 0.34 175 20:22 30.10.2019
5296 Clouds 19 1012 97 0 0.34 175 20:22 30.10.2019
5297 Clouds 19 1012 97 0 0.34 175 19:59 30.10.2019
5298 Clouds 19 1012 97 0 0.34 175 19:39 30.10.2019
5299 Clouds 26 1010 78 8000 2.1 210 19:21 30.10.2019
5300 Clouds 26 1010 78 8000 2.1 210 18:58 30.10.2019
5301 Clouds 19 1012 97 0 0.34 175 18:37 30.10.2019
5302 Clouds 27 1009 74 8000 2.1 180 18:18 30.10.2019
5303 Clouds 27 1009 74 8000 2.1 180 17:55 30.10.2019
5304 Clouds 27 1009 74 8000 2.1 180 17:36 30.10.2019
5305 Clouds 27 1009 74 8000 2.1 180 17:18 30.10.2019
5306 Clouds 28 1009 69 8000 3.1 180 16:42 30.10.2019
5307 Clouds 28 1009 69 8000 3.1 180 16:23 30.10.2019
5308 Rain 20 1009 95 0 0.55 203 15:57 30.10.2019
5309 Rain 20 1009 95 0 0.55 203 15:38 30.10.2019
5310 Clouds 30 1010 70 10000 4.1 270 15:19 30.10.2019
5311 Clouds 30 1010 70 10000 4.1 270 14:57 30.10.2019
5312 Rain 20 1009 95 0 0.55 203 14:39 30.10.2019
5313 Rain 22 1009 93 0 1.64 187 14:21 30.10.2019
5314 Rain 22 1009 93 0 1.64 187 13:54 30.10.2019
5315 Rain 22 1009 93 0 1.64 187 13:36 30.10.2019
5316 Rain 21 1009 93 0 1.54 176 13:18 30.10.2019
5317 Rain 21 1009 93 0 1.54 176 12:43 30.10.2019
5318 Rain 21 1009 93 0 1.54 176 12:25 30.10.2019
5319 Rain 21 1009 93 0 1.54 176 11:56 30.10.2019
5320 Rain 21 1009 93 0 1.54 176 11:56 30.10.2019
5321 Rain 21 1009 93 0 1.54 176 11:38 30.10.2019
5322 Clouds 25 1015 78 8000 2.1 360 11:18 30.10.2019
5323 Clouds 25 1015 78 8000 2.1 360 10:42 30.10.2019
5324 Clouds 25 1015 78 8000 2.1 360 10:23 30.10.2019
5325 Clouds 23 1015 83 8000 3.1 300 09:42 30.10.2019
5326 Clouds 23 1015 83 8000 3.1 300 09:23 30.10.2019
5327 Rain 21 1013 99 0 1.51 104 08:57 30.10.2019
5328 Rain 21 1013 99 0 1.51 104 08:39 30.10.2019
5329 Clouds 23 1013 90 0 1.1 227 08:19 30.10.2019
5330 Clouds 23 1013 90 0 1.1 227 07:43 30.10.2019
5331 Clouds 23 1013 90 0 1.1 227 07:20 30.10.2019
5332 Clouds 23 1013 90 0 1.1 227 06:42 30.10.2019
5333 Clouds 23 1013 90 0 1.1 227 06:18 30.10.2019
5334 Clouds 23 1013 90 0 1.1 227 05:41 30.10.2019
5335 Clouds 21 1010 98 0 0.93 277 04:42 30.10.2019
5336 Clouds 21 1010 98 0 0.93 277 03:43 30.10.2019
5337 Clouds 21 1010 98 0 0.93 277 03:43 30.10.2019
5338 Clouds 21 1010 98 0 0.93 277 02:51 30.10.2019
5339 Clouds 21 1009 99 0 0.58 228 01:55 30.10.2019
5340 Clear 20 1010 98 0 0.71 207 00:55 30.10.2019
5341 Clear 20 1010 98 0 0.71 207 00:28 30.10.2019
5342 Clear 20 1010 98 0 0.71 207 23:42 29.10.2019
5343 Clouds 21 1012 95 0 0.38 280 23:22 29.10.2019
5344 Clouds 21 1012 95 0 0.38 280 22:48 29.10.2019
5345 Clouds 21 1012 95 0 0.38 280 22:20 29.10.2019
5346 Clouds 21 1012 95 0 0.38 280 21:58 29.10.2019
5347 Clouds 21 1012 95 0 0.38 280 21:40 29.10.2019
5348 Clouds 21 1012 95 0 0.38 280 21:20 29.10.2019
5349 Clouds 21 1012 95 0 0.38 280 20:56 29.10.2019
5350 Clouds 21 1012 95 0 0.38 280 20:37 29.10.2019
5351 Clouds 21 1012 95 0 0.38 280 20:37 29.10.2019
5352 Clouds 21 1010 95 0 0.7 222 20:19 29.10.2019
5353 Clouds 21 1010 95 0 0.7 222 19:55 29.10.2019
5354 Clouds 21 1010 95 0 0.7 222 19:37 29.10.2019
5355 Clouds 21 1010 95 0 0.7 222 19:18 29.10.2019
5356 Clouds 21 1010 95 0 0.7 222 18:55 29.10.2019
5357 Clouds 21 1010 95 0 0.7 222 18:36 29.10.2019
5358 Thunderstorm 29 1009 70 7000 2.1 360 18:18 29.10.2019
5359 Clouds 21 1010 95 0 0.7 222 17:40 29.10.2019
5360 Thunderstorm 29 1008 70 10000 2.1 360 17:21 29.10.2019
5361 Thunderstorm 29 1008 70 10000 2.1 360 16:58 29.10.2019
5362 Thunderstorm 29 1008 70 10000 2.1 360 16:38 29.10.2019
5363 Thunderstorm 29 1008 70 10000 2.1 360 16:19 29.10.2019
5364 Thunderstorm 31 1008 62 10000 2.1 300 15:55 29.10.2019
5365 Thunderstorm 31 1008 62 10000 2.1 300 15:36 29.10.2019
5366 Thunderstorm 31 1008 62 10000 2.1 300 15:36 29.10.2019
5367 Thunderstorm 31 1008 62 10000 2.1 300 15:18 29.10.2019
5368 Clouds 25 1007 76 0 1.32 321 14:42 29.10.2019
5369 Clouds 30 1010 62 10000 3.1 360 14:24 29.10.2019
5370 Clouds 30 1010 62 10000 3.1 360 13:58 29.10.2019
5371 Rain 23 1009 88 0 0.28 130 13:40 29.10.2019
5372 Clouds 30 1011 66 10000 4.1 350 13:21 29.10.2019
5373 Clouds 30 1011 66 10000 4.1 350 13:21 29.10.2019
5374 Clouds 30 1011 66 10000 4.1 350 12:43 29.10.2019
5375 Clouds 30 1011 66 10000 4.1 350 12:25 29.10.2019
5376 Rain 21 1010 98 0 1.15 254 11:56 29.10.2019
5377 Rain 21 1010 98 0 1.15 254 11:38 29.10.2019
5378 Clouds 27 1013 78 10000 4.1 310 11:18 29.10.2019
5379 Clouds 27 1013 78 10000 4.1 310 10:57 29.10.2019
5380 Clouds 27 1013 78 10000 4.1 310 10:38 29.10.2019
5381 Clouds 27 1013 78 10000 4.1 310 10:19 29.10.2019
5382 Clouds 27 1013 78 10000 4.1 310 10:19 29.10.2019
5383 Rain 23 1013 89 0 1.86 170 09:43 29.10.2019
5384 Rain 23 1013 89 0 1.86 170 09:23 29.10.2019
5385 Rain 23 1013 89 0 1.86 170 09:23 29.10.2019
5386 Rain 23 1013 89 0 1.86 170 08:57 29.10.2019
5387 Rain 23 1013 89 0 1.86 170 08:39 29.10.2019
5388 Rain 21 1013 98 0 1.72 131 08:21 29.10.2019
5389 Rain 21 1013 98 0 1.72 131 07:48 29.10.2019
5390 Rain 21 1013 98 0 1.72 131 07:21 29.10.2019
5391 Rain 21 1013 98 0 1.72 131 06:54 29.10.2019
5392 Rain 21 1013 98 0 1.72 131 06:31 29.10.2019
5393 Rain 21 1013 98 0 1.72 131 05:59 29.10.2019
5394 Rain 21 1013 98 0 1.72 131 05:39 29.10.2019
5395 Rain 20 1010 99 0 0.5 104 04:52 29.10.2019
5396 Rain 20 1010 99 0 0.5 104 03:23 29.10.2019
5397 Rain 20 1009 98 0 0.75 252 01:57 29.10.2019
5398 Rain 20 1010 96 0 0.63 225 01:36 29.10.2019
5399 Rain 20 1010 96 0 0.63 225 00:54 29.10.2019
5400 Rain 20 1010 96 0 0.63 225 00:26 29.10.2019
5401 Rain 20 1010 96 0 0.63 225 23:38 28.10.2019
5402 Clouds 20 1011 94 0 0.48 261 23:20 28.10.2019
5403 Clouds 20 1011 94 0 0.48 261 22:57 28.10.2019
5404 Clouds 20 1011 94 0 0.48 261 22:36 28.10.2019
5405 Clouds 20 1011 94 0 0.48 261 22:18 28.10.2019
5406 Clouds 20 1011 94 0 0.48 261 21:42 28.10.2019
5407 Clouds 20 1011 94 0 0.48 261 21:22 28.10.2019
5408 Clouds 20 1011 94 0 0.48 261 20:59 28.10.2019
5409 Clouds 20 1011 94 0 0.48 261 20:40 28.10.2019
5410 Clouds 22 1009 91 0 0.77 331 20:21 28.10.2019
5411 Clouds 22 1009 91 0 0.77 331 19:55 28.10.2019
5412 Clouds 22 1009 91 0 0.77 331 19:36 28.10.2019
5413 Clouds 22 1009 91 0 0.77 331 19:18 28.10.2019
5414 Clouds 22 1009 91 0 0.77 331 18:57 28.10.2019
5415 Clouds 22 1009 91 0 0.77 331 18:38 28.10.2019
5416 Clouds 27 1008 78 9000 2.1 200 18:20 28.10.2019
5417 Clouds 27 1008 78 9000 2.1 200 17:56 28.10.2019
5418 Clouds 22 1009 91 0 0.77 331 17:37 28.10.2019
5419 Clouds 29 1008 66 10000 2.1 230 17:18 28.10.2019
5420 Clouds 29 1008 66 10000 2.1 230 16:55 28.10.2019
5421 Clouds 29 1008 66 10000 2.1 230 16:36 28.10.2019
5422 Clouds 29 1008 66 10000 2.1 230 16:18 28.10.2019
5423 Clouds 29 1008 70 10000 4.1 260 15:55 28.10.2019
5424 Clouds 29 1008 70 10000 4.1 260 15:37 28.10.2019
5425 Clouds 29 1008 70 10000 4.1 260 15:18 28.10.2019
5426 Clouds 27 1006 67 0 1.36 315 14:54 28.10.2019
5427 Clouds 27 1006 67 0 1.36 315 14:36 28.10.2019
5428 Clouds 28 1010 69 10000 2.1 220 14:18 28.10.2019
5429 Clouds 28 1010 69 10000 2.1 220 13:41 28.10.2019
5430 Clouds 28 1010 69 10000 2.1 220 13:18 28.10.2019
5431 Clouds 28 1010 69 10000 2.1 220 13:18 28.10.2019
5432 Clouds 26 1012 78 10000 4.1 270 12:59 28.10.2019
5433 Rain 22 1008 93 0 1.5 262 12:40 28.10.2019
5434 Clouds 26 1013 78 9000 4.1 280 12:19 28.10.2019
5435 Clouds 26 1013 78 9000 4.1 280 11:38 28.10.2019
5436 Clouds 26 1013 78 9000 4.1 280 11:20 28.10.2019
5437 Clouds 24 1014 94 8000 4.1 280 10:42 28.10.2019
5438 Clouds 24 1014 94 8000 4.1 280 10:24 28.10.2019
5439 Rain 21 1013 99 0 1.94 287 09:58 28.10.2019
5440 Rain 21 1013 99 0 1.94 287 09:39 28.10.2019
5441 Rain 21 1013 99 0 1.94 287 09:39 28.10.2019
5442 Rain 21 1013 99 0 1.94 287 09:20 28.10.2019
5443 Rain 21 1013 99 0 1.94 287 08:57 28.10.2019
5444 Rain 21 1013 99 0 1.94 287 08:39 28.10.2019
5445 Rain 21 1013 98 0 1.5 251 08:19 28.10.2019
5446 Rain 21 1013 98 0 1.5 251 07:57 28.10.2019
5447 Rain 21 1013 98 0 1.5 251 07:38 28.10.2019
5448 Rain 21 1013 98 0 1.5 251 07:20 28.10.2019
5449 Rain 21 1013 98 0 1.5 251 06:40 28.10.2019
5450 Rain 21 1013 98 0 1.5 251 05:57 28.10.2019
5451 Rain 20 1010 99 0 0.93 274 04:29 28.10.2019
5452 Rain 20 1010 99 0 0.93 274 03:41 28.10.2019
5453 Rain 20 1010 99 0 0.93 274 02:45 28.10.2019
5454 Rain 21 1010 99 0 1.16 284 01:27 28.10.2019
5455 Rain 21 1010 99 0 1.16 284 00:46 28.10.2019
5456 Rain 21 1010 99 0 1.16 284 00:22 28.10.2019
5457 Rain 21 1010 99 0 1.16 284 23:43 27.10.2019
5458 Rain 21 1011 96 0 0.76 288 23:20 27.10.2019
5459 Rain 21 1011 96 0 0.76 288 22:44 27.10.2019
5460 Rain 21 1011 96 0 0.76 288 22:23 27.10.2019
5461 Rain 21 1011 96 0 0.76 288 21:59 27.10.2019
5462 Rain 21 1011 96 0 0.76 288 21:40 27.10.2019
5463 Rain 21 1011 96 0 0.76 288 21:21 27.10.2019
5464 Rain 21 1011 96 0 0.76 288 20:58 27.10.2019
5465 Rain 22 1010 98 0 1.57 291 20:40 27.10.2019
5466 Rain 22 1010 97 0 1.34 329 20:22 27.10.2019
5467 Rain 22 1010 97 0 1.34 329 19:56 27.10.2019
5468 Rain 22 1010 97 0 1.34 329 19:37 27.10.2019
5469 Rain 22 1010 97 0 1.34 329 19:19 27.10.2019
5470 Rain 22 1010 97 0 1.34 329 18:56 27.10.2019
5471 Rain 22 1010 97 0 1.34 329 18:37 27.10.2019
5472 Rain 22 1010 97 0 1.34 329 18:19 27.10.2019
5473 Rain 22 1010 97 0 1.34 329 17:41 27.10.2019
5474 Clouds 29 1009 66 10000 2.1 220 17:22 27.10.2019
5475 Clouds 29 1009 66 10000 2.1 220 16:59 27.10.2019
5476 Clouds 29 1009 66 10000 2.1 220 16:41 27.10.2019
5477 Clouds 29 1009 66 10000 2.1 220 16:23 27.10.2019
5478 Clouds 29 1009 66 10000 4.1 260 15:58 27.10.2019
5479 Clouds 29 1009 66 10000 4.1 260 15:39 27.10.2019
5480 Clouds 29 1009 66 10000 4.1 260 15:20 27.10.2019
5481 Clouds 29 1010 66 10000 4.1 260 14:59 27.10.2019
5482 Rain 25 1006 94 0 1.24 261 14:40 27.10.2019
5483 Clouds 27 1011 74 10000 3.1 300 14:18 27.10.2019
5484 Clouds 27 1011 74 10000 3.1 300 13:42 27.10.2019
5485 Clouds 27 1011 74 10000 3.1 300 13:24 27.10.2019
5486 Clouds 28 1012 74 10000 3.1 300 12:59 27.10.2019
5487 Clouds 28 1012 74 10000 3.1 300 12:41 27.10.2019
5488 Clouds 28 1012 74 10000 3.1 300 12:23 27.10.2019
5489 Clouds 27 1013 74 10000 2.1 260 11:43 27.10.2019
5490 Clouds 27 1013 74 10000 2.1 260 11:25 27.10.2019
5491 Clouds 27 1013 74 10000 2.1 260 11:25 27.10.2019
5492 Rain 27 1012 81 0 1.69 275 10:57 27.10.2019
5493 Rain 27 1012 81 0 1.69 275 10:38 27.10.2019
5494 Rain 27 1012 81 0 1.69 275 10:38 27.10.2019
5495 Clouds 24 1014 88 10000 1.5 0 10:20 27.10.2019
5496 Clouds 24 1014 88 10000 1.5 0 09:43 27.10.2019
5497 Clouds 24 1014 88 10000 1.5 0 09:19 27.10.2019
5498 Clouds 24 1014 88 10000 1.5 0 09:19 27.10.2019
5499 Clouds 23 1014 94 6000 1.5 0 08:57 27.10.2019
5500 Clouds 23 1014 94 6000 1.5 0 08:37 27.10.2019
5501 Clouds 23 1014 94 6000 1.5 0 08:19 27.10.2019
5502 Rain 23 1013 95 0 0.96 237 07:46 27.10.2019
5503 Rain 23 1013 95 0 0.96 237 07:46 27.10.2019
5504 Rain 23 1013 95 0 0.96 237 07:26 27.10.2019
5505 Rain 23 1013 95 0 0.96 237 06:55 27.10.2019
5506 Rain 23 1013 95 0 0.96 237 06:29 27.10.2019
5507 Rain 23 1013 95 0 0.96 237 05:57 27.10.2019
5508 Rain 23 1013 95 0 0.96 237 05:35 27.10.2019
5509 Rain 20 1010 99 0 1.1 199 03:35 27.10.2019
5510 Clouds 21 1010 99 0 0.96 239 02:29 27.10.2019
5511 Rain 20 1010 99 0 0.68 199 01:27 27.10.2019
5512 Rain 20 1010 99 0 0.68 199 00:53 27.10.2019
5513 Rain 20 1010 99 0 0.68 199 00:35 27.10.2019
5514 Clouds 21 1011 97 0 0.7 219 23:58 26.10.2019
5515 Clouds 21 1011 97 0 0.7 219 23:40 26.10.2019
5516 Clouds 21 1011 97 0 0.7 219 23:21 26.10.2019
5517 Clouds 21 1011 97 0 0.7 219 22:57 26.10.2019
5518 Clouds 21 1011 97 0 0.7 219 22:38 26.10.2019
5519 Clouds 21 1011 97 0 0.7 219 22:19 26.10.2019
5520 Clouds 21 1011 97 0 0.7 219 21:55 26.10.2019
5521 Clouds 21 1011 97 0 0.7 219 21:37 26.10.2019
5522 Rain 20 1013 100 6000 2.1 30 21:19 26.10.2019
5523 Rain 20 1013 100 6000 2.1 30 20:42 26.10.2019
5524 Rain 20 1013 100 6000 2.1 30 20:19 26.10.2019
5525 Clouds 22 1010 91 0 1.29 259 19:43 26.10.2019
5526 Clouds 22 1010 91 0 1.29 259 19:21 26.10.2019
5527 Clouds 22 1010 91 0 1.29 259 19:21 26.10.2019
5528 Clouds 22 1010 91 0 1.29 259 18:59 26.10.2019
5529 Clouds 22 1010 91 0 1.29 259 18:40 26.10.2019
5530 Thunderstorm 21 1012 100 4000 1.5 90 18:20 26.10.2019
5531 Thunderstorm 21 1012 100 4000 1.5 90 17:59 26.10.2019
5532 Thunderstorm 21 1012 100 4000 1.5 90 17:39 26.10.2019
5533 Thunderstorm 21 1012 100 4000 1.5 90 17:20 26.10.2019
5534 Clouds 26 1008 74 0 2.48 267 16:47 26.10.2019
5535 Clouds 26 1008 74 0 2.48 267 16:25 26.10.2019
5536 Clouds 26 1008 74 0 2.48 267 15:59 26.10.2019
5537 Clouds 26 1008 74 0 2.48 267 15:40 26.10.2019
5538 Thunderstorm 26 1010 88 6000 2.1 180 15:18 26.10.2019
5539 Thunderstorm 26 1010 88 6000 2.1 180 15:18 26.10.2019
5540 Thunderstorm 26 1010 88 6000 2.1 180 14:40 26.10.2019
5541 Thunderstorm 26 1010 88 6000 2.1 180 14:20 26.10.2019
5542 Rain 28 1008 67 0 3.1 267 13:59 26.10.2019
5543 Thunderstorm 27 1011 83 8000 4.1 290 13:39 26.10.2019
5544 Thunderstorm 27 1011 83 8000 4.1 290 13:20 26.10.2019
5545 Rain 28 1008 67 0 3.1 267 12:45 26.10.2019
5546 Rain 22 1012 98 0 1.79 260 12:22 26.10.2019
5547 Rain 22 1012 98 0 1.79 260 11:48 26.10.2019
5548 Rain 22 1012 98 0 1.79 260 11:27 26.10.2019
5549 Rain 22 1012 98 0 1.79 260 11:27 26.10.2019
5550 Rain 22 1012 98 0 1.79 260 10:47 26.10.2019
5551 Rain 22 1012 98 0 1.79 260 10:27 26.10.2019
5552 Rain 22 1012 98 0 1.79 260 09:57 26.10.2019
5553 Rain 22 1012 98 0 1.79 260 09:39 26.10.2019
5554 Rain 22 1013 99 0 1.56 293 09:20 26.10.2019
5555 Rain 22 1013 99 0 1.56 293 08:42 26.10.2019
5556 Rain 22 1013 99 0 1.56 293 08:24 26.10.2019
5557 Rain 22 1013 99 0 1.56 293 07:44 26.10.2019
5558 Rain 22 1013 99 0 1.56 293 07:24 26.10.2019
5559 Rain 22 1013 99 0 1.56 293 06:41 26.10.2019
5560 Rain 21 1010 99 0 0.4 42 06:18 26.10.2019
5561 Rain 21 1010 99 0 0.4 42 05:19 26.10.2019
5562 Rain 21 1010 99 0 0.4 42 04:23 26.10.2019
5563 Rain 22 1009 99 0 0.7 165 02:37 26.10.2019
5564 Rain 21 1009 99 0 0.38 240 01:48 26.10.2019
5565 Rain 21 1009 99 0 0.38 240 01:20 26.10.2019
5566 Rain 22 1010 96 0 0.82 303 00:23 26.10.2019
5567 Rain 22 1010 96 0 0.82 303 23:41 25.10.2019
5568 Rain 22 1010 96 0 0.82 303 23:20 25.10.2019
5569 Rain 22 1010 96 0 0.82 303 22:40 25.10.2019
5570 Rain 22 1010 96 0 0.82 303 22:22 25.10.2019
5571 Rain 22 1010 96 0 0.82 303 21:57 25.10.2019
5572 Rain 22 1010 96 0 0.82 303 21:39 25.10.2019
5573 Rain 23 1009 94 0 0.62 44 21:19 25.10.2019
5574 Rain 23 1009 94 0 0.62 44 20:45 25.10.2019
5575 Rain 23 1009 94 0 0.62 44 20:20 25.10.2019
5576 Rain 23 1009 94 0 0.62 44 19:59 25.10.2019
5577 Rain 23 1009 94 0 0.62 44 19:59 25.10.2019
5578 Rain 23 1009 94 0 0.62 44 19:40 25.10.2019
5579 Rain 23 1009 94 0 0.62 44 19:22 25.10.2019
5580 Rain 23 1009 94 0 0.62 44 18:43 25.10.2019
5581 Rain 26 1005 94 0 0.66 9 18:21 25.10.2019
5582 Rain 26 1005 94 0 0.66 9 17:41 25.10.2019
5583 Rain 26 1005 94 0 0.66 9 17:21 25.10.2019
5584 -273 0 0 0 0 0 16:54 25.10.2019
5585 Rain 26 1005 94 0 0.66 9 16:36 25.10.2019
5586 Rain 26 1005 94 0 0.66 9 16:18 25.10.2019
5587 Rain 26 1005 94 0 0.66 9 15:40 25.10.2019
5588 Clouds 33 1005 45 0 0.4 353 15:21 25.10.2019
5589 Clouds 33 1005 45 0 0.4 353 14:56 25.10.2019
5590 Clouds 33 1005 45 0 0.4 353 14:38 25.10.2019
5591 Clouds 34 1005 44 0 0.72 8 14:20 25.10.2019
5592 Clouds 34 1005 44 0 0.72 8 13:41 25.10.2019
5593 Clouds 29 1013 70 10000 3.1 360 13:22 25.10.2019
5594 Clouds 29 1013 70 10000 3.1 360 12:55 25.10.2019
5595 Clouds 29 1013 70 10000 3.1 360 12:37 25.10.2019
5596 Clouds 29 1013 70 10000 3.1 360 12:18 25.10.2019
5597 Clouds 29 1013 70 10000 3.1 90 11:40 25.10.2019
5598 Clouds 29 1013 70 10000 3.1 90 11:22 25.10.2019
5599 Clouds 29 1013 70 10000 3.1 90 11:22 25.10.2019
5600 Clouds 27 1013 78 10000 4.1 360 10:55 25.10.2019
5601 Clouds 27 1013 78 10000 4.1 360 10:36 25.10.2019
5602 Clouds 27 1013 78 10000 4.1 360 10:18 25.10.2019
5603 Clouds 26 1013 83 8000 4.1 330 09:41 25.10.2019
5604 Clouds 26 1013 83 8000 4.1 330 09:41 25.10.2019
5605 Clouds 26 1013 83 8000 4.1 330 09:20 25.10.2019
5606 Clouds 24 1012 86 0 0.09 30 08:56 25.10.2019
5607 Clouds 24 1012 86 0 0.09 30 08:38 25.10.2019
5608 Clouds 24 1012 86 0 0.09 30 08:19 25.10.2019
5609 Clouds 24 1012 86 0 0.09 30 07:44 25.10.2019
5610 Clouds 24 1012 86 0 0.09 30 07:26 25.10.2019
5611 Clouds 24 1012 86 0 0.09 30 06:37 25.10.2019
5612 Clouds 20 1010 98 0 0.39 333 05:48 25.10.2019
5613 Clouds 20 1010 98 0 0.39 333 05:27 25.10.2019
5614 Clouds 20 1010 98 0 0.39 333 04:19 25.10.2019
5615 Clouds 21 1009 95 0 0.5 5 02:34 25.10.2019
5616 Clouds 21 1009 95 0 0.5 5 01:52 25.10.2019
5617 Clouds 21 1009 95 0 0.5 5 00:30 25.10.2019
5618 Clear 21 1010 96 0 0.82 299 23:42 24.10.2019
5619 Clear 21 1010 96 0 0.82 299 23:24 24.10.2019
5620 Clear 21 1010 96 0 0.82 299 22:57 24.10.2019
5621 Clear 21 1010 96 0 0.82 299 22:38 24.10.2019
5622 Clear 21 1010 96 0 0.82 299 22:19 24.10.2019
5623 Clear 21 1010 96 0 0.82 299 21:57 24.10.2019
5624 Clouds 22 1009 97 0 0.96 304 21:38 24.10.2019
5625 Rain 22 1008 97 0 1.11 273 21:20 24.10.2019
5626 Rain 22 1008 97 0 1.11 273 20:58 24.10.2019
5627 Rain 22 1008 97 0 1.11 273 20:39 24.10.2019
5628 Rain 22 1008 97 0 1.11 273 20:21 24.10.2019
5629 Rain 22 1008 97 0 1.11 273 19:56 24.10.2019
5630 Rain 22 1008 97 0 1.11 273 19:37 24.10.2019
5631 Rain 22 1008 97 0 1.11 273 19:18 24.10.2019
5632 Rain 22 1008 97 0 1.11 273 18:41 24.10.2019
5633 Rain 25 1006 94 0 0.55 252 18:23 24.10.2019
5634 Rain 25 1006 94 0 0.55 252 17:59 24.10.2019
5635 Rain 25 1006 94 0 0.55 252 17:40 24.10.2019
5636 Rain 25 1006 94 0 0.55 252 17:20 24.10.2019
5637 Rain 25 1006 94 0 0.55 252 16:56 24.10.2019
5638 Rain 25 1006 94 0 0.55 252 16:37 24.10.2019
5639 Rain 25 1006 94 0 0.55 252 16:19 24.10.2019
5640 Rain 25 1006 94 0 0.55 252 15:56 24.10.2019
5641 Rain 25 1006 94 0 0.55 252 15:56 24.10.2019
5642 Rain 25 1006 94 0 0.55 252 15:38 24.10.2019
5643 Rain 34 1007 44 0 0.9 29 15:19 24.10.2019
5644 Rain 27 1007 91 0 1.43 24 14:55 24.10.2019
5645 Rain 27 1007 91 0 1.43 24 14:36 24.10.2019
5646 Clouds 30 1010 70 10000 2.1 260 14:18 24.10.2019
5647 Clouds 30 1010 70 10000 2.1 260 13:40 24.10.2019
5648 Clouds 30 1010 70 10000 2.1 260 13:19 24.10.2019
5649 Rain 27 1007 91 0 1.43 24 12:57 24.10.2019
5650 Rain 27 1007 91 0 1.43 24 12:38 24.10.2019
5651 Clouds 28 1013 74 10000 2.1 90 12:19 24.10.2019
5652 Clouds 28 1013 74 10000 2.1 90 11:56 24.10.2019
5653 Clouds 28 1013 74 10000 2.1 90 11:37 24.10.2019
5654 Clouds 28 1013 74 10000 2.1 90 11:18 24.10.2019
5655 Clouds 28 1013 74 10000 1.25 40 10:42 24.10.2019
5656 Clouds 28 1013 74 10000 1.25 40 10:23 24.10.2019
5657 Clouds 25 1013 83 10000 1.25 40 09:58 24.10.2019
5658 Clouds 25 1013 83 10000 1.59 15 09:37 24.10.2019
5659 Clouds 25 1013 83 10000 0.93 50 09:18 24.10.2019
5660 Clouds 25 1013 83 10000 0.93 50 09:18 24.10.2019
5661 Clouds 23 1013 94 10000 2.1 180 08:42 24.10.2019
5662 Clouds 23 1013 94 10000 2.1 180 08:20 24.10.2019
5663 Clouds 24 1012 91 0 0.93 50 07:48 24.10.2019
5664 Clouds 24 1012 91 0 0.93 50 07:24 24.10.2019
5665 Clouds 24 1012 91 0 0.93 50 06:57 24.10.2019
5666 Clouds 24 1012 91 0 0.93 50 06:36 24.10.2019
5667 Clouds 21 1009 98 0 0.88 87 05:56 24.10.2019
5668 Clouds 21 1009 98 0 0.88 87 05:35 24.10.2019
5669 Clouds 21 1009 98 0 0.88 87 04:34 24.10.2019
5670 Clouds 21 1009 98 0 0.88 87 03:36 24.10.2019
5671 Clouds 21 1009 97 0 0.39 79 02:44 24.10.2019
5672 Clouds 21 1009 96 0 0.46 78 02:20 24.10.2019
5673 Clouds 21 1009 96 0 0.46 78 01:32 24.10.2019
5674 Clouds 21 1009 96 0 0.46 78 00:57 24.10.2019
5675 Clouds 21 1009 96 0 0.46 78 00:30 24.10.2019
5676 Clouds 22 1010 97 0 0.77 84 23:57 23.10.2019
5677 Clouds 22 1010 97 0 0.77 84 23:38 23.10.2019
5678 Clouds 22 1010 97 0 0.77 84 23:19 23.10.2019
5679 Clouds 22 1010 97 0 0.77 84 22:56 23.10.2019
5680 Clouds 22 1010 97 0 0.77 84 22:37 23.10.2019
5681 Clouds 22 1010 97 0 0.77 84 22:18 23.10.2019
5682 Clouds 22 1010 97 0 0.77 84 21:56 23.10.2019
5683 Clouds 22 1009 96 0 0.45 127 21:37 23.10.2019
5684 Rain 22 1008 94 0 0.73 96 21:19 23.10.2019
5685 Rain 22 1008 94 0 0.73 96 20:54 23.10.2019
5686 Rain 22 1008 94 0 0.73 96 20:36 23.10.2019
5687 Rain 22 1008 94 0 0.73 96 20:18 23.10.2019
5688 Rain 22 1008 94 0 0.73 96 19:42 23.10.2019
5689 Rain 22 1008 94 0 0.73 96 19:19 23.10.2019
5690 Rain 22 1008 94 0 0.73 96 18:57 23.10.2019
5691 Rain 22 1008 94 0 0.73 96 18:39 23.10.2019
5692 Clouds 30 1005 63 0 0.98 344 18:19 23.10.2019
5693 Clouds 30 1005 63 0 0.98 344 17:55 23.10.2019
5694 Clouds 30 1005 63 0 0.98 344 17:36 23.10.2019
5695 Clouds 32 1007 55 10000 1.5 0 17:18 23.10.2019
5696 Clouds 32 1007 55 10000 1.5 0 16:40 23.10.2019
5697 Clouds 32 1007 55 10000 1.5 0 16:21 23.10.2019
5698 Clouds 30 1005 63 0 0.98 344 15:57 23.10.2019
5699 Clouds 30 1005 63 0 0.98 344 15:38 23.10.2019
5700 Clouds 32 1008 55 10000 1.5 0 15:20 23.10.2019
5701 Clouds 32 1008 55 10000 1.5 0 14:56 23.10.2019
5702 Clouds 32 1008 55 10000 1.5 0 14:37 23.10.2019
5703 Clouds 32 1008 55 10000 1.5 0 14:18 23.10.2019
5704 Clouds 32 1006 45 0 2.01 355 13:42 23.10.2019
5705 Clouds 32 1006 45 0 2.01 355 13:24 23.10.2019
5706 Clouds 32 1006 45 0 2.01 355 12:57 23.10.2019
5707 Clouds 32 1006 45 0 2.01 355 12:38 23.10.2019
5708 Clouds 31 1012 58 10000 3.1 330 12:19 23.10.2019
5709 Clouds 31 1012 58 10000 3.1 330 11:57 23.10.2019
5710 Clouds 31 1012 58 10000 3.1 330 11:39 23.10.2019
5711 Clouds 31 1012 58 10000 3.1 330 11:20 23.10.2019
5712 Clouds 30 1012 62 10000 2.1 340 10:46 23.10.2019
5713 Clouds 30 1012 62 10000 2.1 340 10:26 23.10.2019
5714 Clouds 30 1012 62 10000 2.1 340 10:26 23.10.2019
5715 Clouds 28 1012 69 10000 2.1 340 09:58 23.10.2019
5716 Clouds 28 1012 69 10000 2.1 340 09:39 23.10.2019
5717 Clouds 28 1012 69 10000 2.1 340 09:21 23.10.2019
5718 Clouds 25 1012 83 10000 0.97 43 08:43 23.10.2019
5719 Clouds 25 1012 83 10000 0.97 43 08:43 23.10.2019
5720 Clouds 25 1012 83 10000 0.97 43 08:25 23.10.2019
5721 Clouds 24 1012 78 0 0.97 43 07:47 23.10.2019
5722 Clouds 24 1012 78 0 0.97 43 07:27 23.10.2019
5723 Clouds 24 1012 78 0 0.97 43 06:48 23.10.2019
5724 Clouds 20 1010 98 0 0.39 131 06:23 23.10.2019
5725 Clouds 20 1010 98 0 0.39 131 05:59 23.10.2019
5726 Clouds 20 1010 98 0 0.39 131 05:18 23.10.2019
5727 Clouds 20 1010 98 0 0.39 131 03:37 23.10.2019
5728 Clouds 20 1010 97 0 0.57 95 02:42 23.10.2019
5729 Clouds 20 1010 97 0 0.57 95 01:35 23.10.2019
5730 Clouds 20 1010 97 0 0.57 95 00:59 23.10.2019
5731 Clouds 20 1010 97 0 0.57 95 00:33 23.10.2019
5732 Clouds 21 1010 92 0 0.93 94 23:43 22.10.2019
5733 Clouds 21 1010 92 0 0.93 94 23:20 22.10.2019
5734 Clouds 21 1010 92 0 0.93 94 22:59 22.10.2019
5735 Clouds 21 1010 92 0 0.93 94 22:40 22.10.2019
5736 Clouds 21 1010 92 0 0.93 94 22:22 22.10.2019
5737 Clouds 21 1010 92 0 0.93 94 21:57 22.10.2019
5738 Clouds 21 1009 99 0 0.9 70 21:38 22.10.2019
5739 Clouds 22 1009 93 0 0.44 118 21:19 22.10.2019
5740 Clouds 22 1009 93 0 0.44 118 20:58 22.10.2019
5741 Clouds 22 1009 93 0 0.44 118 20:40 22.10.2019
5742 Clouds 22 1009 93 0 0.44 118 20:22 22.10.2019
5743 Clouds 22 1009 93 0 0.44 118 19:56 22.10.2019
5744 Clouds 22 1009 93 0 0.44 118 19:38 22.10.2019
5745 Clouds 22 1009 93 0 0.44 118 19:20 22.10.2019
5746 Clouds 22 1009 93 0 0.44 118 18:55 22.10.2019
5747 Clouds 22 1009 93 0 0.44 118 18:37 22.10.2019
5748 Clouds 22 1009 93 0 0.44 118 18:37 22.10.2019
5749 Rain 27 1006 72 0 1.09 298 18:19 22.10.2019
5750 Rain 27 1006 72 0 1.09 298 17:54 22.10.2019
5751 Rain 27 1006 72 0 1.09 298 17:36 22.10.2019
5752 Rain 27 1006 72 0 1.09 298 17:18 22.10.2019
5753 Rain 27 1006 72 0 1.09 298 16:39 22.10.2019
5754 Clouds 31 1010 55 10000 4.1 180 16:20 22.10.2019
5755 Clouds 31 1010 55 10000 4.1 180 16:20 22.10.2019
5756 Clouds 31 1010 55 10000 4.1 180 15:58 22.10.2019
5757 Rain 27 1006 72 0 1.09 298 15:40 22.10.2019
5758 Clouds 30 1010 58 10000 3.1 180 15:19 22.10.2019
5759 Clouds 30 1010 58 10000 3.1 180 14:46 22.10.2019
5760 Clouds 30 1010 58 10000 3.1 180 14:46 22.10.2019
5761 Clouds 30 1010 58 10000 3.1 180 14:21 22.10.2019
5762 Clouds 30 1011 58 10000 2.1 0 13:54 22.10.2019
5763 Clouds 30 1011 58 10000 2.1 0 13:36 22.10.2019
5764 Clouds 30 1011 58 10000 2.1 0 13:18 22.10.2019
5765 Clouds 28 1013 65 10000 3.1 180 12:41 22.10.2019
5766 Clouds 28 1013 65 10000 3.1 180 12:22 22.10.2019
5767 Clouds 29 1013 62 10000 3.1 180 11:59 22.10.2019
5768 Clouds 29 1013 62 10000 3.1 180 11:39 22.10.2019
5769 Clouds 29 1013 62 10000 3.1 180 11:21 22.10.2019
5770 Clouds 29 1013 62 10000 3.1 180 11:21 22.10.2019
5771 Clouds 26 1012 70 0 0.8 162 10:58 22.10.2019
5772 Clouds 26 1012 70 0 0.8 162 10:37 22.10.2019
5773 Clouds 26 1012 70 0 0.8 162 10:37 22.10.2019
5774 Clouds 22 1014 94 8000 3.1 330 10:19 22.10.2019
5775 Clouds 22 1014 94 8000 3.1 330 09:55 22.10.2019
5776 Clouds 25 1012 80 0 0.66 216 09:36 22.10.2019
5777 Clouds 22 1014 94 7000 3.1 330 09:18 22.10.2019
5778 Clouds 22 1014 94 7000 3.1 330 08:42 22.10.2019
5779 Clouds 22 1014 94 7000 3.1 330 08:21 22.10.2019
5780 Clouds 22 1013 96 0 0.59 119 07:48 22.10.2019
5781 Clouds 22 1013 96 0 0.59 119 07:27 22.10.2019
5782 Clouds 22 1013 96 0 0.59 119 06:51 22.10.2019
5783 Clouds 22 1013 96 0 0.59 119 06:31 22.10.2019
5784 Clouds 20 1011 99 0 0.58 147 05:57 22.10.2019
5785 Clouds 20 1011 99 0 0.58 147 05:21 22.10.2019
5786 Clouds 20 1011 99 0 0.42 186 02:47 22.10.2019
5787 Clouds 20 1011 99 0 0.42 205 02:28 22.10.2019
5788 Clouds 20 1011 99 0 0.42 205 01:28 22.10.2019
5789 Clouds 20 1011 99 0 0.42 205 00:57 22.10.2019
5790 Clouds 20 1011 99 0 0.42 205 00:57 22.10.2019
5791 Clouds 20 1011 99 0 0.42 205 00:39 22.10.2019
5792 Clouds 20 1012 99 0 0.82 269 00:20 22.10.2019
5793 Clouds 20 1012 99 0 0.82 269 23:55 21.10.2019
5794 Clouds 20 1012 99 0 0.82 269 23:37 21.10.2019
5795 Clouds 20 1012 99 0 0.82 269 23:18 21.10.2019
5796 Clouds 20 1012 99 0 0.82 269 23:18 21.10.2019
5797 Clouds 20 1012 99 0 0.82 269 22:56 21.10.2019
5798 Clouds 20 1012 99 0 0.82 269 22:37 21.10.2019
5799 Clouds 20 1012 99 0 0.82 269 22:19 21.10.2019
5800 Clouds 20 1012 99 0 0.82 269 21:41 21.10.2019
5801 Clouds 21 1012 99 0 0.81 244 21:23 21.10.2019
5802 Clouds 21 1012 99 0 0.81 244 20:59 21.10.2019
5803 Clouds 21 1012 99 0 0.81 244 20:41 21.10.2019
5804 Clouds 21 1012 99 0 0.81 244 20:21 21.10.2019
5805 Clouds 21 1012 99 0 0.81 244 19:59 21.10.2019
5806 Clouds 21 1012 99 0 0.81 244 19:40 21.10.2019
5807 Thunderstorm 26 1010 74 8000 4.1 210 19:22 21.10.2019
5808 Thunderstorm 26 1010 74 8000 4.1 210 18:56 21.10.2019
5809 Clouds 21 1012 99 0 0.81 244 18:37 21.10.2019
5810 Thunderstorm 27 1010 65 10000 6.2 270 18:19 21.10.2019
5811 Thunderstorm 27 1010 65 10000 6.2 270 17:56 21.10.2019
5812 Rain 23 1008 94 0 0.89 283 17:38 21.10.2019
5813 Rain 23 1008 94 0 0.89 283 17:18 21.10.2019
5814 Rain 23 1008 94 0 0.89 283 16:56 21.10.2019
5815 Rain 23 1008 94 0 0.89 283 16:38 21.10.2019
5816 Clouds 29 1010 66 10000 5.1 270 16:19 21.10.2019
5817 Clouds 29 1010 66 10000 5.1 270 15:45 21.10.2019
5818 Clouds 29 1010 66 10000 5.1 270 15:25 21.10.2019
5819 Rain 22 1010 98 0 1.08 155 14:58 21.10.2019
5820 Rain 22 1010 98 0 1.08 155 14:38 21.10.2019
5821 Clouds 28 1012 69 10000 3.1 250 14:19 21.10.2019
5822 Clouds 28 1012 69 10000 3.1 250 13:56 21.10.2019
5823 Rain 22 1010 97 0 1.21 154 13:37 21.10.2019
5824 Clouds 27 1013 69 10000 3.1 230 13:18 21.10.2019
5825 Clouds 27 1013 69 10000 3.1 230 12:41 21.10.2019
5826 Clouds 27 1013 69 10000 3.1 230 12:22 21.10.2019
5827 Clouds 27 1015 78 8000 3.1 270 11:55 21.10.2019
5828 Clouds 27 1015 78 8000 3.1 270 11:37 21.10.2019
5829 Clouds 27 1015 78 8000 3.1 270 11:19 21.10.2019
5830 Clouds 25 1015 83 8000 1.15 153.457 10:56 21.10.2019
5831 Clouds 25 1015 83 8000 1.15 153.457 10:37 21.10.2019
5832 Clouds 25 1015 83 8000 1.15 153.457 10:18 21.10.2019
5833 Clouds 25 1014 83 8000 3.1 300 09:44 21.10.2019
5834 Clouds 25 1014 83 8000 3.1 300 09:25 21.10.2019
5835 Clouds 22 1013 100 7000 2.1 360 08:44 21.10.2019
5836 Clouds 22 1013 100 7000 2.1 360 08:24 21.10.2019
5837 Rain 21 1013 98 0 0.95 36.749 07:59 21.10.2019
5838 Rain 21 1013 98 0 0.95 36.749 07:37 21.10.2019
5839 Rain 21 1013 98 0 0.95 36.749 07:19 21.10.2019
5840 Rain 21 1013 98 0 0.95 36.749 06:53 21.10.2019
5841 Rain 21 1013 98 0 0.95 36.749 06:35 21.10.2019
5842 Rain 21 1010 89 0 0.32 8.746 05:55 21.10.2019
5843 Rain 21 1010 89 0 0.32 8.746 04:44 21.10.2019
5844 Clouds 22 1010 83 0 1.01 317.646 02:50 21.10.2019
5845 Clouds 22 1010 83 0 1.01 317.646 02:23 21.10.2019
5846 Clouds 22 1010 83 0 1.01 317.646 01:55 21.10.2019
5847 Clouds 21 1010 83 0 1.29 323.121 01:23 21.10.2019
5848 Clouds 21 1010 83 0 1.29 323.121 00:46 21.10.2019
5849 Clouds 21 1010 83 0 1.29 323.121 00:25 21.10.2019
5850 Clouds 22 1011 83 0 0.97 220.403 23:42 20.10.2019
5851 Clouds 22 1011 83 0 0.97 220.403 23:22 20.10.2019
5852 Clouds 22 1011 83 0 0.97 220.403 22:56 20.10.2019
5853 Clouds 22 1011 83 0 0.97 220.403 22:37 20.10.2019
5854 Clouds 22 1011 83 0 0.97 220.403 22:18 20.10.2019
5855 Clouds 22 1011 83 0 0.97 220.403 21:57 20.10.2019
5856 Clouds 22 1011 83 0 0.97 220.403 21:38 20.10.2019
5857 Clouds 23 1009 81 0 1.05 227.627 21:20 20.10.2019
5858 Clouds 23 1009 78 0 0.93 241.724 20:41 20.10.2019
5859 Clouds 23 1009 78 0 0.93 241.724 20:19 20.10.2019
5860 Clouds 23 1009 78 0 0.93 241.724 19:56 20.10.2019
5861 Clouds 23 1009 78 0 0.93 241.724 19:38 20.10.2019
5862 Clouds 28 1009 74 8000 1.5 0 19:20 20.10.2019
5863 Clouds 28 1009 74 8000 1.5 0 18:55 20.10.2019
5864 Clouds 28 1009 74 8000 1.5 0 18:55 20.10.2019
5865 Clouds 28 1009 74 8000 1.5 0 18:36 20.10.2019
5866 Clouds 28 1009 74 8000 1.5 0 18:18 20.10.2019
5867 Clouds 29 1006 63 0 0.76 242.657 17:42 20.10.2019
5868 Clouds 29 1006 63 0 0.76 242.657 17:23 20.10.2019
5869 Clouds 29 1006 63 0 0.76 242.657 16:57 20.10.2019
5870 Clouds 29 1006 63 0 0.76 242.657 16:39 20.10.2019
5871 Clouds 32 1009 55 10000 3.1 270 16:21 20.10.2019
5872 Clouds 32 1009 55 10000 3.1 270 15:56 20.10.2019
5873 Clouds 29 1006 63 0 0.76 242.657 15:38 20.10.2019
5874 Clouds 30 1008 50 0 1.44 268.689 15:19 20.10.2019
5875 Clouds 30 1008 50 0 1.44 268.689 14:56 20.10.2019
5876 Clouds 30 1008 50 0 1.44 268.689 14:37 20.10.2019
5877 Clouds 30 1008 50 0 1.44 268.689 14:37 20.10.2019
5878 Clouds 31 1012 58 10000 3.1 360 14:18 20.10.2019
5879 Clouds 31 1012 58 10000 3.1 360 13:54 20.10.2019
5880 Clouds 30 1008 50 0 1.44 268.689 13:36 20.10.2019
5881 Clouds 30 1013 66 10000 4.1 230 13:18 20.10.2019
5882 Clouds 30 1013 66 10000 4.1 230 13:18 20.10.2019
5883 Clouds 30 1013 66 10000 4.1 230 12:55 20.10.2019
5884 Clouds 30 1013 66 10000 4.1 230 12:36 20.10.2019
5885 Clouds 30 1013 66 10000 4.1 230 12:18 20.10.2019
5886 Clouds 29 1014 70 10000 3.1 290 11:41 20.10.2019
5887 Clouds 29 1014 70 10000 3.1 290 11:41 20.10.2019
5888 Clouds 29 1014 70 10000 3.1 290 11:23 20.10.2019
5889 Clouds 29 1014 70 10000 2.1 190 10:58 20.10.2019
5890 Clouds 29 1014 70 10000 2.1 190 10:39 20.10.2019
5891 Clouds 29 1014 70 10000 2.1 190 10:21 20.10.2019
5892 Clouds 29 1014 70 10000 2.1 190 10:21 20.10.2019
5893 Clouds 25 1014 88 8000 2.1 120 09:56 20.10.2019
5894 Clouds 25 1014 88 8000 2.1 120 09:38 20.10.2019
5895 Clouds 25 1014 88 8000 2.1 120 09:19 20.10.2019
5896 Rain 21 1014 98 0 0.66 3.728 08:43 20.10.2019
5897 Rain 21 1014 98 0 0.66 3.728 08:22 20.10.2019
5898 Rain 21 1014 98 0 0.66 3.728 07:49 20.10.2019
5899 Rain 21 1014 98 0 0.66 3.728 07:29 20.10.2019
5900 Rain 21 1014 98 0 0.66 3.728 06:31 20.10.2019
5901 Rain 19 1011 99 0 0.57 99.118 04:41 20.10.2019
5902 Rain 19 1011 99 0 0.57 99.118 03:53 20.10.2019
5903 Clouds 19 1011 99 0 0.55 120.784 03:23 20.10.2019
5904 Clouds 19 1011 99 0 0.55 120.784 02:55 20.10.2019
5905 Clouds 19 1011 99 0 0.55 120.784 02:28 20.10.2019
5906 Clouds 19 1011 99 0 0.55 120.784 01:54 20.10.2019
5907 Clouds 19 1011 98 0 0.06 95.194 01:23 20.10.2019
5908 Clouds 19 1011 98 0 0.06 95.194 00:53 20.10.2019
5909 Clouds 19 1013 99 0 0.43 337.898 00:21 20.10.2019
5910 Clouds 19 1013 99 0 0.43 337.898 23:55 19.10.2019
5911 Clouds 19 1013 99 0 0.43 337.898 23:37 19.10.2019
5912 Clouds 19 1013 99 0 0.43 337.898 23:19 19.10.2019
5913 Clouds 19 1013 99 0 0.43 337.898 22:41 19.10.2019
5914 Clouds 19 1013 99 0 0.43 337.898 22:23 19.10.2019
5915 Clouds 19 1013 99 0 0.43 337.898 21:58 19.10.2019
5916 Clouds 19 1013 99 0 0.43 337.898 21:40 19.10.2019
5917 Clouds 19 1013 99 0 0.43 337.898 21:40 19.10.2019
5918 Clouds 20 1012 99 0 1.05 205 21:20 19.10.2019
5919 Clouds 20 1011 98 0 1.35 228.268 20:43 19.10.2019
5920 Clouds 20 1011 98 0 1.35 228.268 20:21 19.10.2019
5921 Clouds 20 1011 98 0 1.35 228.268 19:56 19.10.2019
5922 Clouds 20 1011 98 0 1.35 228.268 19:37 19.10.2019
5923 Clouds 24 1010 83 10000 1.5 0 19:19 19.10.2019
5924 Clouds 24 1010 83 10000 1.5 0 18:41 19.10.2019
5925 Clouds 24 1010 83 10000 1.5 0 18:22 19.10.2019
5926 Thunderstorm 25 1010 78 10000 4.1 310 17:42 19.10.2019
5927 Thunderstorm 25 1010 78 10000 4.1 310 17:23 19.10.2019
5928 Thunderstorm 30 1009 62 10000 4.1 270 16:59 19.10.2019
5929 Thunderstorm 30 1009 62 10000 4.1 270 16:38 19.10.2019
5930 Thunderstorm 30 1009 62 10000 4.1 270 16:19 19.10.2019
5931 Clouds 30 1010 62 10000 1.5 0 15:44 19.10.2019
5932 Clouds 30 1010 62 10000 1.5 0 15:26 19.10.2019
5933 Clouds 29 1011 70 10000 2.1 250 14:40 19.10.2019
5934 Clouds 29 1011 70 10000 2.1 250 14:40 19.10.2019
5935 Clouds 29 1011 70 10000 2.1 250 14:21 19.10.2019
5936 Rain 21 1011 99 0 1.64 315.692 13:59 19.10.2019
5937 Rain 21 1011 99 0 1.64 315.692 13:41 19.10.2019
5938 Clouds 26 1014 78 10000 2.15 311.932 13:23 19.10.2019
5939 Clouds 26 1014 78 10000 2.15 311.932 12:59 19.10.2019
5940 Clouds 26 1014 78 10000 2.15 311.932 12:39 19.10.2019
5941 Clouds 26 1014 78 10000 1.06 353.702 12:20 19.10.2019
5942 Clouds 25 1015 83 10000 2.1 340 11:42 19.10.2019
5943 Clouds 25 1015 83 10000 2.1 340 11:23 19.10.2019
5944 Clouds 25 1015 83 10000 2.1 360 10:58 19.10.2019
5945 Clouds 25 1015 83 10000 2.1 360 10:40 19.10.2019
5946 Clouds 25 1015 83 10000 2.1 360 10:22 19.10.2019
5947 Clouds 25 1015 83 10000 2.1 360 10:22 19.10.2019
5948 Clouds 24 1015 88 10000 3.1 330 09:56 19.10.2019
5949 Clouds 24 1015 88 10000 3.1 330 09:37 19.10.2019
5950 Rain 22 1013 98 0 1.35 332.39 09:19 19.10.2019
5951 Rain 23 1013 98 0 0.98 313.345 08:41 19.10.2019
5952 Rain 23 1013 98 0 0.98 313.345 08:21 19.10.2019
5953 Rain 23 1013 98 0 0.98 313.345 07:46 19.10.2019
5954 Rain 23 1013 98 0 0.98 313.345 07:26 19.10.2019
5955 Rain 23 1013 98 0 0.98 313.345 07:26 19.10.2019
5956 Rain 23 1013 98 0 0.98 313.345 07:26 19.10.2019
5957 Rain 23 1013 98 0 0.98 313.345 06:48 19.10.2019
5958 Rain 23 1013 98 0 0.98 313.345 06:30 19.10.2019
5959 Rain 21 1010 98 0 0.53 151.218 05:35 19.10.2019
5960 Rain 21 1010 98 0 0.53 151.218 04:26 19.10.2019
5961 Rain 21 1010 96 0 1.01 153.308 02:56 19.10.2019
5962 Rain 21 1010 96 0 1.01 153.308 01:56 19.10.2019
5963 Rain 21 1010 96 0 1.01 153.308 01:37 19.10.2019
5964 Clouds 21 1010 95 0 0.66 157.958 00:49 19.10.2019
5965 Clouds 21 1010 95 0 0.66 157.958 00:28 19.10.2019
5966 Clouds 22 1011 93 0 0.91 203.083 23:56 18.10.2019
5967 Clouds 22 1011 93 0 0.91 203.083 23:56 18.10.2019
5968 Clouds 22 1011 93 0 0.91 203.083 23:37 18.10.2019
5969 Clouds 22 1011 93 0 0.91 203.083 23:19 18.10.2019
5970 Clouds 22 1011 93 0 0.91 203.083 22:43 18.10.2019
5971 Clouds 22 1011 93 0 0.91 203.083 22:21 18.10.2019
5972 Clouds 22 1011 93 0 0.91 203.083 21:59 18.10.2019
5973 Clouds 22 1011 93 0 0.91 203.083 21:39 18.10.2019
5974 Rain 22 1009 89 0 0.74 260.167 21:20 18.10.2019
5975 Rain 22 1009 89 0 0.74 260.167 20:59 18.10.2019
5976 Rain 22 1009 89 0 0.74 260.167 20:41 18.10.2019
5977 Rain 22 1009 89 0 0.74 260.167 20:22 18.10.2019
5978 Rain 22 1009 89 0 0.74 260.167 19:58 18.10.2019
5979 Rain 22 1009 89 0 0.74 260.167 19:58 18.10.2019
5980 Rain 22 1009 89 0 0.74 260.167 19:39 18.10.2019
5981 Rain 22 1009 89 0 0.74 260.167 19:39 18.10.2019
5982 Rain 22 1009 89 0 0.74 260.167 19:39 18.10.2019
5983 Thunderstorm 22 1009 94 7000 4.1 330 19:21 18.10.2019
5984 Thunderstorm 22 1009 94 7000 4.1 330 18:57 18.10.2019
5985 Rain 22 1009 89 0 0.74 260.167 18:39 18.10.2019
5986 Thunderstorm 28 1009 65 8000 4.1 330 18:20 18.10.2019
5987 Thunderstorm 28 1009 65 8000 4.1 330 17:39 18.10.2019
5988 Thunderstorm 28 1009 65 8000 4.1 330 17:21 18.10.2019
5989 Clouds 30 1008 58 10000 4.1 210 16:59 18.10.2019
5990 Clouds 30 1008 58 10000 4.1 210 16:38 18.10.2019
5991 Clouds 30 1008 58 10000 4.1 210 16:38 18.10.2019
5992 Clouds 30 1008 58 10000 4.1 210 16:19 18.10.2019
5993 Clouds 31 1008 66 10000 4.1 250 15:54 18.10.2019
5994 Clouds 31 1008 66 10000 4.1 250 15:54 18.10.2019
5995 Clouds 28 1006 64 0 1.37 199.733 15:36 18.10.2019
5996 Clouds 31 1009 66 10000 4.1 270 15:18 18.10.2019
5997 Clouds 31 1009 66 10000 4.1 270 14:56 18.10.2019
5998 Clouds 31 1009 66 10000 4.1 270 14:38 18.10.2019
5999 Clouds 31 1009 66 10000 4.1 270 14:18 18.10.2019
6000 Clouds 30 1012 66 10000 4.1 210 13:41 18.10.2019
6001 Clouds 30 1012 66 10000 4.1 210 13:23 18.10.2019
6002 Rain 27 1008 86 0 1.24 155.827 12:58 18.10.2019
6003 Rain 27 1008 86 0 1.24 155.827 12:39 18.10.2019
6004 Clouds 31 1013 62 10000 3.1 160 12:21 18.10.2019
6005 Clouds 31 1013 62 10000 3.1 160 11:57 18.10.2019
6006 Clouds 31 1013 62 10000 3.1 160 11:39 18.10.2019
6007 Clouds 31 1013 62 10000 3.1 160 11:19 18.10.2019
6008 Clouds 29 1014 66 10000 4.1 160 10:56 18.10.2019
6009 Clouds 29 1014 66 10000 4.1 160 10:56 18.10.2019
6010 Clouds 29 1014 66 10000 4.1 160 10:55 18.10.2019
6011 Clouds 29 1014 66 10000 4.1 160 10:55 18.10.2019
6012 Clouds 29 1014 66 10000 4.1 160 10:55 18.10.2019
6013 Clouds 29 1014 66 10000 4.1 160 10:36 18.10.2019
6014 Clouds 29 1014 66 10000 4.1 160 10:18 18.10.2019
6015 Clouds 28 1014 74 8000 3.1 120 09:54 18.10.2019
6016 Clouds 28 1014 74 8000 3.1 120 09:54 18.10.2019
6017 -273 0 0 0 0 0 09:54 18.10.2019
6018 Clouds 28 1014 74 8000 3.1 120 09:36 18.10.2019
6019 Clouds 28 1014 74 8000 3.1 120 09:18 18.10.2019
6020 Clouds 25 1013 88 8000 3.1 120 08:42 18.10.2019
6021 Clouds 25 1013 88 8000 3.1 120 08:21 18.10.2019
6022 Clouds 25 1013 88 8000 3.1 120 08:21 18.10.2019
6023 Rain 23 1013 88 0 0.24 184.96 07:42 18.10.2019
6024 Rain 23 1013 88 0 0.24 184.96 07:24 18.10.2019
6025 Rain 23 1013 88 0 0.24 184.96 06:40 18.10.2019
6026 Rain 20 1011 95 0 0.75 336.419 06:22 18.10.2019
6027 Rain 20 1011 95 0 0.75 336.419 05:56 18.10.2019
6028 Rain 20 1011 95 0 0.75 336.419 05:23 18.10.2019
6029 Rain 20 1011 95 0 0.75 336.419 04:41 18.10.2019
6030 Rain 20 1011 95 0 0.75 336.419 03:32 18.10.2019
6031 Clouds 21 1011 90 0 0.62 62.276 02:33 18.10.2019
6032 Clouds 21 1011 90 0 0.62 62.276 01:44 18.10.2019
6033 Clouds 21 1011 89 0 0.62 45.853 01:26 18.10.2019
6034 Clouds 21 1011 89 0 0.62 45.853 00:45 18.10.2019
6035 Clouds 21 1012 88 0 0.6 115.716 00:21 18.10.2019
6036 Clouds 21 1012 88 0 0.6 115.716 23:55 17.10.2019
6037 Clouds 21 1012 88 0 0.6 115.716 23:36 17.10.2019
6038 Clouds 21 1012 88 0 0.6 115.716 23:18 17.10.2019
6039 Clouds 21 1012 88 0 0.6 115.716 22:54 17.10.2019
6040 Clouds 21 1012 88 0 0.6 115.716 22:36 17.10.2019
6041 Clouds 21 1012 88 0 0.6 115.716 22:18 17.10.2019
6042 Clouds 21 1012 88 0 0.6 115.716 21:55 17.10.2019
6043 Clouds 21 1012 88 0 0.6 115.716 21:55 17.10.2019
6044 Clouds 21 1012 88 0 0.6 115.716 21:37 17.10.2019
6045 Clouds 25 1012 83 7000 0.25 123.043 21:19 17.10.2019
6046 Clouds 25 1012 83 7000 0.14 100.491 20:56 17.10.2019
6047 Clouds 25 1012 83 7000 0.14 100.491 20:56 17.10.2019
6048 Clouds 25 1012 83 7000 0.14 100.491 20:56 17.10.2019
6049 Clouds 22 1010 81 0 0.14 100.491 20:37 17.10.2019
6050 Clouds 27 1011 83 8000 2.1 50 20:18 17.10.2019
6051 Clouds 22 1010 81 0 0.14 100.491 19:42 17.10.2019
6052 Clouds 27 1011 83 8000 3.1 90 19:20 17.10.2019
6053 Clouds 27 1011 83 8000 3.1 90 18:59 17.10.2019
6054 Clouds 27 1011 83 8000 3.1 90 18:39 17.10.2019
6055 Clouds 27 1011 83 8000 3.1 90 18:20 17.10.2019
6056 Clouds 28 1010 69 10000 3.1 160 17:44 17.10.2019
6057 Clouds 28 1010 69 10000 3.1 160 17:25 17.10.2019
6058 Clouds 31 1011 58 10000 3.1 180 16:59 17.10.2019
6059 Clouds 31 1011 58 10000 3.1 180 16:41 17.10.2019
6060 Clouds 31 1011 58 10000 3.1 180 16:19 17.10.2019
6061 Clouds 31 1011 58 10000 0.787 274 15:57 17.10.2019
6062 Clouds 31 1011 58 10000 0.787 274 15:38 17.10.2019
6063 Clouds 31 1011 58 10000 0.787 274 15:38 17.10.2019
6064 Clouds 31 1011 58 10000 1.492 323 15:20 17.10.2019
6065 Clouds 29 1012 66 10000 3.1 320 14:56 17.10.2019
6066 Clouds 28 1009 60 0 1.993 285 14:38 17.10.2019
6067 Clouds 29 1013 66 10000 2.1 360 14:19 17.10.2019
6068 Clouds 28 1009 60 0 1.993 285 13:40 17.10.2019
6069 Clouds 29 1014 66 10000 2.1 330 13:20 17.10.2019
6070 Clouds 29 1014 66 10000 2.1 330 12:58 17.10.2019
6071 Clouds 28 1009 60 0 1.993 285 12:37 17.10.2019
6072 Clouds 28 1015 69 10000 2.1 330 12:19 17.10.2019
6073 Clouds 28 1015 69 10000 2.1 330 11:42 17.10.2019
6074 Clouds 28 1015 69 10000 2.1 330 11:22 17.10.2019
6075 Clouds 26 1015 78 8000 2.1 360 10:59 17.10.2019
6076 Clouds 26 1015 78 8000 2.1 360 10:41 17.10.2019
6077 Clouds 26 1015 78 8000 2.1 360 10:41 17.10.2019
6078 Clouds 26 1015 78 8000 2.1 360 10:19 17.10.2019
6079 Rain 22 1014 93 0 0.685 268 09:56 17.10.2019
6080 Rain 22 1014 97 0 0.944 290 09:38 17.10.2019
6081 Clouds 22 1015 94 7000 2.1 270 09:19 17.10.2019
6082 Clouds 22 1015 94 7000 2.1 270 08:48 17.10.2019
6083 Clouds 21 1015 98 0 0.748 147 08:27 17.10.2019
6084 Clouds 21 1015 98 0 0.748 147 07:59 17.10.2019
6085 Clouds 21 1015 98 0 0.748 147 07:41 17.10.2019
6086 Clouds 21 1015 98 0 0.748 147 07:21 17.10.2019
6087 Clouds 21 1015 98 0 0.748 147 06:51 17.10.2019
6088 Clouds 21 1015 98 0 0.748 147 06:31 17.10.2019
6089 Clouds 20 1012 99 0 0.993 121 05:59 17.10.2019
6090 Clouds 20 1012 99 0 0.993 121 05:37 17.10.2019
6091 Clouds 20 1012 99 0 0.993 121 05:19 17.10.2019
6092 Clouds 20 1012 99 0 0.993 121 04:45 17.10.2019
6093 Clouds 20 1012 99 0 0.993 121 03:45 17.10.2019
6094 Clouds 20 1012 98 0 0.306 150 01:56 17.10.2019
6095 Clouds 20 1012 98 0 0.306 150 00:42 17.10.2019
6096 Clouds 20 1013 98 0 0.544 249 00:21 17.10.2019
6097 Clouds 20 1013 98 0 0.544 249 23:58 16.10.2019
6098 Clouds 20 1013 98 0 0.544 249 23:39 16.10.2019
6099 Clouds 20 1013 98 0 0.544 249 23:18 16.10.2019
6100 Clouds 20 1013 98 0 0.544 249 22:54 16.10.2019
6101 Clouds 20 1013 98 0 0.544 249 22:36 16.10.2019
6102 Clouds 20 1013 98 0 0.544 249 22:18 16.10.2019
6103 Clouds 20 1013 98 0 0.544 249 21:54 16.10.2019
6104 Clouds 20 1013 98 0 0.544 249 21:54 16.10.2019
6105 -273 0 0 0 0 0 21:54 16.10.2019
6106 Clouds 20 1013 99 0 0.258 173 21:36 16.10.2019
6107 Clouds 21 1012 95 0 0.731 305 21:18 16.10.2019
6108 Clouds 21 1012 95 0 0.731 305 20:54 16.10.2019
6109 Clouds 21 1012 95 0 0.731 305 20:36 16.10.2019
6110 Clouds 21 1012 95 0 0.731 305 20:18 16.10.2019
6111 Clouds 21 1012 95 0 0.731 305 19:40 16.10.2019
6112 Clouds 23 1012 88 10000 2.1 190 19:21 16.10.2019
6113 -273 0 0 0 0 0 18:57 16.10.2019
6114 Clouds 23 1012 88 10000 2.1 190 18:56 16.10.2019
6115 Clouds 23 1012 88 10000 2.1 190 18:56 16.10.2019
6116 Clouds 23 1012 88 10000 2.1 190 18:37 16.10.2019
6117 Clouds 23 1012 88 10000 2.1 190 18:18 16.10.2019
6118 Clouds 23 1012 88 10000 2.1 190 18:18 16.10.2019
6119 Clouds 24 1012 83 10000 2.1 180 17:55 16.10.2019
6120 Clouds 24 1012 83 10000 2.1 180 17:36 16.10.2019
6121 Clouds 24 1012 83 10000 2.1 180 17:18 16.10.2019
6122 Clouds 25 1012 78 10000 2.14 286 16:43 16.10.2019
6123 Clouds 25 1012 78 10000 2.14 286 16:23 16.10.2019
6124 Rain 23 1009 87 0 2.14 286 15:59 16.10.2019
6125 Rain 23 1009 87 0 2.14 286 15:39 16.10.2019
6126 Clouds 24 1013 83 10000 2.1 320 15:19 16.10.2019
6127 Clouds 24 1013 83 10000 2.1 320 14:58 16.10.2019
6128 Clouds 24 1013 83 10000 2.1 320 14:39 16.10.2019
6129 Clouds 24 1013 83 10000 2.1 320 14:20 16.10.2019
6130 Clouds 24 1014 78 8000 1.799 293 13:57 16.10.2019
6131 Clouds 24 1014 78 8000 1.799 293 13:39 16.10.2019
6132 Clouds 24 1014 78 8000 1.799 293 13:21 16.10.2019
6133 Clouds 23 1014 100 8000 3.1 320 12:42 16.10.2019
6134 Rain 21 1015 100 6000 3.1 320 12:20 16.10.2019
6135 Rain 21 1015 100 6000 3.1 320 11:55 16.10.2019
6136 Rain 21 1015 100 6000 3.1 320 11:36 16.10.2019
6137 Rain 21 1015 100 6000 3.1 320 11:18 16.10.2019
6138 Rain 22 1014 99 0 0.763 323 10:36 16.10.2019
6139 Rain 22 1014 99 0 0.763 323 10:36 16.10.2019
6140 Rain 21 1015 100 5000 0.763 323 10:18 16.10.2019
6141 Rain 22 1014 99 0 0.763 323 09:40 16.10.2019
6142 Rain 20 1015 100 4000 3.1 280 09:22 16.10.2019
6143 Rain 21 1014 99 0 0.718 132 08:57 16.10.2019
6144 Rain 21 1014 99 0 0.718 132 08:38 16.10.2019
6145 Rain 21 1014 99 0 0.718 132 08:19 16.10.2019
6146 Rain 21 1014 99 0 0.718 132 07:42 16.10.2019
6147 Rain 21 1014 99 0 0.718 132 07:23 16.10.2019
6148 Rain 21 1014 99 0 0.718 132 06:48 16.10.2019
6149 Rain 21 1014 99 0 0.718 132 06:29 16.10.2019
6150 Rain 21 1010 99 0 0.533 47 04:48 16.10.2019
6151 Rain 21 1010 99 0 1.156 283 02:51 16.10.2019
6152 Rain 21 1010 99 0 1.49 283 01:21 16.10.2019
6153 Rain 21 1010 99 0 1.49 283 00:59 16.10.2019
6154 Rain 21 1010 99 0 1.49 283 00:40 16.10.2019
6155 Rain 21 1011 97 0 1.188 293 23:59 15.10.2019
6156 Rain 21 1011 97 0 1.188 293 23:38 15.10.2019
6157 Rain 21 1011 97 0 1.188 293 23:20 15.10.2019
6158 Rain 21 1011 97 0 1.188 293 22:55 15.10.2019
6159 Rain 21 1011 97 0 1.188 293 22:37 15.10.2019
6160 Rain 21 1011 97 0 1.188 293 22:18 15.10.2019
6161 Rain 21 1011 97 0 1.188 293 21:55 15.10.2019
6162 Rain 21 1011 97 0 1.188 293 21:55 15.10.2019
6163 Rain 21 1011 98 0 1.14 283 21:36 15.10.2019
6164 Rain 21 1011 98 0 1.14 283 21:36 15.10.2019
6165 Rain 21 1011 98 0 1.14 283 21:36 15.10.2019
6166 Rain 22 1009 96 0 1.245 225 21:18 15.10.2019
6167 Rain 22 1009 96 0 1.245 225 20:55 15.10.2019
6168 Rain 22 1009 96 0 1.245 225 20:37 15.10.2019
6169 Rain 22 1009 96 0 1.245 225 20:19 15.10.2019
6170 Rain 22 1009 96 0 1.245 225 19:55 15.10.2019
6171 Rain 22 1009 96 0 1.245 225 19:55 15.10.2019
6172 Rain 22 1009 96 0 1.245 225 19:55 15.10.2019
6173 Rain 22 1009 96 0 1.245 225 19:37 15.10.2019
6174 Rain 22 1009 96 0 1.245 225 19:37 15.10.2019
6175 Clouds 28 1008 74 10000 3.1 240 19:18 15.10.2019
6176 Clouds 28 1008 74 10000 3.1 240 18:44 15.10.2019
6177 Clouds 28 1008 74 10000 3.1 240 18:25 15.10.2019
6178 Clouds 30 1007 70 10000 3.1 240 17:55 15.10.2019
6179 Clouds 30 1007 70 10000 3.1 240 17:55 15.10.2019
6180 Clouds 30 1007 70 10000 3.1 240 17:37 15.10.2019
6181 Clouds 30 1007 70 10000 3.1 240 17:19 15.10.2019
6182 Clouds 30 1007 70 10000 3.1 240 17:19 15.10.2019
6183 Clouds 32 1017 55 10000 3.1 220 16:45 15.10.2019
6184 Clouds 32 1017 55 10000 3.1 220 16:22 15.10.2019
6185 Clouds 32 1008 59 10000 3.1 240 15:58 15.10.2019
6186 Clouds 32 1008 59 10000 3.1 240 15:58 15.10.2019
6187 Clouds 32 1008 59 10000 3.1 240 15:40 15.10.2019
6188 Clouds 32 1010 62 10000 3.1 180 15:20 15.10.2019
6189 Clouds 32 1010 62 10000 3.1 180 14:56 15.10.2019
6190 Clouds 32 1010 62 10000 3.1 180 14:37 15.10.2019
6191 Clouds 31 1011 66 10000 2.1 250 14:19 15.10.2019
6192 Clouds 31 1011 66 10000 2.1 250 13:43 15.10.2019
6193 Clouds 30 1012 66 10000 3.1 250 13:21 15.10.2019
6194 Clouds 30 1012 66 10000 3.1 250 12:59 15.10.2019
6195 Clouds 30 1012 66 10000 3.1 250 12:59 15.10.2019
6196 Clouds 30 1012 66 10000 3.1 250 12:38 15.10.2019
6197 Clouds 30 1012 66 10000 3.1 250 12:20 15.10.2019
6198 Rain 26 1011 91 0 1.591 296 11:44 15.10.2019
6199 Clouds 28 1013 74 10000 2.1 270 11:21 15.10.2019
6200 Clouds 28 1013 74 10000 2.1 270 10:58 15.10.2019
6201 Clouds 28 1013 74 10000 2.1 270 10:39 15.10.2019
6202 Clouds 26 1013 78 10000 1.59 296.388 10:19 15.10.2019
6203 Clouds 26 1013 78 10000 1.59 296.388 09:57 15.10.2019
6204 Clouds 26 1013 78 10000 1.59 296.388 09:37 15.10.2019
6205 Clouds 24 1013 84 0 0.75 295.258 09:19 15.10.2019
6206 Clouds 25 1012 82 0 0.47 77.445 08:41 15.10.2019
6207 Clouds 25 1012 82 0 0.47 77.445 08:21 15.10.2019
6208 Clouds 25 1012 82 0 0.47 77.445 07:56 15.10.2019
6209 Clouds 25 1012 82 0 0.47 77.445 07:56 15.10.2019
6210 Clouds 25 1012 82 0 0.47 77.445 07:38 15.10.2019
6211 Clouds 25 1012 82 0 0.47 77.445 07:18 15.10.2019
6212 Clouds 25 1012 82 0 0.47 77.445 06:43 15.10.2019
6213 Clouds 25 1012 82 0 0.47 77.445 06:24 15.10.2019
6214 Clouds 21 1010 96 0 0.57 351.87 05:41 15.10.2019
6215 Clouds 21 1010 96 0 0.57 351.87 05:22 15.10.2019
6216 Clouds 21 1010 96 0 0.57 351.87 04:23 15.10.2019
6217 Clouds 21 1010 96 0 0.57 351.87 03:36 15.10.2019
6218 Clouds 22 1009 93 0 0.69 241.416 02:23 15.10.2019
6219 Clouds 22 1009 93 0 0.69 241.416 01:47 15.10.2019
6220 Clouds 22 1009 90 0 0.73 225.776 01:19 15.10.2019
6221 Clouds 22 1009 90 0 0.73 225.776 00:48 15.10.2019
6222 Clouds 23 1010 87 0 0.04 310.314 00:21 15.10.2019
6223 Clouds 23 1010 87 0 0.04 310.314 23:40 14.10.2019
6224 Clouds 23 1010 87 0 0.04 310.314 23:20 14.10.2019
6225 Clouds 23 1010 87 0 0.04 310.314 22:41 14.10.2019
6226 Clouds 23 1010 87 0 0.04 310.314 22:21 14.10.2019
6227 Clouds 23 1010 87 0 0.04 310.314 21:59 14.10.2019
6228 Clouds 23 1010 87 0 0.04 310.314 21:40 14.10.2019
6229 Clouds 24 1009 83 0 0.84 159.572 21:22 14.10.2019
6230 Clouds 24 1008 84 0 1.14 122.786 20:59 14.10.2019
6231 Clouds 24 1008 84 0 1.14 122.786 20:39 14.10.2019
6232 Clouds 24 1008 84 0 1.14 122.786 20:20 14.10.2019
6233 Clouds 24 1008 84 0 1.14 122.786 19:58 14.10.2019
6234 Clouds 24 1008 84 0 1.143 122 19:40 14.10.2019
6235 Clouds 24 1008 84 0 1.143 122 19:22 14.10.2019
6236 Clouds 24 1008 84 0 1.14 122.786 18:58 14.10.2019
6237 Clouds 24 1008 84 0 1.14 122.786 18:38 14.10.2019
6238 Clouds 29 1006 65 0 0.61 20.809 18:18 14.10.2019
6239 Clouds 29 1006 65 0 0.61 20.809 17:44 14.10.2019
6240 Clouds 29 1006 65 0 0.61 20.809 17:26 14.10.2019
6241 Clouds 29 1006 65 0 0.61 20.809 16:59 14.10.2019
6242 -273 0 0 0 0 0 16:40 14.10.2019
6243 Clouds 32 1009 62 10000 2.1 10 16:20 14.10.2019
6244 Clouds 32 1009 62 10000 2.1 10 16:20 14.10.2019
6245 Clouds 32 1009 62 10000 2.1 10 15:42 14.10.2019
6246 Clouds 32 1009 62 10000 2.1 10 15:22 14.10.2019
6247 Thunderstorm 30 1010 70 10000 2.1 20 14:56 14.10.2019
6248 Thunderstorm 30 1010 70 10000 2.1 20 14:56 14.10.2019
6249 Clouds 34 1007 45 0 0.84 279.158 14:38 14.10.2019
6250 Clouds 31 1011 66 10000 4.1 160 14:18 14.10.2019
6251 Clouds 31 1011 66 10000 4.1 160 13:42 14.10.2019
6252 Clouds 31 1011 66 10000 4.1 160 13:21 14.10.2019
6253 -273 0 0 0 0 0 12:54 14.10.2019
6254 Clouds 30 1013 70 10000 2.1 120 12:36 14.10.2019
6255 Clouds 30 1013 70 10000 2.1 120 12:18 14.10.2019
6256 Clouds 30 1013 66 10000 2.1 70 11:43 14.10.2019
6257 Clouds 30 1013 66 10000 2.1 70 11:24 14.10.2019
6258 Clouds 28 1014 78 10000 3.1 90 10:55 14.10.2019
6259 Rain 25 1012 87 0 0.45 289.756 10:37 14.10.2019
6260 Rain 25 1012 87 0 0.45 289.756 10:18 14.10.2019
6261 Rain 25 1012 87 0 0.45 289.756 09:41 14.10.2019
6262 Clouds 23 1013 92 0 0.93 99.563 09:21 14.10.2019
6263 Clouds 23 1013 92 0 0.93 99.563 08:50 14.10.2019
6264 Clouds 23 1013 92 0 0.93 99.563 08:23 14.10.2019
6265 Clouds 23 1013 92 0 0.93 99.563 07:47 14.10.2019
6266 Clouds 23 1013 92 0 0.93 99.563 07:25 14.10.2019
6267 Clouds 23 1013 92 0 0.93 99.563 06:58 14.10.2019
6268 Clouds 23 1013 92 0 0.93 99.563 06:28 14.10.2019
6269 Clouds 21 1010 98 0 0.97 97.22 05:57 14.10.2019
6270 Clouds 21 1010 98 0 0.97 97.22 05:26 14.10.2019
6271 Clouds 21 1010 98 0 0.97 97.22 03:50 14.10.2019
6272 Clouds 21 1010 98 0 0.97 97.22 03:26 14.10.2019
6273 Clouds 21 1010 98 0 0.73 125.024 02:32 14.10.2019
6274 Clouds 21 1010 98 0 0.6 118.915 01:21 14.10.2019
6275 Clouds 21 1010 98 0 0.6 118.915 00:42 14.10.2019
6276 Clouds 21 1011 97 0 0.18 357.469 00:18 14.10.2019
6277 Clouds 21 1011 97 0 0.18 357.469 23:41 13.10.2019
6278 Clouds 21 1011 97 0 0.18 357.469 23:20 13.10.2019
6279 Clouds 21 1011 97 0 0.18 357.469 22:57 13.10.2019
6280 Clouds 21 1011 97 0 0.18 357.469 22:39 13.10.2019
6281 Clouds 21 1011 97 0 0.18 357.469 22:39 13.10.2019
6282 Clouds 21 1011 97 0 0.18 357.469 22:20 13.10.2019
6283 Clouds 21 1011 97 0 0.18 357.469 21:57 13.10.2019
6284 Clouds 21 1011 97 0 0.18 357.469 21:36 13.10.2019
6285 Rain 22 1010 97 0 1.16 56.775 21:18 13.10.2019
6286 -273 0 0 0 0 0 20:57 13.10.2019
6287 Rain 22 1009 97 0 1.91 75.513 20:37 13.10.2019
6288 Rain 22 1009 97 0 1.91 75.513 20:19 13.10.2019
6289 Rain 22 1009 97 0 1.91 75.513 19:55 13.10.2019
6290 Rain 22 1009 97 0 1.91 75.513 19:55 13.10.2019
6291 Rain 22 1009 97 0 1.91 75.513 19:37 13.10.2019
6292 Rain 22 1009 97 0 1.91 75.513 19:19 13.10.2019
6293 Rain 22 1009 97 0 1.91 75.513 18:54 13.10.2019
6294 Rain 22 1009 97 0 1.91 75.513 18:36 13.10.2019
6295 Clouds 30 1009 62 8000 3.1 270 18:18 13.10.2019
6296 Clouds 30 1009 62 8000 3.1 270 17:42 13.10.2019
6297 Clouds 30 1009 62 8000 3.1 270 17:42 13.10.2019
6298 Clouds 30 1009 62 8000 3.1 270 17:24 13.10.2019
6299 Clouds 30 1009 62 9000 3.1 330 16:45 13.10.2019
6300 Clouds 27 1006 78 0 1.11 63.573 16:45 13.10.2019
6301 Clouds 27 1006 78 0 1.11 63.573 16:20 13.10.2019
6302 Clouds 27 1006 78 0 1.11 63.573 15:59 13.10.2019
6303 Clouds 27 1006 78 0 1.11 63.573 15:39 13.10.2019
6304 Clouds 30 1011 62 8000 3.1 30 15:21 13.10.2019
6305 Clouds 30 1011 62 8000 3.1 30 14:59 13.10.2019
6306 Clouds 30 1011 62 8000 3.1 30 14:40 13.10.2019
6307 Clouds 30 1011 62 8000 3.1 30 14:22 13.10.2019
6308 Clouds 26 1012 78 8000 3.1 30 13:59 13.10.2019
6309 Clouds 26 1012 78 8000 3.1 30 13:38 13.10.2019
6310 Clouds 26 1012 78 8000 3.1 30 13:20 13.10.2019
6311 Clouds 27 1013 78 8000 2.1 180 12:56 13.10.2019
6312 Clouds 27 1013 78 8000 2.1 180 12:38 13.10.2019
6313 Clouds 27 1013 78 8000 2.1 180 12:19 13.10.2019
6314 Clouds 26 1014 78 8000 2.1 30 11:55 13.10.2019
6315 Clouds 26 1014 78 8000 2.1 30 11:37 13.10.2019
6316 Clouds 26 1014 78 8000 2.1 30 11:37 13.10.2019
6317 Clouds 26 1014 78 8000 2.1 30 11:18 13.10.2019
6318 Clouds 31 1012 50 0 1.41 308.622 10:41 13.10.2019
6319 Clouds 31 1012 50 0 1.41 308.622 10:23 13.10.2019
6320 Clouds 31 1012 50 0 1.41 308.622 09:41 13.10.2019
6321 Clouds 24 1012 80 0 1.08 349.156 09:22 13.10.2019
6322 Clouds 24 1012 80 0 1.08 349.156 08:59 13.10.2019
6323 Clouds 23 1012 87 0 0.81 8.892 08:40 13.10.2019
6324 Clouds 23 1012 87 0 0.81 8.892 08:21 13.10.2019
6325 Clouds 23 1012 87 0 0.81 8.892 07:46 13.10.2019
6326 Clouds 23 1012 87 0 0.81 8.892 07:21 13.10.2019
6327 Clouds 23 1012 87 0 0.81 8.892 06:42 13.10.2019
6328 Clouds 20 1011 97 0 0.34 351.062 05:49 13.10.2019
6329 Clouds 20 1011 97 0 0.34 351.062 04:49 13.10.2019
6330 Clouds 20 1011 97 0 0.34 351.062 04:29 13.10.2019
6331 Clouds 20 1010 97 0 0.39 338.199 02:42 13.10.2019
6332 Clouds 20 1010 97 0 0.39 338.199 01:59 13.10.2019
6333 Clouds 20 1010 97 0 0.39 338.199 01:30 13.10.2019
6334 Clouds 20 1010 98 0 0.27 203.665 00:49 13.10.2019
6335 Clouds 21 1011 94 0 1.29 309.299 00:22 13.10.2019
6336 Clouds 21 1011 94 0 1.29 309.299 23:57 12.10.2019
6337 Clouds 21 1011 94 0 1.29 309.299 23:39 12.10.2019
6338 Clouds 21 1011 94 0 1.29 309.299 23:19 12.10.2019
6339 Clouds 21 1011 94 0 1.29 309.299 22:57 12.10.2019
6340 Clouds 21 1011 94 0 1.29 309.299 22:38 12.10.2019
6341 Clouds 21 1011 94 0 1.29 309.299 22:20 12.10.2019
6342 Clouds 21 1011 94 0 1.29 309.299 21:55 12.10.2019
6343 Clouds 21 1011 94 0 1.29 309.299 21:36 12.10.2019
6344 Clouds 22 1011 91 0 1.51 350.763 21:18 12.10.2019
6345 Rain 22 1010 95 0 1.6 339.406 20:40 12.10.2019
6346 Rain 22 1010 95 0 1.6 339.406 20:22 12.10.2019
6347 Rain 22 1010 95 0 1.6 339.406 19:38 12.10.2019
6348 Clouds 25 1011 83 10000 4.1 270 19:20 12.10.2019
6349 Clouds 25 1011 83 10000 4.1 270 18:57 12.10.2019
6350 Clouds 25 1011 83 10000 4.1 270 18:39 12.10.2019
6351 Clouds 25 1011 83 10000 4.1 270 18:20 12.10.2019
6352 Clouds 27 1011 74 10000 2.22 309.195 17:43 12.10.2019
6353 Clouds 28 1010 69 10000 2.1 260 17:19 12.10.2019
6354 Clouds 28 1010 69 10000 2.1 260 16:54 12.10.2019
6355 Clouds 28 1010 69 10000 2.1 260 16:54 12.10.2019
6356 Clouds 28 1010 69 10000 2.1 260 16:36 12.10.2019
6357 Clouds 28 1010 69 10000 2.1 260 16:18 12.10.2019
6358 Rain 26 1008 80 0 2.22 309.195 15:44 12.10.2019
6359 Rain 24 1008 85 0 2.51 306.893 15:25 12.10.2019
6360 Rain 24 1008 85 0 2.51 306.893 14:43 12.10.2019
6361 Rain 24 1008 85 0 2.51 306.893 14:22 12.10.2019
6362 Rain 24 1008 85 0 2.51 306.893 13:59 12.10.2019
6363 Rain 24 1008 85 0 2.51 306.893 13:40 12.10.2019
6364 Clouds 26 1014 78 10000 3.1 260 13:21 12.10.2019
6365 Clouds 26 1014 78 10000 3.1 260 12:39 12.10.2019
6366 Clouds 26 1014 78 10000 3.1 260 12:21 12.10.2019
6367 Clouds 26 1014 78 10000 3.1 240 11:58 12.10.2019
6368 Rain 22 1013 96 0 1.47 313.069 11:39 12.10.2019
6369 Clouds 25 1014 83 10000 2.1 90 11:20 12.10.2019
6370 Clouds 25 1014 83 10000 2.1 90 10:43 12.10.2019
6371 Clouds 25 1014 83 10000 2.1 90 10:23 12.10.2019
6372 Clouds 23 1014 94 6000 1.47 313.069 09:58 12.10.2019
6373 Clouds 23 1014 94 6000 1.47 313.069 09:39 12.10.2019
6374 Clouds 23 1014 94 6000 1.34 315.212 09:21 12.10.2019
6375 Rain 22 1013 97 0 1.43 286.707 08:57 12.10.2019
6376 Rain 22 1013 97 0 1.43 286.707 08:57 12.10.2019
6377 Rain 22 1013 97 0 1.43 286.707 08:38 12.10.2019
6378 Rain 22 1013 97 0 1.43 286.707 08:19 12.10.2019
6379 Rain 22 1013 97 0 1.43 286.707 07:34 12.10.2019
6380 Rain 22 1013 97 0 1.43 286.707 06:51 12.10.2019
6381 Rain 21 1010 99 0 1.42 251.769 05:47 12.10.2019
6382 Rain 21 1010 99 0 1.42 251.769 05:22 12.10.2019
6383 Rain 21 1010 99 0 1.42 251.769 04:24 12.10.2019
6384 Rain 21 1010 99 0 1.42 251.769 03:30 12.10.2019
6385 Rain 21 1010 99 0 1.08 263.806 01:38 12.10.2019
6386 Rain 21 1010 99 0 1.26 267.224 01:19 12.10.2019
6387 Rain 21 1010 99 0 1.26 267.224 00:40 12.10.2019
6388 Rain 21 1011 99 0 1.5 250.403 23:59 11.10.2019
6389 Rain 21 1011 99 0 1.5 250.403 23:40 11.10.2019
6390 Rain 21 1011 99 0 1.5 250.403 23:20 11.10.2019
6391 Rain 21 1011 99 0 1.5 250.403 22:40 11.10.2019
6392 Rain 21 1011 99 0 1.5 250.403 22:40 11.10.2019
6393 Rain 21 1011 99 0 1.5 250.403 22:21 11.10.2019
6394 Rain 21 1011 99 0 1.5 250.403 21:56 11.10.2019
6395 Rain 21 1011 99 0 1.5 250.403 21:38 11.10.2019
6396 Rain 22 1010 96 0 3.36 225.325 21:20 11.10.2019
6397 Rain 22 1009 96 0 1.62 238.441 20:44 11.10.2019
6398 Rain 22 1009 96 0 1.62 238.441 20:26 11.10.2019
6399 Rain 22 1009 96 0 1.62 238.441 19:57 11.10.2019
6400 Rain 22 1009 96 0 1.62 238.441 19:57 11.10.2019
6401 Rain 22 1009 96 0 1.62 238.441 19:38 11.10.2019
6402 Clouds 25 1009 83 10000 3.1 260 19:18 11.10.2019
6403 Clouds 25 1009 83 10000 3.1 260 18:58 11.10.2019
6404 Clouds 25 1009 83 10000 3.1 260 18:58 11.10.2019
6405 Clouds 25 1009 83 10000 3.1 260 18:38 11.10.2019
6406 Clouds 25 1009 83 10000 3.1 260 18:19 11.10.2019
6407 Clouds 29 1009 66 10000 3.1 260 17:58 11.10.2019
6408 Clouds 29 1009 66 10000 3.1 260 17:37 11.10.2019
6409 Clouds 29 1009 66 10000 3.1 260 17:19 11.10.2019
6410 Clouds 29 1010 62 10000 3.1 260 16:56 11.10.2019
6411 Clouds 29 1010 62 10000 3.1 260 16:37 11.10.2019
6412 Clouds 29 1010 62 10000 3.1 260 16:18 11.10.2019
6413 Clouds 29 1010 62 10000 3.1 260 16:18 11.10.2019
6414 Clouds 29 1010 66 10000 2.1 240 15:41 11.10.2019
6415 Clouds 29 1010 66 10000 2.1 240 15:20 11.10.2019
6416 Clouds 28 1011 69 10000 2.1 300 14:58 11.10.2019
6417 Clouds 28 1011 69 10000 2.1 300 14:58 11.10.2019
6418 Rain 27 1006 89 0 1.24 335.07 14:37 11.10.2019
6419 Rain 27 1006 89 0 1.24 335.07 14:19 11.10.2019
6420 Rain 27 1006 89 0 1.24 335.07 13:43 11.10.2019
6421 Clouds 27 1013 74 10000 2.1 270 13:24 11.10.2019
6422 Clouds 27 1013 74 10000 2.1 270 12:56 11.10.2019
6423 Clouds 27 1013 74 10000 2.1 270 12:38 11.10.2019
6424 Clouds 27 1013 74 10000 2.1 270 12:20 11.10.2019
6425 Clouds 25 1013 83 10000 2.1 170 11:57 11.10.2019
6426 Clouds 25 1013 83 10000 2.1 170 11:38 11.10.2019
6427 Clouds 25 1013 83 10000 2.1 170 11:20 11.10.2019
6428 Clouds 24 1013 83 10000 2.05 299.814 10:42 11.10.2019
6429 Clouds 24 1013 83 10000 2.05 299.814 10:23 11.10.2019
6430 Clouds 22 1013 94 8000 2.05 299.814 09:59 11.10.2019
6431 Clouds 22 1013 94 8000 1.76 308.339 09:40 11.10.2019
6432 Clouds 22 1013 94 8000 0.7 336.054 09:20 11.10.2019
6433 Rain 21 1012 96 0 0.7 336.054 08:56 11.10.2019
6434 Rain 21 1012 96 0 0.7 336.054 08:37 11.10.2019
6435 Rain 21 1012 96 0 0.7 336.054 08:19 11.10.2019
6436 Rain 21 1012 96 0 0.7 336.054 07:51 11.10.2019
6437 Rain 21 1012 96 0 0.7 336.054 07:33 11.10.2019
6438 Rain 21 1012 96 0 0.7 336.054 06:49 11.10.2019
6439 Rain 21 1012 96 0 0.7 336.054 06:24 11.10.2019
6440 Rain 19 1010 99 0 1.06 338.44 05:41 11.10.2019
6441 Rain 19 1010 99 0 1.06 338.44 05:23 11.10.2019
6442 Rain 19 1010 99 0 1.06 338.44 04:38 11.10.2019
6443 Rain 20 1010 98 0 1.24 307.293 02:59 11.10.2019
6444 Rain 20 1009 98 0 0.88 348.181 00:52 11.10.2019
6445 Rain 20 1009 98 0 0.88 348.181 00:30 11.10.2019
6446 Rain 21 1011 98 0 0.9 283.713 23:50 10.10.2019
6447 Rain 21 1011 98 0 0.9 283.713 23:24 10.10.2019
6448 Rain 21 1011 98 0 0.9 283.713 22:59 10.10.2019
6449 Rain 21 1011 98 0 0.9 283.713 22:40 10.10.2019
6450 Rain 21 1011 98 0 0.9 283.713 22:21 10.10.2019
6451 Rain 21 1011 98 0 0.9 283.713 22:21 10.10.2019
6452 Rain 21 1011 98 0 0.9 283.713 22:21 10.10.2019
6453 Rain 21 1011 98 0 0.9 283.713 22:21 10.10.2019
6454 Rain 21 1011 98 0 0.9 283.713 21:59 10.10.2019
6455 Rain 21 1011 98 0 0.9 283.713 21:40 10.10.2019
6456 Rain 21 1011 98 0 0.9 283.713 21:40 10.10.2019
6457 Rain 20 1012 100 6000 2.1 30 21:22 10.10.2019
6458 Rain 20 1012 100 6000 2.1 30 20:57 10.10.2019
6459 Rain 20 1012 100 6000 2.1 30 20:39 10.10.2019
6460 Rain 20 1012 100 6000 2.1 30 20:19 10.10.2019
6461 Rain 20 1013 100 6000 3.1 50 19:54 10.10.2019
6462 Rain 20 1013 100 6000 3.1 50 19:36 10.10.2019
6463 Rain 20 1013 100 6000 3.1 50 19:18 10.10.2019
6464 Rain 22 1009 95 0 1.07 209.805 18:41 10.10.2019
6465 Clouds 29 1006 62 0 0.91 235.801 18:20 10.10.2019
6466 Clouds 29 1006 62 0 0.91 235.801 17:56 10.10.2019
6467 Clouds 29 1006 62 0 0.91 235.801 17:37 10.10.2019
6468 Clouds 29 1006 62 0 0.91 235.801 17:18 10.10.2019
6469 Clouds 29 1006 62 0 0.91 235.801 16:48 10.10.2019
6470 Clouds 29 1006 62 0 0.91 235.801 16:26 10.10.2019
6471 Clouds 29 1006 62 0 0.91 235.801 15:58 10.10.2019
6472 Clouds 29 1006 62 0 0.91 235.801 15:38 10.10.2019
6473 Clouds 29 1009 70 10000 4.1 280 15:20 10.10.2019
6474 Clouds 29 1009 70 10000 4.1 280 14:55 10.10.2019
6475 Clouds 30 1006 54 0 1.66 283.357 14:36 10.10.2019
6476 Clouds 30 1010 66 10000 4.1 330 14:18 10.10.2019
6477 Clouds 30 1010 66 10000 4.1 330 13:46 10.10.2019
6478 Clouds 30 1010 66 10000 4.1 330 13:27 10.10.2019
6479 Clouds 29 1011 70 10000 4.1 270 12:59 10.10.2019
6480 Clouds 32 1006 51 0 1.23 302.834 12:40 10.10.2019
6481 Clouds 27 1012 78 10000 3.1 250 12:20 10.10.2019
6482 Clouds 27 1012 78 10000 3.1 250 11:58 10.10.2019
6483 Clouds 25 1011 80 0 0.57 256.061 11:38 10.10.2019
6484 Clouds 26 1013 83 7000 3.1 270 11:19 10.10.2019
6485 Clouds 26 1013 83 7000 3.1 270 10:45 10.10.2019
6486 Clouds 26 1013 83 7000 3.1 270 10:26 10.10.2019
6487 Clouds 25 1011 80 0 0.57 256.061 09:58 10.10.2019
6488 Clouds 25 1011 80 0 0.57 256.061 09:39 10.10.2019
6489 Clouds 23 1012 87 0 1.34 83.646 09:21 10.10.2019
6490 Rain 23 1012 89 0 1.39 78.86 08:57 10.10.2019
6491 Rain 23 1012 89 0 1.39 78.86 08:38 10.10.2019
6492 Rain 23 1012 89 0 1.39 78.86 08:19 10.10.2019
6493 Rain 23 1012 89 0 1.39 78.86 08:19 10.10.2019
6494 Rain 23 1012 89 0 1.39 78.86 07:45 10.10.2019
6495 Rain 23 1012 89 0 1.39 78.86 07:22 10.10.2019
6496 Rain 23 1012 89 0 1.39 78.86 06:49 10.10.2019
6497 Rain 23 1012 89 0 1.39 78.86 06:29 10.10.2019
6498 Clouds 21 1009 90 0 0.77 288.082 05:28 10.10.2019
6499 Clouds 21 1009 90 0 0.77 288.082 05:28 10.10.2019
6500 Clouds 21 1009 90 0 0.77 288.082 04:54 10.10.2019
6501 Clouds 21 1009 90 0 0.77 288.082 04:33 10.10.2019
6502 Clear 22 1008 88 0 0.66 230.662 01:50 10.10.2019
6503 Clear 22 1008 90 0 0.47 253.487 01:30 10.10.2019
6504 Clear 22 1008 90 0 0.47 253.487 01:00 10.10.2019
6505 Clear 22 1008 90 0 0.47 253.487 00:24 10.10.2019
6506 Clear 22 1010 86 0 0.69 233.715 23:41 09.10.2019
6507 Clear 22 1010 86 0 0.69 233.715 23:23 09.10.2019
6508 Clear 22 1010 86 0 0.69 233.715 22:59 09.10.2019
6509 Clear 22 1010 86 0 0.69 233.715 22:40 09.10.2019
6510 Clear 22 1010 86 0 0.69 233.715 22:22 09.10.2019
6511 Clear 22 1010 86 0 0.69 233.715 21:41 09.10.2019
6512 Clouds 23 1008 84 0 0.17 212.112 21:21 09.10.2019
6513 Clouds 23 1008 83 0 0.16 195.385 20:56 09.10.2019
6514 Clouds 23 1008 83 0 0.16 195.385 20:38 09.10.2019
6515 Clouds 23 1008 83 0 0.16 195.385 20:19 09.10.2019
6516 Clouds 23 1008 83 0 0.16 195.385 19:58 09.10.2019
6517 Clouds 23 1008 83 0 0.16 195.385 19:40 09.10.2019
6518 Clouds 23 1008 83 0 0.16 195.385 19:22 09.10.2019
6519 Clouds 23 1008 83 0 0.16 195.385 19:22 09.10.2019
6520 Clouds 23 1008 83 0 0.16 195.385 18:38 09.10.2019
6521 Clouds 23 1008 83 0 0.16 195.385 18:38 09.10.2019
6522 Clouds 29 1006 62 0 0.56 271.424 18:20 09.10.2019
6523 Clouds 29 1006 62 0 0.56 271.424 17:58 09.10.2019
6524 Clouds 29 1006 62 0 0.56 271.424 17:37 09.10.2019
6525 Clouds 29 1006 62 0 0.56 271.424 17:37 09.10.2019
6526 Clouds 29 1006 62 0 0.56 271.424 17:19 09.10.2019
6527 Clouds 29 1006 62 0 0.56 271.424 16:56 09.10.2019
6528 Clouds 29 1006 62 0 0.56 271.424 16:37 09.10.2019
6529 Clouds 29 1006 62 0 0.56 271.424 16:18 09.10.2019
6530 Clouds 29 1006 62 0 0.56 271.424 15:55 09.10.2019
6531 Clouds 29 1006 62 0 0.56 271.424 15:37 09.10.2019
6532 Clouds 31 1007 51 0 1.28 15.452 15:18 09.10.2019
6533 Clouds 31 1007 51 0 1.28 15.452 14:44 09.10.2019
6534 Clouds 31 1007 51 0 1.28 15.452 14:19 09.10.2019
6535 Clouds 31 1007 51 0 1.28 15.452 13:59 09.10.2019
6536 Clouds 31 1007 51 0 1.28 15.452 13:37 09.10.2019
6537 Rain 29 1008 57 0 1.94 7.905 13:18 09.10.2019
6538 Rain 29 1008 57 0 1.94 7.905 12:43 09.10.2019
6539 Clouds 26 1013 70 0 1.94 10.471 12:22 09.10.2019
6540 Clouds 26 1013 70 0 1.94 10.471 12:22 09.10.2019
6541 Clouds 26 1013 70 0 1.94 10.471 11:58 09.10.2019
6542 Clouds 26 1013 70 0 1.94 10.471 11:39 09.10.2019
6543 -273 0 0 0 0 0 11:20 09.10.2019
6544 Clouds 26 1013 70 0 1.94 10.471 10:57 09.10.2019
6545 Clouds 26 1013 70 0 1.94 10.471 10:57 09.10.2019
6546 Clouds 26 1013 70 0 1.94 10.471 10:39 09.10.2019
6547 Clouds 24 1013 88 7000 3.1 330 10:18 09.10.2019
6548 Clouds 24 1013 88 7000 3.1 330 09:42 09.10.2019
6549 Clouds 24 1013 88 7000 3.1 330 09:20 09.10.2019
6550 Rain 22 1013 89 0 1.82 13.761 08:57 09.10.2019
6551 Rain 21 1014 95 0 2.35 10.774 08:37 09.10.2019
6552 Rain 21 1014 95 0 2.35 10.774 08:18 09.10.2019
6553 Rain 21 1014 95 0 2.35 10.774 07:46 09.10.2019
6554 Rain 21 1014 95 0 2.35 10.774 07:24 09.10.2019
6555 Rain 21 1014 95 0 2.35 10.774 07:24 09.10.2019
6556 Rain 21 1014 95 0 2.35 10.774 06:54 09.10.2019
6557 Clouds 20 1010 97 0 0.96 44.579 06:20 09.10.2019
6558 Clouds 20 1010 97 0 0.96 44.579 05:46 09.10.2019
6559 Clouds 20 1010 97 0 0.96 44.579 04:41 09.10.2019
6560 Clouds 20 1010 98 0 0.56 65.903 03:24 09.10.2019
6561 Clouds 20 1010 98 0 0.56 65.903 01:48 09.10.2019
6562 Clouds 20 1010 99 0 0.69 66.475 01:22 09.10.2019
6563 Clouds 20 1010 99 0 0.69 66.475 00:59 09.10.2019
6564 Clouds 20 1010 99 0 0.69 66.475 00:40 09.10.2019
6565 Clouds 20 1011 99 0 0.22 39.533 00:22 09.10.2019
6566 Clouds 20 1011 99 0 0.22 39.533 23:57 08.10.2019
6567 Clouds 20 1011 99 0 0.22 39.533 23:37 08.10.2019
6568 Clouds 20 1011 99 0 0.22 39.533 23:18 08.10.2019
6569 Clouds 20 1011 99 0 0.22 39.533 22:39 08.10.2019
6570 Clouds 20 1011 99 0 0.22 39.533 22:20 08.10.2019
6571 Clouds 20 1011 99 0 0.22 39.533 22:20 08.10.2019
6572 Clouds 20 1011 99 0 0.22 39.533 22:20 08.10.2019
6573 Clouds 20 1011 99 0 0.22 39.533 22:20 08.10.2019
6574 Clouds 20 1011 99 0 0.22 39.533 21:58 08.10.2019
6575 Clouds 20 1011 99 0 0.22 39.533 21:39 08.10.2019
6576 Clouds 21 1010 98 0 0.77 287.376 21:19 08.10.2019
6577 Clouds 21 1010 98 0 0.77 287.376 20:57 08.10.2019
6578 Clouds 21 1010 98 0 0.77 287.376 20:57 08.10.2019
6579 Clouds 21 1010 98 0 0.77 287.376 20:57 08.10.2019
6580 Clouds 21 1010 98 0 0.58 300.795 20:39 08.10.2019
6581 Clouds 21 1010 98 0 0.58 300.795 20:21 08.10.2019
6582 Clouds 21 1010 98 0 0.58 300.795 19:58 08.10.2019
6583 Clouds 21 1010 98 0 0.58 300.795 19:58 08.10.2019
6584 Clouds 21 1010 98 0 0.58 300.795 19:40 08.10.2019
6585 Clouds 21 1010 98 0 0.58 300.795 19:22 08.10.2019
6586 Clouds 21 1010 98 0 0.58 300.795 18:55 08.10.2019
6587 Clouds 21 1010 98 0 0.58 300.795 18:55 08.10.2019
6588 Clouds 21 1010 98 0 0.58 300.795 18:36 08.10.2019
6589 Clouds 25 1007 79 0 1.58 289.216 18:18 08.10.2019
6590 Clouds 25 1007 79 0 1.58 289.216 17:40 08.10.2019
6591 Clouds 25 1007 79 0 1.58 289.216 17:21 08.10.2019
6592 Clouds 25 1007 79 0 1.58 289.216 16:58 08.10.2019
6593 Clouds 25 1007 79 0 1.58 289.216 16:39 08.10.2019
6594 Clouds 25 1007 79 0 1.58 289.216 16:21 08.10.2019
6595 Clouds 25 1007 79 0 1.58 289.216 15:41 08.10.2019
6596 Clouds 23 1011 88 10000 4.1 270 15:21 08.10.2019
6597 Clouds 23 1011 88 10000 4.1 270 14:58 08.10.2019
6598 Clouds 23 1011 88 10000 4.1 270 14:39 08.10.2019
6599 Clouds 23 1011 88 10000 4.1 270 14:20 08.10.2019
6600 Clouds 23 1012 88 9000 2.1 260 13:57 08.10.2019
6601 Clouds 23 1012 88 9000 2.1 260 13:38 08.10.2019
6602 Clouds 23 1012 88 9000 2.1 260 13:19 08.10.2019
6603 Clouds 23 1012 88 9000 2.1 260 13:19 08.10.2019
6604 Rain 25 1009 78 0 1.92 294.008 12:58 08.10.2019
6605 Rain 25 1009 78 0 1.92 294.008 12:37 08.10.2019
6606 Rain 22 1013 98 0 0.76 297.006 12:18 08.10.2019
6607 Rain 22 1013 98 0 0.76 297.006 11:41 08.10.2019
6608 Rain 22 1013 98 0 0.76 297.006 11:41 08.10.2019
6609 Thunderstorm 20 1014 100 4000 3.1 280 11:23 08.10.2019
6610 Thunderstorm 20 1014 100 4000 3.1 280 10:56 08.10.2019
6611 Thunderstorm 20 1014 100 4000 3.1 280 10:37 08.10.2019
6612 Thunderstorm 20 1014 100 4000 3.1 280 10:19 08.10.2019
6613 Rain 22 1013 98 0 0.76 297.006 09:55 08.10.2019
6614 Rain 22 1013 98 0 0.76 297.006 09:37 08.10.2019
6615 Rain 21 1013 99 0 0.67 25.537 09:19 08.10.2019
6616 Rain 22 1013 99 0 0.35 301.885 08:42 08.10.2019
6617 Rain 22 1013 99 0 0.35 301.885 08:23 08.10.2019
6618 Rain 22 1013 99 0 0.35 301.885 08:23 08.10.2019
6619 Rain 22 1013 99 0 0.35 301.885 07:44 08.10.2019
6620 Rain 22 1013 99 0 0.35 301.885 07:21 08.10.2019
6621 Rain 22 1013 99 0 0.35 301.885 06:51 08.10.2019
6622 Rain 22 1013 99 0 0.35 301.885 06:28 08.10.2019
6623 Rain 21 1009 99 0 0.67 339.603 05:46 08.10.2019
6624 Rain 21 1009 99 0 0.67 339.603 05:26 08.10.2019
6625 Rain 21 1009 99 0 0.67 339.603 04:31 08.10.2019
6626 Rain 21 1009 99 0 0.67 339.603 03:27 08.10.2019
6627 Rain 21 1008 99 0 2.52 272.551 02:36 08.10.2019
6628 Rain 21 1008 99 0 2.52 272.551 01:47 08.10.2019
6629 Rain 21 1008 99 0 1.8 267.831 01:27 08.10.2019
6630 Rain 21 1008 99 0 1.8 267.831 00:46 08.10.2019
6631 Rain 22 1008 97 0 1.15 257.477 00:21 08.10.2019
6632 Rain 22 1008 97 0 1.15 257.477 23:40 07.10.2019
6633 Rain 22 1008 97 0 1.15 257.477 23:20 07.10.2019
6634 Rain 22 1008 97 0 1.15 257.477 22:56 07.10.2019
6635 Rain 22 1008 97 0 1.15 257.477 22:56 07.10.2019
6636 Rain 22 1008 97 0 1.15 257.477 22:38 07.10.2019
6637 Rain 22 1008 97 0 1.15 257.477 22:38 07.10.2019
6638 Rain 22 1008 97 0 1.15 257.477 22:20 07.10.2019
6639 Rain 22 1008 97 0 1.15 257.477 21:56 07.10.2019
6640 Rain 22 1008 97 0 1.15 257.477 21:56 07.10.2019
6641 Rain 22 1008 97 0 1.15 257.477 21:38 07.10.2019
6642 Rain 23 1006 91 0 1.31 182.491 21:20 07.10.2019
6643 Rain 23 1007 94 0 0.84 232.137 20:57 07.10.2019
6644 Rain 23 1007 94 0 0.84 232.137 20:39 07.10.2019
6645 Rain 23 1007 94 0 0.84 232.137 20:20 07.10.2019
6646 Rain 23 1007 94 0 0.84 232.137 19:57 07.10.2019
6647 Rain 23 1007 94 0 0.84 232.137 19:39 07.10.2019
6648 Clouds 30 1007 62 10000 0.84 232.137 19:18 07.10.2019
6649 Clouds 30 1007 62 10000 0.84 232.137 18:56 07.10.2019
6650 Clouds 30 1007 62 10000 0.84 232.137 18:38 07.10.2019
6651 Clouds 30 1007 62 10000 1.99 229.667 18:18 07.10.2019
6652 Clouds 32 1007 55 10000 1.99 229.667 17:42 07.10.2019
6653 Clouds 32 1007 55 10000 1.99 229.667 17:20 07.10.2019
6654 Rain 25 1004 93 0 1.99 229.667 16:56 07.10.2019
6655 Rain 25 1004 93 0 1.99 229.667 16:38 07.10.2019
6656 Clouds 32 1008 62 10000 2.1 60 16:19 07.10.2019
6657 Clouds 32 1008 62 10000 2.1 60 15:43 07.10.2019
6658 Clouds 32 1008 62 10000 2.1 60 15:25 07.10.2019
6659 Clouds 31 1005 52 0 0.91 16.82 14:43 07.10.2019
6660 Clouds 30 1010 62 10000 3.1 360 14:24 07.10.2019
6661 Clouds 30 1010 62 10000 3.1 360 14:24 07.10.2019
6662 Clouds 30 1010 62 10000 3.1 360 13:59 07.10.2019
6663 Clouds 31 1005 52 0 0.91 16.82 13:41 07.10.2019
6664 Clouds 34 1005 42 0 1.06 335.718 13:19 07.10.2019
6665 Clouds 34 1005 42 0 1.06 335.718 12:55 07.10.2019
6666 Clouds 34 1005 42 0 1.06 335.718 12:37 07.10.2019
6667 Clouds 28 1013 65 10000 2.1 60 12:18 07.10.2019
6668 Clouds 28 1013 65 10000 2.1 60 11:56 07.10.2019
6669 Clouds 28 1013 65 10000 2.1 60 11:37 07.10.2019
6670 Clouds 28 1013 65 10000 2.1 60 11:18 07.10.2019
6671 Clouds 32 1010 53 0 1 22.218 10:41 07.10.2019
6672 Clouds 32 1010 53 0 1 22.218 10:41 07.10.2019
6673 Clouds 32 1010 53 0 1 22.218 10:20 07.10.2019
6674 Clouds 32 1010 53 0 1 22.218 09:42 07.10.2019
6675 Clouds 21 1013 94 6000 0.86 9.462 09:24 07.10.2019
6676 Clouds 21 1013 94 6000 0.86 9.462 08:57 07.10.2019
6677 Rain 23 1012 95 0 1.2 347.892 08:39 07.10.2019
6678 Rain 23 1012 95 0 1.2 347.892 08:19 07.10.2019
6679 Rain 23 1012 95 0 1.2 347.892 07:41 07.10.2019
6680 Rain 23 1012 95 0 1.2 347.892 07:23 07.10.2019
6681 Rain 23 1012 95 0 1.2 347.892 06:54 07.10.2019
6682 Rain 23 1012 95 0 1.2 347.892 06:34 07.10.2019
6683 Rain 21 1009 99 0 1 325.192 05:49 07.10.2019
6684 Rain 21 1009 99 0 1 325.192 05:23 07.10.2019
6685 Rain 21 1009 99 0 1 325.192 04:28 07.10.2019
6686 Rain 21 1009 99 0 1 325.192 03:45 07.10.2019
6687 Rain 22 1009 98 0 1.49 63.625 03:23 07.10.2019
6688 Rain 22 1009 98 0 1.49 63.625 02:23 07.10.2019
6689 Rain 22 1009 98 0 1.49 63.625 01:52 07.10.2019
6690 Clouds 21 1009 94 0 0.61 312.28 01:22 07.10.2019
6691 Clouds 21 1009 94 0 0.61 312.28 00:41 07.10.2019
6692 Clouds 22 1009 94 0 0.51 281.31 00:22 07.10.2019
6693 Clouds 22 1009 94 0 0.51 281.31 23:54 06.10.2019
6694 Clouds 22 1009 94 0 0.51 281.31 23:36 06.10.2019
6695 Clouds 22 1009 94 0 0.51 281.31 23:18 06.10.2019
6696 Clouds 22 1009 94 0 0.51 281.31 22:41 06.10.2019
6697 Clouds 22 1009 94 0 0.51 281.31 22:22 06.10.2019
6698 Clouds 22 1009 94 0 0.51 281.31 21:58 06.10.2019
6699 Clouds 22 1009 94 0 0.51 281.31 21:38 06.10.2019
6700 Rain 23 1009 88 0 0.92 295.45 21:19 06.10.2019
6701 Rain 23 1009 88 0 0.92 295.45 20:58 06.10.2019
6702 Rain 23 1009 92 0 1.38 327.049 20:40 06.10.2019
6703 Rain 23 1009 92 0 1.38 327.049 20:21 06.10.2019
6704 Rain 23 1009 92 0 1.38 327.049 19:58 06.10.2019
6705 Rain 23 1009 92 0 1.38 327.049 19:38 06.10.2019
6706 Clouds 21 1010 100 7000 3.1 30 19:20 06.10.2019
6707 Clouds 21 1010 100 7000 3.1 30 19:20 06.10.2019
6708 Clouds 21 1010 100 7000 3.1 30 18:57 06.10.2019
6709 Clouds 21 1010 100 7000 3.1 30 18:39 06.10.2019
6710 Clouds 21 1010 100 7000 3.1 30 18:20 06.10.2019
6711 Clouds 21 1009 100 7000 3.1 30 17:59 06.10.2019
6712 Clouds 21 1009 100 7000 3.1 30 17:39 06.10.2019
6713 Clouds 21 1009 100 7000 3.1 30 17:19 06.10.2019
6714 Rain 29 1005 72 0 1.15 316.697 16:43 06.10.2019
6715 Rain 29 1005 72 0 1.15 316.697 16:24 06.10.2019
6716 Rain 29 1005 72 0 1.15 316.697 15:59 06.10.2019
6717 Rain 29 1005 72 0 1.15 316.697 15:41 06.10.2019
6718 Clouds 31 1006 53 0 1.55 268.894 15:18 06.10.2019
6719 Clouds 31 1006 53 0 1.55 268.894 14:43 06.10.2019
6720 Clouds 31 1006 53 0 1.55 268.894 14:24 06.10.2019
6721 Clouds 31 1006 53 0 1.55 268.894 13:58 06.10.2019
6722 Clouds 31 1006 53 0 1.55 268.894 13:39 06.10.2019
6723 Thunderstorm 28 1012 74 7000 3.1 310 13:21 06.10.2019
6724 Thunderstorm 28 1012 74 7000 3.1 310 12:57 06.10.2019
6725 Thunderstorm 28 1012 74 7000 3.1 310 12:39 06.10.2019
6726 Thunderstorm 28 1012 74 7000 3.1 310 12:20 06.10.2019
6727 Thunderstorm 28 1012 74 7000 3.1 310 12:20 06.10.2019
6728 Thunderstorm 28 1013 69 8000 3.1 130 11:57 06.10.2019
6729 Thunderstorm 28 1013 69 8000 3.1 130 11:38 06.10.2019
6730 Thunderstorm 28 1013 69 8000 3.1 130 11:20 06.10.2019
6731 Clouds 27 1013 78 9000 3.1 330 10:44 06.10.2019
6732 Clouds 27 1013 78 9000 3.1 330 10:44 06.10.2019
6733 Clouds 27 1013 78 8000 3.1 30 10:25 06.10.2019
6734 Clouds 27 1013 78 8000 3.1 30 09:58 06.10.2019
6735 Clouds 27 1013 78 8000 3.1 30 09:39 06.10.2019
6736 Clouds 27 1013 78 8000 3.1 30 09:18 06.10.2019
6737 Clouds 24 1012 84 0 0.24 15.745 08:43 06.10.2019
6738 Clouds 24 1012 84 0 0.37 12.879 08:21 06.10.2019
6739 Clouds 24 1012 84 0 0.37 12.879 07:44 06.10.2019
6740 Clouds 24 1012 84 0 0.37 12.879 07:19 06.10.2019
6741 Clouds 20 1009 97 0 0.41 59.012 06:20 06.10.2019
6742 Clouds 20 1009 97 0 0.41 59.012 05:34 06.10.2019
6743 Clouds 20 1009 97 0 0.41 59.012 03:56 06.10.2019
6744 Clouds 21 1010 98 0 0.73 101.124 02:43 06.10.2019
6745 Clouds 21 1010 98 0 0.73 101.124 02:22 06.10.2019
6746 Clouds 21 1010 98 0 0.73 101.124 01:45 06.10.2019
6747 Clouds 21 1009 97 0 0.65 84.518 01:27 06.10.2019
6748 Clouds 21 1009 97 0 0.65 84.518 00:53 06.10.2019
6749 Rain 21 1010 96 0 0.74 87.134</